# Wetter Temperatur Luftdruck Luftfeuchtigkeit Sichtweite Windgeschwindigkeit Windrichtung Zeit
1 Clear 24 1015 73 10000 4.1 20 05:22 11.07.2020
2 Clear 24 1015 73 10000 4.1 20 04:55 11.07.2020
3 Clear 23 1015 73 10000 3.6 20 04:32 11.07.2020
4 Clear 23 1015 78 10000 2.1 20 03:24 11.07.2020
5 Clear 24 1016 73 10000 2.6 350 02:38 11.07.2020
6 Clouds 24 1016 73 10000 1.5 360 01:49 11.07.2020
7 Clouds 25 1016 73 10000 1.5 70 01:18 11.07.2020
8 Clouds 25 1016 73 10000 1 0 00:41 11.07.2020
9 Clouds 25 1016 73 10000 0.5 0 00:22 11.07.2020
10 Clouds 25 1016 73 10000 0.5 0 23:57 10.07.2020
11 Clouds 26 1016 73 10000 2.1 210 23:39 10.07.2020
12 Clouds 26 1016 73 10000 2.1 210 23:20 10.07.2020
13 Clouds 26 1016 74 10000 1.5 200 22:46 10.07.2020
14 Clouds 26 1016 74 10000 1.5 200 22:22 10.07.2020
15 Clouds 27 1015 74 10000 3.6 210 21:58 10.07.2020
16 Clouds 27 1015 74 10000 5.7 220 21:38 10.07.2020
17 Clouds 27 1015 74 10000 5.7 220 21:19 10.07.2020
18 Clouds 29 1014 61 10000 7.2 220 20:43 10.07.2020
19 Clouds 31 1014 43 10000 4.6 220 20:24 10.07.2020
20 Clouds 33 1013 36 10000 3.1 120 19:59 10.07.2020
21 Clouds 32 1013 36 10000 3.1 120 19:41 10.07.2020
22 Clouds 34 1013 30 10000 3.6 100 19:21 10.07.2020
23 Clouds 33 1014 41 10000 2.6 250 18:54 10.07.2020
24 Clouds 33 1014 41 10000 2.6 250 18:36 10.07.2020
25 Clouds 33 1014 43 10000 2.6 210 18:18 10.07.2020
26 Clouds 32 1015 49 10000 2.6 210 17:41 10.07.2020
27 Clouds 32 1015 49 10000 2.6 210 17:22 10.07.2020
28 Clouds 31 1015 55 10000 4.1 230 16:57 10.07.2020
29 Clouds 31 1015 58 10000 3.1 220 16:38 10.07.2020
30 Clouds 31 1015 58 10000 6.2 190 16:18 10.07.2020
31 Clouds 32 1015 36 10000 3.1 160 15:43 10.07.2020
32 Clouds 32 1015 36 10000 3.1 160 15:20 10.07.2020
33 Clouds 30 1015 48 10000 5.7 50 14:43 10.07.2020
34 Clouds 30 1015 48 10000 5.7 50 14:23 10.07.2020
35 Clouds 28 1016 54 10000 4.1 20 13:58 10.07.2020
36 Clouds 28 1017 54 10000 2.1 130 13:40 10.07.2020
37 Clouds 27 1017 65 10000 3.6 210 13:22 10.07.2020
38 Clouds 27 1017 65 10000 3.6 210 12:59 10.07.2020
39 Clouds 28 1017 51 10000 3.1 170 12:41 10.07.2020
40 Clouds 29 1017 45 10000 4.6 170 12:22 10.07.2020
41 Clouds 29 1017 45 10000 4.6 170 11:57 10.07.2020
42 Clouds 29 1014 48 10000 9.3 70 11:38 10.07.2020
43 Clouds 29 1015 48 10000 4.6 90 11:18 10.07.2020
44 Clouds 29 1015 42 10000 3.1 50 10:41 10.07.2020
45 Clouds 29 1015 42 10000 3.1 50 10:21 10.07.2020
46 Clouds 28 1015 42 10000 3.1 50 09:55 10.07.2020
47 Clouds 27 1015 47 10000 3.6 80 09:36 10.07.2020
48 Clouds 26 1014 54 10000 3.6 30 09:18 10.07.2020
49 Clouds 25 1015 57 10000 3.6 60 08:54 10.07.2020
50 Clouds 25 1015 57 10000 3.6 60 08:36 10.07.2020
51 Clouds 25 1015 53 10000 2.1 40 08:18 10.07.2020
52 Clouds 25 1015 50 10000 2.6 100 07:41 10.07.2020
53 Clouds 25 1015 50 10000 2.6 90 07:20 10.07.2020
54 Clouds 26 1015 47 10000 2.6 270 06:45 10.07.2020
55 Clouds 25 1014 44 10000 2.1 220 05:55 10.07.2020
56 Clouds 24 1016 50 10000 3.6 80 04:32 10.07.2020
57 Clouds 24 1017 60 10000 1 0 03:31 10.07.2020
58 Clouds 24 1017 53 10000 1.5 10 02:51 10.07.2020
59 Clouds 24 1017 53 10000 2.6 80 01:48 10.07.2020
60 Clouds 25 1016 53 10000 4.1 50 00:47 10.07.2020
61 Clear 25 1017 47 10000 2.6 50 00:19 10.07.2020
62 Clear 25 1016 47 10000 1 0 23:46 09.07.2020
63 Clear 25 1016 47 10000 1 0 23:21 09.07.2020
64 Clear 26 1016 44 10000 1.5 110 22:58 09.07.2020
65 Clear 27 1016 47 10000 3.1 110 22:40 09.07.2020
66 Clear 27 1016 47 10000 3.1 110 22:21 09.07.2020
67 Clear 27 1016 47 10000 4.1 130 21:56 09.07.2020
68 Clear 28 1016 45 10000 3.1 130 21:38 09.07.2020
69 Clouds 28 1016 48 10000 4.6 150 21:19 09.07.2020
70 Clouds 29 1014 42 10000 6.7 100 20:44 09.07.2020
71 Clouds 29 1014 42 10000 6.7 100 20:25 09.07.2020
72 Clouds 30 1014 45 10000 6.7 70 19:58 09.07.2020
73 Clouds 30 1015 42 10000 6.2 70 19:40 09.07.2020
74 Clouds 30 1015 45 10000 5.7 80 19:21 09.07.2020
75 Clouds 31 1016 40 10000 5.7 70 18:42 09.07.2020
76 Clouds 30 1016 51 10000 3.1 110 18:22 09.07.2020
77 Clouds 30 1016 51 10000 3.1 110 18:22 09.07.2020
78 Clouds 29 1016 51 10000 3.1 110 17:56 09.07.2020
79 Clear 30 1017 51 10000 3.1 150 17:38 09.07.2020
80 Clear 30 1017 51 10000 3.1 200 17:19 09.07.2020
81 Clear 30 1017 51 10000 3.1 200 16:55 09.07.2020
82 Clear 28 1018 69 10000 6.2 210 16:37 09.07.2020
83 Clear 29 1018 62 10000 7.2 200 16:19 09.07.2020
84 Clear 29 1018 62 10000 7.2 200 15:55 09.07.2020
85 Clear 29 1018 61 10000 7.7 200 15:36 09.07.2020
86 Clear 31 1017 41 10000 3.1 180 15:18 09.07.2020
87 Clear 32 1017 41 10000 3.1 180 14:57 09.07.2020
88 Clear 31 1018 40 10000 3.6 170 14:38 09.07.2020
89 Clouds 31 1018 43 10000 6.2 200 14:19 09.07.2020
90 Clouds 31 1018 45 10000 4.6 220 13:41 09.07.2020
91 Clouds 32 1018 45 10000 4.6 220 13:21 09.07.2020
92 Clouds 32 1018 31 10000 2.1 0 12:59 09.07.2020
93 Clouds 32 1017 33 10000 4.6 50 12:39 09.07.2020
94 Clouds 31 1016 37 10000 8.2 70 12:20 09.07.2020
95 Clouds 30 1016 37 10000 8.2 70 11:55 09.07.2020
96 Clouds 30 1017 37 10000 3.6 80 11:37 09.07.2020
97 Clouds 29 1017 37 10000 3.6 80 11:18 09.07.2020
98 Clouds 28 1018 45 10000 2.1 140 10:42 09.07.2020
99 Clouds 28 1018 45 10000 2.1 140 10:24 09.07.2020
100 Clouds 27 1018 47 10000 1 0 09:59 09.07.2020
101 Clouds 27 1018 50 10000 1 0 09:41 09.07.2020
102 Clouds 26 1018 50 10000 1 0 09:21 09.07.2020
103 Clouds 24 1018 60 10000 1.5 20 08:45 09.07.2020
104 Clouds 23 1018 60 10000 1.5 20 08:25 09.07.2020
105 Clouds 22 1018 64 10000 3.1 350 07:47 09.07.2020
106 Clouds 22 1018 64 10000 3.1 350 07:25 09.07.2020
107 Clouds 21 1017 68 10000 2.1 70 06:55 09.07.2020
108 Clouds 22 1017 64 10000 1 0 06:20 09.07.2020
109 Clouds 22 1017 68 10000 1.5 360 05:37 09.07.2020
110 Clouds 23 1016 60 10000 2.1 360 04:28 09.07.2020
111 Clouds 23 1017 64 10000 3.1 40 02:33 09.07.2020
112 Clouds 24 1018 60 10000 2.6 40 01:39 09.07.2020
113 Clouds 25 1018 57 10000 1.5 30 00:55 09.07.2020
114 Clouds 25 1018 61 10000 1.5 340 00:25 09.07.2020
115 Clouds 25 1018 61 10000 1.5 340 23:58 08.07.2020
116 Clouds 25 1019 61 10000 2.6 320 23:39 08.07.2020
117 Clear 25 1019 65 10000 3.6 330 23:21 08.07.2020
118 Clear 26 1019 61 10000 4.6 330 22:54 08.07.2020
119 Clear 26 1019 61 10000 4.6 330 22:36 08.07.2020
120 Clear 26 1019 61 10000 3.6 310 22:18 08.07.2020
121 Clear 26 1018 61 10000 3.6 230 21:39 08.07.2020
122 Clear 27 1018 61 10000 3.6 230 21:21 08.07.2020
123 Clear 27 1017 54 10000 5.1 220 20:58 08.07.2020
124 Clear 27 1017 54 10000 5.1 220 20:39 08.07.2020
125 Clear 27 1017 57 10000 5.7 220 20:21 08.07.2020
126 Clear 28 1017 54 10000 5.7 220 19:43 08.07.2020
127 Clear 29 1017 54 10000 4.6 210 19:25 08.07.2020
128 Clear 29 1017 54 10000 4.6 210 18:58 08.07.2020
129 Clear 29 1017 51 10000 4.1 210 18:40 08.07.2020
130 Clear 29 1017 51 10000 4.1 210 18:20 08.07.2020
131 Clear 29 1017 51 10000 4.6 200 17:56 08.07.2020
132 Clear 30 1017 45 10000 4.6 180 17:38 08.07.2020
133 Clear 30 1017 45 10000 4.6 180 17:19 08.07.2020
134 Clear 30 1018 48 10000 5.7 200 16:55 08.07.2020
135 Clear 30 1018 48 10000 7.2 200 16:36 08.07.2020
136 Clear 30 1018 48 10000 7.2 200 16:18 08.07.2020
137 Clear 30 1018 48 10000 6.7 210 15:56 08.07.2020
138 Clear 30 1018 48 10000 6.7 210 15:37 08.07.2020
139 Clear 30 1018 48 10000 6.7 200 15:18 08.07.2020
140 Clear 30 1018 48 10000 6.2 200 14:42 08.07.2020
141 Clear 30 1018 51 10000 6.2 210 14:20 08.07.2020
142 Clear 30 1018 48 10000 6.2 210 13:46 08.07.2020
143 Clear 30 1018 48 10000 6.2 210 13:27 08.07.2020
144 Clear 30 1018 42 10000 5.1 220 12:58 08.07.2020
145 Clear 30 1018 37 10000 2.6 230 12:40 08.07.2020
146 Clear 31 1018 33 10000 2.1 0 12:19 08.07.2020
147 Clear 29 1018 35 10000 2.1 0 11:39 08.07.2020
148 Clear 29 1018 37 10000 1.5 0 11:21 08.07.2020
149 Clear 29 1018 37 10000 1.5 0 10:59 08.07.2020
150 Clear 28 1018 51 10000 1.5 0 10:41 08.07.2020
151 Clear 27 1018 51 10000 1.5 0 10:23 08.07.2020
152 Clear 25 1018 69 10000 0.5 0 09:45 08.07.2020
153 Clear 25 1018 69 10000 0.5 0 09:25 08.07.2020
154 Clear 22 1018 78 10000 2.1 340 08:44 08.07.2020
155 Clear 23 1018 78 10000 2.1 340 08:25 08.07.2020
156 Clear 22 1017 83 10000 1.5 320 07:57 08.07.2020
157 Clear 21 1017 83 10000 2.1 360 07:38 08.07.2020
158 Clear 21 1017 83 10000 2.1 360 07:19 08.07.2020
159 Clear 21 1017 88 10000 2.1 340 06:43 08.07.2020
160 Clear 21 1017 83 10000 1.5 20 06:24 08.07.2020
161 Clear 21 1017 83 10000 2.6 20 05:44 08.07.2020
162 Clear 21 1017 83 10000 2.6 20 05:44 08.07.2020
163 Clear 22 1017 78 10000 0.5 0 04:44 08.07.2020
164 Clear 22 1017 83 10000 1.5 10 03:30 08.07.2020
165 Clear 23 1018 73 10000 1.5 40 02:19 08.07.2020
166 Clear 24 1018 78 10000 1 30 01:38 08.07.2020
167 Clear 24 1018 73 10000 1.5 60 00:50 08.07.2020
168 Clear 25 1017 69 8000 2.1 70 00:19 08.07.2020
169 Haze 25 1017 73 4500 1.5 110 23:43 07.07.2020
170 Clear 25 1017 73 10000 1 0 23:22 07.07.2020
171 Clear 25 1017 73 10000 1 0 22:56 07.07.2020
172 Mist 25 1017 73 5000 1.5 190 22:38 07.07.2020
173 Mist 25 1017 73 5000 1.5 190 22:19 07.07.2020
174 Clear 25 1016 73 10000 1.5 180 21:56 07.07.2020
175 Clear 26 1016 73 10000 3.6 180 21:38 07.07.2020
176 Clear 26 1016 74 10000 4.1 160 21:18 07.07.2020
177 Clear 26 1016 74 10000 5.1 170 20:42 07.07.2020
178 Clear 27 1016 69 10000 5.7 210 20:23 07.07.2020
179 Clear 27 1016 69 10000 5.7 210 19:58 07.07.2020
180 Clear 27 1016 69 10000 6.7 210 19:39 07.07.2020
181 Clear 27 1016 69 10000 6.7 210 19:39 07.07.2020
182 Clear 27 1016 65 10000 7.2 210 19:20 07.07.2020
183 Clear 28 1016 61 10000 7.7 210 18:55 07.07.2020
184 Clear 28 1016 61 10000 7.7 210 18:37 07.07.2020
185 Clear 29 1016 65 10000 7.7 210 18:19 07.07.2020
186 Clear 28 1016 65 10000 7.7 210 17:55 07.07.2020
187 Clear 28 1016 61 10000 8.2 210 17:36 07.07.2020
188 Clear 30 1016 51 10000 8.2 210 17:18 07.07.2020
189 Clear 28 1017 51 10000 8.7 210 16:42 07.07.2020
190 Clear 30 1017 51 10000 8.7 210 16:22 07.07.2020
191 Clear 30 1017 58 10000 8.2 210 15:55 07.07.2020
192 Clear 29 1017 58 10000 8.7 210 15:37 07.07.2020
193 Clear 30 1017 58 10000 7.7 210 15:18 07.07.2020
194 Clear 29 1017 58 10000 8.2 210 14:43 07.07.2020
195 Clear 29 1017 58 10000 8.2 210 14:24 07.07.2020
196 Clear 29 1017 58 10000 7.2 200 13:44 07.07.2020
197 Clear 29 1017 58 10000 6.7 200 13:21 07.07.2020
198 Clear 29 1017 58 10000 6.7 200 12:57 07.07.2020
199 Clear 28 1017 61 10000 5.1 200 12:38 07.07.2020
200 Clear 27 1017 65 10000 5.1 200 12:20 07.07.2020
201 Clear 27 1017 61 10000 4.1 210 11:44 07.07.2020
202 Clear 28 1017 61 10000 4.1 210 11:22 07.07.2020
203 Clear 27 1017 61 10000 4.1 220 10:58 07.07.2020
204 Clear 26 1017 61 10000 2.6 230 10:40 07.07.2020
205 Clear 26 1017 61 10000 2.6 230 10:21 07.07.2020
206 Clear 26 1017 65 10000 1 0 09:55 07.07.2020
207 Clear 26 1017 65 10000 1 0 09:37 07.07.2020
208 Clear 25 1017 69 10000 1 0 09:18 07.07.2020
209 Clear 24 1017 69 10000 1.5 330 08:40 07.07.2020
210 Clear 22 1017 68 10000 1.5 340 08:20 07.07.2020
211 Clear 22 1017 73 10000 1.5 360 07:39 07.07.2020
212 Clear 21 1017 68 10000 2.1 340 07:20 07.07.2020
213 Clear 21 1017 73 10000 2.1 340 06:48 07.07.2020
214 Clear 21 1017 73 10000 1.5 340 06:27 07.07.2020
215 Clear 22 1017 73 10000 1.5 340 05:47 07.07.2020
216 Clear 22 1017 64 10000 2.1 340 04:59 07.07.2020
217 Clear 22 1017 64 10000 1.5 350 04:25 07.07.2020
218 Clear 22 1017 83 10000 2.1 340 03:34 07.07.2020
219 Clear 23 1017 78 10000 0.5 0 02:18 07.07.2020
220 Clear 24 1017 73 10000 1 0 01:21 07.07.2020
221 Clear 24 1017 73 10000 1.5 80 00:42 07.07.2020
222 Clear 24 1017 73 10000 2.1 70 00:23 07.07.2020
223 Clear 24 1017 73 10000 2.1 70 00:23 07.07.2020
224 Clear 25 1017 73 10000 2.6 110 23:45 06.07.2020
225 Clear 25 1017 73 10000 2.6 110 23:26 06.07.2020
226 Clear 26 1017 69 10000 2.6 140 22:59 06.07.2020
227 Clear 26 1016 57 10000 2.1 160 22:40 06.07.2020
228 Clear 26 1016 57 10000 2.1 160 22:40 06.07.2020
229 Clear 26 1016 54 10000 2.1 180 22:19 06.07.2020
230 Clear 27 1016 54 10000 2.1 180 21:57 06.07.2020
231 Clear 27 1016 54 10000 2.1 180 21:57 06.07.2020
232 Clear 28 1016 42 10000 4.1 210 21:37 06.07.2020
233 Clear 28 1016 45 10000 4.6 210 21:19 06.07.2020
234 Clear 28 1016 45 10000 4.6 210 21:19 06.07.2020
235 Clear 29 1016 37 10000 6.2 210 20:57 06.07.2020
236 Clear 29 1016 37 10000 6.2 210 20:37 06.07.2020
237 Clear 29 1016 35 10000 6.7 210 20:19 06.07.2020
238 Clear 30 1016 33 10000 7.2 210 19:56 06.07.2020
239 Clear 30 1016 33 10000 7.2 210 19:37 06.07.2020
240 Clear 30 1016 33 10000 7.7 220 19:18 06.07.2020
241 Clear 31 1016 31 10000 8.2 220 18:41 06.07.2020
242 Clear 31 1016 31 10000 8.2 220 18:23 06.07.2020
243 Clear 31 1016 31 10000 8.2 220 17:59 06.07.2020
244 Clear 31 1016 31 10000 7.7 210 17:41 06.07.2020
245 Clear 31 1016 31 10000 7.7 210 17:41 06.07.2020
246 Clear 31 1016 31 10000 7.7 210 17:20 06.07.2020
247 Clear 31 1016 35 10000 7.7 220 16:55 06.07.2020
248 Clear 31 1016 35 10000 7.7 210 16:37 06.07.2020
249 Clear 31 1016 35 10000 7.7 210 16:18 06.07.2020
250 Clear 32 1017 33 10000 7.7 210 15:42 06.07.2020
251 Clear 32 1017 33 10000 7.7 210 15:24 06.07.2020
252 Clear 32 1017 33 10000 7.7 210 14:57 06.07.2020
253 Clear 32 1017 33 10000 7.2 220 14:37 06.07.2020
254 Clear 32 1017 38 10000 6.7 210 14:19 06.07.2020
255 Clear 31 1017 27 10000 6.7 210 13:48 06.07.2020
256 Clear 31 1017 27 10000 6.7 210 13:28 06.07.2020
257 Clear 31 1017 30 10000 5.7 220 12:58 06.07.2020
258 Clear 31 1017 40 10000 5.1 210 12:39 06.07.2020
259 Clear 33 1017 27 10000 1.5 0 12:18 06.07.2020
260 Clear 32 1017 27 10000 1.5 0 11:57 06.07.2020
261 Clear 32 1017 31 10000 1.5 160 11:37 06.07.2020
262 Clear 31 1017 35 10000 1 30 11:19 06.07.2020
263 Clear 30 1017 37 10000 0.5 200 10:43 06.07.2020
264 Clear 28 1017 45 10000 1 0 10:22 06.07.2020
265 Clear 28 1017 45 10000 1 0 09:59 06.07.2020
266 Clear 26 1017 47 10000 1 0 09:41 06.07.2020
267 Clear 25 1017 47 10000 1 0 09:21 06.07.2020
268 Clear 24 1017 53 10000 1 0 08:55 06.07.2020
269 Clear 24 1017 53 10000 1 0 08:36 06.07.2020
270 Clear 23 1017 53 10000 1 0 08:18 06.07.2020
271 Clear 21 1017 60 10000 1.5 50 07:43 06.07.2020
272 Clear 20 1017 64 10000 1.5 20 07:23 06.07.2020
273 Clear 20 1017 64 10000 2.1 20 06:39 06.07.2020
274 Clear 20 1017 68 10000 1 20 06:21 06.07.2020
275 Clear 21 1017 60 10000 1 30 05:38 06.07.2020
276 Clear 21 1017 60 10000 1 0 04:54 06.07.2020
277 Clear 22 1018 56 10000 1.5 320 03:40 06.07.2020
278 Clear 23 1018 56 10000 1.5 40 02:23 06.07.2020
279 Clear 23 1018 53 10000 1 0 01:34 06.07.2020
280 Clear 24 1019 53 10000 0.5 0 00:38 06.07.2020
281 Clear 24 1019 57 10000 1 0 00:19 06.07.2020
282 Clear 24 1019 57 10000 2.1 220 23:42 05.07.2020
283 Clear 24 1019 53 10000 2.1 210 23:23 05.07.2020
284 Clear 25 1019 53 10000 2.1 210 22:59 05.07.2020
285 Clear 25 1018 50 10000 3.1 210 22:40 05.07.2020
286 Clear 25 1018 50 10000 3.1 210 22:20 05.07.2020
287 Clear 25 1018 50 10000 3.1 210 22:20 05.07.2020
288 Clear 26 1018 53 10000 4.1 220 21:57 05.07.2020
289 Clear 26 1018 54 10000 5.1 210 21:39 05.07.2020
290 Clear 27 1018 54 10000 5.1 210 21:18 05.07.2020
291 Clear 26 1018 54 10000 6.2 210 20:58 05.07.2020
292 Clear 27 1018 54 10000 6.7 210 20:39 05.07.2020
293 Clear 27 1018 57 10000 6.7 210 20:20 05.07.2020
294 Clear 27 1019 54 10000 7.7 200 19:43 05.07.2020
295 Clear 28 1019 51 10000 7.7 210 19:21 05.07.2020
296 Clear 28 1019 48 10000 8.2 210 18:58 05.07.2020
297 Clear 28 1019 51 10000 7.7 210 18:58 05.07.2020
298 Clear 29 1019 48 10000 8.2 210 18:39 05.07.2020
299 Clear 29 1019 45 10000 7.7 200 18:20 05.07.2020
300 Clear 29 1019 45 10000 7.7 200 17:55 05.07.2020
301 Clear 29 1020 45 10000 7.7 200 17:37 05.07.2020
302 Clear 29 1020 39 10000 8.2 200 17:18 05.07.2020
303 Clear 30 1020 42 10000 8.2 210 16:42 05.07.2020
304 Clear 30 1020 37 10000 8.7 200 16:24 05.07.2020
305 Clear 29 1020 37 10000 8.7 200 15:54 05.07.2020
306 Clear 29 1020 37 10000 8.2 210 15:36 05.07.2020
307 Clear 30 1021 35 10000 7.7 210 15:18 05.07.2020
308 Clear 30 1021 35 10000 7.2 220 14:40 05.07.2020
309 Clear 30 1021 35 10000 7.2 220 14:21 05.07.2020
310 Clear 29 1021 35 10000 6.7 220 13:42 05.07.2020
311 Clear 30 1021 35 10000 6.7 220 13:23 05.07.2020
312 Clear 30 1022 30 10000 4.1 220 12:56 05.07.2020
313 Clear 29 1022 35 10000 4.1 220 12:38 05.07.2020
314 Clear 29 1022 35 10000 3.1 220 12:19 05.07.2020
315 Clear 29 1022 39 10000 2.6 190 11:40 05.07.2020
316 Clear 28 1022 42 10000 1 240 11:21 05.07.2020
317 Clear 28 1022 42 10000 1 240 10:59 05.07.2020
318 Clear 27 1022 51 10000 0.5 320 10:40 05.07.2020
319 Clear 26 1022 57 10000 0.5 20 10:19 05.07.2020
320 Clear 25 1022 57 10000 0.5 20 09:56 05.07.2020
321 Clear 24 1022 69 10000 1 350 09:37 05.07.2020
322 Clear 23 1022 69 10000 1 350 09:19 05.07.2020
323 Clear 21 1022 77 10000 1 20 08:46 05.07.2020
324 Clear 21 1022 77 10000 1 20 08:28 05.07.2020
325 Clear 19 1021 82 10000 1 40 07:48 05.07.2020
326 Clear 19 1021 88 10000 0.5 0 07:29 05.07.2020
327 Clear 19 1021 88 10000 0.5 0 06:52 05.07.2020
328 Clear 19 1021 88 10000 1.5 350 05:42 05.07.2020
329 Clear 21 1022 88 10000 1.5 10 03:32 05.07.2020
330 Clear 21 1022 83 10000 1 0 02:43 05.07.2020
331 Clear 21 1022 83 10000 1 0 02:25 05.07.2020
332 Clear 22 1022 78 10000 2.6 350 01:41 05.07.2020
333 Clear 22 1022 83 10000 1.5 350 01:18 05.07.2020
334 Clear 23 1022 78 10000 1.5 30 00:40 05.07.2020
335 Clear 23 1022 83 10000 2.1 40 00:21 05.07.2020
336 Clear 24 1022 78 10000 1.5 70 23:47 04.07.2020
337 Clear 24 1022 78 10000 1.5 70 23:28 04.07.2020
338 Clear 24 1021 78 10000 2.6 70 22:57 04.07.2020
339 Clear 25 1021 78 10000 2.6 70 22:38 04.07.2020
340 Clear 26 1021 69 10000 2.6 90 22:20 04.07.2020
341 Clear 26 1021 69 10000 2.6 90 21:55 04.07.2020
342 Clear 26 1021 69 10000 2.1 100 21:36 04.07.2020
343 Clear 26 1021 65 10000 2.6 0 21:18 04.07.2020
344 Clear 27 1020 61 10000 2.1 280 20:41 04.07.2020
345 Clear 27 1020 65 10000 6.2 200 20:20 04.07.2020
346 Clear 27 1020 65 10000 6.2 200 19:55 04.07.2020
347 Clear 27 1020 61 10000 6.7 210 19:36 04.07.2020
348 Clear 27 1020 61 10000 6.7 210 19:18 04.07.2020
349 Clear 27 1021 61 10000 7.2 210 18:42 04.07.2020
350 Clouds 27 1021 65 10000 6.7 210 18:22 04.07.2020
351 Clouds 26 1021 65 10000 7.7 210 17:44 04.07.2020
352 Clouds 26 1021 65 10000 7.7 210 17:26 04.07.2020
353 Clouds 27 1021 65 10000 7.2 210 16:58 04.07.2020
354 Clouds 27 1021 61 10000 8.2 210 16:39 04.07.2020
355 Clouds 27 1021 61 10000 8.2 210 16:21 04.07.2020
356 Clouds 28 1022 61 10000 7.2 210 15:56 04.07.2020
357 Clouds 28 1022 61 10000 7.2 210 15:37 04.07.2020
358 Clouds 26 1022 61 10000 7.2 210 15:19 04.07.2020
359 Clouds 27 1022 61 10000 7.2 210 14:55 04.07.2020
360 Clouds 27 1022 57 10000 6.7 210 14:36 04.07.2020
361 Clouds 27 1023 57 10000 6.2 220 14:18 04.07.2020
362 Clouds 27 1023 57 10000 6.2 220 14:18 04.07.2020
363 Clouds 26 1023 61 10000 6.7 200 13:41 04.07.2020
364 Clouds 26 1023 61 10000 6.2 220 13:19 04.07.2020
365 Clouds 27 1023 57 10000 5.7 230 12:43 04.07.2020
366 Clouds 27 1023 61 10000 5.1 220 12:23 04.07.2020
367 Clouds 26 1023 61 10000 5.1 220 11:59 04.07.2020
368 Clouds 25 1023 65 10000 5.1 210 11:40 04.07.2020
369 Clouds 25 1023 65 10000 5.1 210 11:22 04.07.2020
370 Clouds 25 1023 65 10000 4.1 220 10:54 04.07.2020
371 Clouds 24 1022 69 10000 4.1 210 10:36 04.07.2020
372 Clear 24 1022 69 10000 4.1 210 10:18 04.07.2020
373 Clear 24 1022 60 10000 1 0 09:40 04.07.2020
374 Clear 24 1022 60 10000 1 0 09:21 04.07.2020
375 Clear 22 1022 73 10000 1.5 350 08:51 04.07.2020
376 Clear 21 1022 73 10000 1.5 350 08:32 04.07.2020
377 Clear 21 1022 77 10000 1 0 07:56 04.07.2020
378 Clear 19 1022 77 10000 1.5 360 07:38 04.07.2020
379 Clear 19 1022 77 10000 2.1 340 06:59 04.07.2020
380 Clear 19 1022 77 10000 1.5 20 06:37 04.07.2020
381 Clear 19 1021 77 10000 2.1 340 06:18 04.07.2020
382 Clear 20 1022 72 10000 1.5 20 05:24 04.07.2020
383 Clear 20 1022 72 10000 2.6 350 03:49 04.07.2020
384 Clear 21 1022 68 10000 1 50 02:41 04.07.2020
385 Clear 21 1022 68 10000 1 0 01:40 04.07.2020
386 Clear 22 1022 64 10000 3.1 80 00:48 04.07.2020
387 Clear 22 1022 64 10000 3.1 80 00:30 04.07.2020
388 Clear 23 1021 60 10000 3.6 50 23:59 03.07.2020
389 Clear 23 1021 60 10000 1.5 300 23:39 03.07.2020
390 Clear 24 1021 64 10000 2.1 280 23:18 03.07.2020
391 Clear 24 1020 64 10000 2.1 250 22:41 03.07.2020
392 Clear 24 1020 64 10000 2.1 250 22:23 03.07.2020
393 Clear 25 1020 61 10000 3.1 230 21:59 03.07.2020
394 Clear 25 1020 61 10000 3.1 220 21:38 03.07.2020
395 Clear 25 1020 61 10000 4.1 220 21:19 03.07.2020
396 Clear 25 1019 65 10000 4.1 220 20:43 03.07.2020
397 Clouds 25 1019 65 10000 4.1 220 20:25 03.07.2020
398 Clouds 25 1019 65 10000 4.6 220 19:57 03.07.2020
399 Clouds 26 1019 61 10000 5.7 220 19:39 03.07.2020
400 Clouds 26 1019 61 10000 5.7 220 19:18 03.07.2020
401 Clouds 26 1019 65 10000 6.2 230 18:45 03.07.2020
402 Clouds 28 1019 51 10000 3.1 90 18:23 03.07.2020
403 Clouds 28 1019 51 10000 3.1 90 17:56 03.07.2020
404 Clouds 28 1019 48 10000 4.6 50 17:38 03.07.2020
405 Clouds 28 1019 48 10000 5.1 70 17:19 03.07.2020
406 Clouds 28 1019 48 10000 5.1 60 16:40 03.07.2020
407 Clouds 28 1019 48 10000 5.1 60 16:20 03.07.2020
408 Clouds 28 1019 47 10000 6.2 80 15:44 03.07.2020
409 Clouds 27 1019 47 10000 6.2 80 15:24 03.07.2020
410 Clouds 27 1019 51 10000 7.7 80 14:57 03.07.2020
411 Clouds 27 1019 51 10000 7.7 70 14:39 03.07.2020
412 Clouds 27 1019 51 10000 7.7 70 14:19 03.07.2020
413 Clouds 27 1019 51 10000 8.7 60 13:47 03.07.2020
414 Clouds 27 1019 51 10000 8.7 60 13:28 03.07.2020
415 Clouds 26 1019 54 10000 8.7 60 12:54 03.07.2020
416 Clouds 26 1019 54 10000 8.7 60 12:36 03.07.2020
417 Clear 26 1019 50 10000 8.7 70 12:18 03.07.2020
418 Clear 26 1019 53 10000 10.3 60 11:42 03.07.2020
419 Clear 26 1019 53 10000 10.3 60 11:23 03.07.2020
420 Clear 25 1018 53 10000 9.8 70 10:56 03.07.2020
421 Clear 25 1018 57 10000 9.8 60 10:37 03.07.2020
422 Clear 25 1018 57 10000 9.8 60 10:19 03.07.2020
423 Clear 25 1018 57 10000 9.3 50 09:54 03.07.2020
424 Clear 25 1018 57 10000 10.3 60 09:36 03.07.2020
425 Clear 25 1018 53 10000 9.8 50 09:18 03.07.2020
426 Clear 24 1017 60 10000 6.2 50 08:39 03.07.2020
427 Clear 24 1017 60 10000 5.1 50 08:18 03.07.2020
428 Clear 24 1017 69 10000 4.6 60 07:48 03.07.2020
429 Clear 24 1017 69 10000 4.6 60 07:26 03.07.2020
430 Clear 24 1017 73 10000 6.2 60 06:49 03.07.2020
431 Clear 24 1016 73 10000 6.7 60 06:19 03.07.2020
432 Clear 24 1016 73 10000 8.2 60 04:53 03.07.2020
433 Clear 25 1016 69 10000 7.7 60 03:32 03.07.2020
434 Clear 25 1016 78 10000 6.2 70 02:47 03.07.2020
435 Clear 25 1016 78 10000 6.2 70 02:27 03.07.2020
436 Clear 25 1016 78 10000 2.6 90 01:28 03.07.2020
437 Clear 25 1016 78 10000 3.6 90 00:50 03.07.2020
438 Clear 25 1016 78 10000 4.1 70 00:32 03.07.2020
439 Clear 26 1015 78 10000 2.6 60 23:47 02.07.2020
440 Clear 26 1014 78 10000 1 0 23:20 02.07.2020
441 Clear 26 1014 78 10000 1 0 22:58 02.07.2020
442 Clear 26 1014 78 10000 2.1 200 22:40 02.07.2020
443 Clear 26 1014 78 10000 2.1 200 22:20 02.07.2020
444 Clear 27 1013 78 10000 2.1 200 21:57 02.07.2020
445 Clear 27 1013 74 10000 2.1 200 21:39 02.07.2020
446 Clear 27 1013 74 10000 2.1 200 21:19 02.07.2020
447 Clear 28 1013 74 10000 2.1 190 20:58 02.07.2020
448 Clear 29 1013 65 10000 2.6 200 20:39 02.07.2020
449 Clear 29 1013 65 10000 2.6 200 20:19 02.07.2020
450 Clear 29 1013 62 10000 3.1 210 19:42 02.07.2020
451 Clear 29 1013 58 10000 3.6 190 19:24 02.07.2020
452 Clear 29 1013 58 10000 3.6 190 18:58 02.07.2020
453 Clear 30 1013 62 10000 4.1 180 18:40 02.07.2020
454 Clear 30 1013 62 10000 4.6 190 18:21 02.07.2020
455 Clear 30 1013 58 10000 5.7 200 17:57 02.07.2020
456 Clear 30 1013 58 10000 5.7 200 17:38 02.07.2020
457 Clear 30 1013 62 10000 6.2 210 17:18 02.07.2020
458 Clear 30 1013 55 10000 6.2 210 16:42 02.07.2020
459 Clear 30 1013 55 10000 6.2 210 16:21 02.07.2020
460 Clear 31 1013 55 10000 5.7 220 15:58 02.07.2020
461 Clear 31 1013 55 10000 5.7 220 15:38 02.07.2020
462 Clear 31 1013 55 10000 5.7 220 15:20 02.07.2020
463 Clear 31 1014 58 10000 4.6 200 14:45 02.07.2020
464 Clear 31 1014 62 10000 4.6 220 14:23 02.07.2020
465 Clear 31 1014 62 10000 4.6 220 13:57 02.07.2020
466 Clear 30 1014 66 10000 4.6 220 13:38 02.07.2020
467 Clear 29 1014 69 10000 5.7 210 13:19 02.07.2020
468 Clear 29 1014 69 10000 5.7 210 12:56 02.07.2020
469 Clear 30 1014 66 10000 5.7 220 12:38 02.07.2020
470 Clear 30 1014 55 10000 4.6 200 12:19 02.07.2020
471 Clear 30 1014 51 10000 2.1 0 11:41 02.07.2020
472 Clear 29 1014 51 10000 2.1 0 11:23 02.07.2020
473 Clear 28 1014 61 10000 2.1 160 10:45 02.07.2020
474 Clear 28 1014 61 10000 2.1 160 10:27 02.07.2020
475 Clear 27 1014 65 10000 1 0 09:57 02.07.2020
476 Clear 27 1014 74 10000 1 0 09:37 02.07.2020
477 Clear 26 1014 74 10000 1 0 09:19 02.07.2020
478 Clear 25 1014 83 10000 1.5 20 08:43 02.07.2020
479 Clear 24 1014 83 10000 1.5 20 08:24 02.07.2020
480 Clear 24 1014 88 10000 1 0 07:55 02.07.2020
481 Clear 24 1014 88 10000 1 0 07:37 02.07.2020
482 Clear 23 1014 88 10000 1.5 160 07:18 02.07.2020
483 Clear 23 1014 88 10000 1.5 150 06:39 02.07.2020
484 Clear 23 1013 94 10000 2.1 160 06:19 02.07.2020
485 Clear 23 1013 94 10000 2.1 120 05:43 02.07.2020
486 Clear 24 1013 83 10000 1.5 70 03:36 02.07.2020
487 Clear 24 1013 94 10000 1 0 02:59 02.07.2020
488 Clear 25 1013 88 10000 1.5 70 00:48 02.07.2020
489 Clear 25 1013 88 10000 1.5 70 00:25 02.07.2020
490 Clear 25 1013 83 10000 1.5 130 23:47 01.07.2020
491 Clear 26 1013 83 10000 1.5 130 23:27 01.07.2020
492 Clear 26 1012 83 10000 2.1 160 22:57 01.07.2020
493 Clear 26 1012 78 10000 3.6 200 22:38 01.07.2020
494 Clear 27 1011 78 10000 2.6 160 22:19 01.07.2020
495 Clear 27 1011 78 10000 2.6 160 21:58 01.07.2020
496 Clear 27 1011 74 10000 3.1 190 21:40 01.07.2020
497 Clear 28 1011 74 10000 3.1 190 21:22 01.07.2020
498 Clear 28 1011 69 10000 3.6 210 20:58 01.07.2020
499 Clear 29 1011 62 10000 4.1 210 20:40 01.07.2020
500 Clear 30 1011 58 10000 5.7 220 20:21 01.07.2020
501 Clear 30 1011 58 10000 5.7 220 19:55 01.07.2020
502 Clear 31 1011 33 10000 4.6 330 19:37 01.07.2020
503 Clear 31 1010 38 10000 5.1 320 19:18 01.07.2020
504 Clear 32 1011 33 10000 4.6 320 18:42 01.07.2020
505 Clear 32 1011 38 10000 4.1 320 18:21 01.07.2020
506 Clear 32 1011 38 10000 4.1 320 17:58 01.07.2020
507 Clear 32 1011 43 10000 7.7 220 17:38 01.07.2020
508 Clear 32 1011 43 10000 7.7 220 17:19 01.07.2020
509 Clear 32 1011 43 10000 7.7 220 17:19 01.07.2020
510 Clear 33 1011 43 10000 7.7 220 16:46 01.07.2020
511 Clear 33 1011 46 10000 6.2 210 16:27 01.07.2020
512 Clear 32 1011 46 10000 5.7 220 15:56 01.07.2020
513 Clear 32 1011 49 10000 5.1 210 15:38 01.07.2020
514 Clear 31 1011 49 10000 5.7 200 15:20 01.07.2020
515 Clear 32 1011 49 10000 5.7 220 14:44 01.07.2020
516 Clear 32 1011 49 10000 5.7 220 14:22 01.07.2020
517 Clear 32 1011 52 10000 7.2 220 13:58 01.07.2020
518 Clear 32 1011 51 10000 7.7 220 13:39 01.07.2020
519 Clear 32 1011 46 10000 3.1 0 13:20 01.07.2020
520 Clear 32 1011 40 10000 2.6 0 12:57 01.07.2020
521 Clear 31 1011 40 10000 2.6 0 12:38 01.07.2020
522 Clear 31 1011 43 10000 2.6 0 12:20 01.07.2020
523 Clear 30 1011 48 10000 1 10 11:42 01.07.2020
524 Clear 30 1011 48 10000 1 10 11:23 01.07.2020
525 Clear 29 1012 54 10000 2.1 140 10:58 01.07.2020
526 Clear 29 1012 51 10000 3.1 120 10:40 01.07.2020
527 Clear 29 1012 51 10000 3.1 120 10:21 01.07.2020
528 Clear 28 1012 54 10000 4.1 80 09:54 01.07.2020
529 Clear 27 1012 51 10000 4.6 70 09:36 01.07.2020
530 Clear 27 1011 54 10000 3.1 70 09:18 01.07.2020
531 Clear 26 1011 50 10000 2.6 50 08:41 01.07.2020
532 Clear 24 1011 56 10000 0.5 0 08:22 01.07.2020
533 Clear 24 1011 56 10000 0.5 0 07:58 01.07.2020
534 Clear 24 1011 56 10000 1 0 07:38 01.07.2020
535 Clear 23 1011 56 10000 1 0 07:20 01.07.2020
536 Clear 23 1011 49 10000 1.5 10 06:49 01.07.2020
537 Clear 23 1011 49 10000 1.5 10 06:27 01.07.2020
538 Clear 24 1012 57 10000 1.5 60 04:32 01.07.2020
539 Clear 25 1012 50 10000 3.6 60 03:47 01.07.2020
540 Clear 24 1012 50 10000 3.6 60 03:27 01.07.2020
541 Clear 24 1013 53 10000 3.1 50 02:41 01.07.2020
542 Clear 25 1014 65 10000 2.6 40 01:47 01.07.2020
543 Clear 25 1014 69 10000 3.6 80 00:43 01.07.2020
544 Clear 25 1014 69 10000 3.6 80 00:24 01.07.2020
545 Clear 26 1014 57 10000 3.6 70 23:42 30.06.2020
546 Clear 27 1014 57 10000 3.6 70 23:22 30.06.2020
547 Clear 28 1013 54 10000 3.6 70 22:58 30.06.2020
548 Clear 28 1013 51 10000 3.1 60 22:39 30.06.2020
549 Clear 28 1013 51 10000 3.1 60 22:18 30.06.2020
550 Clear 29 1013 54 10000 1.5 200 21:41 30.06.2020
551 Clear 29 1013 54 10000 1.5 200 21:19 30.06.2020
552 Clear 30 1013 51 10000 2.1 210 20:54 30.06.2020
553 Clear 30 1013 51 10000 2.1 210 20:54 30.06.2020
554 Clear 29 1013 51 10000 4.1 220 20:36 30.06.2020
555 Clear 30 1013 45 10000 5.1 230 20:18 30.06.2020
556 Clear 30 1013 45 10000 5.1 220 19:41 30.06.2020
557 Clear 31 1013 43 10000 5.1 240 19:19 30.06.2020
558 Clear 31 1013 43 10000 5.7 230 18:43 30.06.2020
559 Clear 32 1014 45 10000 6.2 220 18:21 30.06.2020
560 Clear 32 1014 45 10000 6.2 220 17:59 30.06.2020
561 Clear 32 1014 43 10000 6.2 230 17:37 30.06.2020
562 Clear 32 1014 43 10000 6.2 230 17:19 30.06.2020
563 Clear 33 1014 48 10000 6.7 230 16:43 30.06.2020
564 Clear 33 1014 48 10000 6.7 230 16:24 30.06.2020
565 Clear 33 1015 48 10000 6.2 220 15:59 30.06.2020
566 Clear 33 1015 48 10000 5.1 250 15:40 30.06.2020
567 Clear 32 1015 51 10000 6.2 230 15:21 30.06.2020
568 Clear 32 1015 51 10000 6.2 230 14:54 30.06.2020
569 Clear 32 1015 52 10000 6.2 230 14:36 30.06.2020
570 Clear 31 1015 55 10000 6.7 220 14:18 30.06.2020
571 Clear 31 1016 58 10000 6.2 220 13:40 30.06.2020
572 Clear 30 1015 55 10000 4.1 210 13:20 30.06.2020
573 Clear 30 1015 55 10000 4.1 210 12:58 30.06.2020
574 Clear 31 1016 55 10000 4.1 230 12:39 30.06.2020
575 Clear 30 1016 51 10000 2.6 0 12:20 30.06.2020
576 Clear 30 1016 51 10000 2.6 0 11:58 30.06.2020
577 Clear 30 1016 51 10000 1.5 110 11:39 30.06.2020
578 Clear 30 1016 51 10000 1.5 110 11:19 30.06.2020
579 Clear 29 1016 58 10000 1 0 10:58 30.06.2020
580 Clear 29 1018 65 10000 6.2 210 16:39 28.06.2020
581 Clear 29 1018 65 10000 6.2 190 16:20 28.06.2020
582 Clear 29 1018 65 10000 6.2 190 15:56 28.06.2020
583 Clear 29 1018 65 10000 6.7 200 15:37 28.06.2020
584 Clear 29 1019 61 10000 6.7 210 15:18 28.06.2020
585 Clear 29 1018 61 10000 6.7 200 14:46 28.06.2020
586 Clear 29 1018 61 10000 6.7 200 14:27 28.06.2020
587 Clear 30 1019 65 10000 6.7 210 13:58 28.06.2020
588 Clear 29 1019 65 10000 6.2 220 13:37 28.06.2020
589 Clear 29 1019 65 10000 6.2 220 13:37 28.06.2020
590 Clear 29 1019 69 10000 6.7 210 13:19 28.06.2020
591 Clear 29 1019 65 10000 6.2 210 12:56 28.06.2020
592 Clear 29 1019 65 10000 6.2 210 12:37 28.06.2020
593 Clear 30 1018 58 10000 3.6 210 12:18 28.06.2020
594 Clear 30 1018 58 10000 3.6 210 11:56 28.06.2020
595 Clear 29 1018 58 10000 2.1 0 11:37 28.06.2020
596 Clear 28 1018 58 10000 2.1 0 11:19 28.06.2020
597 Clear 27 1018 65 10000 2.1 140 10:42 28.06.2020
598 Clear 27 1018 65 10000 2.1 140 10:23 28.06.2020
599 Clear 26 1018 65 10000 2.1 70 09:59 28.06.2020
600 Clear 26 1018 73 10000 2.1 90 09:39 28.06.2020
601 Clear 25 1018 73 10000 2.1 90 09:20 28.06.2020
602 Clear 24 1018 83 10000 2.1 70 08:45 28.06.2020
603 Clear 23 1018 83 10000 2.1 70 08:25 28.06.2020
604 Clear 23 1017 78 10000 2.1 260 07:46 28.06.2020
605 Clear 22 1017 88 10000 1 0 07:28 28.06.2020
606 Clear 22 1017 88 10000 2.1 320 06:41 28.06.2020
607 Clear 22 1017 83 10000 2.1 320 06:22 28.06.2020
608 Clear 22 1017 88 10000 1.5 330 05:26 28.06.2020
609 Clear 23 1018 83 10000 1 360 03:32 28.06.2020
610 Clear 23 1018 83 10000 0.5 0 02:39 28.06.2020
611 Clear 23 1018 83 10000 1 0 01:53 28.06.2020
612 Clear 24 1018 83 10000 2.1 90 01:26 28.06.2020
613 Clear 24 1017 78 10000 2.6 90 00:48 28.06.2020
614 Clear 24 1017 78 10000 4.1 70 00:24 28.06.2020
615 Clear 25 1017 73 10000 3.6 60 23:42 27.06.2020
616 Clear 25 1017 73 10000 3.6 60 23:23 27.06.2020
617 Clear 25 1017 73 10000 3.1 80 22:58 27.06.2020
618 Clear 26 1016 73 10000 2.6 110 22:40 27.06.2020
619 Clear 26 1016 73 10000 2.6 110 22:20 27.06.2020
620 Clear 26 1016 69 10000 2.6 130 21:55 27.06.2020
621 Clouds 27 1015 69 10000 2.1 130 21:37 27.06.2020
622 Clouds 27 1015 69 10000 2.1 130 21:19 27.06.2020
623 Clouds 28 1015 61 10000 3.1 180 20:43 27.06.2020
624 Clouds 28 1015 51 10000 3.6 180 20:19 27.06.2020
625 Clouds 28 1015 51 10000 3.6 180 19:55 27.06.2020
626 Clouds 29 1015 51 10000 4.1 190 19:36 27.06.2020
627 Clouds 29 1015 51 10000 4.6 180 19:18 27.06.2020
628 Clouds 29 1015 51 10000 4.6 180 19:18 27.06.2020
629 Clouds 29 1015 51 10000 5.1 200 18:45 27.06.2020
630 Clouds 29 1015 54 10000 5.7 200 18:25 27.06.2020
631 Clouds 29 1015 54 10000 5.7 200 17:57 27.06.2020
632 Clouds 30 1015 54 10000 6.2 200 17:38 27.06.2020
633 Clouds 30 1015 54 10000 6.2 200 17:19 27.06.2020
634 Clouds 29 1015 58 10000 6.7 210 16:45 27.06.2020
635 Clouds 29 1015 58 10000 6.7 210 16:27 27.06.2020
636 Clouds 29 1015 58 10000 6.2 200 15:55 27.06.2020
637 Clouds 29 1015 58 10000 6.2 200 15:55 27.06.2020
638 Clouds 29 1015 54 10000 5.7 200 15:37 27.06.2020
639 Clouds 30 1015 55 10000 5.7 190 15:18 27.06.2020
640 Clouds 30 1015 51 10000 4.1 200 14:42 27.06.2020
641 Clouds 30 1015 51 10000 4.1 200 14:24 27.06.2020
642 Clouds 30 1015 51 10000 4.1 210 13:58 27.06.2020
643 Clouds 29 1015 54 10000 6.2 210 13:38 27.06.2020
644 Clouds 29 1016 51 10000 1.5 0 13:19 27.06.2020
645 Clouds 29 1016 51 10000 1 50 12:57 27.06.2020
646 Clouds 29 1016 51 10000 1 50 12:38 27.06.2020
647 Clouds 29 1016 54 10000 1.5 340 12:20 27.06.2020
648 Clouds 27 1016 61 10000 1 60 11:54 27.06.2020
649 Clouds 27 1016 61 10000 1 60 11:36 27.06.2020
650 Clouds 27 1015 65 10000 2.1 0 11:18 27.06.2020
651 Clouds 26 1016 65 10000 1.5 0 10:38 27.06.2020
652 Clouds 26 1016 65 10000 1.5 0 10:19 27.06.2020
653 Clouds 25 1015 73 10000 1.5 130 09:41 27.06.2020
654 Clouds 24 1015 73 10000 1.5 130 09:22 27.06.2020
655 Clouds 24 1015 73 10000 1 0 08:57 27.06.2020
656 Clouds 24 1015 73 10000 1 0 08:39 27.06.2020
657 Clouds 24 1015 78 10000 0.5 0 08:20 27.06.2020
658 Clouds 23 1015 78 10000 1.5 60 07:41 27.06.2020
659 Clouds 23 1015 78 10000 1.5 50 07:23 27.06.2020
660 Clouds 23 1014 78 10000 2.1 80 06:38 27.06.2020
661 Clouds 23 1014 78 10000 2.6 110 06:20 27.06.2020
662 Clouds 24 1014 73 10000 2.6 80 04:23 27.06.2020
663 Clouds 24 1014 73 10000 2.6 80 03:52 27.06.2020
664 Clouds 24 1015 73 10000 3.6 60 02:49 27.06.2020
665 Clouds 24 1015 73 10000 3.6 60 02:30 27.06.2020
666 Clouds 24 1015 78 10000 3.1 70 01:43 27.06.2020
667 Clouds 23 1015 78 10000 3.1 70 00:57 27.06.2020
668 Clear 24 1015 78 10000 2.6 60 00:30 27.06.2020
669 Clear 24 1015 69 10000 3.6 90 23:45 26.06.2020
670 Clear 25 1015 69 10000 3.6 90 23:25 26.06.2020
671 Clear 25 1015 57 10000 3.1 100 22:56 26.06.2020
672 Clear 26 1014 53 10000 3.6 80 22:38 26.06.2020
673 Clear 27 1014 44 10000 3.1 100 22:19 26.06.2020
674 Clear 27 1014 44 10000 3.1 100 21:57 26.06.2020
675 Clear 28 1013 37 10000 3.6 100 21:37 26.06.2020
676 Clear 28 1013 37 10000 3.6 100 21:19 26.06.2020
677 Clear 29 1013 33 10000 5.1 100 20:43 26.06.2020
678 Clear 30 1013 33 10000 5.1 100 20:23 26.06.2020
679 Clear 31 1013 27 10000 5.7 100 19:47 26.06.2020
680 Clear 32 1013 27 10000 4.6 90 19:24 26.06.2020
681 Clear 32 1013 27 10000 4.6 90 18:58 26.06.2020
682 Clear 32 1014 33 10000 3.1 0 18:38 26.06.2020
683 Clear 33 1014 27 10000 3.6 110 18:19 26.06.2020
684 Clear 32 1014 26 10000 4.6 110 17:44 26.06.2020
685 Clear 32 1014 26 10000 4.6 110 17:25 26.06.2020
686 Clear 33 1015 27 10000 4.6 160 16:49 26.06.2020
687 Clear 33 1015 27 10000 4.6 160 16:28 26.06.2020
688 Clear 32 1015 35 10000 2.6 140 15:58 26.06.2020
689 Clear 32 1015 48 10000 6.7 250 15:39 26.06.2020
690 Clear 32 1015 48 10000 7.2 230 15:21 26.06.2020
691 Clear 32 1015 48 10000 7.2 230 14:57 26.06.2020
692 Clear 32 1015 48 10000 7.2 230 14:57 26.06.2020
693 Clear 32 1015 48 10000 6.2 230 14:38 26.06.2020
694 Clear 32 1015 40 10000 5.1 220 14:20 26.06.2020
695 Clear 32 1015 35 10000 5.1 230 13:44 26.06.2020
696 Clear 31 1015 35 10000 4.1 220 13:23 26.06.2020
697 Clear 31 1015 31 10000 5.1 180 12:56 26.06.2020
698 Clear 31 1015 31 10000 5.1 180 12:38 26.06.2020
699 Clear 32 1016 25 10000 4.1 110 12:19 26.06.2020
700 Clear 32 1016 25 10000 4.1 110 11:56 26.06.2020
701 Clear 31 1016 27 10000 4.6 90 11:38 26.06.2020
702 Clear 31 1016 27 10000 4.6 90 11:19 26.06.2020
703 Clear 30 1016 28 10000 3.1 120 10:56 26.06.2020
704 Clear 29 1016 32 10000 2.1 140 10:37 26.06.2020
705 Clear 29 1016 32 10000 2.1 140 10:37 26.06.2020
706 Clear 29 1016 30 10000 0.5 150 10:18 26.06.2020
707 Clear 27 1016 36 10000 2.1 360 09:41 26.06.2020
708 Clear 26 1016 36 10000 2.1 360 09:22 26.06.2020
709 Clear 24 1016 46 10000 2.6 360 08:48 26.06.2020
710 Clear 23 1016 46 10000 2.6 360 08:27 26.06.2020
711 Clear 21 1016 52 10000 2.6 360 07:48 26.06.2020
712 Clear 21 1016 52 10000 2.1 320 07:24 26.06.2020
713 Clear 21 1016 52 10000 2.6 360 06:54 26.06.2020
714 Clear 21 1016 52 10000 2.6 360 06:33 26.06.2020
715 Clear 21 1016 49 10000 2.6 360 05:55 26.06.2020
716 Clear 21 1016 49 10000 1.5 330 05:29 26.06.2020
717 Clear 23 1017 46 10000 1.5 340 02:41 26.06.2020
718 Clear 23 1017 46 10000 1.5 340 02:21 26.06.2020
719 Clear 24 1017 41 10000 2.6 40 00:55 26.06.2020
720 Clear 25 1017 44 10000 4.1 40 00:32 26.06.2020
721 Clear 26 1017 39 10000 4.1 60 23:48 25.06.2020
722 Clear 26 1016 41 10000 5.1 70 23:23 25.06.2020
723 Clear 26 1016 36 10000 4.6 60 22:59 25.06.2020
724 Clear 26 1016 36 10000 4.6 60 22:39 25.06.2020
725 Clear 27 1016 36 10000 4.6 60 22:20 25.06.2020
726 Clear 27 1016 39 10000 4.1 60 21:58 25.06.2020
727 Clear 28 1016 34 10000 4.1 90 21:40 25.06.2020
728 Clear 29 1016 34 10000 4.1 90 21:21 25.06.2020
729 Clear 29 1016 32 10000 4.1 80 20:59 25.06.2020
730 Clear 30 1015 30 10000 5.7 100 20:41 25.06.2020
731 Clear 30 1015 30 10000 5.7 100 20:22 25.06.2020
732 Clear 31 1015 29 10000 5.7 90 19:56 25.06.2020
733 Clear 32 1015 25 10000 5.1 90 19:37 25.06.2020
734 Clear 32 1015 25 10000 5.1 90 19:18 25.06.2020
735 Clear 33 1015 26 10000 5.1 100 18:40 25.06.2020
736 Clear 33 1015 26 10000 5.1 100 18:21 25.06.2020
737 Clear 33 1016 26 10000 4.6 110 17:55 25.06.2020
738 Clear 33 1016 24 10000 5.1 120 17:37 25.06.2020
739 Clear 33 1016 24 10000 5.1 120 17:19 25.06.2020
740 Clear 33 1016 24 10000 5.1 120 17:19 25.06.2020
741 Clear 34 1016 23 10000 3.6 100 16:41 25.06.2020
742 Clear 34 1016 24 10000 4.1 120 16:20 25.06.2020
743 Clear 34 1016 24 10000 4.6 130 15:45 25.06.2020
744 Clear 34 1016 24 10000 4.6 130 15:27 25.06.2020
745 Clear 34 1016 23 10000 4.6 100 14:58 25.06.2020
746 Clear 33 1016 24 10000 4.1 80 14:40 25.06.2020
747 Clear 33 1016 24 10000 4.1 80 14:22 25.06.2020
748 Clear 33 1017 26 10000 4.1 100 13:56 25.06.2020
749 Clear 33 1017 24 10000 3.6 130 13:37 25.06.2020
750 Clear 32 1017 27 10000 4.6 90 13:19 25.06.2020
751 Clear 32 1017 29 10000 3.1 110 12:44 25.06.2020
752 Clear 32 1017 29 10000 4.6 100 12:20 25.06.2020
753 Clear 30 1017 28 10000 3.6 100 11:44 25.06.2020
754 Clear 30 1017 28 10000 4.6 80 11:25 25.06.2020
755 Clear 30 1017 28 10000 4.6 80 10:59 25.06.2020
756 Clear 29 1017 30 10000 3.6 60 10:40 25.06.2020
757 Clear 28 1017 32 10000 3.6 50 10:22 25.06.2020
758 Clear 28 1017 32 10000 4.1 50 09:41 25.06.2020
759 Clear 27 1017 32 10000 4.1 50 09:23 25.06.2020
760 Clear 24 1017 46 10000 1.5 340 08:47 25.06.2020
761 Clouds 22 1017 49 10000 2.1 340 08:20 25.06.2020
762 Clouds 21 1017 49 10000 2.1 360 07:46 25.06.2020
763 Clouds 21 1017 52 10000 2.1 360 07:28 25.06.2020
764 Clouds 21 1017 49 10000 1 0 06:54 25.06.2020
765 Rain 21 1016 52 10000 1.5 30 06:27 25.06.2020
766 Rain 21 1017 52 10000 2.1 320 05:51 25.06.2020
767 Clouds 22 1016 49 10000 2.6 10 04:56 25.06.2020
768 Clear 22 1018 56 10000 1.5 20 03:35 25.06.2020
769 Clear 22 1018 60 10000 2.1 350 02:44 25.06.2020
770 Clear 23 1018 60 10000 2.1 340 02:18 25.06.2020
771 Clear 23 1018 53 10000 1.5 40 01:29 25.06.2020
772 Clear 23 1018 53 10000 3.1 50 00:47 25.06.2020
773 Clear 24 1018 57 10000 2.6 40 00:22 25.06.2020
774 Clear 25 1018 64 10000 2.1 40 23:45 24.06.2020
775 Clear 24 1018 64 10000 2.1 40 23:26 24.06.2020
776 Clear 25 1018 73 10000 2.1 70 22:59 24.06.2020
777 Clear 25 1018 69 10000 2.1 130 22:41 24.06.2020
778 Clear 26 1018 69 10000 2.6 170 22:20 24.06.2020
779 Clear 26 1018 69 10000 2.6 170 21:57 24.06.2020
780 Clear 27 1018 57 10000 2.6 190 21:37 24.06.2020
781 Clouds 27 1017 42 10000 2.1 200 21:19 24.06.2020
782 Clouds 27 1017 42 10000 2.1 200 20:58 24.06.2020
783 Clouds 27 1017 47 10000 3.6 220 20:39 24.06.2020
784 Clear 28 1017 39 10000 5.1 210 20:21 24.06.2020
785 Clear 28 1017 39 10000 5.1 210 19:57 24.06.2020
786 Clear 29 1017 32 10000 5.1 220 19:38 24.06.2020
787 Clear 29 1017 32 10000 4.1 220 19:20 24.06.2020
788 Clear 29 1017 32 10000 4.1 220 18:58 24.06.2020
789 Clear 29 1017 32 10000 3.6 220 18:39 24.06.2020
790 Clear 30 1017 33 10000 4.1 210 18:20 24.06.2020
791 Clear 29 1017 33 10000 4.1 210 17:55 24.06.2020
792 Clear 29 1018 35 10000 3.6 210 17:37 24.06.2020
793 Clear 30 1018 35 10000 3.6 210 17:18 24.06.2020
794 Clear 30 1018 35 10000 4.6 200 16:55 24.06.2020
795 Clear 30 1018 35 10000 6.2 220 16:37 24.06.2020
796 Clear 30 1018 35 10000 6.2 220 16:37 24.06.2020
797 Clear 30 1018 37 10000 6.7 210 16:19 24.06.2020
798 Clear 30 1018 45 10000 6.7 220 15:55 24.06.2020
799 Clear 30 1018 45 10000 6.7 220 15:37 24.06.2020
800 Clear 30 1018 51 10000 7.7 220 15:18 24.06.2020
801 Clear 29 1018 45 10000 6.2 230 14:40 24.06.2020
802 Clear 30 1018 45 10000 6.2 220 14:22 24.06.2020
803 Clear 30 1018 48 10000 5.1 210 13:42 24.06.2020
804 Clear 31 1018 29 10000 3.1 120 13:22 24.06.2020
805 Clear 31 1018 35 10000 4.1 60 12:54 24.06.2020
806 Clear 30 1018 35 10000 4.1 60 12:36 24.06.2020
807 Clear 29 1018 37 10000 4.1 80 12:18 24.06.2020
808 Clear 29 1018 37 10000 3.1 80 11:42 24.06.2020
809 Clear 29 1018 37 10000 3.1 80 11:24 24.06.2020
810 Clear 28 1018 39 10000 3.6 80 10:59 24.06.2020
811 Clear 27 1018 42 10000 3.1 80 10:40 24.06.2020
812 Clear 27 1018 47 10000 3.1 70 10:18 24.06.2020
813 Clear 26 1018 54 10000 2.6 40 09:42 24.06.2020
814 Clear 24 1018 60 10000 2.1 50 09:21 24.06.2020
815 Clear 23 1018 68 10000 2.6 350 08:42 24.06.2020
816 Clear 22 1018 73 10000 1 0 08:20 24.06.2020
817 Clear 20 1018 82 10000 2.6 350 07:50 24.06.2020
818 Clear 20 1018 77 10000 1.5 360 07:31 24.06.2020
819 Clear 19 1018 77 10000 1.5 30 06:50 24.06.2020
820 Clear 20 1018 77 10000 1.5 10 06:25 24.06.2020
821 Clear 20 1018 77 10000 2.1 360 05:54 24.06.2020
822 Clear 20 1018 73 10000 2.1 360 04:42 24.06.2020
823 Clear 21 1018 77 10000 2.1 340 04:18 24.06.2020
824 Clear 21 1018 82 10000 2.1 340 03:34 24.06.2020
825 Clear 22 1019 78 10000 1.5 360 02:45 24.06.2020
826 Clear 22 1019 83 10000 1.5 40 01:35 24.06.2020
827 Clear 23 1019 73 10000 2.6 70 00:47 24.06.2020
828 Clear 23 1019 73 10000 1.5 90 00:27 24.06.2020
829 Clear 24 1019 69 10000 1 130 23:44 23.06.2020
830 Clear 24 1019 69 10000 1 110 23:19 23.06.2020
831 Clear 24 1018 69 10000 1 150 22:42 23.06.2020
832 Clear 25 1017 69 10000 1.5 240 22:19 23.06.2020
833 Clear 25 1017 69 10000 1.5 240 21:59 23.06.2020
834 Clear 25 1018 65 10000 2.6 210 21:40 23.06.2020
835 Clear 26 1018 61 10000 2.6 200 21:19 23.06.2020
836 Clear 26 1018 54 10000 3.1 220 20:55 23.06.2020
837 Clear 26 1018 54 10000 3.1 220 20:37 23.06.2020
838 Clear 27 1018 54 10000 3.1 220 20:18 23.06.2020
839 Clear 28 1018 47 10000 4.1 210 19:44 23.06.2020
840 Clear 28 1018 48 10000 4.6 200 19:26 23.06.2020
841 Clear 28 1018 51 10000 5.1 210 18:42 23.06.2020
842 Clear 28 1018 51 10000 5.7 220 18:19 23.06.2020
843 Clear 28 1018 51 10000 5.7 220 17:58 23.06.2020
844 Clear 28 1019 47 10000 5.7 210 17:39 23.06.2020
845 Clear 28 1019 45 10000 5.1 210 17:20 23.06.2020
846 Clear 28 1019 42 10000 5.7 220 16:55 23.06.2020
847 Clear 28 1019 42 10000 5.7 220 16:37 23.06.2020
848 Clear 29 1019 42 10000 6.7 230 16:18 23.06.2020
849 Clear 29 1019 45 10000 6.7 210 15:44 23.06.2020
850 Clear 29 1019 48 10000 5.7 210 15:25 23.06.2020
851 Clear 29 1019 48 10000 5.7 210 14:58 23.06.2020
852 Clear 29 1020 51 10000 6.2 210 14:40 23.06.2020
853 Clear 29 1020 51 10000 6.2 200 14:18 23.06.2020
854 Clear 29 1020 48 10000 5.1 210 13:55 23.06.2020
855 Clear 29 1020 48 10000 5.1 210 13:37 23.06.2020
856 Clear 28 1020 54 10000 5.1 220 13:18 23.06.2020
857 Clear 28 1020 54 10000 4.6 220 12:40 23.06.2020
858 Clear 28 1020 54 10000 4.1 230 12:22 23.06.2020
859 Clear 27 1020 54 10000 2.6 200 11:44 23.06.2020
860 Clear 26 1021 54 10000 2.6 230 11:23 23.06.2020
861 Clear 26 1021 54 10000 2.6 230 10:59 23.06.2020
862 Clear 26 1021 54 10000 2.1 0 10:41 23.06.2020
863 Clear 26 1021 54 10000 2.1 0 10:41 23.06.2020
864 Clear 25 1021 61 10000 1.5 180 10:22 23.06.2020
865 Clear 25 1021 61 10000 1.5 180 09:58 23.06.2020
866 Clear 24 1021 64 10000 0.5 340 09:39 23.06.2020
867 Clear 23 1020 69 10000 1 0 09:20 23.06.2020
868 Clear 22 1020 68 10000 0.5 0 08:47 23.06.2020
869 Clear 22 1020 68 10000 0.5 0 08:27 23.06.2020
870 Clear 21 1020 77 10000 1.5 350 07:56 23.06.2020
871 Clear 20 1020 82 10000 1 330 07:38 23.06.2020
872 Clear 19 1020 82 10000 1 0 07:19 23.06.2020
873 Clear 19 1020 82 10000 1 0 07:19 23.06.2020
874 Clear 19 1020 82 10000 1.5 360 06:43 23.06.2020
875 Clear 19 1020 82 10000 1.5 360 06:25 23.06.2020
876 Clear 19 1020 88 10000 1.5 70 05:29 23.06.2020
877 Clear 20 1021 82 10000 2.1 330 03:29 23.06.2020
878 Clear 20 1021 82 10000 2.1 340 02:54 23.06.2020
879 Clear 21 1021 77 10000 2.1 350 02:35 23.06.2020
880 Clear 21 1021 77 10000 1.5 340 01:47 23.06.2020
881 Clear 21 1021 78 10000 1 330 01:28 23.06.2020
882 Clear 22 1022 78 10000 1 0 00:56 23.06.2020
883 Clear 22 1022 73 10000 1.5 170 00:24 23.06.2020
884 Clear 23 1022 73 10000 1.5 170 23:55 22.06.2020
885 Clear 23 1022 73 10000 1.5 170 23:55 22.06.2020
886 Clear 23 1022 73 10000 1.5 170 23:55 22.06.2020
887 Clear 23 1022 73 10000 1.5 170 23:55 22.06.2020
888 Clear 23 1021 73 10000 1.5 200 23:37 22.06.2020
889 Clear 23 1021 78 10000 1.5 170 23:19 22.06.2020
890 Clear 24 1021 78 10000 1.5 170 22:55 22.06.2020
891 Clear 24 1021 73 10000 2.1 200 22:37 22.06.2020
892 Clear 24 1021 69 10000 2.6 200 22:19 22.06.2020
893 Clear 24 1021 69 10000 2.6 200 21:57 22.06.2020
894 Clear 24 1021 69 10000 3.6 210 21:38 22.06.2020
895 Clear 25 1021 65 10000 4.6 210 21:20 22.06.2020
896 Clear 25 1021 65 10000 6.2 210 20:41 22.06.2020
897 Clear 25 1021 65 10000 6.2 200 20:22 22.06.2020
898 Clear 26 1021 57 10000 6.7 200 19:45 22.06.2020
899 Clear 27 1021 57 10000 6.7 200 19:21 22.06.2020
900 Clear 26 1021 57 10000 7.2 200 18:59 22.06.2020
901 -273 0 0 0 0 0 18:59 22.06.2020
902 Clear 27 1021 57 10000 7.2 200 18:40 22.06.2020
903 Clear 27 1021 51 10000 7.2 190 18:21 22.06.2020
904 Clear 27 1021 51 10000 7.2 190 17:57 22.06.2020
905 Clear 28 1021 48 10000 7.2 210 17:38 22.06.2020
906 Clear 27 1022 51 10000 7.2 200 17:19 22.06.2020
907 Clear 27 1022 51 10000 7.2 200 16:55 22.06.2020
908 Clear 28 1022 48 10000 7.2 190 16:37 22.06.2020
909 Clear 28 1022 45 10000 7.2 210 16:18 22.06.2020
910 Clear 28 1022 45 10000 7.7 210 15:43 22.06.2020
911 Clear 28 1022 45 10000 7.7 220 15:25 22.06.2020
912 Clear 28 1022 45 10000 7.7 220 14:57 22.06.2020
913 Clear 28 1023 45 10000 7.7 210 14:36 22.06.2020
914 Clear 28 1023 45 10000 7.7 210 14:18 22.06.2020
915 Clear 28 1023 51 10000 7.2 210 13:40 22.06.2020
916 Clear 28 1022 54 10000 6.7 210 13:22 22.06.2020
917 Clear 28 1022 54 10000 6.7 210 12:59 22.06.2020
918 Clear 28 1022 54 10000 6.7 210 12:59 22.06.2020
919 Clear 28 1022 51 10000 5.1 210 12:40 22.06.2020
920 Clear 28 1022 51 10000 5.1 210 12:22 22.06.2020
921 Clear 28 1022 48 10000 4.1 230 11:38 22.06.2020
922 Clear 28 1022 51 10000 3.1 200 11:19 22.06.2020
923 Clear 27 1022 51 10000 3.1 200 10:57 22.06.2020
924 Clear 28 1023 48 10000 1 140 10:38 22.06.2020
925 Clear 27 1023 54 10000 0.5 260 10:19 22.06.2020
926 Clear 26 1023 54 10000 0.5 260 09:57 22.06.2020
927 Clear 26 1023 54 10000 0.5 40 09:39 22.06.2020
928 Clear 24 1023 57 10000 1.5 20 09:19 22.06.2020
929 Clear 23 1022 64 10000 1 0 08:56 22.06.2020
930 Clear 22 1022 64 10000 1 0 08:38 22.06.2020
931 Clear 21 1022 77 10000 2.1 340 08:19 22.06.2020
932 Clear 20 1022 82 10000 1.5 330 07:48 22.06.2020
933 Clear 20 1022 82 10000 1.5 330 07:26 22.06.2020
934 Clear 19 1022 82 10000 1 0 06:39 22.06.2020
935 Clear 19 1022 88 10000 1 0 06:21 22.06.2020
936 Clear 20 1022 88 10000 1.5 360 05:42 22.06.2020
937 Clear 21 1023 82 10000 2.1 350 03:48 22.06.2020
938 Clear 21 1023 83 10000 1 60 02:23 22.06.2020
939 Clouds 22 1023 78 10000 1.5 30 01:18 22.06.2020
940 Clouds 22 1022 83 10000 2.6 70 00:39 22.06.2020
941 Clouds 23 1022 78 10000 1.5 140 23:58 21.06.2020
942 Clouds 23 1022 83 10000 1.5 170 23:39 21.06.2020
943 Clouds 23 1022 83 10000 1.5 170 23:39 21.06.2020
944 Clouds 23 1022 83 10000 2.1 180 23:20 21.06.2020
945 Clouds 23 1022 73 10000 2.1 190 22:57 21.06.2020
946 Clouds 23 1022 73 10000 2.1 190 22:37 21.06.2020
947 Clouds 23 1021 73 10000 3.1 200 22:19 21.06.2020
948 Clouds 23 1021 73 10000 3.1 200 21:56 21.06.2020
949 Clouds 24 1021 69 10000 3.1 190 21:38 21.06.2020
950 Clear 25 1021 69 10000 4.1 190 21:20 21.06.2020
951 Clear 24 1021 69 10000 4.1 190 20:57 21.06.2020
952 Clear 25 1021 61 10000 4.6 200 20:37 21.06.2020
953 Clear 26 1021 61 10000 5.1 190 20:18 21.06.2020
954 Clear 27 1021 42 10000 5.1 200 19:55 21.06.2020
955 Clear 27 1021 42 10000 5.1 200 19:37 21.06.2020
956 Clear 27 1021 39 10000 5.7 200 19:18 21.06.2020
957 Clear 28 1021 39 10000 5.7 210 18:40 21.06.2020
958 Clear 28 1021 39 10000 5.7 210 18:22 21.06.2020
959 Clear 28 1021 39 10000 5.7 210 17:59 21.06.2020
960 Clear 28 1021 39 10000 5.7 200 17:39 21.06.2020
961 Clear 29 1022 37 10000 6.7 220 17:20 21.06.2020
962 Clear 29 1022 37 10000 6.2 210 16:43 21.06.2020
963 Clear 29 1022 37 10000 6.2 210 16:23 21.06.2020
964 Clear 29 1022 39 10000 6.7 210 15:59 21.06.2020
965 Clear 29 1022 37 10000 7.2 210 15:37 21.06.2020
966 Clear 29 1022 39 10000 6.2 210 15:19 21.06.2020
967 Clear 29 1022 42 10000 6.2 210 14:39 21.06.2020
968 Clear 29 1023 39 10000 6.2 210 14:20 21.06.2020
969 Clear 29 1023 42 10000 6.2 230 13:59 21.06.2020
970 Clear 29 1023 42 10000 6.2 230 13:40 21.06.2020
971 Clear 29 1022 45 10000 5.1 220 13:22 21.06.2020
972 Clear 29 1022 45 10000 5.1 220 12:55 21.06.2020
973 Clear 28 1023 42 10000 4.1 220 12:36 21.06.2020
974 Clear 28 1023 47 10000 3.1 220 12:18 21.06.2020
975 Clear 27 1022 51 10000 2.1 160 11:42 21.06.2020
976 Clear 27 1022 54 10000 1 110 11:23 21.06.2020
977 Clear 26 1022 54 10000 1 110 10:58 21.06.2020
978 Clear 25 1022 65 10000 1 90 10:39 21.06.2020
979 Clear 24 1022 69 10000 1 0 10:21 21.06.2020
980 Clear 24 1022 73 10000 0.5 0 09:44 21.06.2020
981 Clear 22 1022 78 10000 1 350 09:24 21.06.2020
982 Clear 21 1022 82 10000 1.5 360 08:58 21.06.2020
983 Clear 21 1022 82 10000 1.5 360 08:40 21.06.2020
984 Clear 20 1022 88 10000 2.1 330 08:20 21.06.2020
985 Clear 20 1022 88 10000 2.1 330 07:58 21.06.2020
986 Clear 19 1022 88 10000 2.1 340 07:39 21.06.2020
987 Clear 19 1022 88 10000 1.5 340 07:18 21.06.2020
988 Clear 19 1022 88 10000 1.5 10 06:45 21.06.2020
989 Clear 18 1021 88 10000 1.5 340 05:57 21.06.2020
990 Clear 19 1021 82 10000 2.1 340 04:45 21.06.2020
991 Clear 20 1022 88 10000 0.5 0 03:20 21.06.2020
992 Clear 20 1022 88 10000 1 20 02:46 21.06.2020
993 Clear 20 1022 88 10000 1.5 340 01:48 21.06.2020
994 Clear 21 1022 83 10000 2.1 340 01:20 21.06.2020
995 Clear 21 1022 83 10000 1.5 240 00:46 21.06.2020
996 Clear 21 1022 83 10000 1.5 240 00:27 21.06.2020
997 Clear 22 1022 83 10000 1.5 180 23:57 20.06.2020
998 Clear 22 1022 83 10000 1.5 140 23:37 20.06.2020
999 Clear 22 1022 83 10000 2.1 170 23:18 20.06.2020
1000 Clear 22 1021 83 10000 2.6 200 22:55 20.06.2020
1001 Clear 22 1021 83 10000 2.6 200 22:36 20.06.2020
1002 Clear 23 1021 83 10000 3.1 190 22:18 20.06.2020
1003 Clear 23 1021 83 10000 3.1 190 21:54 20.06.2020
1004 Clear 23 1021 73 10000 4.1 190 21:36 20.06.2020
1005 Clear 23 1021 73 10000 4.1 190 21:18 20.06.2020
1006 Clear 23 1021 73 10000 4.1 190 20:54 20.06.2020
1007 Clear 23 1021 73 10000 4.6 200 20:36 20.06.2020
1008 Clear 24 1021 69 10000 5.7 190 20:18 20.06.2020
1009 Clear 24 1021 65 10000 5.7 200 19:42 20.06.2020
1010 Clear 25 1021 61 10000 5.7 200 19:21 20.06.2020
1011 Clear 25 1021 65 10000 7.2 200 18:43 20.06.2020
1012 Clear 25 1022 65 10000 7.2 210 18:21 20.06.2020
1013 Clear 26 1022 65 10000 7.2 210 17:59 20.06.2020
1014 Clear 26 1022 69 10000 7.7 210 17:40 20.06.2020
1015 Clear 26 1022 69 10000 7.7 210 17:21 20.06.2020
1016 Clear 26 1022 69 10000 7.7 210 17:21 20.06.2020
1017 Clear 26 1022 61 10000 7.7 210 16:58 20.06.2020
1018 Clear 27 1022 57 10000 7.2 210 16:38 20.06.2020
1019 Clear 27 1022 51 10000 6.7 220 16:18 20.06.2020
1020 Clear 27 1022 57 10000 6.7 210 15:42 20.06.2020
1021 Clear 26 1023 44 10000 6.7 210 15:18 20.06.2020
1022 Clear 26 1023 44 10000 6.7 210 14:56 20.06.2020
1023 Clear 27 1023 57 10000 7.2 200 14:38 20.06.2020
1024 Clear 27 1023 65 10000 7.2 210 14:18 20.06.2020
1025 Clear 26 1023 65 10000 6.7 220 13:41 20.06.2020
1026 Clear 26 1023 65 10000 5.7 220 13:19 20.06.2020
1027 Clear 26 1023 65 10000 5.7 220 12:55 20.06.2020
1028 Clear 26 1023 69 10000 5.1 210 12:36 20.06.2020
1029 Clear 25 1023 69 10000 5.1 210 12:18 20.06.2020
1030 Clear 26 1023 65 10000 4.1 220 11:38 20.06.2020
1031 Clear 26 1023 65 10000 4.1 220 11:20 20.06.2020
1032 Clear 25 1022 65 10000 3.1 210 10:57 20.06.2020
1033 Clear 25 1022 61 10000 1.5 180 10:38 20.06.2020
1034 Clear 25 1022 61 10000 1.5 180 10:38 20.06.2020
1035 Clear 24 1022 64 10000 1.5 150 10:18 20.06.2020
1036 Clear 23 1022 69 10000 0.5 200 09:41 20.06.2020
1037 Clear 23 1022 69 10000 0.5 200 09:23 20.06.2020
1038 Clear 22 1022 73 10000 1.5 360 08:58 20.06.2020
1039 Clear 21 1022 73 10000 1.5 360 08:39 20.06.2020
1040 Clear 20 1022 82 10000 2.1 350 08:21 20.06.2020
1041 Clear 19 1022 88 10000 2.1 350 07:50 20.06.2020
1042 Clear 19 1022 88 10000 2.1 350 07:25 20.06.2020
1043 Clear 18 1022 88 10000 1 0 06:43 20.06.2020
1044 Clear 19 1021 82 10000 1 20 06:20 20.06.2020
1045 Clear 18 1021 88 10000 1.5 360 05:47 20.06.2020
1046 Clear 20 1022 88 10000 1.5 330 03:25 20.06.2020
1047 Clear 21 1022 77 10000 1.5 280 01:54 20.06.2020
1048 Clear 21 1022 73 10000 2.1 270 01:36 20.06.2020
1049 Clear 22 1022 78 10000 2.6 210 00:45 20.06.2020
1050 Clear 22 1022 78 10000 2.6 230 00:20 20.06.2020
1051 Clear 22 1022 78 10000 3.1 210 23:41 19.06.2020
1052 Clear 22 1021 73 10000 3.6 200 23:20 19.06.2020
1053 Clear 22 1021 73 10000 3.6 200 22:56 19.06.2020
1054 Clear 22 1021 73 10000 4.1 210 22:37 19.06.2020
1055 Clear 22 1021 73 10000 4.6 200 22:19 19.06.2020
1056 Clear 22 1021 73 10000 4.1 210 21:55 19.06.2020
1057 Clear 22 1021 73 10000 4.1 210 21:37 19.06.2020
1058 Clear 23 1020 73 10000 4.6 210 21:18 19.06.2020
1059 Clear 22 1020 73 10000 4.6 210 20:56 19.06.2020
1060 Clear 23 1020 69 10000 5.7 200 20:38 19.06.2020
1061 Clouds 23 1020 69 10000 6.2 210 20:20 19.06.2020
1062 Clouds 23 1020 69 10000 6.2 210 19:54 19.06.2020
1063 Clouds 23 1020 64 10000 6.2 190 19:36 19.06.2020
1064 Clouds 24 1020 60 10000 7.2 190 19:18 19.06.2020
1065 Clouds 24 1020 60 10000 8.2 200 18:40 19.06.2020
1066 Clouds 24 1020 69 10000 7.7 200 18:21 19.06.2020
1067 Clouds 24 1020 69 10000 7.7 210 17:43 19.06.2020
1068 Rain 24 1019 64 10000 8.2 220 17:23 19.06.2020
1069 Rain 24 1019 69 10000 7.2 220 16:59 19.06.2020
1070 Rain 26 1019 69 10000 7.2 220 16:41 19.06.2020
1071 Rain 27 1019 61 10000 6.7 210 16:22 19.06.2020
1072 Rain 27 1019 61 10000 6.7 210 15:54 19.06.2020
1073 Rain 28 1019 45 10000 3.6 110 15:36 19.06.2020
1074 Rain 27 1019 44 10000 3.6 60 15:18 19.06.2020
1075 Rain 27 1019 44 10000 4.1 70 14:41 19.06.2020
1076 Rain 27 1019 50 10000 5.1 80 14:22 19.06.2020
1077 Rain 27 1019 44 10000 4.1 70 14:22 19.06.2020
1078 Rain 26 1019 50 10000 5.1 80 13:59 19.06.2020
1079 Rain 26 1019 50 10000 5.1 90 13:41 19.06.2020
1080 Clouds 26 1019 53 10000 5.1 90 13:23 19.06.2020
1081 Clouds 24 1019 60 10000 5.1 80 12:46 19.06.2020
1082 Rain 23 1019 64 10000 5.1 60 12:22 19.06.2020
1083 Rain 23 1019 64 10000 5.1 60 11:57 19.06.2020
1084 Rain 24 1019 69 10000 4.1 90 11:37 19.06.2020
1085 Rain 24 1019 73 10000 3.1 80 11:18 19.06.2020
1086 Rain 22 1019 73 10000 2.6 70 10:45 19.06.2020
1087 Rain 22 1019 73 10000 2.6 70 10:26 19.06.2020
1088 Rain 22 1019 78 10000 2.6 50 09:57 19.06.2020
1089 Rain 22 1019 78 10000 3.6 80 09:39 19.06.2020
1090 Clouds 22 1018 83 10000 4.6 50 09:19 19.06.2020
1091 Rain 21 1018 83 10000 4.6 50 08:43 19.06.2020
1092 Rain 21 1018 83 10000 3.6 50 08:24 19.06.2020
1093 Rain 21 1018 83 10000 3.6 50 07:56 19.06.2020
1094 Clouds 21 1018 83 10000 2.6 80 07:37 19.06.2020
1095 Clouds 20 1018 82 10000 2.6 50 07:18 19.06.2020
1096 Clouds 20 1017 82 10000 1 0 06:25 19.06.2020
1097 Clouds 20 1017 82 10000 2.6 30 05:43 19.06.2020
1098 Clouds 20 1017 82 10000 0.5 0 04:25 19.06.2020
1099 Clouds 21 1017 77 10000 1 0 02:51 19.06.2020
1100 Clouds 21 1018 83 10000 2.1 130 00:49 19.06.2020
1101 Clear 22 1018 83 10000 2.1 130 00:22 19.06.2020
1102 Clear 22 1017 83 10000 2.1 120 23:59 18.06.2020
1103 Clear 22 1017 83 10000 2.1 90 23:41 18.06.2020
1104 Clear 22 1016 78 10000 2.6 80 23:23 18.06.2020
1105 Clear 22 1016 78 10000 2.6 80 22:59 18.06.2020
1106 Clear 23 1016 78 10000 3.1 80 22:37 18.06.2020
1107 Clear 23 1015 69 10000 4.6 90 22:18 18.06.2020
1108 Clear 23 1015 69 10000 4.6 90 21:39 18.06.2020
1109 Clear 24 1015 73 10000 2.1 260 21:20 18.06.2020
1110 Clear 24 1015 73 10000 2.1 260 20:58 18.06.2020
1111 Clear 25 1015 73 10000 4.6 230 20:38 18.06.2020
1112 Clear 24 1015 73 10000 5.1 220 20:19 18.06.2020
1113 Clear 25 1015 65 10000 3.6 120 19:42 18.06.2020
1114 Clear 25 1014 61 10000 5.1 70 19:22 18.06.2020
1115 Clear 25 1014 61 10000 5.1 70 18:58 18.06.2020
1116 Clear 25 1015 61 10000 4.6 90 18:37 18.06.2020
1117 Clear 25 1015 61 10000 5.7 80 18:19 18.06.2020
1118 Clear 26 1015 61 10000 6.7 60 17:45 18.06.2020
1119 Clear 26 1015 61 10000 6.7 60 17:25 18.06.2020
1120 Clear 26 1015 61 10000 6.7 70 16:56 18.06.2020
1121 Clear 27 1015 61 10000 6.7 70 16:37 18.06.2020
1122 Rain 26 1015 51 10000 3.1 0 16:19 18.06.2020
1123 Rain 26 1015 51 10000 3.1 0 15:56 18.06.2020
1124 Rain 26 1015 54 10000 3.6 0 15:38 18.06.2020
1125 Rain 26 1015 54 10000 4.6 210 15:18 18.06.2020
1126 Rain 26 1015 57 10000 5.7 220 14:55 18.06.2020
1127 Rain 26 1015 57 10000 5.7 220 14:36 18.06.2020
1128 Rain 26 1015 57 10000 6.2 210 14:18 18.06.2020
1129 Rain 26 1016 54 10000 4.6 200 13:41 18.06.2020
1130 Rain 25 1016 57 10000 4.1 210 13:22 18.06.2020
1131 Rain 26 1016 57 10000 4.1 210 12:56 18.06.2020
1132 Rain 26 1016 47 10000 3.1 200 12:37 18.06.2020
1133 Clouds 25 1015 53 10000 3.1 210 12:19 18.06.2020
1134 Clouds 25 1015 57 10000 3.6 240 11:47 18.06.2020
1135 Clouds 24 1015 64 10000 2.6 250 11:21 18.06.2020
1136 Clouds 24 1015 64 10000 2.6 250 11:21 18.06.2020
1137 Clouds 24 1015 64 10000 2.6 250 10:58 18.06.2020
1138 Clouds 24 1015 64 10000 2.6 280 10:38 18.06.2020
1139 Clear 23 1015 69 10000 2.1 170 10:18 18.06.2020
1140 Clear 23 1015 69 10000 2.1 110 09:44 18.06.2020
1141 Clouds 23 1015 69 10000 2.1 110 09:24 18.06.2020
1142 Clouds 22 1014 78 10000 1.5 80 08:43 18.06.2020
1143 Clouds 22 1014 78 10000 1.5 80 08:25 18.06.2020
1144 Clouds 21 1015 83 10000 2.1 60 08:00 18.06.2020
1145 Clouds 20 1015 88 10000 1.5 30 07:41 18.06.2020
1146 Clouds 20 1015 88 10000 1.5 30 07:23 18.06.2020
1147 Clouds 20 1015 88 10000 1 30 06:34 18.06.2020
1148 Clouds 21 1015 83 10000 2.1 80 04:27 18.06.2020
1149 Clouds 21 1016 83 10000 1.5 110 03:30 18.06.2020
1150 Clear 22 1017 78 10000 2.1 140 01:42 18.06.2020
1151 Clear 22 1017 78 10000 2.1 110 01:18 18.06.2020
1152 Clear 22 1017 78 10000 2.6 150 00:49 18.06.2020
1153 Clear 22 1017 78 10000 2.6 130 00:25 18.06.2020
1154 Clear 22 1017 78 10000 2.6 130 23:54 17.06.2020
1155 Clear 22 1017 78 10000 2.1 70 23:36 17.06.2020
1156 Clear 22 1017 78 10000 2.1 80 23:18 17.06.2020
1157 Clear 22 1016 78 10000 2.6 70 22:54 17.06.2020
1158 Clear 22 1016 78 10000 2.6 70 22:36 17.06.2020
1159 Clear 22 1016 73 10000 3.1 80 22:18 17.06.2020
1160 Clear 23 1016 69 10000 3.1 80 21:39 17.06.2020
1161 Clear 23 1015 69 10000 3.6 110 21:20 17.06.2020
1162 Clear 23 1015 69 10000 2.1 100 20:55 17.06.2020
1163 Clear 23 1015 69 10000 2.1 100 20:37 17.06.2020
1164 Clear 23 1015 69 10000 3.6 140 20:18 17.06.2020
1165 Clear 24 1015 69 10000 3.1 210 19:42 17.06.2020
1166 Clear 24 1015 69 10000 3.6 200 19:21 17.06.2020
1167 Clear 24 1015 69 10000 3.6 200 18:56 17.06.2020
1168 Clear 24 1015 69 10000 3.6 200 18:37 17.06.2020
1169 Rain 25 1015 61 10000 4.1 200 18:19 17.06.2020
1170 Rain 25 1016 61 10000 6.2 210 17:40 17.06.2020
1171 Rain 25 1016 61 10000 6.2 210 17:21 17.06.2020
1172 Rain 25 1016 61 10000 6.2 210 17:21 17.06.2020
1173 Rain 25 1016 61 10000 6.2 210 16:56 17.06.2020
1174 Rain 25 1016 61 10000 5.7 200 16:37 17.06.2020
1175 Rain 25 1016 65 10000 6.2 210 16:19 17.06.2020
1176 Rain 25 1016 65 10000 6.7 220 15:40 17.06.2020
1177 Rain 25 1016 57 10000 5.1 230 15:21 17.06.2020
1178 Rain 25 1016 57 10000 5.1 230 14:59 17.06.2020
1179 Rain 26 1016 54 10000 5.1 230 14:40 17.06.2020
1180 Rain 26 1016 50 10000 5.1 210 14:21 17.06.2020
1181 Rain 26 1016 50 10000 5.1 210 13:58 17.06.2020
1182 Rain 26 1016 50 10000 4.6 210 13:40 17.06.2020
1183 Rain 25 1016 53 10000 3.1 230 13:21 17.06.2020
1184 Rain 25 1017 47 10000 3.1 130 12:55 17.06.2020
1185 Rain 25 1017 47 10000 3.1 130 12:37 17.06.2020
1186 Rain 25 1017 50 10000 1.5 0 12:19 17.06.2020
1187 Rain 24 1017 56 10000 2.1 90 11:44 17.06.2020
1188 Rain 24 1017 56 10000 2.1 90 11:24 17.06.2020
1189 Rain 23 1017 60 10000 2.6 50 10:54 17.06.2020
1190 Rain 23 1017 68 10000 2.6 110 10:36 17.06.2020
1191 Clouds 22 1017 68 10000 3.1 70 10:18 17.06.2020
1192 Clouds 22 1017 73 10000 3.1 100 09:41 17.06.2020
1193 Clear 21 1017 73 10000 2.1 60 09:21 17.06.2020
1194 Clear 21 1017 73 10000 2.1 60 08:57 17.06.2020
1195 Clear 20 1016 77 10000 1 0 08:39 17.06.2020
1196 Clear 19 1016 88 10000 2.1 340 08:19 17.06.2020
1197 Clear 19 1016 88 10000 2.1 340 08:19 17.06.2020
1198 Clear 19 1016 88 10000 2.1 360 07:43 17.06.2020
1199 Clear 18 1016 88 10000 1 10 07:22 17.06.2020
1200 Clear 18 1016 88 10000 1 10 06:57 17.06.2020
1201 Clear 18 1016 88 10000 1 30 06:38 17.06.2020
1202 Clear 18 1016 88 10000 1 300 06:20 17.06.2020
1203 Clear 18 1016 88 10000 1 0 05:31 17.06.2020
1204 Clear 19 1016 82 10000 1.5 80 04:18 17.06.2020
1205 Clouds 20 1017 82 10000 1 0 01:55 17.06.2020
1206 Clouds 21 1017 82 10000 0.5 0 00:48 17.06.2020
1207 Clouds 21 1017 82 10000 0.5 0 00:25 17.06.2020
1208 Clouds 21 1017 77 10000 1.5 130 23:57 16.06.2020
1209 Clouds 21 1017 77 10000 1.5 130 23:57 16.06.2020
1210 Clouds 21 1017 77 10000 1.5 130 23:39 16.06.2020
1211 Clouds 22 1017 77 10000 2.1 70 23:20 16.06.2020
1212 Clouds 22 1017 77 10000 2.1 70 22:57 16.06.2020
1213 Clouds 22 1016 73 10000 2.6 80 22:38 16.06.2020
1214 Clear 22 1016 73 10000 2.6 80 22:19 16.06.2020
1215 Clear 23 1016 73 10000 2.6 80 21:54 16.06.2020
1216 Clear 23 1016 69 10000 3.1 80 21:36 16.06.2020
1217 Clear 23 1015 73 10000 1.5 140 21:18 16.06.2020
1218 Clear 24 1015 73 10000 2.6 170 20:42 16.06.2020
1219 Clear 24 1015 69 10000 3.1 170 20:19 16.06.2020
1220 Clear 24 1015 69 10000 3.1 170 20:19 16.06.2020
1221 Clear 24 1015 69 10000 3.1 170 19:58 16.06.2020
1222 Clear 24 1015 69 10000 3.6 200 19:39 16.06.2020
1223 Clear 24 1015 69 10000 5.1 200 19:21 16.06.2020
1224 Clear 24 1015 69 10000 5.1 200 18:55 16.06.2020
1225 Clear 24 1016 69 10000 5.7 210 18:37 16.06.2020
1226 Clear 24 1016 69 10000 5.7 210 18:19 16.06.2020
1227 Clear 24 1016 69 10000 5.7 210 17:55 16.06.2020
1228 Clear 25 1016 69 10000 5.1 190 17:36 16.06.2020
1229 Clear 25 1016 65 10000 6.2 220 17:18 16.06.2020
1230 Clear 25 1016 65 10000 6.7 210 16:42 16.06.2020
1231 Clear 25 1016 69 10000 6.7 210 16:21 16.06.2020
1232 Clear 24 1016 69 10000 6.7 210 15:59 16.06.2020
1233 Clear 25 1016 69 10000 7.2 210 15:41 16.06.2020
1234 Clear 25 1016 65 10000 6.7 200 15:23 16.06.2020
1235 -273 0 0 0 0 0 15:00 16.06.2020
1236 Clear 26 1016 61 10000 6.7 220 14:41 16.06.2020
1237 Clouds 26 1017 65 10000 5.1 220 14:23 16.06.2020
1238 Clouds 25 1017 65 10000 4.6 210 13:49 16.06.2020
1239 Clouds 26 1017 61 10000 5.1 210 13:26 16.06.2020
1240 Clouds 26 1017 61 10000 5.1 210 12:57 16.06.2020
1241 Clouds 26 1018 50 10000 2.1 70 12:38 16.06.2020
1242 Clouds 25 1018 53 10000 3.1 120 12:20 16.06.2020
1243 Clouds 25 1018 53 10000 3.1 120 11:55 16.06.2020
1244 Clouds 25 1018 53 10000 3.1 120 11:37 16.06.2020
1245 Clouds 25 1018 53 10000 3.1 120 11:37 16.06.2020
1246 Clouds 25 1018 57 10000 4.6 80 11:19 16.06.2020
1247 Clouds 24 1018 57 10000 4.6 70 10:43 16.06.2020
1248 Clouds 23 1019 64 10000 3.6 60 10:21 16.06.2020
1249 Clouds 23 1019 64 10000 3.6 60 09:58 16.06.2020
1250 Clouds 22 1019 78 10000 2.6 90 09:40 16.06.2020
1251 Clouds 21 1018 83 10000 2.1 100 09:21 16.06.2020
1252 Clouds 20 1018 88 10000 1 0 08:45 16.06.2020
1253 Clouds 20 1018 88 10000 0.5 0 08:26 16.06.2020
1254 Clouds 19 1018 88 10000 0.5 0 07:50 16.06.2020
1255 Clouds 19 1018 88 10000 0.5 0 07:27 16.06.2020
1256 Clouds 19 1018 93 10000 0.5 0 06:54 16.06.2020
1257 Clouds 19 1018 93 10000 1 0 06:27 16.06.2020
1258 Clouds 20 1018 88 10000 1 0 05:45 16.06.2020
1259 Clouds 20 1018 88 10000 2.1 80 04:40 16.06.2020
1260 Clouds 20 1019 88 10000 1 0 03:00 16.06.2020
1261 Clouds 19 1019 88 10000 1.5 20 02:18 16.06.2020
1262 Clear 20 1019 94 10000 1 50 01:31 16.06.2020
1263 Clear 21 1019 88 10000 1 90 00:52 16.06.2020
1264 Clear 21 1019 88 10000 1 90 00:22 16.06.2020
1265 Clear 21 1019 88 10000 2.1 170 23:43 15.06.2020
1266 Clear 21 1019 88 10000 2.1 170 23:23 15.06.2020
1267 Clear 22 1019 88 10000 1.5 170 22:58 15.06.2020
1268 Clear 22 1019 88 10000 2.1 180 22:39 15.06.2020
1269 Clear 22 1019 88 10000 2.1 180 22:21 15.06.2020
1270 Clear 23 1019 83 10000 2.6 180 21:56 15.06.2020
1271 Clear 23 1019 83 10000 3.6 190 21:37 15.06.2020
1272 Clear 23 1019 78 10000 4.1 200 21:19 15.06.2020
1273 Clear 23 1019 78 10000 4.1 200 20:56 15.06.2020
1274 Clear 23 1019 78 10000 4.1 200 20:38 15.06.2020
1275 Clear 23 1019 73 10000 4.6 190 20:19 15.06.2020
1276 Clear 23 1019 73 10000 4.6 190 19:56 15.06.2020
1277 Clear 23 1019 69 10000 5.7 200 19:38 15.06.2020
1278 Clear 25 1019 69 10000 6.2 200 19:19 15.06.2020
1279 Clear 25 1019 69 10000 6.2 200 18:55 15.06.2020
1280 Clear 25 1019 64 10000 6.2 200 18:37 15.06.2020
1281 Clear 26 1019 61 10000 5.1 200 18:19 15.06.2020
1282 Clear 24 1019 64 10000 6.2 200 17:42 15.06.2020
1283 Clear 24 1019 64 10000 6.7 200 17:21 15.06.2020
1284 Clear 24 1019 64 10000 6.7 200 17:21 15.06.2020
1285 Clear 26 1019 64 10000 6.7 200 16:59 15.06.2020
1286 Clear 26 1020 61 10000 6.2 200 16:40 15.06.2020
1287 Clear 26 1020 64 10000 5.1 200 16:19 15.06.2020
1288 Clear 26 1020 60 10000 5.7 210 15:56 15.06.2020
1289 Clear 26 1020 60 10000 5.7 210 15:56 15.06.2020
1290 Clear 26 1020 60 10000 5.7 210 15:36 15.06.2020
1291 Clear 26 1020 64 10000 5.1 200 15:18 15.06.2020
1292 Clear 26 1021 60 10000 4.6 210 14:42 15.06.2020
1293 Clear 26 1021 60 10000 4.1 210 14:21 15.06.2020
1294 Clear 25 1021 60 10000 4.1 210 13:59 15.06.2020
1295 Clear 25 1021 64 10000 4.6 200 13:40 15.06.2020
1296 Clear 25 1021 69 10000 4.1 210 13:22 15.06.2020
1297 Clear 25 1021 69 10000 4.1 210 12:57 15.06.2020
1298 Clear 24 1021 69 10000 3.6 220 12:39 15.06.2020
1299 Clear 25 1021 64 10000 4.6 230 12:21 15.06.2020
1300 Clear 24 1021 73 10000 3.6 200 11:43 15.06.2020
1301 Clear 24 1021 69 10000 3.1 220 11:25 15.06.2020
1302 Clear 23 1021 56 10000 1.5 120 10:45 15.06.2020
1303 Clear 23 1021 60 10000 1.5 130 10:23 15.06.2020
1304 Clear 23 1021 60 10000 1.5 160 09:57 15.06.2020
1305 Clear 22 1021 60 10000 1.5 160 09:39 15.06.2020
1306 Clear 22 1021 68 10000 1.5 100 09:20 15.06.2020
1307 Clear 20 1021 72 10000 0.5 0 08:41 15.06.2020
1308 Clear 19 1020 82 10000 1.5 330 08:23 15.06.2020
1309 Clear 17 1020 82 10000 1.5 340 07:47 15.06.2020
1310 Clear 17 1020 82 10000 1.5 340 07:28 15.06.2020
1311 Clear 16 1020 77 10000 1.5 340 06:49 15.06.2020
1312 Clear 16 1020 77 10000 1.5 340 06:26 15.06.2020
1313 Clear 16 1020 72 10000 2.1 350 05:47 15.06.2020
1314 Clear 16 1020 67 10000 2.1 350 05:26 15.06.2020
1315 Clear 17 1020 72 10000 2.1 340 04:20 15.06.2020
1316 Clear 17 1020 72 10000 1.5 350 03:42 15.06.2020
1317 Clear 17 1020 72 10000 1 350 02:55 15.06.2020
1318 Clouds 18 1020 77 10000 1.5 340 01:58 15.06.2020
1319 Clouds 18 1020 72 10000 1 0 01:37 15.06.2020
1320 Clouds 18 1020 77 10000 2.1 330 01:18 15.06.2020
1321 Clouds 19 1020 82 10000 2.1 330 00:39 15.06.2020
1322 Clouds 19 1020 77 10000 1 0 00:20 15.06.2020
1323 Clouds 20 1020 77 10000 1 220 23:47 14.06.2020
1324 Clouds 20 1020 77 10000 1 220 23:26 14.06.2020
1325 Clouds 20 1020 77 10000 1.5 210 22:58 14.06.2020
1326 Clouds 21 1020 82 10000 2.1 210 22:40 14.06.2020
1327 Clear 21 1020 73 10000 2.6 210 22:20 14.06.2020
1328 Clear 21 1020 73 10000 2.6 210 21:58 14.06.2020
1329 Clear 22 1020 77 10000 2.6 210 21:40 14.06.2020
1330 Clear 22 1019 68 10000 4.6 210 21:19 14.06.2020
1331 Clear 23 1019 68 10000 4.6 210 20:59 14.06.2020
1332 Clear 23 1019 73 10000 4.6 200 20:40 14.06.2020
1333 Clouds 23 1019 64 10000 4.6 210 20:21 14.06.2020
1334 Clouds 23 1019 64 10000 4.6 210 19:59 14.06.2020
1335 Clouds 23 1019 64 10000 6.7 210 19:59 14.06.2020
1336 Clouds 23 1019 64 10000 4.6 210 19:59 14.06.2020
1337 Clouds 23 1019 64 10000 6.7 210 19:40 14.06.2020
1338 Clouds 24 1019 64 10000 6.7 220 19:20 14.06.2020
1339 Clouds 24 1019 64 10000 6.7 220 18:58 14.06.2020
1340 Clouds 24 1019 53 10000 5.7 210 18:40 14.06.2020
1341 Clouds 25 1019 57 10000 6.2 210 18:21 14.06.2020
1342 Clouds 24 1019 57 10000 6.2 210 17:58 14.06.2020
1343 Clouds 24 1019 60 10000 6.2 210 17:40 14.06.2020
1344 Clouds 24 1019 53 10000 6.2 200 17:20 14.06.2020
1345 Clouds 24 1019 53 10000 6.2 200 16:58 14.06.2020
1346 Clouds 25 1019 47 10000 5.7 190 16:39 14.06.2020
1347 Clouds 24 1019 53 10000 5.1 200 16:19 14.06.2020
1348 Clouds 24 1019 53 10000 5.1 200 15:56 14.06.2020
1349 Clouds 24 1019 60 10000 4.1 200 15:37 14.06.2020
1350 Clouds 23 1020 60 10000 4.1 210 15:18 14.06.2020
1351 Clouds 23 1020 60 10000 4.6 220 14:41 14.06.2020
1352 Clouds 23 1020 60 10000 4.6 220 14:23 14.06.2020
1353 Clouds 23 1020 60 10000 5.7 220 13:59 14.06.2020
1354 Clouds 24 1020 53 10000 5.1 220 13:40 14.06.2020
1355 Clouds 24 1020 53 10000 5.1 220 13:21 14.06.2020
1356 Clouds 25 1020 36 10000 3.6 210 12:57 14.06.2020
1357 Clouds 25 1020 36 10000 3.6 210 12:39 14.06.2020
1358 Clouds 24 1020 53 10000 3.1 220 12:21 14.06.2020
1359 Clouds 24 1020 53 10000 3.1 220 11:57 14.06.2020
1360 Clouds 24 1019 57 10000 2.6 0 11:38 14.06.2020
1361 Clouds 24 1020 57 10000 2.6 220 11:20 14.06.2020
1362 Clouds 23 1020 56 10000 1.5 180 10:42 14.06.2020
1363 Clouds 23 1019 60 10000 1.5 100 10:20 14.06.2020
1364 Clouds 23 1019 60 10000 1.5 100 09:57 14.06.2020
1365 Clouds 23 1019 56 10000 1 30 09:39 14.06.2020
1366 Clouds 22 1019 56 10000 1 0 09:20 14.06.2020
1367 Clouds 19 1019 55 10000 1.5 350 08:42 14.06.2020
1368 Clouds 18 1018 63 10000 2.1 340 08:21 14.06.2020
1369 Clouds 17 1018 63 10000 2.6 360 07:52 14.06.2020
1370 Clouds 16 1018 63 10000 2.6 360 07:34 14.06.2020
1371 Clouds 16 1018 63 10000 2.1 330 06:51 14.06.2020
1372 Clouds 16 1018 67 10000 2.6 350 05:51 14.06.2020
1373 Clear 16 1018 67 10000 2.1 340 05:22 14.06.2020
1374 Clear 17 1018 63 10000 2.6 40 04:37 14.06.2020
1375 Clear 17 1018 63 10000 1.5 10 03:45 14.06.2020
1376 Clouds 18 1018 63 10000 2.1 350 02:35 14.06.2020
1377 Clear 18 1019 68 10000 1.5 50 01:54 14.06.2020
1378 Clear 19 1019 68 10000 1.5 50 01:26 14.06.2020
1379 Clear 21 1019 60 10000 1.5 240 00:47 14.06.2020
1380 Clear 21 1019 56 10000 1.5 0 00:20 14.06.2020
1381 Clear 21 1019 56 10000 1.5 0 00:20 14.06.2020
1382 Clear 21 1018 52 10000 1.5 260 23:46 13.06.2020
1383 Clear 21 1018 52 10000 3.1 270 23:26 13.06.2020
1384 Clear 21 1018 52 10000 3.1 270 22:58 13.06.2020
1385 Clear 21 1017 56 10000 2.1 260 22:38 13.06.2020
1386 Clear 21 1017 53 10000 4.1 250 22:19 13.06.2020
1387 Clear 22 1017 53 10000 4.1 250 21:58 13.06.2020
1388 Clear 22 1017 53 10000 3.1 260 21:40 13.06.2020
1389 Clear 22 1016 49 10000 5.1 220 21:21 13.06.2020
1390 Clear 23 1016 49 10000 5.1 220 20:54 13.06.2020
1391 Clear 23 1016 49 10000 5.1 220 20:54 13.06.2020
1392 Clear 23 1016 49 10000 6.2 220 20:36 13.06.2020
1393 Clear 23 1015 47 10000 6.7 220 20:18 13.06.2020
1394 Clear 24 1015 44 10000 6.7 220 19:39 13.06.2020
1395 Clear 25 1015 36 10000 3.1 320 19:20 13.06.2020
1396 Clear 25 1015 36 10000 3.1 320 18:58 13.06.2020
1397 Clear 25 1015 36 10000 3.6 310 18:40 13.06.2020
1398 Clear 26 1015 34 10000 4.1 340 18:20 13.06.2020
1399 Clear 26 1015 34 10000 4.1 340 17:57 13.06.2020
1400 Clear 26 1015 34 10000 4.1 320 17:38 13.06.2020
1401 Clear 26 1015 34 10000 4.6 320 17:20 13.06.2020
1402 Clear 25 1015 34 10000 4.6 320 16:54 13.06.2020
1403 Clear 25 1015 33 10000 6.2 340 16:36 13.06.2020
1404 Clear 25 1015 33 10000 6.2 300 16:18 13.06.2020
1405 Clear 25 1015 38 10000 5.7 320 15:42 13.06.2020
1406 Clear 25 1014 41 10000 6.7 330 15:21 13.06.2020
1407 Clear 25 1014 50 10000 6.2 320 14:44 13.06.2020
1408 Clear 25 1014 44 10000 6.2 320 14:25 13.06.2020
1409 Clouds 25 1014 44 10000 6.2 320 13:58 13.06.2020
1410 Clouds 25 1013 47 10000 5.7 340 13:40 13.06.2020
1411 Clouds 25 1013 47 10000 6.7 320 13:21 13.06.2020
1412 Clouds 25 1013 47 10000 6.2 330 12:44 13.06.2020
1413 Clouds 25 1012 47 10000 5.1 330 12:26 13.06.2020
1414 Clouds 25 1012 47 10000 5.1 330 11:59 13.06.2020
1415 Clouds 24 1012 36 10000 5.1 280 11:39 13.06.2020
1416 Clouds 24 1012 36 10000 4.6 300 11:19 13.06.2020
1417 Clouds 25 1012 36 10000 4.6 300 10:56 13.06.2020
1418 Clouds 24 1012 44 10000 4.1 270 10:38 13.06.2020
1419 Clouds 24 1012 44 10000 4.6 240 10:18 13.06.2020
1420 Clouds 23 1012 49 10000 4.1 260 09:44 13.06.2020
1421 Clouds 23 1011 73 10000 1 270 09:22 13.06.2020
1422 Clouds 21 1011 83 10000 1.5 190 08:49 13.06.2020
1423 Clear 21 1011 83 10000 1.5 190 08:31 13.06.2020
1424 Clear 21 1011 88 10000 1 0 07:55 13.06.2020
1425 Clear 20 1011 88 10000 1 0 07:30 13.06.2020
1426 Rain 20 1010 88 10000 2.1 70 06:51 13.06.2020
1427 Rain 20 1010 88 10000 2.1 70 06:33 13.06.2020
1428 Rain 20 1010 88 10000 1.5 100 05:47 13.06.2020
1429 Rain 20 1010 88 10000 1.5 100 05:25 13.06.2020
1430 Rain 19 1010 88 10000 1.5 70 03:48 13.06.2020
1431 Clear 19 1010 88 10000 1.5 110 02:54 13.06.2020
1432 Clear 19 1010 88 10000 1.5 110 02:35 13.06.2020
1433 Clear 19 1010 88 10000 1 0 01:46 13.06.2020
1434 Clear 20 1010 82 10000 1.5 190 01:21 13.06.2020
1435 Clear 20 1010 82 10000 1.5 170 00:42 13.06.2020
1436 Clear 20 1010 82 10000 2.1 180 00:23 13.06.2020
1437 Clear 20 1010 82 10000 1.5 190 23:42 12.06.2020
1438 Clear 21 1010 77 10000 2.6 200 23:19 12.06.2020
1439 Clear 21 1010 77 10000 2.6 200 22:59 12.06.2020
1440 Clear 21 1009 77 10000 3.1 210 22:40 12.06.2020
1441 Clear 21 1009 83 10000 4.1 210 22:19 12.06.2020
1442 Clear 21 1009 77 10000 2.6 210 21:49 12.06.2020
1443 Clear 22 1009 77 10000 2.6 210 21:26 12.06.2020
1444 Clear 22 1009 77 10000 3.6 200 20:58 12.06.2020
1445 Clear 22 1009 77 10000 3.6 200 20:58 12.06.2020
1446 Clear 22 1009 73 10000 4.1 220 20:40 12.06.2020
1447 Clear 23 1008 69 10000 6.2 220 20:22 12.06.2020
1448 Clear 23 1008 69 10000 6.2 220 19:56 12.06.2020
1449 Clear 23 1008 73 10000 7.7 220 19:38 12.06.2020
1450 Clear 23 1008 69 10000 7.7 220 19:18 12.06.2020
1451 Clear 24 1008 57 10000 5.7 210 18:39 12.06.2020
1452 Clear 24 1008 53 10000 5.7 210 18:19 12.06.2020
1453 Clear 25 1008 47 10000 6.7 210 17:58 12.06.2020
1454 Clear 25 1008 47 10000 6.7 210 17:38 12.06.2020
1455 Clear 25 1008 47 10000 6.7 220 17:18 12.06.2020
1456 Clear 25 1008 44 10000 7.7 210 16:41 12.06.2020
1457 Clear 25 1007 44 10000 7.7 210 16:20 12.06.2020
1458 Clear 26 1007 41 10000 7.7 210 15:48 12.06.2020
1459 Clear 25 1007 41 10000 7.7 210 15:25 12.06.2020
1460 Clear 26 1007 41 10000 8.2 220 14:58 12.06.2020
1461 Clear 26 1007 41 10000 5.7 250 14:39 12.06.2020
1462 Clear 26 1007 41 10000 6.7 260 14:21 12.06.2020
1463 Clear 26 1007 39 10000 6.2 250 13:42 12.06.2020
1464 Clear 26 1007 41 10000 6.2 270 13:21 12.06.2020
1465 Clear 26 1007 41 10000 5.7 270 12:41 12.06.2020
1466 Clear 26 1007 39 10000 6.2 240 12:20 12.06.2020
1467 Clear 26 1007 39 10000 6.2 240 11:59 12.06.2020
1468 Clear 26 1007 39 10000 6.7 240 11:40 12.06.2020
1469 Clear 26 1007 39 10000 6.7 240 11:22 12.06.2020
1470 Clear 25 1006 41 10000 8.2 260 10:47 12.06.2020
1471 Clear 25 1006 41 10000 8.2 260 10:25 12.06.2020
1472 Clear 24 1006 57 10000 3.6 260 09:48 12.06.2020
1473 Clear 23 1006 83 10000 2.6 240 09:22 12.06.2020
1474 Clouds 22 1006 78 10000 2.1 240 08:46 12.06.2020
1475 Clear 22 1005 83 10000 1.5 300 08:25 12.06.2020
1476 Clear 21 1005 83 10000 1.5 300 07:57 12.06.2020
1477 Clear 21 1005 88 10000 1.5 220 07:39 12.06.2020
1478 Clear 21 1005 88 10000 1 0 07:21 12.06.2020
1479 Clear 21 1005 88 10000 2.6 200 06:38 12.06.2020
1480 Clear 21 1005 77 10000 2.6 200 06:19 12.06.2020
1481 Clear 21 1005 77 10000 3.1 200 05:47 12.06.2020
1482 Clear 21 1005 77 10000 4.1 210 05:20 12.06.2020
1483 Clear 21 1005 73 10000 4.6 190 03:47 12.06.2020
1484 Clear 21 1006 73 10000 3.6 190 02:24 12.06.2020
1485 Clear 21 1006 77 10000 2.6 190 01:33 12.06.2020
1486 Clear 21 1006 77 10000 2.6 200 00:58 12.06.2020
1487 Clear 21 1006 77 10000 2.6 200 00:38 12.06.2020
1488 Clear 21 1006 77 10000 3.1 200 00:20 12.06.2020
1489 Clear 21 1006 77 10000 3.1 200 00:20 12.06.2020
1490 Clear 21 1006 77 10000 3.6 200 23:56 11.06.2020
1491 Clear 21 1006 77 10000 3.6 200 23:37 11.06.2020
1492 Clear 21 1006 83 10000 3.1 200 23:19 11.06.2020
1493 Clear 21 1006 83 10000 3.1 200 22:54 11.06.2020
1494 Clear 21 1006 83 10000 2.6 190 22:36 11.06.2020
1495 Clear 21 1006 83 10000 2.1 200 22:18 11.06.2020
1496 Clear 22 1006 83 10000 2.6 190 21:42 11.06.2020
1497 Clear 22 1006 77 10000 3.6 190 21:20 11.06.2020
1498 Clear 22 1006 78 10000 4.1 200 20:57 11.06.2020
1499 Clear 22 1006 78 10000 4.1 200 20:38 11.06.2020
1500 Clear 23 1007 73 10000 3.6 190 20:20 11.06.2020
1501 Clear 22 1007 78 10000 5.1 200 19:43 11.06.2020
1502 Clear 23 1007 78 10000 5.1 200 19:22 11.06.2020
1503 Clear 23 1007 69 10000 5.1 200 18:54 11.06.2020
1504 Clear 23 1007 69 10000 5.1 200 18:36 11.06.2020
1505 Clear 23 1007 69 10000 5.1 200 18:18 11.06.2020
1506 Clear 24 1007 69 10000 5.1 200 17:55 11.06.2020
1507 Clear 24 1008 64 10000 6.2 210 17:37 11.06.2020
1508 Clear 24 1008 64 10000 5.7 200 17:18 11.06.2020
1509 Clear 24 1008 69 10000 6.7 200 16:42 11.06.2020
1510 Clear 25 1008 69 10000 6.7 200 16:23 11.06.2020
1511 Clear 24 1009 64 10000 7.2 190 15:57 11.06.2020
1512 Clear 24 1009 64 10000 6.2 200 15:38 11.06.2020
1513 Clear 24 1009 73 10000 6.7 200 15:20 11.06.2020
1514 Clear 23 1009 73 10000 6.2 200 14:44 11.06.2020
1515 Clouds 24 1010 64 10000 6.7 190 14:21 11.06.2020
1516 Clouds 23 1010 64 10000 6.7 190 13:57 11.06.2020
1517 Clouds 23 1010 69 10000 6.7 210 13:39 11.06.2020
1518 Clouds 23 1010 69 10000 6.2 200 13:20 11.06.2020
1519 Clouds 23 1010 69 10000 6.2 190 12:57 11.06.2020
1520 Clouds 23 1010 69 10000 6.2 190 12:39 11.06.2020
1521 Clouds 23 1010 69 10000 5.7 200 12:19 11.06.2020
1522 Clouds 22 1011 78 10000 6.2 200 11:57 11.06.2020
1523 Clouds 22 1011 78 10000 6.2 200 11:38 11.06.2020
1524 Clouds 22 1011 78 10000 6.2 200 11:38 11.06.2020
1525 Clouds 22 1011 78 10000 5.7 190 11:20 11.06.2020
1526 Clouds 22 1011 83 10000 4.1 190 10:57 11.06.2020
1527 Clouds 21 1011 83 10000 4.1 190 10:38 11.06.2020
1528 Clouds 21 1011 83 10000 1.5 190 10:18 11.06.2020
1529 Clouds 21 1012 88 10000 2.1 70 09:42 11.06.2020
1530 Clouds 19 1012 93 10000 1.5 90 09:23 11.06.2020
1531 Clouds 19 1012 88 10000 0.5 0 08:44 11.06.2020
1532 Clouds 19 1012 93 10000 1 0 08:20 11.06.2020
1533 Clouds 18 1012 93 10000 1.5 360 07:57 11.06.2020
1534 Clouds 18 1012 93 10000 1.5 360 07:39 11.06.2020
1535 Clouds 18 1012 93 10000 0.5 0 07:20 11.06.2020
1536 Clouds 18 1012 93 10000 1 0 06:28 11.06.2020
1537 Rain 18 1013 93 10000 1.5 10 05:39 11.06.2020
1538 Rain 19 1014 93 10000 2.6 300 03:54 11.06.2020
1539 Rain 19 1014 93 10000 2.6 300 03:23 11.06.2020
1540 Rain 19 1014 82 10000 1 0 02:32 11.06.2020
1541 Rain 19 1015 82 10000 1.5 350 01:51 11.06.2020
1542 Clouds 19 1015 82 10000 1.5 340 01:25 11.06.2020
1543 Clouds 19 1015 82 10000 1.5 360 00:50 11.06.2020
1544 Clouds 20 1015 77 10000 1.5 320 00:29 11.06.2020
1545 Clouds 20 1015 82 10000 2.6 260 23:49 10.06.2020
1546 Clouds 21 1015 82 10000 3.1 250 23:27 10.06.2020
1547 Clouds 21 1015 82 10000 3.1 250 22:59 10.06.2020
1548 Clouds 21 1015 82 10000 1 200 22:38 10.06.2020
1549 Clouds 21 1015 82 10000 2.1 200 22:20 10.06.2020
1550 Clouds 21 1015 82 10000 2.1 200 21:58 10.06.2020
1551 Clouds 21 1015 82 10000 2.1 200 21:58 10.06.2020
1552 Clouds 21 1015 73 10000 3.1 200 21:40 10.06.2020
1553 Clouds 21 1014 73 10000 4.6 220 21:18 10.06.2020
1554 Clouds 21 1014 73 10000 4.6 220 20:57 10.06.2020
1555 Clouds 21 1015 73 10000 5.1 210 20:39 10.06.2020
1556 Clouds 22 1015 68 10000 5.1 210 20:21 10.06.2020
1557 Clouds 22 1015 68 10000 5.1 210 19:56 10.06.2020
1558 Clouds 22 1015 64 10000 6.2 230 19:37 10.06.2020
1559 Clouds 22 1015 64 10000 6.2 230 19:18 10.06.2020
1560 Clouds 22 1015 64 10000 6.2 210 18:41 10.06.2020
1561 Clouds 22 1015 64 10000 7.7 220 18:20 10.06.2020
1562 Clouds 23 1015 60 10000 8.2 210 17:58 10.06.2020
1563 Clouds 23 1015 60 10000 8.2 210 17:40 10.06.2020
1564 Clouds 23 1015 60 10000 7.7 220 17:20 10.06.2020
1565 Clouds 23 1015 60 10000 7.7 220 16:58 10.06.2020
1566 Clouds 23 1016 56 10000 7.2 220 16:40 10.06.2020
1567 Clouds 22 1016 64 10000 6.7 210 16:20 10.06.2020
1568 Clouds 22 1016 64 10000 6.7 210 16:20 10.06.2020
1569 Clouds 22 1016 64 10000 6.7 210 16:20 10.06.2020
1570 Clouds 22 1016 64 10000 6.7 210 16:20 10.06.2020
1571 Clouds 22 1016 64 10000 6.7 210 15:55 10.06.2020
1572 Clouds 23 1016 56 10000 6.2 200 15:36 10.06.2020
1573 Clouds 23 1016 60 10000 6.7 190 15:18 10.06.2020
1574 Rain 23 1016 56 10000 7.2 220 14:40 10.06.2020
1575 Rain 23 1016 56 10000 5.1 200 14:21 10.06.2020
1576 Clouds 23 1016 56 10000 5.1 200 13:56 10.06.2020
1577 Clouds 22 1017 64 10000 4.1 220 13:38 10.06.2020
1578 Clouds 21 1017 64 10000 1.5 210 13:19 10.06.2020
1579 Clouds 21 1017 68 10000 1 310 12:40 10.06.2020
1580 Clouds 20 1017 72 10000 2.1 360 12:18 10.06.2020
1581 Clouds 18 1017 82 10000 2.6 30 11:44 10.06.2020
1582 Rain 20 1017 77 6000 3.6 310 11:20 10.06.2020
1583 Clear 21 1017 56 10000 2.1 180 10:59 10.06.2020
1584 Rain 21 1017 56 10000 2.1 180 10:41 10.06.2020
1585 Clear 21 1017 60 10000 1.5 160 10:22 10.06.2020
1586 Clear 20 1017 64 10000 1 0 09:57 10.06.2020
1587 Clear 20 1017 64 10000 1 0 09:37 10.06.2020
1588 Clear 19 1017 68 10000 0.5 0 09:19 10.06.2020
1589 Clear 18 1017 68 10000 1 0 08:42 10.06.2020
1590 Clouds 16 1017 77 10000 2.1 260 08:23 10.06.2020
1591 Clouds 15 1017 72 10000 1 0 07:43 10.06.2020
1592 Clouds 14 1017 76 10000 3.1 30 07:23 10.06.2020
1593 Clouds 14 1017 76 10000 1.5 10 06:59 10.06.2020
1594 Clouds 14 1017 76 10000 1.5 10 06:38 10.06.2020
1595 Clouds 14 1017 76 10000 2.1 360 06:18 10.06.2020
1596 Clouds 13 1017 82 10000 1.5 340 05:49 10.06.2020
1597 Clouds 14 1017 82 10000 0.5 0 05:18 10.06.2020
1598 Clouds 14 1017 82 10000 2.1 20 04:29 10.06.2020
1599 Clouds 16 1018 77 10000 1.5 20 02:34 10.06.2020
1600 Clear 16 1018 77 10000 2.1 320 01:48 10.06.2020
1601 Clear 16 1018 82 10000 1.5 340 01:21 10.06.2020
1602 Clear 17 1018 77 10000 1 300 00:38 10.06.2020
1603 Clear 17 1018 72 10000 2.1 10 00:20 10.06.2020
1604 Clear 18 1018 63 10000 1.5 330 23:54 09.06.2020
1605 Clear 18 1018 63 10000 1.5 330 23:36 09.06.2020
1606 Clear 18 1018 63 10000 0.5 0 23:18 09.06.2020
1607 Clear 19 1018 63 10000 0.5 0 22:54 09.06.2020
1608 Clear 19 1017 59 10000 2.1 270 22:36 09.06.2020
1609 Clear 19 1017 59 10000 2.6 270 22:18 09.06.2020
1610 Clear 20 1017 56 10000 3.6 250 21:54 09.06.2020
1611 Clear 20 1017 56 10000 3.6 250 21:36 09.06.2020
1612 Clear 21 1016 52 10000 3.6 250 21:18 09.06.2020
1613 Clear 21 1016 52 10000 3.6 250 20:54 09.06.2020
1614 Clear 22 1016 49 10000 5.7 230 20:36 09.06.2020
1615 Clear 22 1016 49 10000 5.7 220 20:18 09.06.2020
1616 Clear 22 1016 49 10000 6.2 210 19:54 09.06.2020
1617 Clear 22 1016 49 10000 6.2 210 19:54 09.06.2020
1618 Clear 22 1016 49 10000 6.2 210 19:36 09.06.2020
1619 Clear 21 1016 52 10000 7.2 220 19:18 09.06.2020
1620 Clear 22 1016 49 10000 7.7 220 18:42 09.06.2020
1621 Clear 22 1016 52 10000 7.7 220 18:24 09.06.2020
1622 Clear 22 1016 52 10000 7.7 220 17:57 09.06.2020
1623 Clear 22 1016 49 10000 7.7 220 17:38 09.06.2020
1624 Clear 22 1016 53 10000 7.7 220 17:20 09.06.2020
1625 Clear 22 1016 53 10000 7.7 220 16:55 09.06.2020
1626 Clear 22 1016 53 10000 7.7 220 16:36 09.06.2020
1627 Clear 22 1016 53 10000 8.2 210 16:18 09.06.2020
1628 Clear 22 1016 49 10000 8.7 210 15:39 09.06.2020
1629 Clear 22 1017 49 10000 9.3 210 15:21 09.06.2020
1630 Clear 22 1017 49 10000 9.3 210 14:57 09.06.2020
1631 Clear 22 1017 56 10000 8.2 210 14:37 09.06.2020
1632 Clear 22 1017 53 10000 7.2 210 14:18 09.06.2020
1633 Clear 22 1017 53 10000 6.7 210 13:43 09.06.2020
1634 Clear 22 1017 56 10000 5.1 210 13:21 09.06.2020
1635 Clear 22 1017 60 10000 4.1 220 12:59 09.06.2020
1636 Clear 22 1017 60 10000 4.1 220 12:41 09.06.2020
1637 Clear 22 1017 60 10000 2.6 220 12:19 09.06.2020
1638 Clear 21 1017 64 10000 3.1 230 11:56 09.06.2020
1639 Clear 21 1017 64 10000 3.1 230 11:56 09.06.2020
1640 Clear 21 1017 64 10000 3.1 230 11:37 09.06.2020
1641 Clear 21 1017 68 10000 3.6 250 11:19 09.06.2020
1642 Clear 21 1017 68 10000 3.6 250 11:19 09.06.2020
1643 Clear 21 1017 64 10000 1 100 10:45 09.06.2020
1644 Clear 21 1017 64 10000 1 100 10:27 09.06.2020
1645 Clear 20 1017 72 10000 1 0 09:59 09.06.2020
1646 Clear 18 1017 77 10000 1 0 09:39 09.06.2020
1647 Clear 18 1016 77 10000 0.5 40 09:19 09.06.2020
1648 Clear 16 1016 87 10000 0.5 40 08:40 09.06.2020
1649 Clear 16 1016 87 10000 1 0 08:21 09.06.2020
1650 Clear 16 1016 87 10000 1 0 08:21 09.06.2020
1651 Clear 14 1016 87 10000 1.5 360 07:43 09.06.2020
1652 Clear 14 1016 93 10000 2.1 10 07:23 09.06.2020
1653 Clear 13 1016 93 10000 1 0 06:56 09.06.2020
1654 Clear 13 1016 93 10000 1 0 06:36 09.06.2020
1655 Clear 13 1016 93 10000 1 0 05:53 09.06.2020
1656 Clear 14 1016 93 10000 1.5 40 04:22 09.06.2020
1657 Clear 14 1016 93 10000 2.1 340 02:50 09.06.2020
1658 Rain 15 1016 93 10000 3.1 330 01:39 09.06.2020
1659 Clear 15 1016 93 10000 3.1 330 01:19 09.06.2020
1660 Clear 15 1016 93 10000 2.1 330 00:44 09.06.2020
1661 Clear 16 1016 87 10000 2.1 340 00:19 09.06.2020
1662 Clear 16 1016 93 10000 1.5 350 23:43 08.06.2020
1663 Clear 16 1016 93 10000 1 340 23:22 08.06.2020
1664 Clear 16 1016 93 10000 1 340 22:59 08.06.2020
1665 Clear 16 1016 93 10000 1 340 22:59 08.06.2020
1666 Clear 17 1015 88 10000 1.5 350 22:39 08.06.2020
1667 Clear 17 1015 82 10000 1.5 20 22:20 08.06.2020
1668 Clear 18 1015 82 10000 2.1 30 21:56 08.06.2020
1669 Clouds 18 1015 82 10000 2.1 30 21:38 08.06.2020
1670 Clear 18 1014 82 10000 2.1 40 21:19 08.06.2020
1671 Clear 18 1014 82 10000 2.1 40 20:55 08.06.2020
1672 Clear 18 1014 82 10000 2.6 80 20:37 08.06.2020
1673 Clouds 18 1014 82 10000 3.1 70 20:18 08.06.2020
1674 Rain 18 1014 88 10000 3.1 40 19:43 08.06.2020
1675 Rain 18 1014 88 10000 1.5 70 19:22 08.06.2020
1676 Rain 18 1014 82 10000 2.1 90 18:58 08.06.2020
1677 Rain 18 1014 82 10000 2.1 90 18:39 08.06.2020
1678 Rain 18 1014 88 10000 2.6 120 18:18 08.06.2020
1679 Clouds 18 1014 88 10000 2.6 120 17:54 08.06.2020
1680 Clouds 19 1014 82 10000 2.6 110 17:36 08.06.2020
1681 Clouds 18 1014 82 10000 2.6 120 17:18 08.06.2020
1682 Rain 18 1014 88 10000 2.6 120 16:42 08.06.2020
1683 Rain 18 1014 88 4500 2.6 120 16:22 08.06.2020
1684 Rain 17 1015 88 3600 2.1 150 15:44 08.06.2020
1685 Rain 17 1015 82 3200 2.6 130 15:22 08.06.2020
1686 Rain 18 1015 82 3200 2.6 130 14:59 08.06.2020
1687 Rain 18 1014 77 7000 3.1 80 14:40 08.06.2020
1688 Clouds 19 1014 72 10000 3.1 30 14:20 08.06.2020
1689 Clouds 19 1014 72 10000 3.1 30 14:20 08.06.2020
1690 Clouds 19 1014 68 10000 3.6 40 13:44 08.06.2020
1691 Clouds 19 1014 77 10000 2.1 330 13:26 08.06.2020
1692 Rain 19 1014 82 10000 2.6 10 12:54 08.06.2020
1693 Rain 19 1014 82 10000 2.6 10 12:36 08.06.2020
1694 Rain 18 1014 82 4700 1.5 30 12:18 08.06.2020
1695 Rain 19 1014 72 7000 4.6 60 11:42 08.06.2020
1696 Rain 19 1013 68 10000 3.6 90 11:23 08.06.2020
1697 Rain 20 1013 68 10000 3.6 90 10:59 08.06.2020
1698 Rain 20 1013 64 10000 4.1 80 10:40 08.06.2020
1699 Clouds 19 1013 68 10000 4.6 70 10:21 08.06.2020
1700 Clouds 19 1013 68 10000 4.6 70 09:59 08.06.2020
1701 Clouds 19 1013 68 10000 4.6 70 09:59 08.06.2020
1702 Clouds 19 1013 68 10000 3.6 80 09:41 08.06.2020
1703 Clouds 19 1013 72 10000 2.1 80 09:22 08.06.2020
1704 Clouds 18 1013 77 10000 1.5 20 08:48 08.06.2020
1705 Clouds 17 1012 88 10000 0.5 0 08:23 08.06.2020
1706 Clouds 16 1012 87 10000 1 0 07:46 08.06.2020
1707 Clouds 17 1012 82 10000 1 340 07:24 08.06.2020
1708 Clouds 17 1012 82 10000 2.6 50 06:54 08.06.2020
1709 Clouds 17 1012 82 10000 2.6 50 06:36 08.06.2020
1710 Clouds 16 1011 82 10000 2.6 30 05:54 08.06.2020
1711 Rain 17 1012 82 10000 3.1 20 04:32 08.06.2020
1712 Rain 17 1011 88 10000 3.6 50 02:54 08.06.2020
1713 Rain 17 1011 88 10000 6.7 50 02:25 08.06.2020
1714 Rain 17 1012 93 10000 4.1 70 01:38 08.06.2020
1715 Rain 17 1014 88 4000 4.6 340 00:41 08.06.2020
1716 Rain 18 1012 93 450 8.2 50 00:19 08.06.2020
1717 Clear 19 1011 77 10000 6.7 60 23:38 07.06.2020
1718 Rain 20 1011 77 10000 6.7 60 23:18 07.06.2020
1719 Rain 20 1011 77 10000 6.7 60 22:55 07.06.2020
1720 Rain 20 1011 77 10000 5.1 80 22:36 07.06.2020
1721 Rain 20 1011 77 10000 5.1 90 22:18 07.06.2020
1722 Rain 20 1011 77 10000 5.1 90 21:57 07.06.2020
1723 Rain 20 1010 77 10000 5.1 70 21:36 07.06.2020
1724 Rain 20 1010 77 10000 5.1 70 21:36 07.06.2020
1725 Rain 21 1010 73 10000 6.7 70 21:18 07.06.2020
1726 Rain 22 1010 73 10000 6.2 80 20:39 07.06.2020
1727 Rain 22 1010 73 10000 6.2 80 20:20 07.06.2020
1728 Rain 23 1009 69 10000 7.2 70 19:57 07.06.2020
1729 Rain 23 1009 69 10000 7.2 70 19:38 07.06.2020
1730 Rain 24 1009 60 10000 5.7 80 19:19 07.06.2020
1731 Rain 24 1009 64 10000 7.7 70 18:56 07.06.2020
1732 Rain 24 1009 64 10000 7.7 70 18:38 07.06.2020
1733 Rain 24 1009 64 10000 6.7 80 18:19 07.06.2020
1734 Rain 23 1009 64 10000 8.2 60 17:56 07.06.2020
1735 Rain 23 1009 64 10000 8.2 60 17:37 07.06.2020
1736 Rain 24 1008 60 10000 8.7 70 17:19 07.06.2020
1737 Clouds 25 1008 61 10000 6.7 70 16:42 07.06.2020
1738 Rain 24 1008 57 10000 3.6 150 16:21 07.06.2020
1739 Rain 25 1008 57 10000 3.6 150 15:42 07.06.2020
1740 Rain 26 1007 57 10000 3.6 90 15:22 07.06.2020
1741 Rain 27 1007 51 10000 3.6 190 14:41 07.06.2020
1742 Rain 27 1007 51 10000 4.6 220 14:22 07.06.2020
1743 Rain 27 1007 51 10000 4.6 220 14:22 07.06.2020
1744 Rain 26 1007 57 10000 4.1 210 13:50 07.06.2020
1745 Clouds 26 1007 54 10000 2.6 40 13:22 07.06.2020
1746 Clouds 26 1007 54 10000 2.6 40 12:58 07.06.2020
1747 Clouds 26 1007 54 10000 2.6 40 12:40 07.06.2020
1748 Rain 25 1007 60 10000 1 330 12:20 07.06.2020
1749 Rain 24 1007 60 10000 1 330 11:55 07.06.2020
1750 Rain 24 1007 64 10000 2.1 40 11:36 07.06.2020
1751 Clouds 23 1007 78 10000 2.1 10 11:18 07.06.2020
1752 Rain 22 1007 77 10000 2.1 300 10:45 07.06.2020
1753 Rain 22 1006 78 10000 1 250 10:21 07.06.2020
1754 Rain 22 1006 78 10000 1 250 09:59 07.06.2020
1755 Rain 21 1006 68 10000 2.6 0 09:40 07.06.2020
1756 Rain 21 1006 68 10000 2.6 0 09:21 07.06.2020
1757 Clouds 21 1006 68 10000 2.6 360 08:58 07.06.2020
1758 Clouds 21 1005 77 10000 2.6 50 08:40 07.06.2020
1759 Clouds 20 1006 82 10000 2.6 310 08:21 07.06.2020
1760 Clouds 19 1005 82 10000 1 0 07:39 07.06.2020
1761 Clouds 19 1005 88 10000 2.1 20 06:55 07.06.2020
1762 Clouds 19 1005 88 10000 2.1 20 05:57 07.06.2020
1763 Clouds 19 1006 88 10000 1.5 350 04:22 07.06.2020
1764 Clouds 19 1007 93 10000 1.5 340 03:48 07.06.2020
1765 Clouds 19 1007 93 10000 1.5 340 03:48 07.06.2020
1766 Clear 19 1007 88 10000 1 0 02:19 07.06.2020
1767 Mist 20 1008 88 1700 1 80 01:26 07.06.2020
1768 Clear 20 1008 88 10000 2.1 200 00:59 07.06.2020
1769 Clear 20 1008 88 10000 2.1 200 00:39 07.06.2020
1770 Clear 21 1008 88 10000 1 0 00:18 07.06.2020
1771 Clear 21 1008 88 10000 2.1 180 23:38 06.06.2020
1772 Clear 21 1008 83 10000 2.1 180 23:20 06.06.2020
1773 Clear 21 1008 83 10000 2.1 180 22:58 06.06.2020
1774 Clear 21 1008 83 10000 2.1 200 22:39 06.06.2020
1775 Clear 21 1008 83 10000 2.1 220 22:20 06.06.2020
1776 Clear 22 1008 83 10000 2.1 220 21:56 06.06.2020
1777 Clear 22 1008 78 10000 3.1 210 21:38 06.06.2020
1778 Clear 22 1008 78 10000 4.1 200 21:19 06.06.2020
1779 Clear 23 1008 78 10000 4.1 190 20:40 06.06.2020
1780 Clouds 23 1009 78 10000 3.6 210 20:21 06.06.2020
1781 Clouds 23 1009 78 10000 3.6 210 19:58 06.06.2020
1782 Clouds 23 1009 73 10000 4.1 210 19:40 06.06.2020
1783 Clouds 23 1009 73 10000 4.1 210 19:22 06.06.2020
1784 Clouds 23 1009 73 10000 3.6 210 18:56 06.06.2020
1785 Clouds 25 1009 73 10000 3.6 210 18:38 06.06.2020
1786 Clouds 25 1010 73 10000 4.6 210 18:20 06.06.2020
1787 Clouds 25 1010 73 10000 5.1 200 17:43 06.06.2020
1788 Clear 25 1010 65 10000 5.7 200 17:21 06.06.2020
1789 Clear 25 1010 65 10000 5.7 200 16:57 06.06.2020
1790 Clear 25 1011 69 10000 5.7 190 16:38 06.06.2020
1791 Clear 24 1011 69 10000 5.1 190 16:20 06.06.2020
1792 Clear 24 1011 69 10000 5.1 200 15:45 06.06.2020
1793 Clear 25 1011 69 10000 5.7 210 15:21 06.06.2020
1794 Clear 25 1011 69 10000 5.7 210 14:59 06.06.2020
1795 Clear 26 1011 65 10000 6.7 200 14:38 06.06.2020
1796 Clear 25 1012 65 10000 5.7 210 14:20 06.06.2020
1797 Clear 25 1012 65 10000 5.1 210 13:49 06.06.2020
1798 Clear 25 1012 69 10000 4.1 180 13:20 06.06.2020
1799 Clear 24 1012 69 10000 4.1 180 12:59 06.06.2020
1800 Clear 24 1012 73 10000 4.6 220 12:40 06.06.2020
1801 Clear 24 1012 69 10000 3.6 220 12:21 06.06.2020
1802 Clear 24 1012 69 10000 3.6 220 11:57 06.06.2020
1803 Clear 23 1012 69 10000 3.6 210 11:38 06.06.2020
1804 Clear 23 1012 73 10000 3.6 240 11:19 06.06.2020
1805 Clear 23 1012 73 10000 3.6 240 10:57 06.06.2020
1806 Clear 23 1013 73 10000 2.6 230 10:38 06.06.2020
1807 Clear 22 1013 73 10000 2.6 230 10:20 06.06.2020
1808 Clear 21 1013 73 10000 0.5 280 09:44 06.06.2020
1809 Clear 21 1013 73 10000 0.5 280 09:44 06.06.2020
1810 Clouds 20 1012 68 10000 0.5 340 09:25 06.06.2020
1811 Clouds 20 1012 68 10000 1.5 360 08:49 06.06.2020
1812 Clouds 19 1012 68 10000 1.5 360 08:25 06.06.2020
1813 Clouds 17 1012 63 10000 1.5 360 07:59 06.06.2020
1814 Clouds 16 1012 67 10000 2.1 360 07:40 06.06.2020
1815 Clouds 16 1012 67 10000 2.1 360 07:20 06.06.2020
1816 Clouds 15 1012 72 10000 1 330 06:46 06.06.2020
1817 Clouds 15 1012 67 10000 2.6 20 06:26 06.06.2020
1818 Clouds 16 1012 67 10000 2.1 360 05:50 06.06.2020
1819 Clear 16 1012 67 10000 2.1 360 05:25 06.06.2020
1820 Clear 16 1012 63 10000 1.5 330 04:38 06.06.2020
1821 Clear 16 1013 67 10000 2.1 350 02:36 06.06.2020
1822 Clear 17 1014 63 10000 1.5 40 01:41 06.06.2020
1823 Clear 19 1014 68 10000 1.5 360 01:18 06.06.2020
1824 Clear 20 1014 63 10000 1.5 280 00:41 06.06.2020
1825 Clear 20 1014 60 10000 1.5 230 00:23 06.06.2020
1826 Clear 20 1013 68 10000 2.6 270 23:40 05.06.2020
1827 Clear 21 1013 60 10000 3.1 250 23:21 05.06.2020
1828 Clear 21 1013 60 10000 3.1 250 22:59 05.06.2020
1829 Clear 20 1013 46 10000 3.1 250 22:41 05.06.2020
1830 Clear 21 1013 46 10000 3.1 250 22:23 05.06.2020
1831 Clear 21 1012 40 10000 2.6 280 21:58 05.06.2020
1832 Clear 22 1012 40 10000 2.6 280 21:40 05.06.2020
1833 Clear 22 1012 35 10000 3.1 300 21:19 05.06.2020
1834 Clear 23 1012 35 10000 3.1 300 20:56 05.06.2020
1835 Clear 23 1012 35 10000 3.6 290 20:37 05.06.2020
1836 Clear 23 1011 38 10000 3.6 320 20:19 05.06.2020
1837 Clear 23 1011 40 10000 4.1 300 19:40 05.06.2020
1838 Clear 23 1011 40 10000 4.1 300 19:40 05.06.2020
1839 Clear 24 1011 40 10000 4.6 310 19:22 05.06.2020
1840 Clear 24 1011 41 10000 5.1 330 18:54 05.06.2020
1841 Clear 24 1011 41 10000 5.1 330 18:36 05.06.2020
1842 Clear 24 1011 41 10000 5.1 330 18:18 05.06.2020
1843 Clear 24 1011 44 10000 6.2 330 17:55 05.06.2020
1844 Clear 24 1011 44 10000 6.2 330 17:37 05.06.2020
1845 Clear 24 1011 44 10000 6.7 330 17:18 05.06.2020
1846 Clear 24 1011 44 10000 6.7 330 17:18 05.06.2020
1847 Clear 24 1011 41 10000 5.1 320 16:38 05.06.2020
1848 Clear 24 1012 41 10000 5.1 310 16:19 05.06.2020
1849 Clear 24 1012 41 10000 5.1 330 15:42 05.06.2020
1850 Clear 24 1012 44 10000 6.7 320 15:21 05.06.2020
1851 -273 0 0 0 0 0 14:58 05.06.2020
1852 Clear 23 1012 43 10000 7.7 320 14:40 05.06.2020
1853 Clear 23 1012 40 10000 6.7 310 14:22 05.06.2020
1854 Clear 23 1012 40 10000 6.7 310 13:57 05.06.2020
1855 Clear 23 1011 40 10000 8.2 320 13:38 05.06.2020
1856 Clear 22 1012 43 10000 5.7 340 13:19 05.06.2020
1857 Clear 22 1011 46 10000 6.2 320 12:41 05.06.2020
1858 Clear 22 1011 49 10000 7.7 320 12:19 05.06.2020
1859 Clear 22 1011 49 10000 7.7 320 11:55 05.06.2020
1860 Clear 22 1011 40 10000 7.2 310 11:37 05.06.2020
1861 Clear 22 1011 49 10000 6.2 320 11:18 05.06.2020
1862 Clear 21 1010 49 10000 6.2 360 10:42 05.06.2020
1863 Clear 21 1011 52 10000 6.7 340 10:21 05.06.2020
1864 Clear 21 1011 52 10000 6.7 340 09:58 05.06.2020
1865 Clear 21 1010 56 10000 5.7 320 09:40 05.06.2020
1866 Clear 20 1010 60 10000 4.1 330 09:21 05.06.2020
1867 Clear 20 1010 60 10000 4.1 330 08:59 05.06.2020
1868 Clear 20 1010 60 10000 4.1 330 08:58 05.06.2020
1869 Clear 20 1009 64 10000 3.1 270 08:40 05.06.2020
1870 Clear 19 1009 63 10000 1.5 0 08:19 05.06.2020
1871 Clear 19 1009 63 10000 1.5 0 07:53 05.06.2020
1872 Clear 19 1009 68 10000 1.5 310 07:34 05.06.2020
1873 Clear 18 1008 68 10000 5.7 310 06:50 05.06.2020
1874 Clear 19 1007 59 10000 8.7 320 05:23 05.06.2020
1875 Clear 19 1007 63 10000 8.2 320 04:31 05.06.2020
1876 Clear 20 1007 52 10000 5.7 310 03:49 05.06.2020
1877 Rain 20 1007 72 10000 2.1 240 02:37 05.06.2020
1878 Rain 19 1007 82 10000 2.1 210 02:18 05.06.2020
1879 Rain 19 1007 77 10000 2.1 180 01:36 05.06.2020
1880 Rain 19 1007 77 10000 2.1 180 01:36 05.06.2020
1881 Rain 19 1007 82 10000 0.5 230 00:56 05.06.2020
1882 Rain 19 1007 82 10000 0.5 230 00:37 05.06.2020
1883 Rain 19 1007 82 10000 2.1 220 00:18 05.06.2020
1884 Rain 19 1007 77 10000 1 0 23:42 04.06.2020
1885 Clouds 19 1007 77 10000 1 0 23:24 04.06.2020
1886 Clouds 19 1006 72 10000 1.5 300 22:44 04.06.2020
1887 Clouds 19 1006 72 10000 2.1 260 22:22 04.06.2020
1888 Clouds 19 1006 72 10000 2.1 260 21:58 04.06.2020
1889 Clouds 19 1005 72 10000 4.1 250 21:39 04.06.2020
1890 Clouds 19 1005 72 10000 4.6 250 21:21 04.06.2020
1891 Clouds 19 1005 72 10000 4.6 250 20:57 04.06.2020
1892 Clouds 20 1005 64 10000 3.6 260 20:39 04.06.2020
1893 Clouds 20 1005 64 10000 3.6 260 20:20 04.06.2020
1894 Clouds 20 1005 68 10000 4.1 240 19:55 04.06.2020
1895 Clouds 20 1005 68 10000 4.1 240 19:37 04.06.2020
1896 Clouds 20 1004 72 10000 3.6 200 19:19 04.06.2020
1897 Clouds 19 1005 72 10000 3.6 230 18:39 04.06.2020
1898 Clouds 18 1005 77 10000 2.1 250 18:21 04.06.2020
1899 Rain 18 1005 82 10000 2.1 300 17:59 04.06.2020
1900 Clouds 17 1005 82 10000 2.1 300 17:41 04.06.2020
1901 Rain 19 1005 72 10000 4.6 320 17:20 04.06.2020
1902 Rain 19 1005 68 10000 5.1 310 16:41 04.06.2020
1903 Clouds 20 1005 68 10000 7.2 330 16:21 04.06.2020
1904 Clouds 20 1005 68 10000 6.7 330 15:55 04.06.2020
1905 Rain 20 1005 68 10000 6.7 330 15:37 04.06.2020
1906 Rain 22 1005 77 6000 9.8 320 15:19 04.06.2020
1907 Clear 24 1004 57 10000 6.2 310 14:38 04.06.2020
1908 Clouds 24 1004 57 10000 6.7 310 14:19 04.06.2020
1909 Clouds 24 1003 57 10000 5.7 320 13:54 04.06.2020
1910 Clouds 25 1003 57 10000 5.7 320 13:36 04.06.2020
1911 Clouds 26 1003 54 10000 5.1 200 13:18 04.06.2020
1912 Clouds 26 1003 54 10000 3.6 0 12:41 04.06.2020
1913 Clouds 25 1003 57 10000 1.5 0 12:23 04.06.2020
1914 Clouds 25 1003 57 10000 2.6 300 11:59 04.06.2020
1915 Clouds 25 1003 57 10000 2.6 300 11:39 04.06.2020
1916 Clear 25 1003 57 10000 3.6 290 11:20 04.06.2020
1917 Clear 24 1003 57 10000 3.6 290 10:57 04.06.2020
1918 Clear 24 1003 60 10000 3.6 300 10:38 04.06.2020
1919 Clear 23 1003 69 10000 2.6 250 10:19 04.06.2020
1920 Clear 23 1003 69 10000 3.6 240 09:45 04.06.2020
1921 Clear 23 1003 69 10000 3.6 240 09:45 04.06.2020
1922 Clear 23 1003 69 10000 3.6 240 09:27 04.06.2020
1923 Clear 21 1003 77 10000 2.1 250 08:48 04.06.2020
1924 Clouds 21 1003 77 10000 2.1 250 08:28 04.06.2020
1925 Clouds 21 1003 77 10000 1.5 280 07:58 04.06.2020
1926 Clouds 20 1003 82 10000 0.5 0 07:29 04.06.2020
1927 Clouds 20 1003 82 10000 0.5 0 06:45 04.06.2020
1928 Clouds 20 1003 82 10000 1 0 06:26 04.06.2020
1929 Clouds 19 1003 88 10000 1.5 20 05:51 04.06.2020
1930 Clouds 19 1003 88 10000 1.5 20 05:30 04.06.2020
1931 Clouds 20 1005 82 10000 1.5 160 03:31 04.06.2020
1932 Clouds 20 1006 82 10000 2.6 180 01:59 04.06.2020
1933 Clouds 21 1007 77 10000 3.1 220 01:20 04.06.2020
1934 Clouds 21 1007 77 10000 2.1 280 00:53 04.06.2020
1935 Clouds 21 1007 77 10000 3.6 200 23:58 03.06.2020
1936 Clouds 21 1007 77 10000 3.6 200 23:36 03.06.2020
1937 Clouds 21 1007 77 10000 3.1 200 23:18 03.06.2020
1938 Clouds 21 1007 77 10000 3.1 180 22:40 03.06.2020
1939 Clouds 21 1007 77 10000 3.1 190 22:19 03.06.2020
1940 Clouds 21 1007 83 10000 4.6 190 21:59 03.06.2020
1941 Clouds 21 1007 83 10000 4.6 190 21:41 03.06.2020
1942 Clear 21 1007 77 10000 3.6 190 21:22 03.06.2020
1943 Clear 22 1007 77 10000 3.6 190 20:58 03.06.2020
1944 Clear 22 1007 77 10000 3.6 190 20:58 03.06.2020
1945 Clear 23 1007 73 10000 4.6 200 20:40 03.06.2020
1946 Clouds 23 1007 64 10000 4.1 220 20:20 03.06.2020
1947 Clouds 24 1008 60 10000 4.1 210 19:57 03.06.2020
1948 Clouds 24 1008 60 10000 4.1 210 19:38 03.06.2020
1949 Clouds 24 1008 57 10000 4.6 210 19:19 03.06.2020
1950 Clouds 24 1008 50 10000 4.6 210 18:57 03.06.2020
1951 Clear 25 1008 44 10000 4.6 220 18:38 03.06.2020
1952 Clear 25 1008 44 10000 4.6 220 18:18 03.06.2020
1953 Clear 25 1009 41 10000 5.1 210 17:44 03.06.2020
1954 Clouds 25 1009 41 10000 5.7 210 17:22 03.06.2020
1955 Clouds 25 1009 41 10000 5.7 210 16:58 03.06.2020
1956 Clouds 25 1010 44 10000 5.7 190 16:39 03.06.2020
1957 Clouds 25 1010 47 10000 6.7 220 16:19 03.06.2020
1958 Clouds 25 1010 47 10000 6.7 220 15:54 03.06.2020
1959 Clouds 25 1011 50 10000 6.7 210 15:36 03.06.2020
1960 Clouds 25 1011 41 10000 6.7 210 15:18 03.06.2020
1961 Clouds 26 1011 36 10000 6.2 210 14:42 03.06.2020
1962 Clouds 25 1011 36 10000 6.2 210 14:22 03.06.2020
1963 Clouds 26 1011 47 10000 5.1 210 13:40 03.06.2020
1964 Clouds 25 1012 57 10000 4.6 210 13:21 03.06.2020
1965 Clouds 25 1012 57 10000 4.6 210 12:56 03.06.2020
1966 Clouds 25 1012 53 10000 4.6 200 12:38 03.06.2020
1967 Clouds 25 1012 53 10000 4.6 220 12:18 03.06.2020
1968 Clouds 25 1012 50 10000 3.6 210 11:43 03.06.2020
1969 Clouds 25 1012 44 10000 2.1 190 11:24 03.06.2020
1970 Clouds 23 1012 49 10000 2.6 220 10:43 03.06.2020
1971 Clouds 24 1012 49 10000 2.6 220 10:25 03.06.2020
1972 Clouds 22 1013 60 10000 1 0 09:55 03.06.2020
1973 Clouds 21 1013 60 10000 1 0 09:36 03.06.2020
1974 Clouds 20 1013 46 10000 1 0 09:18 03.06.2020
1975 Clouds 19 1013 55 10000 0.5 0 08:46 03.06.2020
1976 Clouds 18 1013 55 10000 0.5 0 08:21 03.06.2020
1977 Clouds 18 1013 55 10000 0.5 0 07:46 03.06.2020
1978 Clouds 18 1013 55 10000 1.5 20 07:24 03.06.2020
1979 Clouds 18 1013 55 10000 1.5 350 06:59 03.06.2020
1980 Clouds 18 1013 55 10000 1.5 350 06:41 03.06.2020
1981 Clouds 17 1013 59 10000 1.5 350 06:21 03.06.2020
1982 Clouds 18 1013 55 10000 1.5 340 05:44 03.06.2020
1983 Clouds 18 1014 59 10000 1 340 04:19 03.06.2020
1984 Clouds 18 1014 63 10000 2.1 340 03:41 03.06.2020
1985 Clouds 20 1015 60 10000 1.5 310 02:34 03.06.2020
1986 Clouds 20 1015 60 10000 1.5 10 01:42 03.06.2020
1987 Clouds 21 1015 68 10000 1.5 200 00:38 03.06.2020
1988 Clouds 21 1015 68 10000 1.5 190 00:19 03.06.2020
1989 Clouds 21 1016 68 10000 1 230 23:43 02.06.2020
1990 Clouds 22 1016 68 10000 1 230 23:24 02.06.2020
1991 Clouds 22 1015 68 10000 2.6 220 22:55 02.06.2020
1992 Clouds 22 1015 68 10000 2.6 220 22:36 02.06.2020
1993 Clouds 22 1015 68 10000 2.6 220 22:18 02.06.2020
1994 Clouds 22 1015 68 10000 2.6 220 21:54 02.06.2020
1995 Clouds 23 1015 64 10000 2.6 220 21:36 02.06.2020
1996 Clouds 23 1015 64 10000 2.6 220 21:36 02.06.2020
1997 Clouds 23 1015 60 10000 3.1 190 21:18 02.06.2020
1998 Clouds 23 1015 64 10000 4.6 220 20:42 02.06.2020
1999 Clouds 24 1015 60 10000 4.6 210 20:23 02.06.2020
2000 Clouds 24 1015 56 10000 4.6 210 19:58 02.06.2020
2001 Clouds 24 1015 56 10000 4.6 210 19:39 02.06.2020
2002 Clouds 25 1015 53 10000 5.7 210 19:21 02.06.2020
2003 Clouds 24 1015 50 10000 5.1 190 18:55 02.06.2020
2004 Clouds 25 1015 50 10000 5.1 190 18:37 02.06.2020
2005 Clouds 26 1015 53 10000 5.1 200 18:18 02.06.2020
2006 Clouds 26 1016 47 10000 6.2 200 17:41 02.06.2020
2007 Clouds 25 1016 41 10000 6.7 210 17:23 02.06.2020
2008 Clouds 26 1016 41 10000 6.7 210 16:57 02.06.2020
2009 Clouds 26 1016 44 10000 6.2 200 16:38 02.06.2020
2010 Clouds 26 1016 44 10000 6.7 210 16:20 02.06.2020
2011 Clouds 27 1016 41 10000 7.2 220 15:46 02.06.2020
2012 Clouds 26 1016 50 10000 6.7 210 15:24 02.06.2020
2013 Clouds 26 1016 50 10000 6.7 210 14:56 02.06.2020
2014 Clouds 26 1017 47 10000 6.7 220 14:37 02.06.2020
2015 Clouds 26 1017 47 10000 6.7 210 14:19 02.06.2020
2016 Clouds 27 1017 36 10000 5.7 210 13:39 02.06.2020
2017 Clouds 26 1017 44 10000 4.6 210 13:19 02.06.2020
2018 Clouds 26 1017 44 10000 4.6 210 12:58 02.06.2020
2019 Clouds 25 1017 47 10000 4.6 220 12:40 02.06.2020
2020 Clouds 26 1017 39 10000 4.1 230 12:21 02.06.2020
2021 Clouds 26 1017 39 10000 4.1 230 11:56 02.06.2020
2022 Clouds 26 1017 31 10000 3.6 240 11:38 02.06.2020
2023 Clouds 26 1017 27 10000 2.1 160 11:20 02.06.2020
2024 Clouds 25 1017 27 10000 1 0 10:47 02.06.2020
2025 Clouds 25 1017 27 10000 1 0 10:28 02.06.2020
2026 Clouds 24 1017 36 10000 1 0 09:58 02.06.2020
2027 Clouds 21 1017 40 10000 1 330 09:38 02.06.2020
2028 Clouds 19 1017 49 10000 1 0 09:20 02.06.2020
2029 Clouds 19 1017 52 10000 1.5 10 08:48 02.06.2020
2030 Clouds 18 1017 55 10000 1.5 10 08:21 02.06.2020
2031 Clouds 17 1017 59 10000 1.5 10 07:52 02.06.2020
2032 Clouds 16 1017 63 10000 2.1 350 07:25 02.06.2020
2033 Clouds 16 1017 59 10000 1.5 340 06:45 02.06.2020
2034 Clouds 16 1017 59 10000 2.1 360 06:18 02.06.2020
2035 Clouds 17 1017 59 10000 1.5 340 05:21 02.06.2020
2036 Clouds 18 1017 55 10000 1.5 10 03:25 02.06.2020
2037 Clouds 18 1018 59 10000 2.1 340 02:30 02.06.2020
2038 Clouds 19 1018 49 10000 1 0 01:25 02.06.2020
2039 Clouds 20 1018 49 10000 1.5 350 00:26 02.06.2020
2040 Clouds 21 1018 49 10000 1.5 330 23:57 01.06.2020
2041 Clouds 21 1018 52 10000 1.5 340 23:37 01.06.2020
2042 Clouds 21 1018 52 10000 1.5 350 23:18 01.06.2020
2043 Clouds 21 1017 60 10000 0.5 0 22:42 01.06.2020
2044 Clouds 22 1017 60 10000 0.5 0 22:21 01.06.2020
2045 Clouds 23 1017 60 10000 2.6 220 21:58 01.06.2020
2046 Clouds 23 1017 53 10000 3.6 220 21:40 01.06.2020
2047 Clouds 23 1017 53 10000 3.6 220 21:40 01.06.2020
2048 Clouds 24 1017 49 10000 4.6 230 21:20 01.06.2020
2049 Clouds 25 1016 41 10000 5.7 230 20:56 01.06.2020
2050 Clouds 24 1017 49 10000 4.6 230 20:56 01.06.2020
2051 Clouds 25 1016 41 10000 5.7 230 20:38 01.06.2020
2052 Clear 25 1016 41 10000 5.7 230 20:19 01.06.2020
2053 Clear 25 1016 44 10000 5.7 230 19:55 01.06.2020
2054 Clear 25 1016 44 10000 5.7 230 19:37 01.06.2020
2055 Clear 26 1017 38 10000 6.2 230 19:19 01.06.2020
2056 Clear 26 1017 44 10000 5.7 230 18:55 01.06.2020
2057 Clear 26 1017 44 10000 5.7 230 18:37 01.06.2020
2058 Clear 27 1017 39 10000 6.2 250 18:18 01.06.2020
2059 Clear 28 1016 31 10000 7.7 230 17:40 01.06.2020
2060 Clear 28 1016 30 10000 7.7 230 17:19 01.06.2020
2061 Clear 28 1017 32 10000 8.2 230 16:42 01.06.2020
2062 Clouds 28 1016 28 10000 7.7 210 16:22 01.06.2020
2063 Clouds 28 1016 28 10000 7.7 210 15:59 01.06.2020
2064 Clouds 28 1017 34 10000 7.2 220 15:40 01.06.2020
2065 Clouds 27 1017 34 10000 7.2 220 15:20 01.06.2020
2066 Clouds 27 1017 41 10000 6.7 220 14:58 01.06.2020
2067 Clouds 27 1017 44 10000 6.2 220 14:40 01.06.2020
2068 Clouds 27 1017 42 10000 4.6 220 14:21 01.06.2020
2069 Clouds 27 1017 42 10000 4.6 220 13:55 01.06.2020
2070 Clouds 27 1017 42 10000 4.6 220 13:37 01.06.2020
2071 Rain 27 1017 36 10000 3.1 110 13:18 01.06.2020
2072 Rain 26 1017 36 10000 3.1 110 12:55 01.06.2020
2073 Rain 26 1017 36 10000 3.1 140 12:37 01.06.2020
2074 Clouds 26 1017 38 10000 3.1 150 12:18 01.06.2020
2075 Clouds 25 1017 38 10000 2.1 0 11:40 01.06.2020
2076 Clouds 25 1017 38 10000 2.1 0 11:22 01.06.2020
2077 Clouds 25 1017 41 10000 2.1 0 10:57 01.06.2020
2078 Clouds 24 1017 41 10000 2.1 90 10:37 01.06.2020
2079 Clouds 23 1016 49 10000 2.1 50 10:19 01.06.2020
2080 Clouds 23 1016 53 10000 2.6 20 09:55 01.06.2020
2081 Clouds 22 1016 53 10000 2.6 20 09:37 01.06.2020
2082 Clouds 21 1016 64 10000 1.5 340 09:19 01.06.2020
2083 Clouds 19 1016 68 10000 2.1 10 08:41 01.06.2020
2084 Clouds 19 1016 68 10000 2.1 10 08:22 01.06.2020
2085 Clouds 17 1016 67 10000 2.6 360 07:44 01.06.2020
2086 Clouds 16 1015 67 10000 2.1 360 07:25 01.06.2020
2087 Clouds 16 1015 67 10000 2.1 360 06:52 01.06.2020
2088 Clouds 16 1015 77 10000 2.1 350 06:20 01.06.2020
2089 Clouds 16 1015 77 10000 2.1 350 05:49 01.06.2020
2090 Clouds 17 1015 82 10000 1 0 04:23 01.06.2020
2091 Clouds 18 1015 82 10000 1.5 20 03:45 01.06.2020
2092 Clouds 18 1015 77 10000 2.1 60 02:59 01.06.2020
2093 Clouds 19 1017 72 10000 2.1 50 01:47 01.06.2020
2094 Clouds 19 1017 72 10000 2.1 50 01:28 01.06.2020
2095 Clouds 19 1017 72 10000 1.5 80 00:57 01.06.2020
2096 Clouds 19 1016 68 10000 1.5 360 00:39 01.06.2020
2097 Clouds 19 1016 68 10000 1.5 360 00:20 01.06.2020
2098 Clouds 20 1016 64 10000 1.5 90 23:55 31.05.2020
2099 Clouds 20 1016 64 10000 1.5 90 23:55 31.05.2020
2100 Clouds 20 1016 64 10000 1.5 60 23:36 31.05.2020
2101 Clouds 21 1016 56 10000 1.5 70 23:18 31.05.2020
2102 Clouds 21 1015 56 9000 2.1 110 22:42 31.05.2020
2103 Clouds 21 1015 56 9000 2.1 110 22:24 31.05.2020
2104 Clouds 22 1015 43 10000 2.1 100 21:58 31.05.2020
2105 Clouds 23 1014 40 10000 3.1 140 21:39 31.05.2020
2106 Clouds 23 1014 41 10000 3.1 150 21:21 31.05.2020
2107 Clouds 23 1014 41 10000 3.1 150 21:21 31.05.2020
2108 Clouds 24 1014 33 10000 3.1 140 20:48 31.05.2020
2109 Clouds 24 1014 33 10000 3.1 140 20:26 31.05.2020
2110 Clouds 25 1014 38 10000 3.6 140 19:59 31.05.2020
2111 Clouds 26 1014 38 10000 4.1 170 19:40 31.05.2020
2112 Clouds 26 1014 38 10000 4.1 170 19:22 31.05.2020
2113 Clouds 25 1014 38 10000 4.1 160 18:59 31.05.2020
2114 Clouds 25 1014 38 10000 5.1 170 18:41 31.05.2020
2115 Clouds 26 1014 39 10000 4.6 160 18:22 31.05.2020
2116 Clouds 26 1014 47 10000 6.7 200 17:44 31.05.2020
2117 Clouds 27 1014 42 10000 6.7 200 17:24 31.05.2020
2118 Clouds 26 1014 47 10000 6.7 200 17:24 31.05.2020
2119 Clouds 27 1014 42 10000 6.7 200 16:58 31.05.2020
2120 Clouds 27 1014 42 10000 7.2 220 16:38 31.05.2020
2121 Clouds 27 1014 47 10000 7.7 210 16:18 31.05.2020
2122 Clouds 27 1015 50 10000 7.7 210 15:39 31.05.2020
2123 Clouds 27 1015 54 10000 7.7 220 15:21 31.05.2020
2124 Clouds 27 1015 54 10000 6.7 230 14:47 31.05.2020
2125 Clouds 26 1015 57 10000 6.7 230 14:21 31.05.2020
2126 Clouds 26 1015 57 10000 6.7 230 13:56 31.05.2020
2127 Clouds 26 1015 57 10000 6.7 230 13:38 31.05.2020
2128 Clouds 26 1015 57 10000 6.7 230 13:38 31.05.2020
2129 Clouds 26 1015 50 10000 3.1 190 13:20 31.05.2020
2130 Clouds 26 1015 50 10000 3.1 190 12:57 31.05.2020
2131 Clouds 26 1015 44 10000 2.1 140 12:38 31.05.2020
2132 Clear 26 1015 47 10000 3.1 80 12:19 31.05.2020
2133 Clear 24 1016 53 10000 3.1 150 11:48 31.05.2020
2134 Clear 24 1016 47 10000 2.1 160 11:23 31.05.2020
2135 Clear 24 1016 47 10000 2.1 160 10:57 31.05.2020
2136 Clear 23 1016 53 10000 1.5 60 10:39 31.05.2020
2137 Clear 23 1016 64 10000 1.5 0 10:20 31.05.2020
2138 Clear 21 1016 68 10000 1 0 09:42 31.05.2020
2139 Clear 20 1016 72 10000 2.1 10 09:23 31.05.2020
2140 Clear 20 1016 72 10000 2.1 10 08:58 31.05.2020
2141 Clear 18 1016 77 10000 2.1 350 08:38 31.05.2020
2142 Clear 17 1016 82 10000 2.1 350 08:20 31.05.2020
2143 Clear 16 1016 82 10000 1.5 330 07:44 31.05.2020
2144 Clear 15 1016 82 10000 2.1 10 07:21 31.05.2020
2145 Clear 15 1016 82 10000 1.5 360 06:54 31.05.2020
2146 Clear 15 1016 82 10000 1.5 360 06:32 31.05.2020
2147 Clear 15 1016 82 10000 2.1 350 05:45 31.05.2020
2148 Clear 16 1016 82 10000 2.1 360 04:32 31.05.2020
2149 Clear 16 1016 82 10000 1.5 340 03:51 31.05.2020
2150 Clear 17 1016 77 10000 1.5 10 02:59 31.05.2020
2151 Clear 17 1017 77 10000 1.5 310 01:50 31.05.2020
2152 Clear 18 1017 72 10000 1 0 01:28 31.05.2020
2153 Clear 18 1017 72 10000 1.5 100 00:31 31.05.2020
2154 Clear 20 1017 68 10000 1 190 23:59 30.05.2020
2155 Clear 20 1017 68 10000 1 190 23:41 30.05.2020
2156 Clear 20 1016 68 10000 1 200 23:22 30.05.2020
2157 Clear 20 1016 68 10000 2.1 210 22:42 30.05.2020
2158 Clear 20 1016 68 10000 2.1 210 22:23 30.05.2020
2159 Clear 21 1016 72 10000 2.6 210 21:58 30.05.2020
2160 Clear 21 1016 64 10000 2.6 200 21:39 30.05.2020
2161 Clear 21 1016 60 10000 3.6 200 21:20 30.05.2020
2162 Clear 22 1016 60 10000 3.6 200 20:57 30.05.2020
2163 Clear 22 1016 56 10000 4.1 190 20:39 30.05.2020
2164 Clear 23 1016 56 10000 5.1 200 20:20 30.05.2020
2165 Clear 23 1016 53 10000 5.7 210 19:43 30.05.2020
2166 Clear 23 1016 60 10000 6.2 210 19:22 30.05.2020
2167 Clear 24 1016 60 10000 6.2 210 18:59 30.05.2020
2168 Clear 24 1016 60 10000 6.2 210 18:40 30.05.2020
2169 Clear 24 1016 50 10000 6.7 220 18:18 30.05.2020
2170 Clear 24 1016 53 10000 6.2 210 17:40 30.05.2020
2171 Clear 24 1016 53 10000 6.2 210 17:22 30.05.2020
2172 Clear 24 1016 47 10000 6.7 210 16:55 30.05.2020
2173 Clear 24 1016 36 10000 6.2 210 16:37 30.05.2020
2174 Clear 24 1016 38 10000 6.7 200 16:18 30.05.2020
2175 Clear 24 1016 44 10000 6.2 210 15:42 30.05.2020
2176 Clear 24 1016 44 10000 6.2 210 15:23 30.05.2020
2177 Clear 24 1017 50 10000 6.7 210 14:43 30.05.2020
2178 Clear 25 1017 50 10000 6.7 210 14:24 30.05.2020
2179 Clear 25 1017 44 10000 6.2 210 13:43 30.05.2020
2180 Clear 25 1017 38 10000 6.2 220 13:23 30.05.2020
2181 Clear 25 1017 33 10000 5.1 220 12:42 30.05.2020
2182 Clear 25 1017 33 10000 5.1 220 12:20 30.05.2020
2183 Clear 24 1017 36 10000 3.6 220 11:57 30.05.2020
2184 Clear 25 1017 36 10000 3.6 220 11:39 30.05.2020
2185 Clear 25 1017 36 10000 3.6 220 11:21 30.05.2020
2186 Clear 24 1017 43 10000 1.5 70 10:41 30.05.2020
2187 Clear 23 1017 43 10000 1.5 70 10:21 30.05.2020
2188 Clear 22 1017 53 10000 2.1 110 09:51 30.05.2020
2189 Clear 21 1017 60 10000 1.5 130 09:32 30.05.2020
2190 Clear 20 1017 56 10000 0.5 70 08:52 30.05.2020
2191 Clouds 17 1017 63 10000 1 350 08:33 30.05.2020
2192 Clouds 16 1017 72 10000 2.1 360 07:50 30.05.2020
2193 Clouds 15 1017 72 10000 2.1 360 07:27 30.05.2020
2194 Clouds 15 1017 76 10000 2.6 10 06:59 30.05.2020
2195 Clouds 15 1017 77 10000 2.1 360 06:25 30.05.2020
2196 Clouds 15 1017 77 10000 2.1 340 05:49 30.05.2020
2197 Clouds 16 1017 77 10000 2.6 350 04:33 30.05.2020
2198 Clouds 17 1017 72 10000 1 0 02:34 30.05.2020
2199 Clouds 18 1017 68 10000 0.5 0 01:57 30.05.2020
2200 Clouds 18 1017 63 10000 2.1 80 00:44 30.05.2020
2201 Clear 18 1017 68 10000 1 0 00:24 30.05.2020
2202 Clear 19 1017 68 10000 1 0 23:59 29.05.2020
2203 Clear 19 1017 64 10000 1 0 23:38 29.05.2020
2204 Clear 19 1017 64 10000 1 0 23:19 29.05.2020
2205 Clear 20 1017 64 10000 1 0 22:54 29.05.2020
2206 Clear 20 1017 64 10000 1.5 220 22:36 29.05.2020
2207 Clear 20 1016 64 10000 1.5 210 22:18 29.05.2020
2208 Clear 21 1016 60 10000 1.5 230 21:39 29.05.2020
2209 Clear 21 1016 60 10000 1.5 230 21:39 29.05.2020
2210 Clear 21 1016 60 10000 3.1 220 21:21 29.05.2020
2211 Clear 22 1016 53 10000 3.6 230 20:57 29.05.2020
2212 Clear 22 1016 53 10000 3.6 230 20:38 29.05.2020
2213 Clear 22 1016 56 10000 4.6 220 20:19 29.05.2020
2214 Clear 23 1016 56 10000 4.6 220 19:43 29.05.2020
2215 Clear 24 1016 56 10000 5.1 220 19:24 29.05.2020
2216 Clear 24 1016 50 10000 5.7 220 18:48 29.05.2020
2217 Clear 24 1016 60 10000 6.2 220 18:23 29.05.2020
2218 Clear 24 1016 60 10000 6.2 220 17:59 29.05.2020
2219 Clear 25 1016 60 10000 6.2 220 17:39 29.05.2020
2220 Clear 25 1016 60 10000 5.1 220 17:20 29.05.2020
2221 Clear 25 1017 53 10000 5.1 210 16:54 29.05.2020
2222 Clear 25 1017 53 10000 5.1 210 16:36 29.05.2020
2223 Clear 24 1017 60 10000 5.7 220 16:18 29.05.2020
2224 Clear 25 1017 57 10000 6.7 210 15:41 29.05.2020
2225 Clear 24 1017 57 10000 6.7 210 15:21 29.05.2020
2226 Clear 24 1017 57 10000 6.7 210 14:57 29.05.2020
2227 Clear 25 1017 64 10000 7.2 210 14:38 29.05.2020
2228 Clear 25 1018 56 10000 6.2 210 14:19 29.05.2020
2229 Clear 25 1018 53 10000 4.1 200 13:43 29.05.2020
2230 Clear 25 1018 53 10000 4.6 220 13:23 29.05.2020
2231 Clear 24 1018 53 10000 4.6 220 12:57 29.05.2020
2232 Clear 24 1018 53 10000 4.1 200 12:39 29.05.2020
2233 Clear 24 1018 53 10000 3.6 200 12:19 29.05.2020
2234 Clear 24 1018 53 10000 3.6 210 11:42 29.05.2020
2235 Clear 23 1019 53 10000 3.1 210 11:24 29.05.2020
2236 Clear 22 1019 53 10000 3.1 210 10:55 29.05.2020
2237 Clear 23 1019 53 10000 2.1 180 10:36 29.05.2020
2238 Clear 21 1019 56 10000 2.1 190 10:18 29.05.2020
2239 Clear 21 1019 64 10000 1 0 09:41 29.05.2020
2240 Clear 20 1019 64 10000 0.5 290 09:19 29.05.2020
2241 Clear 18 1019 68 10000 1.5 350 08:48 29.05.2020
2242 Clear 18 1019 68 10000 1.5 350 08:25 29.05.2020
2243 Clear 16 1020 77 10000 2.1 350 07:48 29.05.2020
2244 Clear 15 1020 77 10000 2.1 350 07:30 29.05.2020
2245 Clear 15 1020 77 10000 1.5 350 06:58 29.05.2020
2246 Clear 14 1019 82 10000 2.1 350 06:39 29.05.2020
2247 Clear 15 1019 77 10000 1.5 360 06:21 29.05.2020
2248 Clear 15 1020 77 10000 2.6 350 05:40 29.05.2020
2249 Clear 17 1021 77 10000 1 350 02:20 29.05.2020
2250 Clear 17 1021 77 10000 1 350 02:20 29.05.2020
2251 Clear 18 1022 77 10000 1 0 01:27 29.05.2020
2252 Clear 18 1022 77 10000 1 0 01:27 29.05.2020
2253 Clear 18 1022 77 10000 1.5 20 00:53 29.05.2020
2254 Clear 19 1022 77 10000 2.1 360 00:33 29.05.2020
2255 Clear 20 1022 72 10000 1.5 300 23:57 28.05.2020
2256 Clear 20 1022 77 10000 1.5 280 23:39 28.05.2020
2257 Clear 20 1022 77 10000 2.6 240 23:18 28.05.2020
2258 Clear 21 1022 77 10000 3.1 220 22:42 28.05.2020
2259 Clear 21 1022 77 10000 3.1 220 22:24 28.05.2020
2260 Clear 21 1022 73 10000 4.1 220 21:56 28.05.2020
2261 Clear 21 1022 68 10000 4.1 220 21:37 28.05.2020
2262 Clear 22 1022 60 10000 4.6 230 21:19 28.05.2020
2263 Clear 22 1022 60 10000 4.6 230 20:56 28.05.2020
2264 Clear 23 1022 49 10000 5.1 230 20:37 28.05.2020
2265 Clear 23 1022 50 10000 5.1 240 20:18 28.05.2020
2266 Clear 23 1022 60 10000 6.7 230 19:43 28.05.2020
2267 Clear 24 1022 53 10000 6.7 240 19:21 28.05.2020
2268 Clear 25 1022 53 10000 6.7 240 18:57 28.05.2020
2269 Clear 26 1022 50 10000 7.2 230 18:39 28.05.2020
2270 Clear 27 1022 44 10000 6.7 230 18:21 28.05.2020
2271 Clear 27 1022 41 10000 6.2 240 17:41 28.05.2020
2272 Clear 27 1022 41 10000 6.2 240 17:41 28.05.2020
2273 Clear 27 1022 47 10000 6.2 240 17:22 28.05.2020
2274 Clear 27 1022 47 10000 6.2 240 16:57 28.05.2020
2275 Clear 27 1023 47 10000 6.7 230 16:37 28.05.2020
2276 Clear 28 1023 42 10000 6.2 220 16:19 28.05.2020
2277 Clear 27 1023 47 10000 6.7 240 15:42 28.05.2020
2278 Clear 27 1023 47 10000 6.7 240 15:24 28.05.2020
2279 Clear 27 1024 39 10000 6.7 230 14:55 28.05.2020
2280 Clear 27 1024 44 10000 6.2 230 14:36 28.05.2020
2281 Clear 27 1024 44 10000 4.6 0 14:18 28.05.2020
2282 Clear 27 1024 34 10000 3.6 130 13:40 28.05.2020
2283 Clear 27 1025 36 10000 3.6 70 13:20 28.05.2020
2284 Clear 26 1025 39 10000 4.1 60 12:42 28.05.2020
2285 Clear 26 1025 44 10000 5.1 60 12:19 28.05.2020
2286 Clear 25 1025 47 10000 5.7 70 11:44 28.05.2020
2287 Clear 25 1025 47 10000 5.7 70 11:25 28.05.2020
2288 Clear 24 1026 47 10000 4.6 70 10:57 28.05.2020
2289 Clear 23 1026 44 10000 4.6 70 10:39 28.05.2020
2290 Clear 23 1026 44 10000 4.6 70 10:20 28.05.2020
2291 Clear 23 1026 35 10000 4.1 60 09:39 28.05.2020
2292 Clear 20 1026 49 10000 3.1 50 09:21 28.05.2020
2293 Clear 20 1026 48 10000 2.1 10 08:50 28.05.2020
2294 Clear 19 1026 48 10000 2.1 10 08:27 28.05.2020
2295 Clear 17 1026 59 10000 2.6 350 07:54 28.05.2020
2296 Clear 16 1026 59 10000 2.1 330 07:36 28.05.2020
2297 Clear 16 1026 67 10000 2.1 340 07:18 28.05.2020
2298 Clear 16 1026 63 10000 2.1 350 06:39 28.05.2020
2299 Clear 16 1026 63 10000 2.1 350 06:20 28.05.2020
2300 Clear 16 1026 67 10000 2.6 350 05:36 28.05.2020
2301 Clear 17 1027 72 10000 2.6 350 04:33 28.05.2020
2302 Clear 17 1027 82 10000 3.1 40 03:51 28.05.2020
2303 Clear 19 1027 77 10000 3.6 60 02:47 28.05.2020
2304 Clear 19 1027 82 10000 2.6 80 01:56 28.05.2020
2305 Clear 19 1028 82 10000 2.6 60 01:27 28.05.2020
2306 Clear 19 1027 82 10000 2.1 70 00:46 28.05.2020
2307 Clear 19 1027 82 10000 2.1 80 00:19 28.05.2020
2308 Clear 20 1027 82 10000 2.1 80 23:54 27.05.2020
2309 Clear 20 1027 77 10000 3.1 80 23:36 27.05.2020
2310 Clear 20 1027 72 10000 4.1 70 23:18 27.05.2020
2311 Clear 21 1026 68 10000 4.1 90 22:41 27.05.2020
2312 Clear 21 1026 68 10000 4.1 90 22:22 27.05.2020
2313 Clear 21 1026 56 10000 3.6 80 21:55 27.05.2020
2314 Clear 22 1026 49 10000 5.1 70 21:37 27.05.2020
2315 Clear 23 1025 47 10000 5.1 60 21:18 27.05.2020
2316 Clear 24 1025 47 10000 5.1 60 20:54 27.05.2020
2317 Clear 25 1025 44 10000 6.7 60 20:36 27.05.2020
2318 Clear 25 1025 41 10000 5.1 50 20:18 27.05.2020
2319 Clear 26 1025 41 10000 6.7 60 19:41 27.05.2020
2320 Clear 26 1025 39 10000 7.2 60 19:19 27.05.2020
2321 Clear 27 1025 39 10000 5.1 100 18:43 27.05.2020
2322 Clear 27 1025 32 10000 5.1 130 18:20 27.05.2020
2323 Clear 28 1025 32 10000 5.1 130 17:57 27.05.2020
2324 Clear 27 1025 54 10000 5.1 220 17:38 27.05.2020
2325 Clear 27 1025 54 10000 5.1 220 17:19 27.05.2020
2326 Clear 27 1025 44 10000 5.7 220 16:55 27.05.2020
2327 Clear 26 1025 47 10000 5.7 220 16:37 27.05.2020
2328 Clear 26 1025 50 10000 5.7 220 16:18 27.05.2020
2329 Clear 26 1025 53 10000 4.6 220 15:46 27.05.2020
2330 Clear 26 1025 53 10000 4.1 210 15:21 27.05.2020
2331 Clear 26 1026 53 10000 4.6 230 14:45 27.05.2020
2332 Clear 25 1026 53 10000 5.1 220 14:22 27.05.2020
2333 Clear 25 1026 53 10000 5.1 220 14:22 27.05.2020
2334 Clear 25 1026 53 10000 5.1 220 14:22 27.05.2020
2335 Clear 25 1026 53 10000 5.1 220 13:58 27.05.2020
2336 Clear 26 1026 44 10000 3.6 100 13:39 27.05.2020
2337 Clear 25 1026 50 10000 3.6 100 13:20 27.05.2020
2338 Clear 24 1026 50 10000 4.1 100 12:42 27.05.2020
2339 Clear 24 1026 50 10000 4.1 100 12:23 27.05.2020
2340 Clear 23 1026 56 10000 6.2 80 11:55 27.05.2020
2341 Clear 23 1026 56 10000 6.2 80 11:36 27.05.2020
2342 Clear 23 1025 56 10000 6.2 80 11:18 27.05.2020
2343 Clear 22 1025 60 10000 6.2 60 10:42 27.05.2020
2344 Clear 22 1025 68 10000 5.1 70 10:23 27.05.2020
2345 Clear 22 1025 68 10000 5.1 70 09:56 27.05.2020
2346 Clear 21 1025 68 10000 5.7 80 09:37 27.05.2020
2347 Clear 20 1025 72 10000 5.1 80 09:19 27.05.2020
2348 Clear 19 1025 56 10000 1.5 90 08:42 27.05.2020
2349 Clear 19 1025 56 10000 1.5 90 08:24 27.05.2020
2350 Clear 16 1024 77 10000 2.6 130 07:53 27.05.2020
2351 Clear 16 1024 77 10000 2.6 130 07:34 27.05.2020
2352 Clear 16 1024 72 10000 1.5 290 06:55 27.05.2020
2353 Clear 16 1024 67 10000 1 0 06:30 27.05.2020
2354 Clear 16 1024 67 10000 0.5 0 05:50 27.05.2020
2355 Clear 16 1024 67 10000 0.5 0 05:25 27.05.2020
2356 Clear 17 1025 67 10000 1.5 360 03:21 27.05.2020
2357 Clear 18 1025 67 10000 2.1 340 02:30 27.05.2020
2358 Clear 19 1025 59 10000 1.5 40 01:32 27.05.2020
2359 Clear 19 1025 63 10000 1.5 350 00:58 27.05.2020
2360 Clear 19 1025 63 10000 1.5 340 00:40 27.05.2020
2361 Clear 20 1026 60 10000 1.5 340 00:18 27.05.2020
2362 Clear 20 1026 56 10000 1 0 23:41 26.05.2020
2363 Clear 21 1026 56 10000 1 0 23:23 26.05.2020
2364 Clear 21 1025 53 10000 3.1 120 22:58 26.05.2020
2365 Clear 21 1025 53 10000 3.1 120 22:38 26.05.2020
2366 Clear 22 1025 60 10000 1.5 120 22:19 26.05.2020
2367 Clear 22 1025 60 10000 1.5 120 21:56 26.05.2020
2368 Clear 23 1025 60 10000 2.1 190 21:38 26.05.2020
2369 Clear 23 1025 56 10000 3.6 190 21:19 26.05.2020
2370 Clear 24 1024 50 10000 3.6 190 20:42 26.05.2020
2371 Clear 25 1024 47 10000 3.6 200 20:20 26.05.2020
2372 Clear 25 1024 47 10000 3.6 200 19:55 26.05.2020
2373 Clear 25 1024 47 10000 4.1 210 19:37 26.05.2020
2374 Clear 25 1024 47 10000 5.1 210 19:18 26.05.2020
2375 Clear 26 1024 44 10000 5.1 210 18:41 26.05.2020
2376 Clear 26 1024 44 10000 5.1 210 18:22 26.05.2020
2377 Clear 26 1025 44 10000 5.1 220 17:44 26.05.2020
2378 Clear 26 1025 44 10000 5.1 220 17:26 26.05.2020
2379 Clear 26 1025 47 10000 5.7 210 16:59 26.05.2020
2380 Clear 26 1025 47 10000 5.7 210 16:41 26.05.2020
2381 Clear 26 1025 50 10000 5.1 210 16:19 26.05.2020
2382 Clear 26 1025 50 10000 5.7 210 15:44 26.05.2020
2383 Clear 26 1026 50 10000 4.1 130 15:21 26.05.2020
2384 Clear 26 1026 50 10000 4.1 130 14:59 26.05.2020
2385 Clear 28 1026 30 10000 7.2 50 14:41 26.05.2020
2386 Clouds 28 1026 30 10000 7.2 50 14:21 26.05.2020
2387 Clouds 27 1026 36 10000 6.7 60 13:42 26.05.2020
2388 Clouds 27 1026 36 10000 6.7 60 13:23 26.05.2020
2389 Clouds 27 1026 42 10000 6.7 80 12:57 26.05.2020
2390 Clouds 26 1026 41 10000 6.2 80 12:39 26.05.2020
2391 Clouds 26 1026 41 10000 6.2 70 12:19 26.05.2020
2392 Clouds 25 1026 47 10000 5.1 60 11:41 26.05.2020
2393 Clouds 24 1026 50 10000 5.1 70 11:21 26.05.2020
2394 Clouds 24 1026 50 10000 5.1 70 10:58 26.05.2020
2395 Clouds 24 1026 53 10000 5.1 80 10:38 26.05.2020
2396 Clouds 23 1026 53 10000 2.6 60 10:18 26.05.2020
2397 Clouds 21 1026 64 10000 2.1 40 09:39 26.05.2020
2398 Clear 19 1026 68 10000 2.6 350 09:19 26.05.2020
2399 Clear 19 1026 68 10000 2.1 340 08:42 26.05.2020
2400 Clouds 18 1026 68 10000 2.1 340 08:22 26.05.2020
2401 Clouds 16 1026 77 10000 2.1 350 07:44 26.05.2020
2402 Clouds 16 1026 77 10000 2.1 350 07:24 26.05.2020
2403 Clouds 16 1026 72 10000 2.1 10 06:57 26.05.2020
2404 Clouds 16 1026 77 10000 2.1 360 06:39 26.05.2020
2405 Clouds 16 1026 72 10000 2.1 330 05:55 26.05.2020
2406 Clouds 16 1026 77 10000 2.6 340 05:33 26.05.2020
2407 Clouds 17 1025 67 10000 1.5 360 04:52 26.05.2020
2408 Clouds 17 1025 67 10000 1.5 360 04:33 26.05.2020
2409 Clouds 17 1025 67 10000 2.1 60 03:55 26.05.2020
2410 Clouds 18 1026 63 10000 1.5 320 02:45 26.05.2020
2411 Clouds 19 1026 59 10000 0.5 0 01:48 26.05.2020
2412 Clouds 19 1026 59 10000 0.5 0 01:27 26.05.2020
2413 Clouds 19 1026 59 10000 0.5 0 00:39 26.05.2020
2414 Clouds 19 1026 59 10000 1.5 70 00:19 26.05.2020
2415 Clouds 19 1026 59 10000 1.5 70 23:56 25.05.2020
2416 Clouds 20 1026 56 10000 2.6 50 23:37 25.05.2020
2417 Clear 20 1026 56 10000 2.1 70 23:18 25.05.2020
2418 Clear 20 1025 56 10000 2.1 100 22:55 25.05.2020
2419 Clouds 20 1025 56 10000 2.1 100 22:36 25.05.2020
2420 Clouds 20 1025 56 10000 2.1 100 22:36 25.05.2020
2421 Clouds 21 1025 49 10000 1.5 120 22:18 25.05.2020
2422 Clouds 22 1025 46 10000 2.6 100 21:55 25.05.2020
2423 Clouds 23 1025 46 10000 2.6 100 21:36 25.05.2020
2424 Clouds 23 1025 43 10000 3.1 90 21:18 25.05.2020
2425 Clouds 23 1025 43 10000 3.1 90 21:18 25.05.2020
2426 Clouds 24 1025 50 10000 2.6 130 20:42 25.05.2020
2427 Clouds 24 1025 47 10000 4.1 150 20:21 25.05.2020
2428 Clouds 24 1025 47 10000 4.1 150 20:21 25.05.2020
2429 Clouds 24 1025 47 10000 4.1 150 19:59 25.05.2020
2430 Clouds 25 1024 39 10000 3.1 290 19:40 25.05.2020
2431 Clouds 26 1025 39 10000 1.5 0 19:18 25.05.2020
2432 Clouds 26 1025 41 10000 2.1 100 18:55 25.05.2020
2433 Clouds 26 1025 41 10000 2.1 100 18:36 25.05.2020
2434 Clouds 26 1025 41 10000 2.6 40 18:18 25.05.2020
2435 Clouds 26 1025 39 10000 1 0 17:44 25.05.2020
2436 Clouds 26 1025 39 10000 1 0 17:23 25.05.2020
2437 Clouds 25 1026 44 10000 2.1 0 16:57 25.05.2020
2438 Clouds 24 1026 44 10000 2.1 0 16:39 25.05.2020
2439 Clouds 23 1026 49 10000 2.6 40 16:20 25.05.2020
2440 Clouds 23 1027 60 10000 4.6 340 15:44 25.05.2020
2441 Rain 22 1027 53 10000 4.1 40 15:20 25.05.2020
2442 Rain 23 1027 53 10000 4.1 40 14:59 25.05.2020
2443 Clouds 24 1027 41 10000 3.6 30 14:39 25.05.2020
2444 Clouds 24 1027 41 10000 1.5 280 14:21 25.05.2020
2445 Clouds 24 1027 41 10000 2.1 120 13:40 25.05.2020
2446 Clouds 24 1027 41 10000 2.1 120 13:21 25.05.2020
2447 Clouds 24 1027 38 10000 2.1 0 12:59 25.05.2020
2448 Clouds 25 1027 38 10000 3.6 70 12:39 25.05.2020
2449 Clouds 24 1027 44 10000 4.1 0 12:21 25.05.2020
2450 Clouds 24 1027 44 10000 4.1 0 11:56 25.05.2020
2451 Clouds 24 1027 46 10000 1 210 11:37 25.05.2020
2452 Clouds 24 1027 40 10000 0.5 350 11:18 25.05.2020
2453 Clouds 22 1027 43 10000 1 0 10:41 25.05.2020
2454 Clouds 23 1027 43 10000 1 0 10:41 25.05.2020
2455 Clouds 22 1027 43 10000 0.5 0 10:21 25.05.2020
2456 Clouds 22 1027 43 10000 0.5 0 09:56 25.05.2020
2457 Clouds 22 1027 37 10000 1 0 09:38 25.05.2020
2458 Clouds 21 1027 45 10000 0.5 340 09:19 25.05.2020
2459 Clouds 19 1027 48 10000 1 0 08:44 25.05.2020
2460 Clouds 18 1027 48 10000 1 0 08:24 25.05.2020
2461 Clouds 18 1026 55 10000 1 0 07:58 25.05.2020
2462 Clouds 17 1026 59 10000 1 0 07:39 25.05.2020
2463 Clouds 17 1026 59 10000 0.5 0 07:19 25.05.2020
2464 Clouds 17 1026 59 10000 1 30 06:45 25.05.2020
2465 Clouds 17 1026 59 10000 1 30 06:27 25.05.2020
2466 Clouds 18 1026 59 10000 2.1 350 03:40 25.05.2020
2467 Clouds 18 1026 59 10000 2.1 350 03:22 25.05.2020
2468 Clouds 18 1027 48 10000 1 0 02:44 25.05.2020
2469 Clouds 19 1027 55 10000 2.1 340 01:42 25.05.2020
2470 Clouds 19 1027 55 10000 2.1 340 01:42 25.05.2020
2471 Clouds 19 1028 52 10000 2.1 350 00:58 25.05.2020
2472 Clouds 18 1028 55 10000 1.5 10 00:33 25.05.2020
2473 Clouds 19 1028 55 10000 1.5 30 23:59 24.05.2020
2474 Clouds 19 1028 52 10000 1.5 50 23:40 24.05.2020
2475 Clouds 19 1028 52 10000 3.6 80 23:22 24.05.2020
2476 Clouds 19 1028 52 10000 3.6 80 22:58 24.05.2020
2477 Clouds 19 1027 48 10000 3.1 90 22:40 24.05.2020
2478 Clouds 20 1027 42 10000 3.6 70 22:18 24.05.2020
2479 Clouds 20 1027 42 10000 3.6 70 21:55 24.05.2020
2480 Clouds 21 1027 37 10000 4.6 80 21:37 24.05.2020
2481 Clouds 21 1027 40 10000 4.6 80 21:19 24.05.2020
2482 Clouds 22 1027 37 10000 5.7 70 20:43 24.05.2020
2483 Clouds 22 1027 37 10000 5.7 70 20:43 24.05.2020
2484 Clouds 22 1027 37 10000 5.7 70 20:21 24.05.2020
2485 Clouds 23 1026 33 10000 7.2 70 19:59 24.05.2020
2486 Clouds 23 1027 28 10000 8.7 70 19:40 24.05.2020
2487 Clouds 24 1027 33 10000 6.7 70 19:19 24.05.2020
2488 Clouds 24 1027 33 10000 6.7 70 18:54 24.05.2020
2489 Clouds 24 1027 31 10000 7.2 80 18:36 24.05.2020
2490 Clouds 24 1027 27 10000 8.2 70 18:18 24.05.2020
2491 Clouds 25 1027 29 10000 7.2 80 17:40 24.05.2020
2492 Clouds 25 1027 25 10000 7.2 60 17:21 24.05.2020
2493 Clouds 25 1027 25 10000 7.2 60 16:57 24.05.2020
2494 Clouds 25 1027 26 10000 7.7 70 16:38 24.05.2020
2495 Clouds 26 1027 24 10000 8.7 70 16:20 24.05.2020
2496 Clouds 25 1027 24 10000 8.7 70 15:57 24.05.2020
2497 Clouds 26 1027 21 10000 9.8 60 15:38 24.05.2020
2498 Clouds 26 1027 26 10000 8.2 70 15:19 24.05.2020
2499 Clouds 26 1027 26 10000 8.2 70 15:19 24.05.2020
2500 Clouds 25 1028 27 10000 8.7 70 14:46 24.05.2020
2501 Clouds 25 1028 27 10000 8.7 70 14:25 24.05.2020
2502 Clouds 25 1028 33 10000 8.7 70 13:59 24.05.2020
2503 Clouds 25 1027 36 10000 9.3 60 13:41 24.05.2020
2504 Clouds 24 1028 41 10000 8.2 60 13:22 24.05.2020
2505 Clouds 25 1028 41 10000 8.2 60 12:59 24.05.2020
2506 Clouds 25 1028 38 10000 8.2 70 12:40 24.05.2020
2507 Clouds 24 1028 38 10000 8.2 70 12:22 24.05.2020
2508 Clouds 24 1028 38 10000 8.7 60 11:59 24.05.2020
2509 Clouds 24 1028 43 10000 8.7 60 11:41 24.05.2020
2510 Clouds 23 1028 46 10000 7.7 60 11:23 24.05.2020
2511 Clouds 22 1028 49 10000 9.8 60 10:59 24.05.2020
2512 Clouds 22 1028 49 10000 9.8 60 10:39 24.05.2020
2513 Clouds 22 1028 56 10000 10.3 60 10:21 24.05.2020
2514 Clouds 21 1028 64 10000 8.7 60 09:42 24.05.2020
2515 Clouds 21 1027 64 10000 8.7 60 09:19 24.05.2020
2516 Clouds 20 1028 72 10000 5.7 50 08:58 24.05.2020
2517 Clouds 19 1028 72 10000 5.7 50 08:40 24.05.2020
2518 Clouds 19 1028 72 10000 5.7 50 08:22 24.05.2020
2519 Clouds 19 1027 77 10000 6.2 50 07:51 24.05.2020
2520 Clouds 19 1027 77 10000 6.2 50 07:26 24.05.2020
2521 Clouds 19 1027 77 10000 7.2 50 06:58 24.05.2020
2522 Clouds 19 1027 77 10000 6.7 50 06:37 24.05.2020
2523 Clouds 19 1027 77 10000 4.6 60 05:24 24.05.2020
2524 Clouds 20 1027 77 10000 5.7 50 03:42 24.05.2020
2525 Clouds 21 1027 82 10000 5.7 60 02:52 24.05.2020
2526 Clouds 21 1028 77 10000 5.7 50 02:18 24.05.2020
2527 Clouds 21 1027 64 10000 6.2 60 00:49 24.05.2020
2528 Clouds 22 1027 64 10000 6.2 60 00:27 24.05.2020
2529 Clouds 22 1027 64 10000 6.2 60 00:27 24.05.2020
2530 Clouds 22 1027 64 10000 7.7 60 23:59 23.05.2020
2531 Clouds 22 1027 68 10000 5.1 60 23:37 23.05.2020
2532 Clouds 22 1027 68 10000 2.1 60 23:19 23.05.2020
2533 Clouds 21 1027 68 10000 2.1 60 22:55 23.05.2020
2534 Clouds 22 1026 64 10000 0.5 0 22:37 23.05.2020
2535 Clouds 22 1026 64 10000 1 0 22:18 23.05.2020
2536 Clouds 22 1026 64 10000 2.1 240 21:56 23.05.2020
2537 Clouds 23 1026 64 10000 2.1 240 21:36 23.05.2020
2538 Clouds 23 1025 60 10000 3.1 220 21:18 23.05.2020
2539 Clouds 24 1025 50 10000 3.6 220 20:39 23.05.2020
2540 Clouds 25 1025 44 10000 3.6 220 20:20 23.05.2020
2541 Clouds 25 1025 44 10000 3.6 220 19:59 23.05.2020
2542 Clouds 25 1025 44 10000 4.1 220 19:40 23.05.2020
2543 Clouds 25 1025 44 10000 4.1 230 19:19 23.05.2020
2544 Clouds 27 1025 44 10000 5.1 210 18:42 23.05.2020
2545 Clouds 27 1025 41 10000 5.1 220 18:23 23.05.2020
2546 Clouds 27 1025 41 10000 5.1 220 17:58 23.05.2020
2547 Clouds 28 1025 34 10000 5.1 220 17:40 23.05.2020
2548 Clouds 28 1025 36 10000 5.7 220 17:21 23.05.2020
2549 Clouds 28 1025 36 10000 5.7 220 16:59 23.05.2020
2550 Clouds 28 1026 39 10000 5.7 230 16:41 23.05.2020
2551 Clear 28 1026 47 10000 6.2 220 16:21 23.05.2020
2552 Clear 27 1026 47 10000 6.2 220 15:58 23.05.2020
2553 Clear 27 1026 54 10000 6.2 230 15:39 23.05.2020
2554 Clouds 28 1026 47 10000 6.7 210 15:21 23.05.2020
2555 Clouds 28 1026 39 10000 5.7 230 14:42 23.05.2020
2556 Clouds 28 1026 39 10000 5.7 230 14:42 23.05.2020
2557 Clouds 28 1026 39 10000 5.7 230 14:24 23.05.2020
2558 Clouds 26 1026 39 10000 6.7 210 13:56 23.05.2020
2559 Clouds 27 1026 47 10000 5.1 210 13:37 23.05.2020
2560 Clouds 28 1026 44 10000 4.1 220 13:18 23.05.2020
2561 Clouds 27 1027 44 10000 2.1 210 12:41 23.05.2020
2562 Clouds 26 1027 47 10000 2.1 230 12:20 23.05.2020
2563 Clouds 26 1027 47 10000 2.1 230 11:57 23.05.2020
2564 Clouds 25 1027 47 10000 2.6 240 11:39 23.05.2020
2565 Clouds 26 1027 44 10000 2.6 220 11:19 23.05.2020
2566 Clouds 25 1027 44 10000 2.6 220 10:55 23.05.2020
2567 Clouds 25 1027 38 10000 2.1 160 10:37 23.05.2020
2568 Clouds 24 1027 41 10000 2.1 210 10:18 23.05.2020
2569 Clouds 23 1026 56 10000 1 0 09:43 23.05.2020
2570 Clouds 22 1026 68 10000 1 340 09:24 23.05.2020
2571 Clouds 20 1026 68 10000 1 340 08:58 23.05.2020
2572 Clouds 19 1026 72 10000 1.5 330 08:38 23.05.2020
2573 Clouds 18 1026 72 10000 2.1 340 08:19 23.05.2020
2574 Clouds 17 1026 77 10000 2.1 350 07:45 23.05.2020
2575 Clouds 16 1026 77 10000 2.1 350 07:27 23.05.2020
2576 Clouds 16 1025 72 10000 2.1 340 06:43 23.05.2020
2577 Clouds 16 1025 72 10000 1.5 340 05:59 23.05.2020
2578 Clouds 17 1026 67 10000 0.5 0 04:25 23.05.2020
2579 Clouds 18 1026 63 10000 1 10 03:26 23.05.2020
2580 Clouds 18 1026 63 10000 1 0 02:42 23.05.2020
2581 Clouds 19 1026 56 10000 2.1 360 01:50 23.05.2020
2582 Clouds 19 1026 56 10000 1.5 360 01:19 23.05.2020
2583 Clouds 20 1026 60 10000 2.6 340 00:43 23.05.2020
2584 Clouds 21 1026 56 10000 2.1 340 00:22 23.05.2020
2585 Clouds 21 1026 56 10000 2.1 340 23:55 22.05.2020
2586 Clouds 21 1026 64 10000 1 70 23:36 22.05.2020
2587 Clouds 22 1026 64 10000 1.04 97 23:18 22.05.2020
2588 Clouds 22 1025 64 10000 1 200 22:42 22.05.2020
2589 Clouds 22 1025 64 10000 1 200 22:21 22.05.2020
2590 Clouds 23 1025 60 10000 1 190 21:55 22.05.2020
2591 Clouds 23 1025 56 10000 1.5 200 21:37 22.05.2020
2592 Clouds 24 1025 44 10000 2.1 190 21:19 22.05.2020
2593 Clouds 26 1025 36 10000 2.6 190 20:45 22.05.2020
2594 Clouds 26 1025 36 10000 2.6 190 20:21 22.05.2020
2595 Clouds 27 1024 34 10000 4.1 230 19:54 22.05.2020
2596 Clouds 27 1024 34 10000 4.1 230 19:36 22.05.2020
2597 Clouds 27 1025 32 10000 4.1 220 19:18 22.05.2020
2598 Clouds 28 1025 30 10000 4.6 220 18:39 22.05.2020
2599 Clear 28 1025 30 10000 5.1 220 18:19 22.05.2020
2600 Clear 29 1025 32 10000 5.1 220 17:41 22.05.2020
2601 Clear 29 1025 34 10000 5.1 210 17:21 22.05.2020
2602 Clear 29 1025 34 10000 5.1 210 17:00 22.05.2020
2603 Clear 28 1025 34 10000 5.1 200 16:41 22.05.2020
2604 Clear 29 1025 32 10000 5.7 220 16:20 22.05.2020
2605 Clear 29 1025 32 10000 6.2 210 15:57 22.05.2020
2606 Clear 29 1025 32 10000 6.2 210 15:39 22.05.2020
2607 Clear 28 1025 34 10000 5.7 210 15:19 22.05.2020
2608 Clear 28 1025 42 10000 5.7 210 14:43 22.05.2020
2609 Clouds 28 1025 42 10000 5.7 210 14:24 22.05.2020
2610 Clouds 28 1025 36 10000 5.1 210 13:45 22.05.2020
2611 Clouds 28 1025 34 10000 4.1 210 13:20 22.05.2020
2612 Clouds 27 1025 41 10000 4.1 220 12:45 22.05.2020
2613 Clouds 26 1025 41 10000 4.1 220 12:26 22.05.2020
2614 Clouds 27 1024 41 10000 3.6 210 11:59 22.05.2020
2615 Clouds 27 1024 50 10000 2.6 200 11:40 22.05.2020
2616 Clouds 25 1024 50 10000 1 0 11:20 22.05.2020
2617 Clouds 25 1024 50 10000 1 0 10:55 22.05.2020
2618 Clouds 25 1024 44 10000 1 150 10:36 22.05.2020
2619 Clouds 24 1024 44 10000 1 0 10:18 22.05.2020
2620 Clouds 22 1023 53 10000 0.5 0 09:41 22.05.2020
2621 Clouds 20 1023 64 10000 0.5 300 09:19 22.05.2020
2622 Clouds 18 1023 72 10000 1 0 08:44 22.05.2020
2623 Clear 18 1023 72 10000 1 10 08:21 22.05.2020
2624 Clear 18 1023 72 10000 1 0 08:21 22.05.2020
2625 Clear 17 1023 72 10000 1 10 07:57 22.05.2020
2626 Clear 16 1023 77 10000 2.1 10 07:27 22.05.2020
2627 Clear 16 1022 82 10000 2.1 360 06:58 22.05.2020
2628 Clear 16 1022 87 10000 2.1 340 06:36 22.05.2020
2629 Clear 16 1022 82 10000 1 20 05:40 22.05.2020
2630 Clear 16 1022 87 10000 1.5 340 04:51 22.05.2020
2631 Clear 16 1022 87 10000 1.5 340 04:32 22.05.2020
2632 Clear 17 1022 88 10000 1 0 03:48 22.05.2020
2633 Clear 18 1022 88 10000 1.5 10 02:59 22.05.2020
2634 Clear 18 1022 88 10000 1 340 01:57 22.05.2020
2635 Clear 19 1023 88 10000 0.5 0 01:29 22.05.2020
2636 Clear 20 1022 88 10000 1 170 00:49 22.05.2020
2637 Clear 20 1022 88 10000 1 200 00:28 22.05.2020
2638 Clear 21 1022 88 10000 2.1 180 23:45 21.05.2020
2639 Clear 21 1022 82 10000 2.1 190 23:25 21.05.2020
2640 Clear 21 1022 83 10000 1.5 180 22:59 21.05.2020
2641 Clear 21 1022 83 10000 1.5 180 22:59 21.05.2020
2642 Clear 21 1022 83 10000 1.5 180 22:40 21.05.2020
2643 Clear 22 1021 83 10000 1.5 190 22:22 21.05.2020
2644 Clear 22 1021 83 10000 1.5 190 21:59 21.05.2020
2645 Clear 22 1021 83 10000 1.5 190 21:59 21.05.2020
2646 Clear 22 1021 77 10000 2.1 190 21:41 21.05.2020
2647 Clouds 23 1021 73 10000 3.6 180 21:22 21.05.2020
2648 Clouds 23 1020 64 10000 4.1 180 20:46 21.05.2020
2649 Clouds 23 1020 64 10000 4.1 180 20:22 21.05.2020
2650 Clouds 26 1020 44 10000 5.1 200 19:57 21.05.2020
2651 Clouds 25 1020 44 10000 5.1 200 19:38 21.05.2020
2652 Clouds 26 1020 44 10000 5.7 190 19:19 21.05.2020
2653 Clouds 26 1020 44 10000 5.7 190 18:40 21.05.2020
2654 Clouds 27 1020 39 10000 5.7 200 18:20 21.05.2020
2655 Clouds 27 1020 39 10000 5.7 200 18:20 21.05.2020
2656 Clouds 27 1020 39 10000 5.7 200 17:58 21.05.2020
2657 Clouds 27 1020 42 10000 6.7 210 17:40 21.05.2020
2658 Clouds 27 1020 36 10000 7.2 210 17:22 21.05.2020
2659 Clouds 28 1020 36 10000 6.2 210 16:47 21.05.2020
2660 Clear 27 1020 36 10000 5.7 210 16:25 21.05.2020
2661 Clear 28 1020 39 10000 5.7 210 15:55 21.05.2020
2662 Clear 28 1020 39 10000 5.7 210 15:37 21.05.2020
2663 Clear 28 1020 37 10000 6.2 210 15:18 21.05.2020
2664 Clear 28 1020 32 10000 5.1 210 14:39 21.05.2020
2665 Clear 28 1021 36 10000 5.1 220 14:18 21.05.2020
2666 Clear 27 1021 44 10000 5.1 210 13:41 21.05.2020
2667 Clear 27 1021 44 10000 5.1 210 13:22 21.05.2020
2668 Clear 27 1021 36 10000 5.1 210 12:58 21.05.2020
2669 Clear 27 1021 36 10000 4.6 210 12:38 21.05.2020
2670 Clear 27 1020 34 10000 3.1 200 12:19 21.05.2020
2671 Clear 26 1020 39 10000 2.1 0 11:42 21.05.2020
2672 Clear 26 1020 36 10000 1 220 11:23 21.05.2020
2673 Clear 26 1020 36 10000 1 220 10:59 21.05.2020
2674 Clear 25 1020 41 10000 1 210 10:39 21.05.2020
2675 Clear 24 1020 41 10000 0.5 110 10:20 21.05.2020
2676 Clear 24 1020 41 10000 0.5 110 09:55 21.05.2020
2677 Clear 21 1020 52 10000 1 0 09:37 21.05.2020
2678 Clear 21 1020 60 10000 0.5 0 09:18 21.05.2020
2679 Clear 18 1019 77 10000 1 0 08:45 21.05.2020
2680 Clear 19 1019 77 10000 1 0 08:45 21.05.2020
2681 Clear 17 1019 77 10000 1.5 50 08:26 21.05.2020
2682 Clear 16 1019 77 10000 1.5 310 07:47 21.05.2020
2683 Clear 15 1019 77 10000 1.5 310 07:27 21.05.2020
2684 Clear 15 1018 72 10000 1.5 360 06:52 21.05.2020
2685 Clear 15 1018 77 10000 1.5 360 06:22 21.05.2020
2686 Clear 15 1018 72 10000 2.1 360 05:34 21.05.2020
2687 Clear 17 1019 77 10000 1.5 350 03:22 21.05.2020
2688 Clear 17 1019 77 10000 1.5 350 03:22 21.05.2020
2689 Clear 17 1019 77 10000 1.5 350 03:22 21.05.2020
2690 Clear 17 1019 77 10000 1.5 350 03:22 21.05.2020
2691 Clear 17 1019 77 10000 1.5 330 02:45 21.05.2020
2692 Clear 17 1019 77 10000 1.5 330 02:26 21.05.2020
2693 Clear 18 1019 82 10000 1.5 330 01:45 21.05.2020
2694 Clear 18 1019 82 10000 1.5 330 01:21 21.05.2020
2695 Clear 18 1018 82 10000 1.5 20 00:52 21.05.2020
2696 Clear 19 1018 82 10000 1.5 20 00:23 21.05.2020
2697 Clear 19 1018 88 10000 0.41 345 23:44 20.05.2020
2698 Clear 19 1018 88 10000 0.71 66 23:21 20.05.2020
2699 Clear 20 1018 77 10000 1 0 22:58 20.05.2020
2700 Clear 20 1018 82 10000 0.5 0 22:39 20.05.2020
2701 Clear 20 1018 82 10000 0.5 0 22:21 20.05.2020
2702 Clear 21 1017 82 10000 1.5 220 21:41 20.05.2020
2703 Clear 21 1016 73 10000 3.1 210 21:23 20.05.2020
2704 Clear 21 1016 73 10000 3.1 210 20:55 20.05.2020
2705 Clear 22 1016 64 10000 3.6 210 20:37 20.05.2020
2706 Clear 24 1016 60 10000 4.1 210 20:19 20.05.2020
2707 Clear 25 1016 60 10000 4.6 190 19:39 20.05.2020
2708 Clear 25 1016 57 10000 5.1 210 19:20 20.05.2020
2709 Clear 25 1016 57 10000 5.1 210 18:56 20.05.2020
2710 Clear 25 1016 64 10000 4.6 200 18:38 20.05.2020
2711 Clear 25 1016 64 10000 4.6 200 18:18 20.05.2020
2712 Clear 26 1016 57 10000 5.7 210 17:38 20.05.2020
2713 Clear 27 1016 47 10000 4.6 210 17:19 20.05.2020
2714 Clear 27 1016 47 10000 4.6 210 16:42 20.05.2020
2715 Clear 27 1016 44 10000 5.1 220 16:23 20.05.2020
2716 Clear 27 1016 44 10000 5.1 220 15:57 20.05.2020
2717 Clear 27 1016 47 10000 5.1 210 15:39 20.05.2020
2718 Clear 27 1016 34 10000 5.1 210 15:21 20.05.2020
2719 Clear 27 1016 41 10000 5.1 190 14:42 20.05.2020
2720 Clear 26 1017 47 10000 5.7 210 14:20 20.05.2020
2721 Clear 25 1017 57 10000 5.1 200 13:41 20.05.2020
2722 Clear 25 1017 64 10000 5.1 220 13:20 20.05.2020
2723 Clear 25 1017 64 10000 5.1 220 12:58 20.05.2020
2724 Clear 25 1017 69 10000 4.6 200 12:37 20.05.2020
2725 Clear 25 1017 69 10000 3.6 210 12:19 20.05.2020
2726 Clear 25 1017 64 10000 3.1 210 11:36 20.05.2020
2727 Clear 25 1017 53 10000 0.5 230 11:18 20.05.2020
2728 Clear 23 1017 53 10000 0.5 230 11:18 20.05.2020
2729 Clear 23 1017 56 10000 0.5 150 10:43 20.05.2020
2730 Clear 21 1017 64 10000 1 0 10:20 20.05.2020
2731 Clear 21 1017 68 10000 1.5 190 09:45 20.05.2020
2732 Clear 20 1017 68 10000 1.5 190 09:22 20.05.2020
2733 Clear 19 1017 60 10000 0.5 240 08:58 20.05.2020
2734 Clear 18 1016 63 10000 1 30 08:40 20.05.2020
2735 Clear 17 1016 72 10000 1 30 08:18 20.05.2020
2736 Clear 16 1016 72 10000 0.5 10 07:47 20.05.2020
2737 Clear 15 1016 72 10000 0.5 340 07:21 20.05.2020
2738 Clear 14 1016 72 10000 1 350 06:43 20.05.2020
2739 Clear 15 1016 67 10000 1 360 05:25 20.05.2020
2740 Clear 16 1017 67 10000 1 20 04:34 20.05.2020
2741 Clear 16 1017 77 10000 1.5 20 03:53 20.05.2020
2742 Clear 17 1018 72 10000 0.5 30 02:34 20.05.2020
2743 Clear 17 1018 67 10000 1 0 01:32 20.05.2020
2744 Clear 18 1018 88 10000 0.5 0 00:46 20.05.2020
2745 Clear 18 1018 88 10000 0.5 0 00:24 20.05.2020
2746 Clear 19 1018 88 10000 1.5 90 23:45 19.05.2020
2747 Clear 19 1018 93 10000 1.5 90 23:22 19.05.2020
2748 Clear 19 1018 93 10000 1.5 90 22:57 19.05.2020
2749 Clear 20 1018 88 10000 2.1 140 22:39 19.05.2020
2750 Clear 20 1017 77 10000 2.1 140 22:20 19.05.2020
2751 Clear 20 1017 77 10000 2.1 140 21:59 19.05.2020
2752 Clear 21 1017 77 10000 2.6 200 21:39 19.05.2020
2753 Clear 21 1017 73 10000 3.6 210 21:21 19.05.2020
2754 Clear 22 1017 53 10000 4.6 230 20:58 19.05.2020
2755 Clear 23 1017 53 10000 4.6 230 20:40 19.05.2020
2756 Clear 23 1016 47 10000 5.1 240 20:22 19.05.2020
2757 Clear 23 1016 50 10000 5.7 240 19:59 19.05.2020
2758 Clear 23 1016 50 10000 5.7 240 19:37 19.05.2020
2759 Clear 23 1016 53 10000 7.7 230 19:19 19.05.2020
2760 Clear 24 1016 53 10000 7.7 230 18:43 19.05.2020
2761 Clear 24 1016 53 10000 7.7 230 18:21 19.05.2020
2762 Clear 25 1017 57 10000 6.7 210 17:56 19.05.2020
2763 Clear 25 1017 57 10000 6.7 210 17:38 19.05.2020
2764 Clear 25 1017 50 10000 6.7 210 17:18 19.05.2020
2765 Clear 25 1017 53 10000 7.2 210 16:40 19.05.2020
2766 Clear 26 1017 50 10000 4.1 0 16:21 19.05.2020
2767 Clear 26 1017 50 10000 4.1 0 15:56 19.05.2020
2768 Clear 27 1017 26 10000 4.6 290 15:37 19.05.2020
2769 Clear 26 1018 26 10000 6.2 290 15:19 19.05.2020
2770 Clear 27 1018 30 10000 5.1 310 14:43 19.05.2020
2771 Clear 27 1018 28 10000 5.7 290 14:21 19.05.2020
2772 Clear 27 1018 28 10000 5.7 290 13:59 19.05.2020
2773 Clear 26 1018 30 10000 4.1 290 13:40 19.05.2020
2774 Clear 26 1018 34 10000 4.1 290 13:22 19.05.2020
2775 Clear 25 1018 34 10000 4.1 290 12:59 19.05.2020
2776 Clear 25 1018 34 10000 4.1 290 12:59 19.05.2020
2777 Clear 26 1018 30 10000 4.1 300 12:40 19.05.2020
2778 Clear 26 1018 30 10000 5.1 290 12:22 19.05.2020
2779 Clear 25 1018 30 10000 5.1 290 11:58 19.05.2020
2780 Clear 25 1018 31 10000 3.1 260 11:40 19.05.2020
2781 Clear 25 1018 31 10000 3.1 260 11:40 19.05.2020
2782 Clear 24 1018 44 10000 2.6 190 11:21 19.05.2020
2783 Clear 23 1018 49 10000 3.6 210 10:48 19.05.2020
2784 Clear 23 1018 49 10000 3.6 210 10:29 19.05.2020
2785 Clear 22 1018 43 10000 2.1 220 09:59 19.05.2020
2786 Clear 21 1018 46 10000 1.5 230 09:41 19.05.2020
2787 Clear 19 1018 63 10000 1.5 210 09:23 19.05.2020
2788 Clear 19 1018 68 10000 1 0 08:44 19.05.2020
2789 Clear 17 1018 67 10000 2.1 310 08:24 19.05.2020
2790 Clear 15 1018 77 10000 1.5 220 07:45 19.05.2020
2791 Clear 15 1018 77 10000 1.5 220 07:26 19.05.2020
2792 Clear 14 1018 76 10000 1.5 340 06:54 19.05.2020
2793 Clear 14 1018 76 10000 1.5 340 06:25 19.05.2020
2794 Clear 14 1018 76 10000 1 0 05:42 19.05.2020
2795 Clear 14 1018 76 10000 1 0 05:42 19.05.2020
2796 Clear 14 1019 76 10000 1 0 04:57 19.05.2020
2797 Clear 14 1019 76 10000 2.1 340 04:34 19.05.2020
2798 Clear 16 1020 77 10000 2.1 320 02:21 19.05.2020
2799 Clear 17 1021 82 10000 1.5 340 00:48 19.05.2020
2800 Clear 17 1021 82 10000 1.5 340 00:26 19.05.2020
2801 Clear 17 1021 82 10000 1.5 330 23:58 18.05.2020
2802 Clear 18 1021 82 10000 1.5 220 23:40 18.05.2020
2803 Clear 18 1021 82 10000 1 220 23:20 18.05.2020
2804 Clear 18 1020 82 10000 1.5 210 22:41 18.05.2020
2805 Clear 19 1020 82 10000 1 220 22:22 18.05.2020
2806 Clear 19 1020 82 10000 1 220 21:58 18.05.2020
2807 Clear 19 1020 77 10000 1.5 190 21:40 18.05.2020
2808 Clear 20 1020 77 10000 2.1 180 21:20 18.05.2020
2809 Clear 20 1020 77 10000 2.1 180 20:57 18.05.2020
2810 Clear 21 1020 72 10000 3.1 200 20:37 18.05.2020
2811 Clouds 21 1020 73 10000 2.6 190 20:18 18.05.2020
2812 Clouds 21 1020 72 10000 2.1 160 19:41 18.05.2020
2813 Clouds 21 1020 68 10000 3.6 200 19:19 18.05.2020
2814 Clouds 21 1020 68 10000 3.6 200 19:19 18.05.2020
2815 Clouds 21 1020 68 10000 3.6 200 18:55 18.05.2020
2816 Clouds 22 1020 60 10000 4.1 200 18:37 18.05.2020
2817 Clouds 22 1020 60 10000 3.6 180 18:19 18.05.2020
2818 Clouds 22 1020 60 10000 4.1 150 17:38 18.05.2020
2819 Clouds 23 1020 56 10000 4.1 170 17:18 18.05.2020
2820 Clouds 22 1020 60 10000 4.6 140 16:56 18.05.2020
2821 Clouds 23 1020 60 10000 4.6 140 16:37 18.05.2020
2822 Clouds 23 1020 49 10000 4.6 150 16:18 18.05.2020
2823 Clouds 22 1020 53 10000 4.6 200 15:46 18.05.2020
2824 Clouds 22 1020 53 10000 4.6 200 15:25 18.05.2020
2825 Clouds 23 1021 50 10000 4.6 210 14:59 18.05.2020
2826 Clouds 23 1021 50 10000 4.6 210 14:40 18.05.2020
2827 Rain 23 1021 53 10000 3.6 210 14:22 18.05.2020
2828 Rain 22 1021 53 10000 3.6 210 13:54 18.05.2020
2829 Rain 22 1021 64 10000 3.1 200 13:36 18.05.2020
2830 Rain 22 1022 60 10000 4.1 210 13:18 18.05.2020
2831 Rain 22 1022 60 10000 4.1 210 12:54 18.05.2020
2832 Rain 22 1022 46 10000 1.5 0 12:36 18.05.2020
2833 Clouds 22 1022 60 10000 3.1 0 12:18 18.05.2020
2834 Clouds 22 1022 60 10000 3.1 190 11:44 18.05.2020
2835 Clouds 21 1022 60 10000 3.1 190 11:25 18.05.2020
2836 Clouds 20 1022 64 10000 1.5 190 10:47 18.05.2020
2837 Clouds 21 1022 64 10000 1.5 190 10:27 18.05.2020
2838 Clouds 20 1021 68 10000 1.5 120 09:57 18.05.2020
2839 Clouds 20 1021 68 10000 1.5 120 09:39 18.05.2020
2840 Clouds 19 1021 68 10000 0.5 0 09:20 18.05.2020
2841 Clouds 17 1021 77 10000 0.5 0 08:42 18.05.2020
2842 Clouds 17 1021 77 10000 0.5 0 08:23 18.05.2020
2843 Clouds 16 1021 82 10000 1.5 270 07:50 18.05.2020
2844 Clouds 16 1021 82 10000 1.5 340 07:26 18.05.2020
2845 Clouds 16 1021 77 10000 0.5 310 06:49 18.05.2020
2846 Clouds 17 1021 77 10000 0.5 310 06:31 18.05.2020
2847 Clouds 17 1021 77 10000 0.5 0 05:49 18.05.2020
2848 Clouds 17 1022 72 10000 1 340 04:40 18.05.2020
2849 Clouds 18 1022 63 10000 1 350 03:30 18.05.2020
2850 Clouds 18 1022 72 10000 2.6 280 01:58 18.05.2020
2851 Clouds 17 1023 72 10000 0.5 0 00:55 18.05.2020
2852 Clouds 17 1023 72 10000 1.5 340 00:23 18.05.2020
2853 Clouds 17 1023 72 10000 1.5 330 23:57 17.05.2020
2854 Clouds 17 1023 67 10000 2.1 350 23:38 17.05.2020
2855 Clouds 17 1022 67 10000 1.5 350 23:19 17.05.2020
2856 Clouds 18 1022 63 10000 2.1 330 22:56 17.05.2020
2857 Clouds 18 1022 63 10000 2.1 330 22:37 17.05.2020
2858 Clouds 18 1021 63 10000 2.6 330 22:18 17.05.2020
2859 Clouds 18 1021 63 10000 2.6 330 22:18 17.05.2020
2860 Clouds 19 1021 59 10000 2.1 350 21:42 17.05.2020
2861 Clouds 19 1021 59 10000 2.1 310 21:21 17.05.2020
2862 Clouds 20 1021 59 10000 2.1 310 20:59 17.05.2020
2863 Clouds 20 1021 52 10000 2.6 320 20:41 17.05.2020
2864 Clouds 21 1021 52 10000 3.1 320 20:20 17.05.2020
2865 Clouds 21 1021 52 10000 3.1 320 19:56 17.05.2020
2866 Clouds 21 1020 53 10000 2.1 220 19:37 17.05.2020
2867 Clouds 21 1020 52 10000 2.6 300 19:19 17.05.2020
2868 Clouds 21 1020 52 10000 4.1 320 18:41 17.05.2020
2869 Clouds 21 1020 52 10000 4.1 320 18:23 17.05.2020
2870 Clouds 21 1020 56 10000 3.6 310 17:59 17.05.2020
2871 Clouds 21 1020 60 10000 2.6 310 17:39 17.05.2020
2872 Clouds 21 1020 53 10000 2.1 310 17:19 17.05.2020
2873 Clouds 21 1020 53 10000 2.1 310 17:19 17.05.2020
2874 Clouds 21 1020 60 10000 1.5 310 16:40 17.05.2020
2875 Clouds 21 1020 60 10000 1.5 310 16:21 17.05.2020
2876 Clouds 20 1021 64 10000 2.1 300 15:59 17.05.2020
2877 Clouds 20 1021 64 10000 2.1 300 15:59 17.05.2020
2878 Clouds 19 1021 68 10000 3.6 300 15:39 17.05.2020
2879 Rain 20 1021 68 10000 3.1 300 15:20 17.05.2020
2880 Rain 20 1021 68 10000 3.1 300 14:54 17.05.2020
2881 Rain 19 1021 68 10000 4.6 300 14:36 17.05.2020
2882 Rain 20 1021 68 10000 4.1 300 14:18 17.05.2020
2883 Rain 20 1021 60 10000 2.1 330 13:40 17.05.2020
2884 Rain 21 1021 60 10000 2.1 330 13:20 17.05.2020
2885 Clouds 15 1018 82 10000 2.1 40 04:51 17.05.2020
2886 Clouds 16 1019 77 10000 0.5 0 03:19 17.05.2020
2887 Clouds 16 1019 77 10000 1 0 02:22 17.05.2020
2888 Clouds 16 1019 77 10000 0.5 0 01:49 17.05.2020
2889 Clouds 17 1018 72 10000 1.5 20 00:43 17.05.2020
2890 Clouds 17 1018 72 10000 2.1 340 00:21 17.05.2020
2891 Clouds 17 1018 72 10000 2.1 70 23:42 16.05.2020
2892 Clouds 17 1018 72 10000 1.5 50 23:21 16.05.2020
2893 Clouds 17 1018 72 10000 1.5 50 22:59 16.05.2020
2894 Clouds 18 1017 68 10000 2.6 80 22:41 16.05.2020
2895 Clouds 18 1017 68 10000 2.6 110 22:20 16.05.2020
2896 Clouds 18 1017 68 10000 2.6 110 21:55 16.05.2020
2897 Clouds 19 1016 68 10000 2.1 60 21:37 16.05.2020
2898 Clouds 19 1016 63 10000 2.6 40 21:19 16.05.2020
2899 Clouds 19 1016 63 10000 2.6 40 20:55 16.05.2020
2900 Clouds 19 1016 56 10000 3.6 30 20:36 16.05.2020
2901 Clouds 20 1015 56 10000 5.7 360 20:18 16.05.2020
2902 Clouds 21 1015 56 10000 5.7 340 19:40 16.05.2020
2903 Clouds 21 1014 56 10000 7.7 340 19:22 16.05.2020
2904 Clouds 21 1014 56 10000 7.7 340 18:57 16.05.2020
2905 Clouds 21 1014 56 10000 7.7 340 18:36 16.05.2020
2906 Rain 22 1014 53 10000 6.7 340 18:18 16.05.2020
2907 Rain 23 1014 46 10000 7.2 340 17:41 16.05.2020
2908 Rain 23 1014 47 10000 6.7 340 17:20 16.05.2020
2909 Rain 23 1014 41 10000 4.1 20 16:43 16.05.2020
2910 Rain 23 1014 41 10000 4.1 20 16:24 16.05.2020
2911 Rain 23 1014 41 10000 4.6 10 15:59 16.05.2020
2912 Clouds 23 1014 49 10000 3.6 40 15:41 16.05.2020
2913 Clouds 23 1014 49 10000 5.1 30 15:20 16.05.2020
2914 Clouds 23 1014 49 10000 5.1 30 14:56 16.05.2020
2915 Rain 23 1014 44 10000 8.2 50 14:37 16.05.2020
2916 Clouds 23 1014 44 10000 7.2 50 14:19 16.05.2020
2917 Clouds 23 1014 44 10000 8.7 60 13:42 16.05.2020
2918 Clouds 23 1014 53 10000 9.3 70 13:23 16.05.2020
2919 Clouds 23 1014 53 10000 9.3 70 12:58 16.05.2020
2920 Clouds 22 1014 49 10000 8.2 70 12:39 16.05.2020
2921 Rain 22 1014 53 10000 9.3 60 12:18 16.05.2020
2922 Rain 22 1014 53 10000 10.8 60 11:41 16.05.2020
2923 Clouds 22 1014 53 10000 10.8 60 11:23 16.05.2020
2924 Clouds 21 1014 64 10000 9.3 50 10:58 16.05.2020
2925 Clouds 20 1014 64 10000 9.3 50 10:39 16.05.2020
2926 Clouds 20 1014 72 10000 7.2 40 10:20 16.05.2020
2927 Clouds 19 1013 72 10000 8.2 50 09:46 16.05.2020
2928 Clouds 19 1013 72 10000 8.2 50 09:28 16.05.2020
2929 Clouds 19 1013 72 10000 8.2 40 08:55 16.05.2020
2930 Clouds 18 1013 82 10000 6.7 30 08:36 16.05.2020
2931 Rain 17 1013 77 10000 5.7 40 08:18 16.05.2020
2932 Clouds 17 1013 82 10000 5.7 40 07:42 16.05.2020
2933 Clouds 17 1013 77 10000 2.1 360 07:21 16.05.2020
2934 Clouds 18 1012 77 10000 8.2 50 06:47 16.05.2020
2935 Clouds 17 1012 77 10000 5.1 30 06:20 16.05.2020
2936 Clouds 17 1013 82 10000 6.2 50 05:42 16.05.2020
2937 Rain 17 1013 82 10000 6.7 40 05:22 16.05.2020
2938 Clouds 18 1012 82 10000 8.2 40 03:29 16.05.2020
2939 Clouds 18 1013 68 10000 3.1 50 02:47 16.05.2020
2940 Clouds 18 1014 68 10000 8.7 50 02:19 16.05.2020
2941 Clouds 18 1014 77 10000 7.2 40 01:40 16.05.2020
2942 Clouds 18 1015 77 10000 5.1 50 00:58 16.05.2020
2943 Clouds 18 1015 77 10000 3.6 30 00:40 16.05.2020
2944 Clouds 19 1015 72 10000 3.6 60 00:20 16.05.2020
2945 Clouds 19 1014 72 10000 2.6 50 23:40 15.05.2020
2946 Clouds 19 1014 68 10000 6.2 70 23:20 15.05.2020
2947 Clouds 19 1014 68 10000 6.2 70 23:20 15.05.2020
2948 Clouds 19 1014 72 10000 4.6 80 22:42 15.05.2020
2949 Clouds 19 1014 72 10000 2.6 80 22:23 15.05.2020
2950 Clouds 19 1014 72 10000 2.6 80 21:59 15.05.2020
2951 Clouds 19 1014 72 10000 4.6 40 21:39 15.05.2020
2952 Clouds 19 1014 72 10000 4.6 40 21:21 15.05.2020
2953 Clouds 19 1013 68 10000 5.7 60 20:58 15.05.2020
2954 Clouds 19 1013 68 10000 5.7 60 20:40 15.05.2020
2955 Clouds 20 1013 60 10000 5.7 70 20:21 15.05.2020
2956 Clouds 20 1013 60 10000 5.7 70 19:55 15.05.2020
2957 Clouds 20 1013 60 10000 5.7 60 19:36 15.05.2020
2958 Clouds 20 1013 64 10000 6.7 70 19:18 15.05.2020
2959 Clouds 20 1013 60 10000 6.2 70 18:41 15.05.2020
2960 Clouds 21 1013 60 10000 6.2 70 18:23 15.05.2020
2961 Clouds 22 1013 60 10000 4.6 80 17:39 15.05.2020
2962 Clouds 22 1013 53 10000 2.1 140 17:19 15.05.2020
2963 Clouds 22 1013 56 10000 1.5 0 16:57 15.05.2020
2964 Clouds 21 1013 56 10000 1.5 0 16:38 15.05.2020
2965 Clouds 21 1013 64 10000 3.6 220 16:19 15.05.2020
2966 Clouds 21 1013 68 10000 5.1 220 15:42 15.05.2020
2967 Clouds 21 1013 64 10000 4.6 210 15:24 15.05.2020
2968 Clouds 21 1013 64 10000 4.6 210 14:59 15.05.2020
2969 Clouds 21 1014 56 10000 4.1 220 14:41 15.05.2020
2970 Clouds 23 1014 49 10000 2.1 150 14:23 15.05.2020
2971 Clouds 23 1014 49 10000 2.1 150 13:58 15.05.2020
2972 Clouds 22 1014 53 10000 2.6 180 13:39 15.05.2020
2973 Clouds 22 1014 56 10000 3.1 170 13:19 15.05.2020
2974 Clouds 21 1014 64 10000 2.6 190 12:39 15.05.2020
2975 Clouds 21 1014 46 10000 1.5 0 12:18 15.05.2020
2976 Clouds 21 1014 46 10000 1.5 0 11:57 15.05.2020
2977 Clouds 21 1014 56 10000 1.5 0 11:38 15.05.2020
2978 Clear 21 1014 64 10000 1 360 11:19 15.05.2020
2979 Clear 21 1014 64 10000 1 360 10:57 15.05.2020
2980 Clear 20 1014 60 10000 1.5 90 10:39 15.05.2020
2981 Clear 20 1014 60 10000 1.5 90 10:39 15.05.2020
2982 Clear 20 1013 72 10000 1.5 0 10:20 15.05.2020
2983 Clear 20 1013 72 10000 1.5 0 09:57 15.05.2020
2984 Clear 18 1013 77 10000 1.5 130 09:36 15.05.2020
2985 Clear 18 1013 72 10000 0.5 0 09:18 15.05.2020
2986 Clear 16 1013 87 10000 1.5 30 08:38 15.05.2020
2987 Clear 15 1013 93 10000 1.5 10 08:20 15.05.2020
2988 Clear 14 1012 93 10000 1 70 07:59 15.05.2020
2989 Clear 13 1012 93 10000 1 70 07:40 15.05.2020
2990 Clear 14 1012 93 10000 1 70 07:21 15.05.2020
2991 Clear 14 1011 93 10000 0.5 0 06:32 15.05.2020
2992 Clear 15 1011 87 10000 0.5 0 05:33 15.05.2020
2993 Clear 16 1011 82 10000 3.6 230 03:52 15.05.2020
2994 Clear 17 1011 77 10000 4.1 250 02:58 15.05.2020
2995 Clear 17 1010 77 10000 4.6 240 01:37 15.05.2020
2996 Clear 18 1010 77 10000 4.6 250 01:19 15.05.2020
2997 Clear 17 1010 77 10000 5.1 250 00:43 15.05.2020
2998 Clear 17 1010 77 10000 7.2 250 00:22 15.05.2020
2999 Clear 17 1010 77 10000 7.7 240 23:42 14.05.2020
3000 Clear 18 1009 63 10000 4.6 260 23:20 14.05.2020
3001 Clear 18 1009 63 10000 4.6 260 22:55 14.05.2020
3002 Clear 18 1009 63 10000 6.7 250 22:37 14.05.2020
3003 Clear 18 1008 63 10000 7.2 250 22:19 14.05.2020
3004 Clear 18 1008 63 10000 8.2 240 21:42 14.05.2020
3005 Clear 17 1008 67 10000 8.2 250 21:20 14.05.2020
3006 Clear 17 1008 67 10000 8.2 250 20:59 14.05.2020
3007 Clear 17 1007 63 10000 7.2 250 20:41 14.05.2020
3008 Clouds 17 1007 67 10000 8.7 250 20:20 14.05.2020
3009 Clouds 17 1007 67 10000 8.7 250 19:57 14.05.2020
3010 Clouds 17 1006 67 10000 9.8 240 19:39 14.05.2020
3011 Clouds 17 1006 67 10000 9.8 240 19:39 14.05.2020
3012 Clouds 17 1006 67 10000 8.7 250 19:20 14.05.2020
3013 Clouds 17 1006 67 10000 8.7 250 18:58 14.05.2020
3014 Clouds 18 1006 63 10000 9.3 240 18:38 14.05.2020
3015 Clouds 18 1006 63 10000 9.3 240 18:38 14.05.2020
3016 Clouds 18 1005 72 10000 9.3 230 18:19 14.05.2020
3017 Rain 18 1005 82 7000 7.2 210 17:57 14.05.2020
3018 Rain 18 1005 82 7000 7.2 210 17:37 14.05.2020
3019 Clouds 18 1005 72 10000 5.7 200 17:18 14.05.2020
3020 Clouds 18 1005 72 10000 5.7 200 16:57 14.05.2020
3021 Clouds 17 1005 77 10000 4.1 200 16:37 14.05.2020
3022 Rain 18 1005 77 10000 4.6 210 16:18 14.05.2020
3023 Rain 17 1005 82 10000 4.1 220 15:41 14.05.2020
3024 Rain 17 1005 82 10000 4.1 220 15:21 14.05.2020
3025 Rain 17 1006 82 10000 3.6 210 14:57 14.05.2020
3026 Rain 16 1006 87 10000 2.1 220 14:39 14.05.2020
3027 Rain 16 1006 87 8000 2.6 200 14:20 14.05.2020
3028 Rain 16 1006 87 8000 2.6 200 13:57 14.05.2020
3029 Rain 16 1006 87 2800 6.2 200 13:38 14.05.2020
3030 Rain 17 1005 82 10000 5.1 210 13:20 14.05.2020
3031 Rain 18 1005 82 10000 5.1 210 12:58 14.05.2020
3032 Rain 19 1005 63 10000 3.1 210 12:38 14.05.2020
3033 Rain 19 1005 68 10000 2.1 140 12:20 14.05.2020
3034 Rain 19 1005 68 10000 2.1 140 11:57 14.05.2020
3035 Rain 19 1005 68 10000 1.5 180 11:38 14.05.2020
3036 Rain 19 1005 68 10000 1.5 180 11:38 14.05.2020
3037 Clouds 19 1005 68 10000 1.5 180 11:20 14.05.2020
3038 Clouds 18 1005 72 10000 1.5 330 10:45 14.05.2020
3039 Rain 18 1005 72 10000 1.5 330 10:26 14.05.2020
3040 Rain 19 1005 77 10000 1.5 60 09:57 14.05.2020
3041 Rain 18 1005 72 10000 0.5 0 09:39 14.05.2020
3042 Clouds 17 1005 77 10000 0.5 0 09:19 14.05.2020
3043 Clouds 15 1005 87 10000 0.5 170 08:41 14.05.2020
3044 Clouds 15 1005 87 10000 0.5 170 08:20 14.05.2020
3045 Clouds 14 1005 82 10000 1.5 360 07:45 14.05.2020
3046 Clouds 14 1005 82 10000 1.5 360 07:25 14.05.2020
3047 Clouds 13 1005 93 10000 2.6 350 06:54 14.05.2020
3048 Clouds 13 1005 87 10000 2.1 330 06:31 14.05.2020
3049 Clouds 14 1005 87 10000 2.1 330 06:31 14.05.2020
3050 Clouds 14 1006 87 10000 2.1 330 05:56 14.05.2020
3051 Clouds 14 1005 87 10000 2.1 360 05:35 14.05.2020
3052 Clouds 14 1006 76 10000 1 350 04:25 14.05.2020
3053 Clouds 15 1006 82 10000 2.1 350 03:27 14.05.2020
3054 Clouds 15 1007 82 10000 1.5 10 02:42 14.05.2020
3055 Clouds 16 1007 82 10000 0.5 310 01:56 14.05.2020
3056 Clouds 16 1007 82 10000 0.5 310 01:28 14.05.2020
3057 Clouds 16 1007 82 10000 1.5 50 00:50 14.05.2020
3058 Clear 16 1007 82 10000 1.5 50 00:25 14.05.2020
3059 Clear 17 1008 77 10000 0.5 0 23:44 13.05.2020
3060 Clear 18 1008 77 10000 1.5 200 23:22 13.05.2020
3061 Clear 18 1008 77 10000 1.5 200 22:56 13.05.2020
3062 Clear 18 1008 77 10000 2.6 220 22:36 13.05.2020
3063 Clear 18 1008 77 10000 3.6 210 22:18 13.05.2020
3064 Clear 18 1007 72 10000 4.6 210 21:56 13.05.2020
3065 Clear 19 1007 72 10000 4.6 210 21:38 13.05.2020
3066 Clear 19 1007 68 10000 3.6 200 21:18 13.05.2020
3067 Clear 20 1007 68 10000 5.7 200 20:41 13.05.2020
3068 Clear 20 1007 68 10000 5.7 200 20:23 13.05.2020
3069 Clear 20 1007 60 10000 6.7 200 19:44 13.05.2020
3070 Clear 21 1007 60 10000 7.2 210 19:25 13.05.2020
3071 Clear 21 1007 60 10000 7.2 210 19:25 13.05.2020
3072 Clear 21 1007 60 10000 7.2 210 18:58 13.05.2020
3073 Clear 21 1007 60 10000 7.2 210 18:40 13.05.2020
3074 Clear 21 1007 43 10000 5.7 250 18:21 13.05.2020
3075 Clear 22 1007 43 10000 6.7 240 17:40 13.05.2020
3076 Clear 22 1007 46 10000 7.7 210 17:20 13.05.2020
3077 Clear 21 1007 52 10000 7.2 210 16:59 13.05.2020
3078 Clear 21 1007 52 10000 7.2 210 16:40 13.05.2020
3079 Clear 21 1007 46 10000 7.2 210 16:19 13.05.2020
3080 Clear 21 1007 46 10000 7.2 210 15:54 13.05.2020
3081 Clear 21 1007 46 10000 7.7 220 15:36 13.05.2020
3082 Clear 21 1007 52 10000 9.8 210 15:18 13.05.2020
3083 Clear 22 1007 49 10000 9.3 210 14:41 13.05.2020
3084 Clouds 22 1007 49 10000 9.3 210 14:22 13.05.2020
3085 Clouds 21 1007 49 10000 9.3 220 13:58 13.05.2020
3086 Clouds 21 1007 49 10000 7.7 220 13:39 13.05.2020
3087 Clouds 21 1007 49 10000 7.7 220 13:39 13.05.2020
3088 Clouds 21 1007 53 10000 7.7 230 13:21 13.05.2020
3089 Clouds 21 1007 49 10000 8.2 230 12:57 13.05.2020
3090 Clouds 21 1007 49 10000 8.2 230 12:39 13.05.2020
3091 Clouds 21 1007 46 10000 7.2 240 12:18 13.05.2020
3092 Clouds 21 1006 64 10000 9.8 250 11:56 13.05.2020
3093 Clouds 21 1006 56 10000 7.7 240 11:36 13.05.2020
3094 Clouds 21 1006 56 10000 7.7 240 11:18 13.05.2020
3095 Clouds 21 1006 56 10000 7.7 240 10:56 13.05.2020
3096 Clouds 21 1006 56 10000 7.7 240 10:38 13.05.2020
3097 Clouds 20 1006 52 10000 7.7 240 10:19 13.05.2020
3098 Clouds 20 1005 60 10000 6.7 250 09:45 13.05.2020
3099 Clouds 20 1005 60 10000 6.7 250 09:23 13.05.2020
3100 Clouds 19 1005 68 10000 6.7 260 08:57 13.05.2020
3101 Clouds 19 1005 68 10000 6.7 260 08:37 13.05.2020
3102 Clouds 19 1005 77 10000 4.6 250 08:19 13.05.2020
3103 Clouds 18 1005 77 10000 4.6 250 07:44 13.05.2020
3104 Clouds 18 1005 77 10000 4.6 250 07:26 13.05.2020
3105 Clouds 18 1004 82 10000 4.1 240 06:49 13.05.2020
3106 Clouds 18 1004 82 10000 4.1 240 06:28 13.05.2020
3107 Clouds 19 1004 82 10000 5.7 230 04:57 13.05.2020
3108 Clouds 19 1004 77 10000 2.1 190 03:27 13.05.2020
3109 Clouds 20 1005 72 10000 1 0 02:34 13.05.2020
3110 Clouds 20 1005 64 10000 3.1 100 01:38 13.05.2020
3111 Clouds 20 1005 52 10000 4.6 70 00:53 13.05.2020
3112 Clouds 19 1006 52 10000 2.6 80 00:22 13.05.2020
3113 Clouds 19 1006 52 10000 2.6 80 23:55 12.05.2020
3114 Clouds 20 1006 46 10000 4.1 50 23:36 12.05.2020
3115 Clouds 20 1006 56 10000 2.6 50 23:18 12.05.2020
3116 Clouds 20 1007 56 10000 1 0 22:42 12.05.2020
3117 Clouds 20 1006 49 10000 2.6 80 22:22 12.05.2020
3118 Clouds 21 1006 43 10000 3.1 80 21:56 12.05.2020
3119 Clouds 22 1006 43 10000 3.1 80 21:38 12.05.2020
3120 Clouds 22 1006 40 10000 4.6 80 21:19 12.05.2020
3121 Clouds 22 1006 40 10000 4.6 80 20:58 12.05.2020
3122 Clouds 23 1006 35 10000 5.1 90 20:39 12.05.2020
3123 Clouds 23 1006 33 10000 5.7 80 20:20 12.05.2020
3124 Clouds 24 1006 33 10000 5.7 80 19:57 12.05.2020
3125 Clouds 24 1005 33 10000 6.2 80 19:39 12.05.2020
3126 Clouds 25 1005 36 10000 8.2 80 19:20 12.05.2020
3127 Clouds 25 1005 36 10000 8.2 80 18:55 12.05.2020
3128 Clouds 26 1006 39 10000 6.7 90 18:36 12.05.2020
3129 Clouds 26 1006 36 10000 7.2 90 18:18 12.05.2020
3130 Clouds 26 1007 32 10000 6.2 120 17:41 12.05.2020
3131 Clouds 27 1007 32 10000 6.2 120 17:23 12.05.2020
3132 Clouds 27 1007 36 10000 5.7 100 16:47 12.05.2020
3133 Clouds 27 1007 36 10000 5.7 100 16:26 12.05.2020
3134 Clouds 27 1007 34 10000 4.6 130 15:56 12.05.2020
3135 Clouds 27 1008 44 10000 6.7 70 15:38 12.05.2020
3136 Clouds 26 1008 57 10000 2.1 180 15:19 12.05.2020
3137 Clouds 24 1008 57 10000 2.1 180 14:57 12.05.2020
3138 Clouds 27 1009 36 10000 3.6 100 14:37 12.05.2020
3139 Haze 26 1009 47 5000 2.6 160 14:19 12.05.2020
3140 Haze 25 1009 47 5000 2.6 160 13:58 12.05.2020
3141 Haze 23 1010 69 3000 1.5 190 13:39 12.05.2020
3142 Clouds 22 1011 73 8000 4.6 210 13:19 12.05.2020
3143 Clouds 23 1011 73 8000 4.6 210 12:57 12.05.2020
3144 Clouds 24 1010 53 10000 2.1 150 12:39 12.05.2020
3145 Clouds 24 1010 53 10000 2.1 150 12:21 12.05.2020
3146 Clouds 23 1011 60 10000 1 0 11:58 12.05.2020
3147 Clouds 22 1011 68 10000 2.1 180 11:38 12.05.2020
3148 Clouds 22 1011 73 10000 1.5 150 11:20 12.05.2020
3149 Clouds 21 1011 73 10000 1.5 150 10:58 12.05.2020
3150 Clouds 21 1011 73 10000 1.5 170 10:39 12.05.2020
3151 Clouds 21 1011 77 10000 1 0 10:21 12.05.2020
3152 Clouds 21 1011 77 10000 1 0 09:58 12.05.2020
3153 Clouds 20 1012 82 10000 1 0 09:39 12.05.2020
3154 Clouds 19 1011 77 10000 1.5 350 09:20 12.05.2020
3155 Clouds 18 1011 77 10000 1.5 350 08:54 12.05.2020
3156 Mist 17 1012 88 3200 0.5 0 08:36 12.05.2020
3157 Clouds 17 1011 93 10000 0.5 0 08:18 12.05.2020
3158 Clouds 15 1011 93 10000 1 0 07:41 12.05.2020
3159 Clouds 15 1010 93 10000 1 0 07:21 12.05.2020
3160 Clouds 16 1010 87 10000 1 0 06:41 12.05.2020
3161 Clouds 16 1010 87 10000 1 0 06:22 12.05.2020
3162 Clouds 16 1010 88 10000 1.5 90 05:50 12.05.2020
3163 Clouds 16 1011 93 10000 3.1 90 04:54 12.05.2020
3164 Clouds 17 1011 87 10000 2.1 230 03:26 12.05.2020
3165 Clear 17 1011 87 10000 1 0 02:28 12.05.2020
3166 Clear 17 1012 93 10000 0.5 290 01:59 12.05.2020
3167 Clear 18 1012 88 10000 2.6 230 01:24 12.05.2020
3168 Clear 18 1012 88 10000 1.5 160 00:26 12.05.2020
3169 Clear 19 1012 82 10000 2.1 170 23:58 11.05.2020
3170 Clear 18 1012 82 10000 1.5 140 23:40 11.05.2020
3171 Clear 19 1011 72 10000 3.1 220 23:20 11.05.2020
3172 Clear 19 1011 72 10000 3.1 220 22:58 11.05.2020
3173 Clear 19 1011 68 10000 1.5 230 22:40 11.05.2020
3174 Clear 19 1010 68 10000 1.5 280 22:20 11.05.2020
3175 Clear 19 1010 68 10000 1.5 280 22:20 11.05.2020
3176 Clear 19 1010 68 10000 1.5 280 21:57 11.05.2020
3177 Clear 19 1010 72 10000 2.6 250 21:39 11.05.2020
3178 Clear 20 1010 72 10000 5.1 250 21:19 11.05.2020
3179 Clear 20 1010 77 10000 6.7 230 20:57 11.05.2020
3180 Clear 20 1010 72 10000 5.1 250 20:57 11.05.2020
3181 Clear 20 1010 72 10000 5.1 250 20:57 11.05.2020
3182 Clear 20 1010 77 10000 6.7 230 20:39 11.05.2020
3183 Clear 21 1010 64 10000 7.7 220 20:20 11.05.2020
3184 Clear 21 1009 68 10000 7.7 230 19:55 11.05.2020
3185 Clear 21 1009 68 10000 7.7 230 19:36 11.05.2020
3186 Clear 21 1009 68 10000 8.7 220 19:18 11.05.2020
3187 Clear 21 1009 64 10000 8.7 210 18:55 11.05.2020
3188 Clear 21 1009 68 10000 8.7 220 18:55 11.05.2020
3189 Clear 21 1009 64 10000 8.7 210 18:36 11.05.2020
3190 Clear 22 1009 53 10000 7.7 230 18:18 11.05.2020
3191 Clear 22 1009 64 10000 9.8 210 17:55 11.05.2020
3192 Clear 21 1009 64 10000 9.8 210 17:36 11.05.2020
3193 Clear 22 1009 46 10000 10.3 240 17:18 11.05.2020
3194 Clear 23 1009 43 10000 9.3 250 16:40 11.05.2020
3195 Clear 23 1009 43 10000 9.8 240 16:22 11.05.2020
3196 Clear 23 1009 43 10000 9.8 240 15:57 11.05.2020
3197 Clear 23 1009 46 10000 8.7 250 15:39 11.05.2020
3198 Clear 23 1009 43 10000 9.3 260 15:19 11.05.2020
3199 Clear 23 1009 43 10000 9.3 260 15:19 11.05.2020
3200 Clear 22 1009 43 10000 9.3 260 14:55 11.05.2020
3201 Clear 22 1009 43 10000 9.3 250 14:37 11.05.2020
3202 Clear 22 1009 49 10000 8.7 250 14:18 11.05.2020
3203 Clear 22 1008 49 10000 8.7 240 13:41 11.05.2020
3204 Clear 22 1009 56 10000 9.3 260 13:22 11.05.2020
3205 Clear 21 1008 53 10000 8.2 250 12:58 11.05.2020
3206 Clear 21 1008 53 10000 8.2 250 12:40 11.05.2020
3207 Clear 22 1008 53 10000 8.2 250 12:22 11.05.2020
3208 Clear 21 1008 53 10000 6.7 250 11:57 11.05.2020
3209 Clear 21 1008 56 10000 7.7 260 11:38 11.05.2020
3210 Clear 21 1008 56 10000 7.2 240 11:20 11.05.2020
3211 Clear 21 1008 56 10000 7.2 240 10:56 11.05.2020
3212 Clear 21 1008 60 10000 6.2 260 10:38 11.05.2020
3213 Clear 20 1007 60 10000 6.7 250 10:19 11.05.2020
3214 Clear 20 1007 60 10000 6.7 250 09:56 11.05.2020
3215 Clear 20 1007 60 10000 6.7 260 09:37 11.05.2020
3216 Clear 19 1007 68 10000 3.1 260 09:18 11.05.2020
3217 Clear 19 1007 68 10000 1.5 360 08:42 11.05.2020
3218 Clear 19 1007 68 10000 1.5 360 08:23 11.05.2020
3219 Clear 18 1007 68 10000 1.5 70 07:56 11.05.2020
3220 Clear 18 1006 68 10000 2.1 260 07:38 11.05.2020
3221 Clear 17 1006 77 10000 2.1 130 07:20 11.05.2020
3222 Clear 18 1006 72 10000 3.1 250 06:34 11.05.2020
3223 Clear 18 1006 68 10000 3.6 280 05:51 11.05.2020
3224 Clear 18 1006 63 10000 3.6 260 05:21 11.05.2020
3225 Clear 19 1006 59 10000 5.7 250 03:56 11.05.2020
3226 Clear 19 1006 63 10000 3.6 250 02:36 11.05.2020
3227 Clear 19 1006 63 10000 5.1 250 01:59 11.05.2020
3228 Clear 19 1006 63 10000 4.1 250 01:21 11.05.2020
3229 Clear 19 1006 63 10000 4.1 250 00:41 11.05.2020
3230 Rain 19 1006 68 10000 4.1 250 00:18 11.05.2020
3231 Rain 19 1006 77 10000 4.1 250 23:40 10.05.2020
3232 Rain 19 1006 77 10000 6.7 240 23:20 10.05.2020
3233 Rain 19 1006 77 10000 6.7 240 22:55 10.05.2020
3234 Rain 19 1006 77 10000 6.7 240 22:37 10.05.2020
3235 Rain 19 1006 82 10000 6.2 230 22:18 10.05.2020
3236 Rain 19 1006 77 10000 7.7 230 21:43 10.05.2020
3237 Clouds 19 1006 77 10000 7.7 230 21:19 10.05.2020
3238 Rain 19 1006 77 10000 8.2 230 20:43 10.05.2020
3239 Rain 19 1006 77 10000 8.2 230 20:25 10.05.2020
3240 Rain 19 1006 77 10000 8.2 230 20:25 10.05.2020
3241 Rain 19 1006 77 10000 8.2 230 19:59 10.05.2020
3242 Rain 20 1006 68 10000 8.2 220 19:39 10.05.2020
3243 Rain 20 1006 68 10000 7.7 220 19:21 10.05.2020
3244 Rain 20 1006 68 10000 7.7 220 18:56 10.05.2020
3245 Rain 20 1006 68 10000 8.2 220 18:37 10.05.2020
3246 Clouds 20 1006 68 10000 8.7 220 18:18 10.05.2020
3247 Clouds 20 1006 68 10000 8.7 220 17:58 10.05.2020
3248 Clouds 20 1006 68 10000 6.7 220 17:39 10.05.2020
3249 Rain 20 1006 68 10000 7.2 220 17:20 10.05.2020
3250 Rain 20 1006 68 10000 7.2 220 17:20 10.05.2020
3251 Rain 20 1006 68 10000 7.2 220 16:55 10.05.2020
3252 Clouds 19 1006 77 10000 6.2 210 16:37 10.05.2020
3253 Clouds 19 1007 77 10000 6.2 210 16:18 10.05.2020
3254 Clouds 18 1007 72 10000 2.6 210 15:42 10.05.2020
3255 Rain 18 1007 72 10000 2.6 210 15:23 10.05.2020
3256 Clouds 17 1006 93 10000 1.5 150 14:57 10.05.2020
3257 Thunderstorm 16 1007 87 3100 6.2 210 14:38 10.05.2020
3258 Rain 17 1007 87 3100 6.2 210 14:38 10.05.2020
3259 Rain 17 1007 88 10000 6.2 160 14:19 10.05.2020
3260 Rain 18 1007 88 10000 6.2 160 13:58 10.05.2020
3261 Rain 19 1007 88 10000 6.2 160 13:37 10.05.2020
3262 Rain 19 1007 88 10000 6.2 160 13:37 10.05.2020
3263 Rain 19 1008 77 10000 4.1 160 13:19 10.05.2020
3264 Rain 19 1008 77 10000 4.1 160 13:19 10.05.2020
3265 Rain 18 1008 77 10000 4.1 160 12:56 10.05.2020
3266 Rain 18 1007 88 5000 5.1 120 12:38 10.05.2020
3267 Rain 18 1009 82 10000 4.6 200 12:20 10.05.2020
3268 Rain 18 1008 82 10000 6.2 200 11:55 10.05.2020
3269 Rain 18 1008 82 10000 6.2 200 11:36 10.05.2020
3270 Clouds 18 1008 88 10000 5.7 200 11:18 10.05.2020
3271 Clouds 19 1008 93 10000 4.6 190 10:43 10.05.2020
3272 Clouds 19 1008 93 10000 4.6 190 10:25 10.05.2020
3273 Rain 19 1008 93 10000 3.1 190 09:57 10.05.2020
3274 Clouds 19 1009 93 10000 2.6 190 09:39 10.05.2020
3275 Rain 18 1008 88 10000 1 0 09:20 10.05.2020
3276 Rain 18 1008 88 10000 1.5 70 08:48 10.05.2020
3277 Rain 18 1008 93 10000 2.1 130 08:24 10.05.2020
3278 Rain 18 1008 93 10000 2.6 170 07:45 10.05.2020
3279 Rain 18 1008 93 10000 2.1 110 07:21 10.05.2020
3280 Rain 18 1008 93 10000 2.1 110 06:56 10.05.2020
3281 Rain 18 1009 93 8000 1 60 06:30 10.05.2020
3282 Rain 18 1009 93 8000 1 60 05:51 10.05.2020
3283 Thunderstorm 19 1009 93 5000 3.6 190 04:54 10.05.2020
3284 Rain 19 1009 82 10000 3.6 190 04:34 10.05.2020
3285 Clouds 19 1008 88 10000 2.1 200 03:57 10.05.2020
3286 Clouds 19 1008 88 10000 1.5 210 03:38 10.05.2020
3287 Clouds 19 1009 88 10000 1 0 02:48 10.05.2020
3288 Clouds 19 1010 88 10000 2.1 190 02:19 10.05.2020
3289 Clouds 20 1010 88 10000 2.1 210 01:42 10.05.2020
3290 Clouds 20 1010 82 10000 2.6 210 01:20 10.05.2020
3291 Clouds 20 1010 82 10000 2.6 210 00:55 10.05.2020
3292 Clouds 20 1011 88 10000 0.5 230 00:26 10.05.2020
3293 Clouds 19 1011 82 10000 0.5 300 23:59 09.05.2020
3294 Clouds 19 1011 82 10000 0.5 300 23:39 09.05.2020
3295 Clouds 19 1011 82 10000 0.5 170 23:20 09.05.2020
3296 Clouds 20 1011 82 10000 1.5 180 22:43 09.05.2020
3297 Clouds 20 1011 82 10000 1.5 180 22:24 09.05.2020
3298 Clouds 20 1011 77 10000 1 0 21:59 09.05.2020
3299 Clouds 20 1011 77 10000 1.5 200 21:41 09.05.2020
3300 Clear 20 1011 77 10000 2.1 200 21:22 09.05.2020
3301 Clear 20 1011 77 10000 4.1 200 20:58 09.05.2020
3302 Clouds 21 1011 77 10000 4.1 200 20:39 09.05.2020
3303 Clouds 21 1011 77 10000 4.1 200 20:20 09.05.2020
3304 Clouds 21 1011 73 10000 4.1 180 19:58 09.05.2020
3305 Clouds 21 1011 73 10000 4.6 190 19:39 09.05.2020
3306 Clouds 22 1010 68 10000 7.2 210 19:19 09.05.2020
3307 Clouds 23 1010 60 10000 5.1 210 18:45 09.05.2020
3308 Clouds 23 1010 60 10000 5.1 210 18:26 09.05.2020
3309 Clouds 23 1010 64 10000 3.1 200 17:58 09.05.2020
3310 Clouds 24 1010 61 10000 1.5 0 17:40 09.05.2020
3311 Clouds 23 1011 64 10000 2.6 190 17:21 09.05.2020
3312 Clouds 23 1011 69 10000 4.1 220 16:41 09.05.2020
3313 Clouds 23 1011 64 10000 1.5 0 16:20 09.05.2020
3314 Clouds 23 1011 64 10000 1.5 0 16:20 09.05.2020
3315 Clouds 23 1012 64 10000 1.5 0 15:46 09.05.2020
3316 Clouds 22 1012 73 10000 2.6 190 15:27 09.05.2020
3317 Clouds 21 1012 73 10000 2.6 190 14:59 09.05.2020
3318 Clouds 21 1013 73 10000 2.6 220 14:40 09.05.2020
3319 Clouds 21 1013 77 10000 3.6 210 14:20 09.05.2020
3320 Clouds 20 1013 77 10000 2.1 190 13:58 09.05.2020
3321 Clouds 20 1013 77 10000 2.1 190 13:40 09.05.2020
3322 Clouds 20 1013 77 10000 1 0 13:20 09.05.2020
3323 Clouds 20 1014 77 10000 4.1 220 12:43 09.05.2020
3324 Clouds 20 1014 77 10000 4.1 220 12:22 09.05.2020
3325 Clouds 20 1014 77 10000 4.1 180 11:58 09.05.2020
3326 Clouds 20 1014 77 10000 4.1 180 11:58 09.05.2020
3327 Clouds 21 1014 77 10000 4.1 180 11:40 09.05.2020
3328 Clouds 21 1013 77 10000 3.1 70 11:19 09.05.2020
3329 Clouds 20 1013 77 10000 3.1 70 10:47 09.05.2020
3330 Clouds 20 1012 72 10000 5.1 60 10:26 09.05.2020
3331 Clouds 20 1013 82 10000 2.1 60 09:58 09.05.2020
3332 Clouds 19 1013 82 10000 2.1 60 09:39 09.05.2020
3333 Clouds 19 1012 82 10000 2.6 40 09:19 09.05.2020
3334 Clouds 19 1012 82 10000 2.1 30 08:51 09.05.2020
3335 Clouds 18 1012 82 10000 2.1 30 08:33 09.05.2020
3336 Clouds 17 1013 82 10000 1 360 07:54 09.05.2020
3337 Clouds 17 1013 82 10000 1 360 07:36 09.05.2020
3338 Clouds 17 1013 82 10000 1 0 07:18 09.05.2020
3339 Clouds 17 1014 82 10000 1 0 06:26 09.05.2020
3340 Clouds 17 1014 82 10000 1.5 30 05:49 09.05.2020
3341 Clouds 17 1014 82 10000 2.1 30 04:43 09.05.2020
3342 Clouds 18 1015 77 10000 1.5 300 03:38 09.05.2020
3343 Clear 18 1014 82 10000 2.1 50 02:50 09.05.2020
3344 Clear 18 1015 82 7000 2.1 60 01:54 09.05.2020
3345 Mist 18 1015 82 4100 3.1 70 01:26 09.05.2020
3346 -273 0 0 0 0 0 00:59 09.05.2020
3347 Clear 19 1015 77 10000 2.1 70 00:38 09.05.2020
3348 Clear 19 1016 77 10000 3.6 50 23:58 08.05.2020
3349 Clear 19 1016 77 10000 3.6 50 23:39 08.05.2020
3350 Clear 19 1015 77 10000 3.6 80 23:20 08.05.2020
3351 Clear 19 1015 77 10000 3.6 80 22:55 08.05.2020
3352 Clear 19 1015 77 10000 3.6 80 22:36 08.05.2020
3353 Clear 19 1015 77 10000 5.1 70 22:18 08.05.2020
3354 Clear 20 1015 72 10000 5.7 90 21:54 08.05.2020
3355 Clear 20 1015 72 10000 5.7 90 21:36 08.05.2020
3356 Clear 20 1015 72 10000 7.2 80 21:18 08.05.2020
3357 Clear 22 1015 68 10000 5.7 70 20:41 08.05.2020
3358 Clouds 22 1015 68 10000 5.7 70 20:23 08.05.2020
3359 Clouds 22 1014 64 10000 5.7 80 19:58 08.05.2020
3360 Clouds 23 1014 60 10000 6.7 90 19:40 08.05.2020
3361 Clouds 24 1013 57 10000 8.7 80 19:20 08.05.2020
3362 Clouds 24 1013 57 10000 8.7 80 19:20 08.05.2020
3363 Clouds 24 1014 53 10000 6.7 80 18:45 08.05.2020
3364 Clouds 24 1014 53 10000 6.7 80 18:27 08.05.2020
3365 Clouds 25 1015 41 10000 4.6 100 17:43 08.05.2020
3366 Clouds 25 1015 41 10000 4.6 100 17:43 08.05.2020
3367 Clouds 25 1016 39 10000 5.7 90 17:20 08.05.2020
3368 Clouds 25 1016 39 10000 5.7 90 16:56 08.05.2020
3369 Clouds 26 1015 34 10000 6.7 100 16:38 08.05.2020
3370 Clouds 26 1015 34 10000 6.7 80 16:19 08.05.2020
3371 Clouds 26 1016 36 10000 6.2 90 15:43 08.05.2020
3372 Clouds 26 1016 34 10000 5.7 90 15:22 08.05.2020
3373 Clouds 26 1016 34 10000 5.7 90 14:57 08.05.2020
3374 Clouds 26 1016 34 10000 6.7 80 14:39 08.05.2020
3375 Clouds 26 1016 36 10000 7.2 90 14:19 08.05.2020
3376 Clouds 26 1016 36 10000 7.2 90 13:55 08.05.2020
3377 Clouds 26 1017 39 10000 6.2 90 13:37 08.05.2020
3378 Clouds 25 1017 50 10000 6.7 60 13:18 08.05.2020
3379 Clouds 25 1017 53 10000 6.2 60 12:42 08.05.2020
3380 Clouds 24 1017 53 10000 6.7 60 12:23 08.05.2020
3381 Clouds 23 1018 60 10000 4.6 70 11:54 08.05.2020
3382 Clouds 23 1018 60 10000 4.6 70 11:36 08.05.2020
3383 Clouds 23 1017 56 10000 6.2 70 11:18 08.05.2020
3384 Clouds 22 1018 60 10000 6.2 70 10:42 08.05.2020
3385 Clouds 22 1018 64 10000 4.6 70 10:20 08.05.2020
3386 Clouds 21 1018 64 10000 4.6 70 09:58 08.05.2020
3387 Clouds 21 1017 64 10000 5.1 60 09:39 08.05.2020
3388 Clouds 20 1017 64 10000 6.2 60 09:18 08.05.2020
3389 Clouds 20 1017 64 10000 5.1 60 08:45 08.05.2020
3390 Clouds 19 1017 64 10000 5.1 60 08:23 08.05.2020
3391 Clouds 19 1017 72 10000 4.1 50 07:44 08.05.2020
3392 Clouds 19 1017 72 10000 4.1 50 07:25 08.05.2020
3393 Clouds 19 1017 72 10000 5.1 60 06:51 08.05.2020
3394 Clouds 19 1017 72 10000 5.1 60 06:24 08.05.2020
3395 Clouds 19 1017 72 10000 4.6 60 05:59 08.05.2020
3396 Clouds 18 1018 72 10000 4.1 60 04:50 08.05.2020
3397 Clouds 18 1018 68 10000 2.6 70 02:54 08.05.2020
3398 Clouds 18 1019 77 10000 5.1 50 02:21 08.05.2020
3399 Clouds 18 1018 77 10000 4.1 50 01:37 08.05.2020
3400 Clouds 18 1019 82 10000 3.6 50 01:18 08.05.2020
3401 Clouds 18 1019 82 10000 4.6 50 00:45 08.05.2020
3402 Clouds 18 1019 82 10000 4.1 90 00:22 08.05.2020
3403 Clouds 18 1019 82 10000 5.1 80 23:44 07.05.2020
3404 Clouds 19 1019 82 10000 5.1 80 23:23 07.05.2020
3405 Clouds 19 1018 77 10000 5.7 80 22:58 07.05.2020
3406 Clouds 19 1018 77 10000 5.7 80 22:39 07.05.2020
3407 Clouds 20 1018 68 10000 5.1 60 22:20 07.05.2020
3408 Clouds 20 1018 68 10000 5.1 60 22:20 07.05.2020
3409 Clouds 20 1018 68 10000 5.1 60 21:56 07.05.2020
3410 Clouds 20 1018 72 10000 5.1 50 21:38 07.05.2020
3411 Clouds 21 1018 73 10000 5.1 60 21:19 07.05.2020
3412 Clouds 21 1018 73 10000 5.1 60 21:19 07.05.2020
3413 Clouds 21 1018 73 10000 5.1 60 20:56 07.05.2020
3414 Clouds 22 1018 64 10000 4.6 60 20:37 07.05.2020
3415 Clouds 22 1017 60 10000 5.1 70 20:18 07.05.2020
3416 Clouds 23 1018 46 10000 6.7 70 19:45 07.05.2020
3417 Clouds 24 1018 50 10000 7.7 80 19:21 07.05.2020
3418 Clouds 25 1018 38 10000 6.7 80 18:47 07.05.2020
3419 Clouds 25 1018 41 10000 8.2 70 18:29 07.05.2020
3420 Clouds 26 1018 34 10000 10.3 70 17:58 07.05.2020
3421 Clouds 26 1018 34 10000 10.3 70 17:38 07.05.2020
3422 Clouds 27 1018 34 10000 9.8 70 17:19 07.05.2020
3423 Clouds 27 1018 34 10000 10.3 70 16:42 07.05.2020
3424 Clouds 27 1018 30 10000 9.3 60 16:19 07.05.2020
3425 Clouds 27 1018 30 10000 9.3 60 15:57 07.05.2020
3426 Clouds 28 1018 34 10000 8.2 80 15:37 07.05.2020
3427 Clouds 27 1019 34 10000 7.7 70 15:18 07.05.2020
3428 Clouds 27 1019 32 10000 8.2 60 14:55 07.05.2020
3429 Clouds 27 1019 32 10000 8.2 60 14:37 07.05.2020
3430 Clouds 27 1019 32 10000 8.2 60 14:18 07.05.2020
3431 Clouds 27 1019 32 10000 7.7 60 13:41 07.05.2020
3432 Clouds 28 1019 32 10000 7.7 60 13:22 07.05.2020
3433 Clouds 27 1019 32 10000 6.7 80 12:42 07.05.2020
3434 Clouds 26 1019 36 10000 6.7 80 12:20 07.05.2020
3435 Clouds 25 1019 38 10000 7.2 80 11:40 07.05.2020
3436 Clouds 25 1019 38 10000 7.2 80 11:21 07.05.2020
3437 Clouds 25 1018 41 10000 5.1 60 10:58 07.05.2020
3438 Clouds 24 1018 41 10000 5.1 60 10:40 07.05.2020
3439 Clouds 24 1018 41 10000 5.1 60 10:20 07.05.2020
3440 Clouds 21 1019 60 10000 2.1 360 09:40 07.05.2020
3441 Clouds 20 1019 68 10000 1.5 300 09:20 07.05.2020
3442 Clouds 19 1019 72 10000 2.1 330 08:56 07.05.2020
3443 Clouds 19 1019 72 10000 2.1 330 08:37 07.05.2020
3444 Clouds 18 1019 77 10000 3.6 60 08:18 07.05.2020
3445 Clouds 18 1019 68 10000 5.1 50 07:41 07.05.2020
3446 Clouds 17 1019 68 10000 5.1 50 07:22 07.05.2020
3447 Clouds 16 1018 59 10000 2.1 10 06:45 07.05.2020
3448 Clouds 15 1018 59 10000 2.1 10 06:23 07.05.2020
3449 Clouds 16 1019 51 10000 2.6 360 05:28 07.05.2020
3450 Clear 17 1019 55 10000 2.6 350 03:55 07.05.2020
3451 Clear 17 1019 55 10000 2.6 350 03:24 07.05.2020
3452 Clear 17 1019 63 10000 2.1 360 02:42 07.05.2020
3453 Clouds 18 1019 68 10000 2.1 360 01:42 07.05.2020
3454 Clouds 18 1019 72 10000 2.1 350 01:23 07.05.2020
3455 Clouds 18 1019 77 10000 2.6 360 00:45 07.05.2020
3456 Clouds 19 1019 77 10000 2.6 360 00:27 07.05.2020
3457 Clouds 19 1019 88 10000 0.5 0 23:47 06.05.2020
3458 Clouds 20 1019 82 10000 0.5 240 23:25 06.05.2020
3459 Clouds 20 1018 82 10000 0.5 0 22:58 06.05.2020
3460 Clouds 20 1018 82 10000 0.5 0 22:58 06.05.2020
3461 Clouds 20 1018 82 10000 0.5 0 22:39 06.05.2020
3462 Clouds 21 1018 82 10000 1 170 22:19 06.05.2020
3463 Clouds 21 1018 82 10000 1 170 22:19 06.05.2020
3464 Clouds 20 1018 82 10000 1 170 21:56 06.05.2020
3465 Clouds 21 1017 82 10000 1.5 180 21:38 06.05.2020
3466 Clouds 21 1017 77 10000 2.1 190 21:19 06.05.2020
3467 Clouds 21 1017 77 10000 2.1 180 20:42 06.05.2020
3468 Clouds 22 1017 77 10000 2.1 180 20:24 06.05.2020
3469 Clouds 22 1017 77 10000 2.6 190 19:58 06.05.2020
3470 Clouds 22 1017 73 10000 3.1 190 19:39 06.05.2020
3471 Clouds 23 1017 69 10000 3.1 200 19:20 06.05.2020
3472 Clouds 23 1017 69 10000 3.1 200 19:20 06.05.2020
3473 Clouds 22 1017 69 10000 3.1 200 18:59 06.05.2020
3474 Clouds 23 1017 69 10000 2.6 190 18:41 06.05.2020
3475 Clouds 22 1017 73 10000 3.1 200 18:21 06.05.2020
3476 Clouds 22 1017 73 10000 3.1 200 17:59 06.05.2020
3477 Clouds 22 1017 73 10000 4.1 210 17:40 06.05.2020
3478 Clouds 24 1017 69 10000 4.6 210 17:22 06.05.2020
3479 Clouds 24 1017 69 10000 4.6 210 16:59 06.05.2020
3480 Clouds 23 1017 69 10000 4.6 210 16:41 06.05.2020
3481 Clouds 24 1017 69 10000 4.6 210 16:21 06.05.2020
3482 Clouds 24 1017 64 10000 5.7 210 15:59 06.05.2020
3483 Clouds 24 1017 69 10000 6.2 200 15:41 06.05.2020
3484 Clouds 24 1017 64 10000 5.1 210 15:22 06.05.2020
3485 Clouds 24 1017 64 10000 6.2 210 14:56 06.05.2020
3486 Clouds 24 1017 64 10000 6.2 210 14:37 06.05.2020
3487 Clouds 25 1017 65 10000 5.7 210 14:18 06.05.2020
3488 Clouds 25 1017 65 10000 5.7 210 14:18 06.05.2020
3489 Clouds 25 1017 65 10000 5.7 210 13:56 06.05.2020
3490 Clouds 28 1017 39 10000 4.6 100 13:37 06.05.2020
3491 Clouds 28 1017 39 10000 5.1 80 13:18 06.05.2020
3492 Clouds 27 1017 42 10000 5.1 80 12:42 06.05.2020
3493 Clouds 26 1016 41 10000 6.2 60 12:24 06.05.2020
3494 Clouds 26 1017 47 10000 4.6 70 11:41 06.05.2020
3495 Clouds 24 1016 53 10000 4.6 70 11:22 06.05.2020
3496 Clouds 24 1016 53 10000 4.6 70 10:58 06.05.2020
3497 Clouds 23 1016 68 10000 2.6 50 10:39 06.05.2020
3498 Clouds 20 1016 77 10000 2.1 20 10:19 06.05.2020
3499 Clouds 21 1016 77 10000 2.1 20 09:56 06.05.2020
3500 Clouds 20 1016 77 10000 1 90 09:36 06.05.2020
3501 Clouds 19 1016 82 10000 1.5 110 09:18 06.05.2020
3502 Clouds 18 1016 88 10000 2.1 50 08:41 06.05.2020
3503 Clouds 17 1016 100 10000 1 350 08:20 06.05.2020
3504 Clouds 17 1016 100 10000 1 350 07:56 06.05.2020
3505 Clouds 17 1016 100 10000 1 20 07:37 06.05.2020
3506 Mist 17 1015 93 1700 1 10 07:18 06.05.2020
3507 Mist 17 1015 93 3400 0.5 0 06:45 06.05.2020
3508 Fog 18 1015 93 1000 0.5 0 06:20 06.05.2020
3509 Clear 18 1015 93 10000 1 0 05:38 06.05.2020
3510 Clear 18 1015 93 10000 1 0 04:52 06.05.2020
3511 Clear 19 1015 93 10000 0.5 0 03:52 06.05.2020
3512 Clear 19 1015 93 10000 1.5 90 03:26 06.05.2020
3513 Clear 18 1015 93 10000 1.5 70 02:54 06.05.2020
3514 Clouds 19 1015 88 10000 1.5 150 02:26 06.05.2020
3515 Clouds 19 1015 88 10000 2.1 170 01:43 06.05.2020
3516 Clouds 19 1015 82 10000 1 200 01:21 06.05.2020
3517 Clouds 19 1015 82 10000 1.5 330 00:44 06.05.2020
3518 Clouds 20 1015 77 10000 1 0 00:19 06.05.2020
3519 Clouds 20 1015 77 10000 1 0 00:19 06.05.2020
3520 Clouds 20 1015 77 10000 1.5 40 23:41 05.05.2020
3521 Clouds 21 1015 77 10000 1.5 20 23:20 05.05.2020
3522 Clouds 21 1015 77 10000 1.5 20 22:55 05.05.2020
3523 Clouds 22 1014 77 10000 2.1 80 22:37 05.05.2020
3524 Clouds 22 1014 77 10000 1 0 22:18 05.05.2020
3525 Clouds 22 1014 73 10000 0.5 80 21:41 05.05.2020
3526 Clouds 22 1014 73 10000 0.5 80 21:41 05.05.2020
3527 Clouds 22 1014 78 10000 0.5 0 21:22 05.05.2020
3528 Clouds 22 1014 78 10000 0.5 0 20:59 05.05.2020
3529 Clouds 22 1014 78 10000 0.5 0 20:40 05.05.2020
3530 Clouds 22 1014 78 10000 1.5 190 20:20 05.05.2020
3531 Clouds 23 1014 78 10000 1.5 190 19:59 05.05.2020
3532 Clouds 22 1014 78 10000 2.6 190 19:40 05.05.2020
3533 Clouds 22 1014 78 10000 2.6 190 19:40 05.05.2020
3534 Clouds 22 1014 73 10000 2.6 220 19:21 05.05.2020
3535 Clouds 23 1014 73 10000 2.6 220 18:57 05.05.2020
3536 Clouds 23 1014 73 10000 3.1 210 18:57 05.05.2020
3537 Clouds 22 1014 73 10000 3.1 210 18:38 05.05.2020
3538 Clouds 24 1014 69 10000 4.6 170 18:19 05.05.2020
3539 Clouds 24 1014 69 10000 4.6 170 17:56 05.05.2020
3540 Clouds 25 1014 69 10000 4.6 190 17:38 05.05.2020
3541 Clouds 25 1014 69 10000 6.2 200 17:20 05.05.2020
3542 Clouds 26 1014 61 10000 5.7 210 16:39 05.05.2020
3543 Clouds 27 1014 57 10000 5.1 200 16:20 05.05.2020
3544 Clouds 27 1014 57 10000 5.1 200 15:58 05.05.2020
3545 Clouds 28 1014 48 10000 2.6 190 15:39 05.05.2020
3546 Clouds 27 1014 51 10000 2.6 200 15:21 05.05.2020
3547 Clouds 28 1014 51 10000 2.6 200 15:21 05.05.2020
3548 Clouds 26 1014 54 10000 2.6 200 14:55 05.05.2020
3549 Clouds 26 1014 54 10000 2.6 200 14:37 05.05.2020
3550 Clouds 26 1015 53 10000 3.6 200 14:19 05.05.2020
3551 Clouds 26 1015 53 10000 3.6 200 13:56 05.05.2020
3552 Clouds 25 1015 53 10000 4.6 210 13:38 05.05.2020
3553 Clouds 26 1015 50 10000 5.1 220 13:18 05.05.2020
3554 Clouds 26 1015 50 10000 5.1 220 12:56 05.05.2020
3555 Clouds 26 1015 44 10000 2.6 230 12:37 05.05.2020
3556 Clouds 26 1015 44 10000 1.5 0 12:19 05.05.2020
3557 Clouds 25 1015 44 10000 1 0 11:41 05.05.2020
3558 Clouds 25 1015 47 10000 1 0 11:20 05.05.2020
3559 Clouds 24 1015 47 10000 1 0 10:56 05.05.2020
3560 Clouds 23 1015 46 10000 1 0 10:38 05.05.2020
3561 Clouds 23 1015 46 10000 1.5 20 10:19 05.05.2020
3562 Clouds 22 1015 49 10000 1.5 10 09:55 05.05.2020
3563 Clouds 21 1015 49 10000 1.5 10 09:36 05.05.2020
3564 Clouds 20 1015 55 10000 1.5 340 09:18 05.05.2020
3565 Clouds 18 1014 55 10000 1.5 350 08:40 05.05.2020
3566 Clouds 17 1014 55 10000 2.6 360 08:19 05.05.2020
3567 Clouds 16 1014 59 10000 2.6 340 07:45 05.05.2020
3568 Clouds 16 1014 59 10000 2.6 20 07:23 05.05.2020
3569 Clouds 17 1014 59 10000 2.6 20 06:59 05.05.2020
3570 Clouds 16 1014 63 10000 2.6 330 06:40 05.05.2020
3571 Clouds 16 1014 63 10000 2.1 350 06:20 05.05.2020
3572 Clouds 17 1015 67 10000 1.5 350 05:28 05.05.2020
3573 Clouds 17 1016 67 10000 2.1 350 02:57 05.05.2020
3574 Clear 18 1016 68 10000 1 350 01:23 05.05.2020
3575 Clear 19 1017 63 10000 1.5 340 00:49 05.05.2020
3576 Clear 19 1016 60 10000 1.5 60 00:18 05.05.2020
3577 Clear 20 1016 56 10000 2.1 60 23:42 04.05.2020
3578 Clear 20 1016 52 10000 1.5 70 23:21 04.05.2020
3579 Clear 20 1016 52 10000 1.5 70 22:56 04.05.2020
3580 Clear 20 1016 52 10000 1 50 22:37 04.05.2020
3581 Clear 20 1016 49 10000 1.5 70 22:19 04.05.2020
3582 Clear 22 1015 46 10000 2.6 160 21:52 04.05.2020
3583 Clear 22 1015 46 10000 2.6 160 21:52 04.05.2020
3584 Clear 22 1015 46 10000 2.6 160 21:52 04.05.2020
3585 Clear 22 1015 46 10000 2.6 160 21:52 04.05.2020
3586 Clear 22 1015 46 10000 2.6 160 21:52 04.05.2020
3587 Clear 23 1015 46 10000 2.6 160 21:27 04.05.2020
3588 Clear 23 1015 46 10000 2.6 160 21:27 04.05.2020
3589 Clear 23 1015 46 10000 2.6 160 21:27 04.05.2020
3590 Clear 23 1015 46 10000 2.6 160 21:27 04.05.2020
3591 Clear 25 1015 41 10000 3.6 140 20:43 04.05.2020
3592 Clouds 26 1015 44 10000 2.6 180 20:22 04.05.2020
3593 Clouds 26 1015 44 10000 2.6 180 20:22 04.05.2020
3594 Clouds 25 1015 44 10000 2.6 180 19:59 04.05.2020
3595 Clouds 26 1016 41 10000 3.6 210 19:40 04.05.2020
3596 Clouds 26 1016 41 10000 4.6 220 19:20 04.05.2020
3597 Clouds 26 1016 44 10000 5.7 220 18:55 04.05.2020
3598 Clouds 26 1016 44 10000 5.7 220 18:36 04.05.2020
3599 Clouds 27 1016 41 10000 5.7 220 18:18 04.05.2020
3600 Clouds 28 1016 39 10000 5.7 220 17:55 04.05.2020
3601 Clouds 27 1016 41 10000 5.7 220 17:55 04.05.2020
3602 Clouds 28 1016 39 10000 5.7 220 17:36 04.05.2020
3603 Clouds 28 1017 36 10000 5.7 220 17:18 04.05.2020
3604 Clouds 28 1017 39 10000 5.7 220 16:42 04.05.2020
3605 Clouds 28 1017 39 10000 5.7 220 16:21 04.05.2020
3606 Clouds 28 1017 39 10000 5.7 230 15:46 04.05.2020
3607 Clouds 28 1017 39 10000 5.7 230 15:25 04.05.2020
3608 Clouds 28 1017 42 10000 5.1 220 14:56 04.05.2020
3609 Clouds 28 1017 42 10000 4.1 230 14:38 04.05.2020
3610 Clouds 28 1017 42 10000 4.1 230 14:38 04.05.2020
3611 Clouds 28 1017 42 10000 4.1 230 14:38 04.05.2020
3612 Clouds 28 1017 42 10000 4.1 230 14:38 04.05.2020
3613 Clouds 28 1017 42 10000 4.1 230 14:38 04.05.2020
3614 Clouds 28 1017 44 10000 2.6 210 13:45 04.05.2020
3615 Clouds 28 1017 44 10000 2.6 210 13:45 04.05.2020
3616 Clouds 28 1017 44 10000 2.6 210 13:45 04.05.2020
3617 Clouds 28 1017 44 10000 2.6 210 13:45 04.05.2020
3618 Clouds 28 1017 44 10000 2.6 210 13:45 04.05.2020
3619 Clouds 27 1018 44 10000 2.1 0 12:48 04.05.2020
3620 Clouds 27 1018 44 10000 2.1 0 12:46 04.05.2020
3621 Clouds 27 1018 44 10000 2.1 0 12:46 04.05.2020
3622 Clouds 26 1018 47 10000 1.5 110 12:19 04.05.2020
3623 Clouds 26 1018 47 10000 1.5 110 12:19 04.05.2020
3624 Clouds 20 1018 68 10000 1.5 360 09:33 04.05.2020
3625 Clouds 18 1018 77 10000 1 0 08:56 04.05.2020
3626 Clouds 18 1018 77 10000 1 0 08:55 04.05.2020
3627 Clouds 16 1018 77 10000 2.1 340 08:55 04.05.2020
3628 Clouds 16 1018 77 10000 2.1 340 08:55 04.05.2020
3629 Clouds 16 1018 77 10000 2.1 340 08:55 04.05.2020
3630 Clouds 15 1018 87 10000 1.5 350 07:45 04.05.2020
3631 Clouds 15 1018 87 10000 1.5 350 07:45 04.05.2020
3632 Clouds 15 1018 87 10000 1.5 350 07:45 04.05.2020
3633 Clouds 15 1017 87 10000 2.6 350 07:16 04.05.2020
3634 Clouds 14 1017 87 10000 2.6 350 07:15 04.05.2020
3635 Clouds 15 1017 87 10000 2.6 350 07:15 04.05.2020
3636 Clouds 15 1017 87 10000 1.5 340 04:55 04.05.2020
3637 Clouds 16 1018 82 10000 2.1 350 03:20 04.05.2020
3638 Clouds 17 1018 77 10000 1.5 330 02:30 04.05.2020
3639 Clouds 18 1019 72 10000 1.5 340 00:38 04.05.2020
3640 Clouds 19 1019 68 10000 0.5 320 23:46 03.05.2020
3641 Clouds 19 1019 68 10000 0.5 320 23:25 03.05.2020
3642 Clouds 19 1019 68 10000 1 290 22:57 03.05.2020
3643 Clouds 20 1019 68 10000 1 290 22:39 03.05.2020
3644 Clouds 20 1018 68 10000 1 260 22:21 03.05.2020
3645 Clouds 21 1018 64 10000 1.5 270 21:41 03.05.2020
3646 Clouds 21 1018 64 10000 1.5 270 21:41 03.05.2020
3647 Clouds 21 1018 64 10000 2.1 250 21:21 03.05.2020
3648 Clouds 22 1018 64 10000 2.6 230 20:47 03.05.2020
3649 Clouds 22 1018 64 10000 2.6 230 20:47 03.05.2020
3650 Clouds 22 1018 64 10000 3.6 230 20:23 03.05.2020
3651 Clouds 22 1018 64 10000 3.6 230 19:56 03.05.2020
3652 Clouds 22 1018 64 10000 3.6 230 19:56 03.05.2020
3653 Clouds 23 1018 60 10000 4.6 230 19:37 03.05.2020
3654 Clouds 23 1018 60 10000 4.6 230 19:37 03.05.2020
3655 Clouds 24 1018 60 10000 4.6 220 19:18 03.05.2020
3656 Clouds 23 1018 64 10000 5.7 230 18:39 03.05.2020
3657 Clouds 24 1018 64 10000 5.1 230 18:20 03.05.2020
3658 Clouds 24 1018 64 10000 5.1 230 17:56 03.05.2020
3659 Clouds 25 1018 60 10000 5.1 220 17:37 03.05.2020
3660 Clouds 25 1018 60 10000 5.1 210 17:19 03.05.2020
3661 Clouds 25 1018 60 10000 5.1 210 17:19 03.05.2020
3662 Clouds 25 1018 60 10000 5.1 210 17:19 03.05.2020
3663 Clouds 24 1019 53 10000 5.1 220 16:40 03.05.2020
3664 Clouds 24 1019 53 10000 5.1 220 16:40 03.05.2020
3665 Clouds 24 1019 57 10000 5.7 220 16:19 03.05.2020
3666 Clouds 25 1019 60 10000 6.7 220 15:57 03.05.2020
3667 Clouds 25 1019 60 10000 6.7 220 15:38 03.05.2020
3668 Clouds 25 1019 60 10000 6.7 220 15:38 03.05.2020
3669 Clouds 25 1019 60 10000 6.2 210 15:19 03.05.2020
3670 Clouds 25 1019 60 10000 6.2 210 14:56 03.05.2020
3671 Clouds 25 1019 61 10000 6.2 210 14:38 03.05.2020
3672 Clouds 25 1019 57 10000 5.7 210 14:19 03.05.2020
3673 Clouds 25 1019 57 10000 5.7 210 14:19 03.05.2020
3674 Clouds 26 1019 57 10000 4.6 210 13:37 03.05.2020
3675 Clouds 26 1019 57 10000 4.6 210 13:37 03.05.2020
3676 Clouds 26 1020 54 10000 3.6 150 12:55 03.05.2020
3677 Clouds 27 1020 44 10000 3.1 110 12:37 03.05.2020
3678 Clouds 26 1020 47 10000 2.6 120 11:58 03.05.2020
3679 Clouds 25 1020 50 10000 3.1 120 11:40 03.05.2020
3680 Clouds 25 1020 50 10000 3.1 120 11:40 03.05.2020
3681 Clouds 25 1020 50 10000 3.1 120 11:40 03.05.2020
3682 Clouds 25 1020 50 10000 3.1 100 11:21 03.05.2020
3683 Clouds 24 1020 50 10000 3.1 100 10:55 03.05.2020
3684 Clouds 23 1020 56 10000 3.1 70 10:26 03.05.2020
3685 Clouds 21 1019 68 10000 2.6 80 09:42 03.05.2020
3686 Clouds 21 1019 68 10000 2.6 80 09:42 03.05.2020
3687 Clouds 20 1019 77 10000 2.6 30 09:19 03.05.2020
3688 Clouds 20 1019 77 10000 2.6 30 09:18 03.05.2020
3689 Clouds 17 1019 88 10000 1 0 08:36 03.05.2020
3690 Clouds 17 1019 87 10000 1 0 07:59 03.05.2020
3691 Clouds 16 1018 87 10000 1 320 07:37 03.05.2020
3692 Clouds 16 1018 87 10000 1 320 07:37 03.05.2020
3693 Clouds 16 1018 87 10000 1 0 05:59 03.05.2020
3694 Clouds 16 1018 87 10000 2.1 40 05:41 03.05.2020
3695 Clouds 16 1018 82 10000 1 0 04:28 03.05.2020
3696 Clouds 17 1018 82 10000 0.5 30 03:55 03.05.2020
3697 Clouds 17 1019 82 10000 1 340 02:38 03.05.2020
3698 Clouds 17 1019 82 10000 1 350 02:19 03.05.2020
3699 Clouds 17 1019 82 10000 1 350 02:19 03.05.2020
3700 Clouds 18 1019 77 10000 1.5 20 01:41 03.05.2020
3701 Clouds 18 1019 82 10000 1 60 01:22 03.05.2020
3702 Clouds 18 1019 82 10000 0.5 0 00:40 03.05.2020
3703 Clouds 18 1019 82 10000 0.5 0 00:40 03.05.2020
3704 Clouds 19 1019 82 10000 1 70 00:21 03.05.2020
3705 Clouds 19 1019 77 10000 1 0 23:49 02.05.2020
3706 Clouds 19 1019 77 10000 1 0 23:30 02.05.2020
3707 Clouds 19 1019 82 10000 2.1 80 22:59 02.05.2020
3708 Clouds 20 1019 77 10000 2.1 130 22:41 02.05.2020
3709 Clouds 20 1019 77 10000 2.1 130 22:22 02.05.2020
3710 Clouds 20 1019 72 10000 2.1 170 21:54 02.05.2020
3711 Clouds 21 1019 72 10000 2.1 170 21:36 02.05.2020
3712 Clouds 21 1018 68 10000 3.6 170 21:18 02.05.2020
3713 Clouds 21 1018 68 10000 3.6 170 20:54 02.05.2020
3714 Clouds 21 1018 68 10000 4.1 200 20:36 02.05.2020
3715 Clouds 21 1018 68 10000 4.1 200 20:36 02.05.2020
3716 Clouds 22 1018 56 10000 5.1 210 20:18 02.05.2020
3717 Clouds 22 1018 56 10000 5.1 210 20:18 02.05.2020
3718 Clouds 24 1018 53 10000 5.1 200 19:39 02.05.2020
3719 Clouds 25 1018 47 10000 6.7 220 19:20 02.05.2020
3720 Clouds 25 1018 47 10000 6.7 220 18:59 02.05.2020
3721 Clouds 26 1018 44 10000 7.7 210 18:39 02.05.2020
3722 Clouds 27 1018 39 10000 6.7 220 18:21 02.05.2020
3723 Clouds 27 1018 39 10000 6.7 220 17:57 02.05.2020
3724 Clouds 26 1018 42 10000 7.7 220 17:38 02.05.2020
3725 Clouds 27 1018 39 10000 6.7 230 17:19 02.05.2020
3726 Clouds 27 1018 47 10000 5.1 190 16:56 02.05.2020
3727 Clouds 27 1018 47 10000 5.1 190 16:38 02.05.2020
3728 Clouds 27 1018 47 10000 5.7 200 16:20 02.05.2020
3729 Clouds 27 1019 30 10000 4.1 320 15:41 02.05.2020
3730 Clouds 27 1019 34 10000 4.6 320 15:20 02.05.2020
3731 Clouds 27 1019 36 10000 5.7 290 14:45 02.05.2020
3732 Clouds 27 1019 36 10000 5.7 290 14:27 02.05.2020
3733 Clouds 27 1019 36 10000 6.2 300 13:59 02.05.2020
3734 Clouds 27 1019 39 10000 6.2 320 13:39 02.05.2020
3735 Clouds 26 1019 41 10000 5.1 320 13:19 02.05.2020
3736 Clouds 26 1019 41 10000 5.1 320 12:42 02.05.2020
3737 Clouds 27 1019 41 10000 5.1 320 12:23 02.05.2020
3738 Clouds 27 1019 41 10000 4.6 320 11:58 02.05.2020
3739 Clouds 26 1019 47 10000 4.6 310 11:39 02.05.2020
3740 Clouds 26 1019 47 10000 5.7 330 11:21 02.05.2020
3741 Clouds 24 1019 50 10000 6.2 330 10:56 02.05.2020
3742 Clouds 24 1019 50 10000 6.2 330 10:38 02.05.2020
3743 Clouds 24 1019 50 10000 4.1 330 10:20 02.05.2020
3744 Clouds 24 1019 50 10000 4.1 330 10:20 02.05.2020
3745 Clouds 22 1018 82 10000 1.5 160 09:54 02.05.2020
3746 Clouds 21 1018 82 10000 1.5 160 09:36 02.05.2020
3747 Clouds 21 1018 82 10000 2.6 210 09:18 02.05.2020
3748 Clouds 19 1018 82 10000 2.1 190 08:44 02.05.2020
3749 Clouds 19 1018 82 10000 2.1 190 08:25 02.05.2020
3750 Clouds 17 1017 87 10000 1.5 40 07:47 02.05.2020
3751 Clouds 17 1017 87 10000 1.5 40 07:27 02.05.2020
3752 Clouds 16 1017 93 10000 1 0 06:50 02.05.2020
3753 Clear 16 1017 93 10000 0.5 0 05:28 02.05.2020
3754 Clear 16 1017 93 10000 1 0 04:37 02.05.2020
3755 Clear 16 1018 93 10000 0.5 0 04:18 02.05.2020
3756 Clear 17 1018 88 10000 1 70 02:43 02.05.2020
3757 Clouds 17 1018 88 10000 1 0 02:22 02.05.2020
3758 Clouds 17 1018 88 10000 2.1 120 01:33 02.05.2020
3759 Clouds 18 1018 88 10000 1.5 200 00:46 02.05.2020
3760 Clouds 18 1018 88 10000 1.5 200 00:24 02.05.2020
3761 Clouds 18 1018 82 10000 1.5 160 23:57 01.05.2020
3762 Clouds 19 1018 82 10000 3.1 210 23:38 01.05.2020
3763 Clouds 19 1018 82 10000 4.1 200 23:19 01.05.2020
3764 Clouds 19 1018 77 10000 4.1 200 22:54 01.05.2020
3765 Clouds 19 1018 77 10000 4.1 200 22:36 01.05.2020
3766 Clouds 19 1017 77 10000 6.2 210 22:18 01.05.2020
3767 Clouds 20 1017 77 10000 6.2 210 21:54 01.05.2020
3768 Clouds 20 1017 77 10000 6.2 200 21:36 01.05.2020
3769 Clouds 20 1016 77 10000 5.7 210 21:18 01.05.2020
3770 Clouds 20 1016 77 10000 5.7 210 20:54 01.05.2020
3771 Clouds 20 1016 72 10000 5.1 190 20:36 01.05.2020
3772 Clouds 20 1016 64 10000 6.7 190 20:18 01.05.2020
3773 Clouds 21 1016 60 10000 6.7 210 19:41 01.05.2020
3774 Clouds 21 1016 68 10000 6.7 220 19:22 01.05.2020
3775 Clouds 21 1016 68 10000 6.7 220 18:57 01.05.2020
3776 Clouds 21 1016 68 10000 8.2 200 18:38 01.05.2020
3777 Clouds 21 1016 68 10000 8.2 200 18:19 01.05.2020
3778 Clouds 22 1016 60 10000 8.2 220 17:54 01.05.2020
3779 Clouds 23 1016 60 10000 8.2 220 17:36 01.05.2020
3780 Clouds 23 1016 50 10000 6.2 220 17:18 01.05.2020
3781 Clouds 24 1016 44 10000 6.2 240 16:40 01.05.2020
3782 Clouds 24 1016 50 10000 6.2 220 16:21 01.05.2020
3783 Clouds 25 1016 50 10000 6.2 220 15:58 01.05.2020
3784 Clouds 24 1017 50 10000 7.7 200 15:40 01.05.2020
3785 Clouds 24 1016 41 10000 4.6 240 15:20 01.05.2020
3786 Clouds 24 1016 41 10000 4.6 240 14:54 01.05.2020
3787 Clouds 24 1017 47 10000 4.6 240 14:36 01.05.2020
3788 Clouds 24 1017 44 10000 6.7 220 14:18 01.05.2020
3789 Clouds 24 1017 50 10000 5.7 210 13:40 01.05.2020
3790 Clouds 24 1017 50 10000 5.7 210 13:40 01.05.2020
3791 Clouds 24 1017 39 10000 4.6 230 13:22 01.05.2020
3792 Clouds 24 1017 39 10000 4.6 230 12:56 01.05.2020
3793 Clouds 24 1017 36 10000 6.2 240 12:37 01.05.2020
3794 Clouds 24 1017 38 10000 5.1 240 12:19 01.05.2020
3795 Clouds 23 1017 41 10000 5.1 240 11:47 01.05.2020
3796 Clouds 23 1017 56 10000 4.1 210 11:26 01.05.2020
3797 Clouds 22 1017 56 10000 4.1 210 10:59 01.05.2020
3798 Clouds 21 1017 60 10000 2.6 190 10:40 01.05.2020
3799 Clouds 20 1017 64 10000 1 290 10:20 01.05.2020
3800 Clouds 19 1017 77 10000 1 170 09:45 01.05.2020
3801 Clouds 16 1017 82 10000 1.5 360 09:21 01.05.2020
3802 Clouds 15 1017 87 10000 2.1 20 08:59 01.05.2020
3803 Clear 14 1017 87 10000 2.1 20 08:41 01.05.2020
3804 Clear 14 1017 87 10000 0.5 0 08:22 01.05.2020
3805 Clear 14 1016 87 10000 1 0 07:46 01.05.2020
3806 Clear 13 1016 87 10000 1 0 07:23 01.05.2020
3807 Clear 13 1016 93 10000 1.5 10 06:56 01.05.2020
3808 Clear 14 1017 87 10000 2.1 360 05:39 01.05.2020
3809 Clouds 14 1017 87 10000 2.1 10 05:19 01.05.2020
3810 Clear 15 1017 93 10000 2.1 350 03:34 01.05.2020
3811 Clear 16 1017 87 10000 0.76 243 02:48 01.05.2020
3812 Clear 16 1017 87 10000 1.21 219 02:30 01.05.2020
3813 Clear 17 1018 82 10000 1.5 160 01:37 01.05.2020
3814 Clear 17 1018 82 10000 2.6 160 01:18 01.05.2020
3815 Clear 18 1017 82 10000 3.1 180 00:38 01.05.2020
3816 Clear 18 1018 82 10000 3.6 180 00:20 01.05.2020
3817 Clear 18 1017 77 10000 3.6 190 23:57 30.04.2020
3818 Clear 18 1017 77 10000 3.6 190 23:38 30.04.2020
3819 Clear 18 1017 77 10000 5.7 190 23:19 30.04.2020
3820 Clear 18 1017 77 10000 3.6 180 22:42 30.04.2020
3821 Clear 19 1017 77 10000 4.1 180 22:21 30.04.2020
3822 Clear 19 1017 77 10000 4.1 180 21:58 30.04.2020
3823 Clear 19 1016 77 10000 4.6 170 21:40 30.04.2020
3824 Clear 19 1016 77 10000 4.6 170 21:21 30.04.2020
3825 Clear 20 1016 60 10000 4.1 200 20:56 30.04.2020
3826 Clear 20 1016 60 10000 4.1 200 20:38 30.04.2020
3827 Clouds 21 1015 53 10000 4.6 230 20:18 30.04.2020
3828 Clouds 22 1015 43 10000 6.7 260 19:45 30.04.2020
3829 Clouds 22 1015 46 10000 6.2 260 19:26 30.04.2020
3830 Clouds 22 1015 46 10000 6.2 260 18:57 30.04.2020
3831 Clouds 24 1015 41 10000 6.7 270 18:39 30.04.2020
3832 Clear 24 1015 38 10000 7.2 290 18:21 30.04.2020
3833 Clear 24 1015 38 10000 7.2 290 17:57 30.04.2020
3834 Clear 24 1015 38 10000 6.7 270 17:39 30.04.2020
3835 Clear 24 1015 38 10000 6.7 270 17:39 30.04.2020
3836 Clear 23 1015 43 10000 6.7 270 17:20 30.04.2020
3837 Clear 23 1015 43 10000 6.7 270 16:56 30.04.2020
3838 Clear 23 1015 40 10000 8.2 290 16:38 30.04.2020
3839 Clear 24 1015 38 10000 7.2 290 16:18 30.04.2020
3840 Clear 23 1015 41 10000 6.7 280 15:45 30.04.2020
3841 Clear 23 1015 41 10000 6.7 280 15:24 30.04.2020
3842 Clear 23 1015 46 10000 8.7 250 14:56 30.04.2020
3843 Clear 22 1015 46 10000 8.7 250 14:38 30.04.2020
3844 Clouds 22 1015 49 10000 8.7 260 14:18 30.04.2020
3845 Clouds 22 1015 49 10000 8.7 260 13:54 30.04.2020
3846 Clouds 22 1015 49 10000 8.7 260 13:36 30.04.2020
3847 Clouds 22 1015 49 10000 8.7 260 13:36 30.04.2020
3848 Clouds 22 1016 49 10000 9.3 270 13:18 30.04.2020
3849 Clouds 21 1016 49 10000 9.8 260 12:41 30.04.2020
3850 Clouds 22 1016 49 10000 8.2 260 12:20 30.04.2020
3851 Clouds 22 1016 49 10000 8.2 260 11:58 30.04.2020
3852 Clouds 21 1016 52 10000 5.7 260 11:36 30.04.2020
3853 Clouds 21 1016 49 10000 7.2 270 11:18 30.04.2020
3854 Clouds 21 1015 52 10000 6.7 270 10:41 30.04.2020
3855 Clouds 21 1016 49 10000 6.2 260 10:22 30.04.2020
3856 Clouds 21 1016 49 10000 6.2 260 09:58 30.04.2020
3857 Clouds 20 1016 60 10000 2.1 0 09:39 30.04.2020
3858 Clouds 20 1016 60 10000 2.1 0 09:21 30.04.2020
3859 Clouds 19 1015 63 10000 2.1 170 08:48 30.04.2020
3860 Clouds 18 1015 63 10000 2.1 170 08:27 30.04.2020
3861 Clouds 17 1015 67 10000 1.5 200 07:58 30.04.2020
3862 Clouds 17 1015 72 10000 1.5 260 07:39 30.04.2020
3863 Clouds 16 1015 87 10000 1 0 07:20 30.04.2020
3864 Clouds 15 1015 93 10000 0.5 0 06:33 30.04.2020
3865 Clouds 16 1015 87 10000 1 0 05:47 30.04.2020
3866 Clouds 16 1015 87 10000 2.6 190 04:48 30.04.2020
3867 Clouds 16 1015 87 10000 2.6 190 04:25 30.04.2020
3868 Clouds 17 1017 72 10000 1.5 150 02:56 30.04.2020
3869 Clouds 17 1017 77 10000 1.5 140 02:28 30.04.2020
3870 Clouds 17 1017 77 10000 2.1 210 01:38 30.04.2020
3871 Clouds 17 1018 72 10000 2.6 200 00:58 30.04.2020
3872 Clouds 17 1018 82 10000 1.5 210 00:36 30.04.2020
3873 Clear 17 1018 77 10000 0.5 0 00:18 30.04.2020
3874 Clear 17 1018 77 10000 1 0 23:42 29.04.2020
3875 Clear 17 1018 72 10000 3.6 230 23:23 29.04.2020
3876 Clear 17 1018 72 10000 3.6 230 22:58 29.04.2020
3877 Clear 17 1018 72 10000 3.6 230 22:39 29.04.2020
3878 Clear 17 1018 67 10000 3.6 230 22:20 29.04.2020
3879 Clear 18 1017 63 10000 4.1 220 21:39 29.04.2020
3880 Clear 18 1017 63 10000 4.1 220 21:21 29.04.2020
3881 Clear 18 1017 72 10000 4.6 220 21:21 29.04.2020
3882 Clear 19 1017 59 10000 6.2 210 20:59 29.04.2020
3883 Clear 19 1017 59 10000 6.2 210 20:59 29.04.2020
3884 Clear 19 1017 59 10000 6.2 210 20:40 29.04.2020
3885 Clear 20 1017 45 10000 6.2 210 20:19 29.04.2020
3886 Clear 20 1017 37 10000 7.2 220 19:57 29.04.2020
3887 Clear 21 1017 37 10000 7.2 220 19:39 29.04.2020
3888 Clear 21 1016 37 10000 7.7 220 19:18 29.04.2020
3889 Clear 23 1016 28 10000 6.2 240 18:42 29.04.2020
3890 Clear 23 1016 31 10000 4.1 290 18:22 29.04.2020
3891 Clear 23 1016 31 10000 4.1 290 17:56 29.04.2020
3892 Clear 23 1016 31 10000 4.6 300 17:38 29.04.2020
3893 Clear 23 1016 35 10000 5.1 310 17:20 29.04.2020
3894 Clear 24 1016 33 10000 5.1 300 16:38 29.04.2020
3895 Clear 24 1017 33 10000 5.1 310 16:19 29.04.2020
3896 Clear 24 1017 33 10000 5.1 310 15:57 29.04.2020
3897 Clear 24 1017 31 10000 4.1 300 15:39 29.04.2020
3898 Clear 23 1017 37 10000 3.1 200 15:20 29.04.2020
3899 Clear 23 1017 37 10000 3.1 200 14:56 29.04.2020
3900 Clear 23 1017 40 10000 3.6 200 14:38 29.04.2020
3901 Clouds 23 1017 49 10000 4.6 220 14:18 29.04.2020
3902 Clouds 22 1017 53 10000 3.1 270 13:42 29.04.2020
3903 Clouds 22 1017 35 10000 3.6 310 13:20 29.04.2020
3904 Clouds 22 1017 43 10000 4.1 300 12:58 29.04.2020
3905 Clouds 22 1017 43 10000 4.1 300 12:39 29.04.2020
3906 Clouds 22 1017 46 10000 2.6 350 12:19 29.04.2020
3907 Clouds 21 1017 49 10000 4.6 310 11:40 29.04.2020
3908 Clouds 21 1017 49 10000 4.6 310 11:22 29.04.2020
3909 Clouds 20 1017 60 10000 1 280 10:59 29.04.2020
3910 Clouds 20 1017 64 10000 0.5 200 10:37 29.04.2020
3911 Clear 20 1017 68 10000 1 0 10:19 29.04.2020
3912 Clear 18 1017 72 10000 0.5 130 09:42 29.04.2020
3913 Clear 18 1017 72 10000 0.5 130 09:24 29.04.2020
3914 Clear 16 1017 87 10000 1.5 20 08:59 29.04.2020
3915 Clear 16 1017 87 10000 1.5 20 08:41 29.04.2020
3916 Clear 15 1016 87 10000 2.6 50 08:23 29.04.2020
3917 Clear 13 1016 87 10000 2.6 20 07:48 29.04.2020
3918 Clear 13 1016 87 10000 2.6 20 07:25 29.04.2020
3919 Clear 12 1015 87 10000 2.6 340 06:51 29.04.2020
3920 Clear 12 1015 87 10000 2.6 340 06:31 29.04.2020
3921 Clear 13 1015 93 10000 2.1 350 05:22 29.04.2020
3922 Clear 13 1015 93 10000 1.5 100 04:47 29.04.2020
3923 Clear 13 1016 87 10000 1 0 04:19 29.04.2020
3924 Clear 14 1017 82 10000 0.5 50 02:49 29.04.2020
3925 Clouds 14 1017 87 10000 1.5 350 01:45 29.04.2020
3926 Clouds 15 1017 87 10000 1.5 320 01:26 29.04.2020
3927 Clouds 15 1017 87 10000 0.5 200 00:50 29.04.2020
3928 Clouds 16 1017 87 10000 0.5 200 00:21 29.04.2020
3929 Clouds 16 1017 87 10000 1 140 23:56 28.04.2020
3930 Clouds 16 1017 82 10000 2.1 150 23:37 28.04.2020
3931 Clouds 17 1017 82 10000 2.1 160 23:18 28.04.2020
3932 Clouds 17 1016 72 10000 1.5 180 22:38 28.04.2020
3933 Clouds 17 1016 77 10000 2.1 220 22:20 28.04.2020
3934 Clouds 17 1016 77 10000 2.1 220 21:58 28.04.2020
3935 Clouds 18 1015 72 10000 3.1 200 21:40 28.04.2020
3936 Clouds 18 1015 72 10000 4.1 210 21:21 28.04.2020
3937 Clouds 18 1015 72 10000 4.1 210 20:56 28.04.2020
3938 Clouds 19 1015 68 10000 5.7 220 20:38 28.04.2020
3939 Clouds 19 1015 49 10000 4.1 250 20:19 28.04.2020
3940 Clouds 20 1015 45 10000 6.2 250 19:43 28.04.2020
3941 Clouds 20 1014 42 10000 5.1 260 19:22 28.04.2020
3942 Clouds 20 1014 42 10000 5.1 260 19:00 28.04.2020
3943 Clouds 20 1014 45 10000 6.7 250 18:41 28.04.2020
3944 Clouds 20 1014 45 10000 6.7 250 18:20 28.04.2020
3945 Clouds 21 1014 43 10000 6.7 240 17:59 28.04.2020
3946 Clouds 21 1014 43 10000 5.7 240 17:37 28.04.2020
3947 Clouds 21 1014 56 10000 7.7 210 17:19 28.04.2020
3948 Clouds 21 1014 52 10000 6.2 210 16:56 28.04.2020
3949 Clouds 21 1014 52 10000 6.2 210 16:37 28.04.2020
3950 Clouds 21 1014 56 10000 6.7 220 16:19 28.04.2020
3951 Clouds 21 1014 56 10000 6.7 220 15:55 28.04.2020
3952 Clouds 21 1014 60 10000 6.2 210 15:37 28.04.2020
3953 Clouds 21 1014 56 10000 6.7 210 15:18 28.04.2020
3954 Clouds 21 1014 56 10000 7.2 220 14:43 28.04.2020
3955 Clouds 21 1014 56 10000 6.2 230 14:22 28.04.2020
3956 Clouds 21 1014 68 10000 6.2 210 13:59 28.04.2020
3957 Clouds 21 1014 68 10000 6.2 210 13:40 28.04.2020
3958 Clouds 21 1014 68 10000 6.2 210 13:22 28.04.2020
3959 Clouds 21 1015 56 10000 7.2 220 12:58 28.04.2020
3960 Clouds 20 1015 64 10000 6.7 210 12:39 28.04.2020
3961 Clouds 20 1014 56 10000 6.2 220 12:21 28.04.2020
3962 Clouds 20 1014 56 10000 5.7 220 11:42 28.04.2020
3963 Clouds 20 1014 64 10000 4.6 220 11:21 28.04.2020
3964 Clouds 20 1014 64 10000 4.6 220 10:57 28.04.2020
3965 Clouds 19 1014 52 10000 1.5 0 10:38 28.04.2020
3966 Clouds 19 1014 52 10000 1.5 0 10:38 28.04.2020
3967 Clouds 19 1014 55 10000 0.5 100 10:18 28.04.2020
3968 Clouds 18 1014 63 10000 1.5 230 09:43 28.04.2020
3969 Clear 18 1014 63 10000 1.5 230 09:25 28.04.2020
3970 Clear 16 1013 87 10000 0.5 0 08:55 28.04.2020
3971 Clouds 16 1013 87 10000 0.5 0 08:36 28.04.2020
3972 Clouds 15 1013 87 10000 1 0 08:18 28.04.2020
3973 Clouds 14 1012 93 10000 1.5 330 07:41 28.04.2020
3974 Clouds 14 1012 87 10000 1 0 07:18 28.04.2020
3975 Clouds 14 1012 93 10000 0.5 250 06:41 28.04.2020
3976 Clouds 14 1012 93 10000 1 0 05:52 28.04.2020
3977 Clouds 15 1012 93 10000 1 0 05:34 28.04.2020
3978 Clouds 15 1012 87 10000 1.5 270 04:35 28.04.2020
3979 Clouds 16 1013 87 10000 1.5 300 02:39 28.04.2020
3980 Clouds 15 1012 93 10000 1 0 01:53 28.04.2020
3981 Clouds 16 1012 87 10000 2.1 180 01:22 28.04.2020
3982 Clouds 16 1013 87 10000 1.5 200 00:42 28.04.2020
3983 Clouds 17 1012 82 10000 2.1 180 00:18 28.04.2020
3984 Clouds 17 1013 88 10000 2.6 210 23:43 27.04.2020
3985 Clouds 17 1013 88 10000 3.6 240 23:21 27.04.2020
3986 Clouds 17 1012 88 10000 2.6 200 22:43 27.04.2020
3987 Clouds 17 1012 88 10000 2.6 200 22:43 27.04.2020
3988 Clouds 17 1012 88 10000 2.6 180 22:23 27.04.2020
3989 Clouds 17 1012 88 10000 2.6 180 22:23 27.04.2020
3990 Clouds 17 1012 88 10000 2.6 180 21:58 27.04.2020
3991 Clouds 18 1012 77 10000 2.6 200 21:39 27.04.2020
3992 Clouds 18 1012 77 10000 3.1 200 21:20 27.04.2020
3993 Clouds 18 1012 77 10000 3.1 200 20:58 27.04.2020
3994 Clouds 18 1012 77 10000 3.1 210 20:39 27.04.2020
3995 Clouds 19 1012 77 10000 6.2 210 20:21 27.04.2020
3996 Clouds 19 1012 77 10000 6.2 210 19:57 27.04.2020
3997 Clouds 19 1012 72 10000 6.7 210 19:38 27.04.2020
3998 Clouds 19 1011 72 10000 5.7 210 19:19 27.04.2020
3999 Clouds 19 1011 72 10000 5.7 210 18:56 27.04.2020
4000 Clouds 20 1011 68 10000 5.7 210 18:37 27.04.2020
4001 Clouds 19 1011 72 10000 5.7 210 18:18 27.04.2020
4002 Clouds 20 1011 77 10000 6.2 200 17:41 27.04.2020
4003 Clouds 20 1011 77 10000 6.2 200 17:20 27.04.2020
4004 Clouds 20 1011 77 10000 5.7 210 16:55 27.04.2020
4005 Clouds 19 1012 72 10000 7.2 210 16:37 27.04.2020
4006 Clouds 19 1012 72 10000 6.7 200 16:19 27.04.2020
4007 Clouds 20 1012 72 10000 6.7 200 15:56 27.04.2020
4008 Clouds 20 1012 77 10000 7.2 190 15:37 27.04.2020
4009 Clouds 20 1012 77 10000 7.2 200 15:18 27.04.2020
4010 Clouds 19 1013 82 10000 6.7 200 14:41 27.04.2020
4011 Clouds 19 1013 72 10000 5.7 200 14:20 27.04.2020
4012 Clouds 20 1013 72 10000 5.7 200 13:57 27.04.2020
4013 Clouds 20 1013 72 10000 5.7 210 13:39 27.04.2020
4014 Clouds 20 1013 72 10000 5.7 210 13:39 27.04.2020
4015 Clouds 19 1013 72 10000 6.7 210 13:19 27.04.2020
4016 Clouds 19 1013 72 10000 5.7 210 12:43 27.04.2020
4017 Clouds 19 1013 72 10000 5.7 210 12:23 27.04.2020
4018 Clouds 19 1013 77 10000 5.1 200 11:59 27.04.2020
4019 Clouds 19 1013 72 10000 5.1 200 11:40 27.04.2020
4020 Clouds 18 1013 77 10000 4.6 210 11:19 27.04.2020
4021 Clouds 18 1013 77 10000 4.6 210 10:54 27.04.2020
4022 Clouds 18 1013 82 10000 4.6 220 10:36 27.04.2020
4023 Clouds 17 1013 82 10000 0.5 0 10:18 27.04.2020
4024 Clouds 17 1013 82 10000 0.5 0 09:42 27.04.2020
4025 Clouds 16 1013 87 10000 1 0 09:18 27.04.2020
4026 Clouds 16 1013 87 10000 1 0 08:53 27.04.2020
4027 Clouds 15 1013 93 10000 1 50 08:33 27.04.2020
4028 Clouds 15 1013 93 10000 1 350 07:55 27.04.2020
4029 Clouds 14 1013 93 10000 1 350 07:36 27.04.2020
4030 Clouds 14 1013 87 10000 1.5 10 07:18 27.04.2020
4031 Clouds 14 1013 87 10000 1.5 20 06:39 27.04.2020
4032 Clouds 14 1013 87 10000 1.5 340 06:19 27.04.2020
4033 Clouds 14 1013 87 10000 0.5 0 05:48 27.04.2020
4034 Clouds 14 1013 87 10000 1.5 360 04:41 27.04.2020
4035 Clouds 14 1013 93 10000 1.5 320 03:49 27.04.2020
4036 Clouds 15 1014 93 10000 0.5 0 02:41 27.04.2020
4037 Clear 16 1014 87 10000 1.5 340 01:23 27.04.2020
4038 Clear 16 1014 87 10000 2.1 220 00:47 27.04.2020
4039 Clear 16 1014 82 10000 1.5 220 00:19 27.04.2020
4040 Clear 16 1014 87 10000 1 0 23:55 26.04.2020
4041 Clear 16 1014 87 10000 1 0 23:37 26.04.2020
4042 Clear 16 1014 87 10000 2.6 210 23:18 26.04.2020
4043 Clear 17 1014 87 10000 2.6 210 22:56 26.04.2020
4044 Clear 17 1013 77 10000 3.6 220 22:37 26.04.2020
4045 Clear 17 1013 82 10000 2.1 150 22:19 26.04.2020
4046 Clear 17 1013 82 10000 2.1 150 21:56 26.04.2020
4047 Clear 17 1012 82 10000 1.5 200 21:37 26.04.2020
4048 Clouds 18 1012 82 10000 3.6 210 21:18 26.04.2020
4049 Clouds 19 1012 82 10000 3.6 200 20:39 26.04.2020
4050 Clouds 19 1012 77 10000 3.6 190 20:20 26.04.2020
4051 Clouds 20 1012 77 10000 3.6 190 19:59 26.04.2020
4052 Clouds 21 1011 64 10000 3.6 200 19:38 26.04.2020
4053 Clouds 21 1011 64 10000 4.1 190 19:20 26.04.2020
4054 Clouds 21 1011 60 10000 5.7 200 18:54 26.04.2020
4055 Clouds 21 1011 60 10000 5.7 200 18:36 26.04.2020
4056 Clouds 21 1011 68 10000 4.6 200 18:18 26.04.2020
4057 Clouds 21 1011 72 10000 5.1 180 17:40 26.04.2020
4058 Clouds 21 1011 72 10000 5.1 180 17:22 26.04.2020
4059 Clouds 21 1011 68 10000 5.1 210 16:43 26.04.2020
4060 Clouds 21 1011 68 10000 5.1 210 16:24 26.04.2020
4061 Clouds 21 1011 64 10000 5.7 210 15:59 26.04.2020
4062 Clouds 21 1011 64 10000 6.7 200 15:41 26.04.2020
4063 Clear 21 1011 64 10000 5.7 210 15:22 26.04.2020
4064 Clear 21 1011 64 10000 5.7 210 14:58 26.04.2020
4065 Clear 22 1011 64 10000 4.6 220 14:39 26.04.2020
4066 Clear 21 1011 68 10000 4.1 210 14:19 26.04.2020
4067 Clear 21 1011 68 10000 4.1 210 14:19 26.04.2020
4068 Clear 21 1011 68 10000 3.1 0 13:57 26.04.2020
4069 Clear 22 1011 68 10000 3.1 0 13:38 26.04.2020
4070 Clear 22 1012 53 10000 1.5 0 13:19 26.04.2020
4071 Clear 22 1012 53 10000 1.5 0 12:54 26.04.2020
4072 Clear 21 1012 56 10000 1 100 12:36 26.04.2020
4073 Clear 21 1011 60 10000 1.5 0 12:18 26.04.2020
4074 Clear 21 1011 60 10000 1 0 11:42 26.04.2020
4075 Clear 20 1011 60 10000 1 0 11:23 26.04.2020
4076 Clear 20 1011 68 10000 1.5 0 10:59 26.04.2020
4077 Clear 19 1011 68 10000 2.1 80 10:41 26.04.2020
4078 Clear 19 1011 68 10000 2.1 80 10:41 26.04.2020
4079 Clear 19 1010 72 10000 1.5 0 10:23 26.04.2020
4080 Clear 19 1010 77 10000 0.5 0 09:57 26.04.2020
4081 Clouds 18 1010 77 10000 0.5 0 09:37 26.04.2020
4082 Clouds 17 1010 82 10000 1 0 09:18 26.04.2020
4083 Clouds 16 1010 87 10000 1 0 08:41 26.04.2020
4084 Clouds 16 1010 87 10000 1 360 08:22 26.04.2020
4085 Clouds 15 1009 87 10000 1.5 340 07:48 26.04.2020
4086 Clouds 15 1009 87 10000 2.6 340 07:23 26.04.2020
4087 Clouds 15 1009 87 10000 2.1 340 06:47 26.04.2020
4088 Clouds 15 1009 87 10000 2.1 340 06:23 26.04.2020
4089 Clouds 15 1009 87 10000 1.5 340 05:49 26.04.2020
4090 Clouds 16 1009 87 10000 1.5 340 05:30 26.04.2020
4091 Clouds 16 1009 87 10000 2.1 340 04:37 26.04.2020
4092 Clouds 16 1009 87 10000 1.5 360 03:39 26.04.2020
4093 Clouds 16 1010 87 10000 1.5 350 02:37 26.04.2020
4094 Clouds 16 1010 87 10000 1.5 30 02:19 26.04.2020
4095 Clouds 16 1010 87 10000 1.5 60 01:36 26.04.2020
4096 Clouds 17 1010 82 10000 1 110 00:41 26.04.2020
4097 Clouds 17 1010 77 10000 1.5 40 00:21 26.04.2020
4098 Clouds 17 1010 77 10000 1.5 40 23:56 25.04.2020
4099 Clouds 17 1010 77 10000 2.1 40 23:37 25.04.2020
4100 Clouds 17 1010 77 10000 2.6 50 23:18 25.04.2020
4101 Clouds 17 1009 77 10000 2.6 70 22:42 25.04.2020
4102 Clouds 17 1009 77 10000 2.6 80 22:20 25.04.2020
4103 Clouds 17 1009 77 10000 2.6 80 21:58 25.04.2020
4104 Clouds 17 1008 77 10000 2.1 80 21:39 25.04.2020
4105 Rain 17 1008 77 10000 2.6 100 21:19 25.04.2020
4106 Rain 18 1008 77 10000 2.6 100 20:54 25.04.2020
4107 Rain 18 1008 72 10000 3.1 80 20:36 25.04.2020
4108 Rain 18 1008 72 10000 3.1 90 20:18 25.04.2020
4109 Rain 19 1008 68 10000 3.1 100 19:40 25.04.2020
4110 Rain 19 1009 63 10000 3.6 90 19:22 25.04.2020
4111 Rain 19 1009 63 10000 3.6 90 18:56 25.04.2020
4112 Rain 19 1009 63 10000 3.1 90 18:37 25.04.2020
4113 Rain 20 1009 68 10000 3.6 110 18:18 25.04.2020
4114 Rain 20 1009 68 10000 3.6 110 17:55 25.04.2020
4115 Rain 19 1009 68 10000 2.1 0 17:37 25.04.2020
4116 Rain 20 1009 68 10000 3.1 210 17:18 25.04.2020
4117 Rain 20 1009 68 10000 2.6 230 16:46 25.04.2020
4118 Rain 20 1009 68 10000 2.6 230 16:27 25.04.2020
4119 Rain 20 1010 68 10000 3.1 150 15:58 25.04.2020
4120 Rain 20 1010 68 10000 3.1 150 15:38 25.04.2020
4121 Rain 20 1010 60 10000 3.6 140 15:19 25.04.2020
4122 Rain 20 1010 60 10000 3.6 140 14:57 25.04.2020
4123 Rain 20 1010 60 10000 2.6 90 14:38 25.04.2020
4124 Rain 20 1011 60 10000 2.6 60 14:18 25.04.2020
4125 Rain 20 1011 60 10000 3.1 80 13:42 25.04.2020
4126 Rain 20 1011 60 10000 3.1 80 13:42 25.04.2020
4127 Rain 20 1011 60 10000 2.6 60 13:19 25.04.2020
4128 Rain 20 1011 60 10000 2.6 60 12:57 25.04.2020
4129 Clouds 19 1012 68 10000 3.1 120 12:39 25.04.2020
4130 Clouds 19 1012 68 10000 3.6 100 12:20 25.04.2020
4131 Clouds 19 1012 68 10000 3.6 100 11:55 25.04.2020
4132 Clouds 18 1012 72 10000 3.1 80 11:37 25.04.2020
4133 Clouds 18 1012 72 10000 3.1 60 11:19 25.04.2020
4134 Clouds 17 1012 77 10000 1.5 20 10:42 25.04.2020
4135 Clouds 16 1012 82 10000 1 0 10:22 25.04.2020
4136 Clouds 15 1012 87 10000 0.5 0 09:47 25.04.2020
4137 Clouds 15 1012 87 10000 0.5 0 09:27 25.04.2020
4138 Clouds 14 1011 82 10000 1 0 08:57 25.04.2020
4139 Clouds 13 1011 87 10000 2.6 20 08:38 25.04.2020
4140 Clouds 13 1011 93 10000 2.6 360 08:20 25.04.2020
4141 Clouds 12 1011 93 10000 2.6 10 07:47 25.04.2020
4142 Clouds 12 1011 93 10000 2.6 10 07:28 25.04.2020
4143 Clouds 12 1012 93 10000 1 0 06:47 25.04.2020
4144 Clear 12 1012 93 10000 2.6 10 06:18 25.04.2020
4145 Clear 12 1012 87 10000 3.1 360 05:39 25.04.2020
4146 Clear 12 1013 87 10000 2.6 10 04:57 25.04.2020
4147 Clear 13 1014 87 10000 1 0 02:59 25.04.2020
4148 Clear 13 1014 87 10000 2.1 20 02:21 25.04.2020
4149 Clear 13 1015 82 10000 1.5 340 01:53 25.04.2020
4150 Clear 13 1015 82 10000 1.5 340 01:34 25.04.2020
4151 Clear 14 1015 82 10000 1 10 00:56 25.04.2020
4152 Clear 14 1015 82 10000 2.1 360 00:32 25.04.2020
4153 Clear 15 1015 77 10000 2.1 40 23:45 24.04.2020
4154 Clear 15 1015 77 10000 2.1 40 23:27 24.04.2020
4155 Clear 15 1015 77 10000 2.1 70 22:59 24.04.2020
4156 Clear 16 1015 72 10000 2.6 90 22:39 24.04.2020
4157 Clear 16 1015 77 10000 2.1 90 22:19 24.04.2020
4158 Clear 16 1015 77 10000 2.1 90 21:56 24.04.2020
4159 Clear 16 1014 77 10000 1.5 200 21:37 24.04.2020
4160 Clear 16 1014 77 10000 1.5 200 21:37 24.04.2020
4161 Clouds 17 1014 72 10000 1.5 210 21:19 24.04.2020
4162 Clouds 18 1014 68 10000 1.5 210 20:56 24.04.2020
4163 Clouds 18 1014 68 10000 1.5 210 20:38 24.04.2020
4164 Clouds 18 1014 68 10000 2.1 210 20:18 24.04.2020
4165 Clouds 19 1014 63 10000 2.6 200 19:40 24.04.2020
4166 Clouds 19 1014 63 10000 2.6 200 19:22 24.04.2020
4167 Clouds 20 1015 63 10000 4.6 210 18:46 24.04.2020
4168 Clouds 20 1015 59 10000 5.7 220 18:28 24.04.2020
4169 Clouds 20 1015 59 10000 5.7 220 17:59 24.04.2020
4170 Clouds 20 1015 59 10000 6.2 210 17:39 24.04.2020
4171 Clouds 20 1015 60 10000 6.2 210 17:20 24.04.2020
4172 Clouds 20 1016 56 10000 5.7 210 16:58 24.04.2020
4173 Clouds 21 1016 56 10000 5.7 210 16:40 24.04.2020
4174 Clouds 20 1016 56 10000 5.7 210 16:21 24.04.2020
4175 Clouds 21 1016 56 10000 6.2 190 15:42 24.04.2020
4176 Clouds 22 1016 49 10000 3.1 180 15:21 24.04.2020
4177 Clouds 22 1017 53 10000 4.1 200 14:59 24.04.2020
4178 Clouds 22 1017 53 10000 4.1 200 14:39 24.04.2020
4179 Clouds 21 1017 46 10000 3.1 190 14:20 24.04.2020
4180 Clouds 21 1017 46 10000 1.5 260 13:45 24.04.2020
4181 Clouds 21 1017 49 10000 3.1 0 13:27 24.04.2020
4182 Clouds 21 1017 49 10000 3.1 0 12:59 24.04.2020
4183 Clouds 21 1018 52 10000 2.1 220 12:41 24.04.2020
4184 Clouds 20 1018 52 10000 1.5 190 12:21 24.04.2020
4185 Clouds 20 1018 52 10000 1.5 190 11:57 24.04.2020
4186 Clouds 20 1018 52 10000 1.5 190 11:37 24.04.2020
4187 Clouds 19 1018 52 10000 1.5 0 11:19 24.04.2020
4188 Clouds 19 1018 59 10000 1.5 80 10:54 24.04.2020
4189 Clouds 18 1018 59 10000 1.5 80 10:36 24.04.2020
4190 Clouds 17 1018 67 10000 1 0 10:18 24.04.2020
4191 Clouds 15 1018 72 10000 1 0 09:44 24.04.2020
4192 Clouds 15 1018 72 10000 1 0 09:24 24.04.2020
4193 Clouds 14 1018 76 10000 1.5 360 08:55 24.04.2020
4194 Clouds 13 1018 81 10000 1.5 340 08:37 24.04.2020
4195 Clouds 12 1018 93 10000 1.5 340 08:18 24.04.2020
4196 Clouds 10 1018 87 10000 1 340 07:44 24.04.2020
4197 Clouds 10 1018 87 10000 1.5 350 07:26 24.04.2020
4198 Clouds 10 1017 87 10000 1.5 360 06:50 24.04.2020
4199 Clouds 10 1017 87 10000 1.5 360 06:31 24.04.2020
4200 Clouds 11 1018 87 10000 2.1 10 05:42 24.04.2020
4201 Clouds 11 1018 87 10000 2.1 10 05:42 24.04.2020
4202 Clouds 11 1019 93 10000 1.5 10 04:25 24.04.2020
4203 Clouds 12 1019 87 10000 2.1 350 02:58 24.04.2020
4204 Clear 12 1019 87 10000 1.5 360 02:38 24.04.2020
4205 Clear 12 1019 87 10000 2.1 10 01:58 24.04.2020
4206 Clear 13 1020 87 10000 2.1 340 00:58 24.04.2020
4207 Clear 13 1020 87 10000 2.6 340 00:36 24.04.2020
4208 Clear 14 1020 82 10000 2.1 340 00:18 24.04.2020
4209 Clear 14 1020 77 10000 3.1 20 23:42 23.04.2020
4210 Clear 15 1020 72 10000 2.1 30 23:23 23.04.2020
4211 Clear 15 1019 72 10000 1 360 22:55 23.04.2020
4212 Clear 15 1019 72 10000 1 360 22:36 23.04.2020
4213 Clear 15 1019 67 10000 2.1 30 22:18 23.04.2020
4214 Clear 16 1019 67 10000 2.1 30 21:55 23.04.2020
4215 Clear 17 1019 63 10000 1.5 290 21:37 23.04.2020
4216 Clouds 17 1019 63 10000 1 190 21:19 23.04.2020
4217 Clouds 18 1019 55 10000 1 0 20:41 23.04.2020
4218 Clouds 19 1019 55 10000 2.1 330 20:22 23.04.2020
4219 Clouds 19 1019 55 10000 2.1 330 19:58 23.04.2020
4220 Clouds 19 1019 55 10000 3.1 320 19:40 23.04.2020
4221 Clouds 19 1019 55 10000 2.6 230 19:21 23.04.2020
4222 Clouds 19 1019 55 10000 2.6 230 18:56 23.04.2020
4223 Clouds 19 1019 55 10000 3.1 210 18:38 23.04.2020
4224 Clouds 20 1019 49 10000 3.6 210 18:19 23.04.2020
4225 Clouds 20 1019 49 10000 3.6 210 18:19 23.04.2020
4226 Clouds 20 1019 52 10000 3.6 190 17:55 23.04.2020
4227 Clouds 20 1019 52 10000 3.6 190 17:36 23.04.2020
4228 Clouds 19 1019 55 10000 3.6 220 17:18 23.04.2020
4229 Clouds 19 1020 55 10000 4.6 220 16:43 23.04.2020
4230 Clouds 19 1020 52 10000 6.2 210 16:20 23.04.2020
4231 Clouds 20 1020 56 10000 6.2 210 15:43 23.04.2020
4232 Clouds 21 1020 43 10000 4.1 110 15:23 23.04.2020
4233 Clouds 21 1020 43 10000 4.1 110 14:59 23.04.2020
4234 Clouds 21 1020 43 10000 4.1 60 14:39 23.04.2020
4235 Clouds 21 1020 49 10000 4.1 80 14:21 23.04.2020
4236 Clouds 21 1020 49 10000 4.1 80 14:21 23.04.2020
4237 Clouds 21 1020 49 10000 4.1 80 13:57 23.04.2020
4238 Clouds 21 1020 43 10000 4.6 70 13:38 23.04.2020
4239 Clouds 21 1020 46 10000 4.1 60 13:19 23.04.2020
4240 Clouds 21 1020 43 10000 4.1 100 12:56 23.04.2020
4241 Clouds 21 1020 43 10000 4.1 100 12:38 23.04.2020
4242 Clouds 20 1020 45 10000 4.6 70 12:19 23.04.2020
4243 Clouds 20 1020 42 10000 5.7 70 11:46 23.04.2020
4244 Clouds 20 1020 42 10000 5.7 70 11:27 23.04.2020
4245 Clouds 19 1020 48 10000 4.6 60 10:57 23.04.2020
4246 Clouds 19 1020 52 10000 3.1 60 10:39 23.04.2020
4247 Clouds 18 1020 63 10000 2.1 330 10:19 23.04.2020
4248 Clear 17 1020 67 10000 1.5 320 09:38 23.04.2020
4249 Clouds 15 1019 77 10000 1.5 350 09:18 23.04.2020
4250 Clouds 14 1019 87 10000 3.1 350 08:47 23.04.2020
4251 Clouds 13 1019 87 10000 3.1 350 08:29 23.04.2020
4252 Clouds 12 1019 87 10000 1 0 07:56 23.04.2020
4253 Clouds 12 1019 87 10000 1 0 07:38 23.04.2020
4254 Clouds 12 1018 87 10000 2.1 70 07:18 23.04.2020
4255 Clouds 12 1018 87 10000 2.1 300 06:43 23.04.2020
4256 Clouds 13 1019 87 10000 1.5 340 05:37 23.04.2020
4257 Clouds 12 1019 87 10000 2.6 330 05:18 23.04.2020
4258 Clouds 13 1019 93 10000 1.5 360 02:52 23.04.2020
4259 Clouds 13 1019 87 10000 0.5 0 02:23 23.04.2020
4260 Clouds 14 1018 82 10000 0.5 0 01:38 23.04.2020
4261 Clouds 14 1018 82 10000 0.5 0 00:54 23.04.2020
4262 Clouds 14 1018 87 10000 1.5 70 00:27 23.04.2020
4263 Clouds 14 1018 87 10000 0.5 0 23:58 22.04.2020
4264 Clouds 14 1018 87 10000 2.6 80 23:40 22.04.2020
4265 Clouds 15 1017 82 10000 4.1 70 23:19 22.04.2020
4266 Clouds 16 1017 77 10000 4.6 60 22:40 22.04.2020
4267 Clouds 16 1016 77 10000 5.1 60 22:20 22.04.2020
4268 Clouds 16 1016 77 10000 5.1 60 21:59 22.04.2020
4269 Clouds 16 1016 82 10000 4.6 60 21:41 22.04.2020
4270 Clouds 16 1015 82 10000 5.1 50 21:22 22.04.2020
4271 Clouds 16 1015 82 10000 5.1 50 20:59 22.04.2020
4272 Clouds 17 1015 77 10000 6.7 70 20:41 22.04.2020
4273 Clouds 17 1014 68 10000 5.7 60 20:19 22.04.2020
4274 Clouds 18 1014 68 10000 6.2 70 19:57 22.04.2020
4275 Clouds 18 1014 68 10000 6.2 70 19:37 22.04.2020
4276 Clouds 18 1013 59 10000 5.7 70 19:18 22.04.2020
4277 Clouds 19 1012 55 10000 7.2 60 18:57 22.04.2020
4278 Clouds 19 1013 59 10000 5.7 70 18:57 22.04.2020
4279 Clouds 19 1012 55 10000 7.2 60 18:57 22.04.2020
4280 Clouds 19 1012 55 10000 7.2 60 18:39 22.04.2020
4281 Clear 19 1012 55 10000 7.7 60 18:20 22.04.2020
4282 Clear 20 1011 55 10000 8.2 70 17:43 22.04.2020
4283 Clear 20 1011 52 10000 7.7 80 17:25 22.04.2020
4284 Clear 20 1011 56 10000 7.2 70 16:58 22.04.2020
4285 Clear 20 1011 56 10000 7.2 70 16:58 22.04.2020
4286 Clear 21 1011 56 10000 7.2 70 16:40 22.04.2020
4287 Clear 21 1010 52 10000 7.7 70 16:21 22.04.2020
4288 Clear 21 1010 52 10000 7.7 80 15:41 22.04.2020
4289 Rain 21 1010 52 10000 4.6 50 15:22 22.04.2020
4290 Rain 21 1010 60 10000 4.1 340 14:58 22.04.2020
4291 Rain 20 1010 60 10000 4.1 340 14:38 22.04.2020
4292 Rain 20 1010 60 10000 4.6 350 14:20 22.04.2020
4293 Rain 20 1010 56 10000 5.7 350 13:55 22.04.2020
4294 Rain 19 1010 56 10000 5.7 350 13:36 22.04.2020
4295 Rain 18 1009 68 10000 3.6 10 13:18 22.04.2020
4296 Rain 18 1010 82 10000 5.1 340 12:39 22.04.2020
4297 Rain 18 1009 68 10000 1.5 0 12:21 22.04.2020
4298 Rain 17 1009 82 10000 1 0 11:40 22.04.2020
4299 Rain 16 1009 87 10000 1 0 11:22 22.04.2020
4300 Rain 16 1009 87 10000 1 0 10:59 22.04.2020
4301 Rain 15 1008 82 10000 1.5 340 10:39 22.04.2020
4302 Rain 15 1008 93 10000 2.1 10 10:20 22.04.2020
4303 Rain 14 1008 93 10000 1.5 360 09:39 22.04.2020
4304 Rain 14 1008 93 10000 2.1 350 09:21 22.04.2020
4305 Rain 13 1008 93 10000 2.1 350 08:58 22.04.2020
4306 Rain 13 1007 93 10000 1.5 340 08:40 22.04.2020
4307 Rain 12 1007 93 10000 1.5 340 08:21 22.04.2020
4308 Rain 12 1006 93 10000 2.1 20 07:53 22.04.2020
4309 Rain 12 1006 93 10000 2.1 20 07:28 22.04.2020
4310 Rain 12 1006 93 10000 1.5 60 06:53 22.04.2020
4311 Rain 12 1006 93 10000 1.5 60 06:53 22.04.2020
4312 Rain 12 1006 93 10000 1.5 350 06:18 22.04.2020
4313 Rain 13 1006 93 10000 1 0 05:37 22.04.2020
4314 Rain 13 1006 93 10000 1 0 04:20 22.04.2020
4315 Rain 13 1006 93 10000 1 0 04:20 22.04.2020
4316 Rain 13 1006 93 10000 1 280 02:51 22.04.2020
4317 Rain 13 1006 93 10000 1 0 01:53 22.04.2020
4318 Rain 13 1006 93 10000 1 0 01:27 22.04.2020
4319 Rain 13 1006 93 10000 1 10 00:57 22.04.2020
4320 Rain 13 1006 93 10000 1 0 00:37 22.04.2020
4321 Rain 13 1007 93 10000 1.5 310 00:19 22.04.2020
4322 Rain 13 1007 93 10000 1.5 360 23:41 21.04.2020
4323 Rain 13 1007 87 10000 1.5 0 23:19 21.04.2020
4324 Rain 13 1007 87 10000 2.1 330 22:40 21.04.2020
4325 Rain 13 1006 87 10000 2.1 220 22:22 21.04.2020
4326 Rain 13 1006 87 10000 2.1 220 21:59 21.04.2020
4327 Rain 13 1006 87 10000 1 0 21:41 21.04.2020
4328 Drizzle 14 1005 87 10000 3.1 320 21:23 21.04.2020
4329 Drizzle 14 1005 87 10000 3.1 320 20:57 21.04.2020
4330 Rain 14 1005 87 7000 4.6 280 20:39 21.04.2020
4331 Rain 15 1004 72 10000 6.2 240 20:20 21.04.2020
4332 Rain 16 1004 77 10000 5.7 230 19:41 21.04.2020
4333 Thunderstorm 18 1004 77 10000 5.7 220 19:20 21.04.2020
4334 Thunderstorm 18 1004 77 10000 5.7 220 18:58 21.04.2020
4335 Rain 17 1004 77 10000 7.7 220 18:39 21.04.2020
4336 Rain 17 1004 77 10000 7.7 220 18:39 21.04.2020
4337 Rain 18 1004 72 10000 8.7 220 18:19 21.04.2020
4338 Rain 19 1004 68 10000 6.7 230 17:57 21.04.2020
4339 Rain 19 1004 68 10000 6.7 230 17:38 21.04.2020
4340 Rain 19 1004 68 10000 8.7 220 17:19 21.04.2020
4341 Rain 19 1004 60 10000 7.7 230 16:39 21.04.2020
4342 Rain 19 1004 60 10000 7.2 220 16:19 21.04.2020
4343 Rain 19 1004 60 10000 7.2 220 16:19 21.04.2020
4344 Rain 19 1004 60 10000 7.2 220 15:58 21.04.2020
4345 Rain 19 1004 56 10000 7.2 220 15:40 21.04.2020
4346 Rain 19 1004 56 10000 7.2 220 15:22 21.04.2020
4347 Rain 19 1004 68 10000 7.2 210 14:58 21.04.2020
4348 Rain 19 1004 68 10000 7.2 210 14:39 21.04.2020
4349 Rain 19 1004 68 10000 7.2 210 14:21 21.04.2020
4350 Rain 20 1005 64 10000 7.2 210 13:42 21.04.2020
4351 Rain 20 1005 64 10000 7.2 210 13:42 21.04.2020
4352 Rain 19 1005 64 10000 7.2 210 13:23 21.04.2020
4353 Rain 19 1005 63 10000 6.7 210 12:58 21.04.2020
4354 Rain 19 1005 68 10000 5.1 210 12:37 21.04.2020
4355 Rain 19 1005 68 10000 2.6 250 12:18 21.04.2020
4356 Rain 18 1005 72 10000 1.5 250 11:55 21.04.2020
4357 Rain 18 1005 68 10000 2.6 250 11:55 21.04.2020
4358 Rain 18 1005 72 10000 1.5 250 11:37 21.04.2020
4359 Rain 18 1005 82 10000 2.6 280 11:18 21.04.2020
4360 Rain 17 1005 82 10000 2.6 280 10:56 21.04.2020
4361 Rain 17 1005 82 10000 2.1 280 10:38 21.04.2020
4362 Rain 17 1005 88 10000 2.1 240 10:20 21.04.2020
4363 Rain 16 1005 87 10000 1.5 230 09:37 21.04.2020
4364 Rain 15 1004 93 10000 1.5 250 09:19 21.04.2020
4365 Rain 15 1004 93 10000 1.5 250 08:58 21.04.2020
4366 Rain 15 1004 93 10000 1.5 250 08:58 21.04.2020
4367 Rain 15 1004 93 10000 1.5 250 08:39 21.04.2020
4368 Rain 15 1004 93 10000 2.1 280 08:19 21.04.2020
4369 Rain 15 1004 93 10000 2.1 320 07:45 21.04.2020
4370 Drizzle 15 1005 93 10000 2.6 260 07:23 21.04.2020
4371 Rain 15 1005 93 10000 3.1 290 06:49 21.04.2020
4372 Rain 15 1004 93 10000 3.6 280 06:22 21.04.2020
4373 Rain 15 1005 93 10000 3.6 290 05:49 21.04.2020
4374 Rain 15 1005 93 10000 3.1 280 04:24 21.04.2020
4375 Drizzle 16 1005 87 10000 3.6 270 03:45 21.04.2020
4376 Drizzle 16 1006 87 10000 1.5 280 01:46 21.04.2020
4377 Drizzle 16 1006 87 10000 1.5 280 01:28 21.04.2020
4378 Rain 16 1006 87 10000 1.5 310 00:37 21.04.2020
4379 Drizzle 16 1006 87 10000 5.1 340 23:48 20.04.2020
4380 Rain 16 1006 87 10000 5.1 340 23:26 20.04.2020
4381 Rain 16 1005 87 10000 4.1 340 22:59 20.04.2020
4382 Rain 16 1005 87 10000 3.1 300 22:40 20.04.2020
4383 Drizzle 16 1005 87 10000 2.1 310 22:21 20.04.2020
4384 Drizzle 16 1005 87 10000 2.1 310 22:21 20.04.2020
4385 Drizzle 16 1005 87 10000 2.1 310 21:58 20.04.2020
4386 Rain 16 1005 87 10000 3.6 330 21:39 20.04.2020
4387 Rain 16 1005 87 10000 4.1 350 21:20 20.04.2020
4388 Rain 16 1005 87 10000 4.1 350 20:59 20.04.2020
4389 Rain 16 1005 87 10000 4.1 340 20:40 20.04.2020
4390 Rain 16 1004 93 10000 2.6 320 20:19 20.04.2020
4391 Rain 16 1004 93 10000 2.6 320 19:59 20.04.2020
4392 Rain 16 1004 87 10000 3.6 330 19:39 20.04.2020
4393 Rain 16 1004 88 10000 4.1 330 19:20 20.04.2020
4394 Rain 17 1004 88 10000 4.1 320 18:55 20.04.2020
4395 Rain 17 1004 88 10000 4.1 320 18:36 20.04.2020
4396 Drizzle 17 1004 88 10000 3.6 330 18:18 20.04.2020
4397 Rain 17 1004 88 7000 3.1 330 17:43 20.04.2020
4398 Drizzle 17 1004 88 10000 4.6 330 17:22 20.04.2020
4399 Drizzle 17 1004 88 10000 4.6 330 16:59 20.04.2020
4400 Rain 17 1004 88 7000 3.1 350 16:40 20.04.2020
4401 Rain 17 1004 93 4500 0.5 0 16:19 20.04.2020
4402 Rain 17 1004 93 4500 0.5 0 15:55 20.04.2020
4403 Rain 17 1004 93 1600 1.5 20 15:36 20.04.2020
4404 Rain 17 1004 93 1600 1.5 20 15:36 20.04.2020
4405 Rain 17 1004 93 2500 1 0 15:18 20.04.2020
4406 Rain 17 1004 93 2500 1 0 15:18 20.04.2020
4407 Mist 17 1003 93 3300 1.5 360 14:41 20.04.2020
4408 Rain 17 1003 93 2400 1 0 14:19 20.04.2020
4409 Rain 17 1003 93 2400 1 0 13:58 20.04.2020
4410 Rain 18 1004 88 2200 1.5 350 13:38 20.04.2020
4411 Rain 18 1004 88 6000 3.1 40 13:20 20.04.2020
4412 Rain 18 1004 88 10000 3.1 80 12:44 20.04.2020
4413 Rain 18 1004 88 10000 3.1 80 12:44 20.04.2020
4414 Rain 18 1003 93 10000 3.1 70 12:23 20.04.2020
4415 Rain 17 1003 88 10000 2.1 90 11:57 20.04.2020
4416 Rain 18 1003 88 10000 2.1 90 11:38 20.04.2020
4417 Mist 17 1003 93 3600 1.5 50 11:18 20.04.2020
4418 Mist 17 1003 93 2200 2.1 50 10:54 20.04.2020
4419 Mist 17 1003 93 2200 2.1 50 10:36 20.04.2020
4420 Rain 17 1003 93 10000 3.1 60 10:18 20.04.2020
4421 Rain 17 1003 93 10000 1.5 50 09:44 20.04.2020
4422 Rain 17 1003 93 10000 1.5 50 09:25 20.04.2020
4423 Rain 17 1003 93 10000 1.5 10 08:58 20.04.2020
4424 Rain 17 1003 93 10000 1.5 10 08:58 20.04.2020
4425 Rain 17 1003 93 10000 1.5 10 08:58 20.04.2020
4426 Rain 16 1003 100 10000 1.5 20 08:39 20.04.2020
4427 Rain 16 1003 100 10000 1 70 08:18 20.04.2020
4428 Rain 16 1003 100 10000 1 70 07:51 20.04.2020
4429 Rain 16 1003 100 10000 1 100 07:28 20.04.2020
4430 Rain 16 1002 100 7000 0.5 0 06:38 20.04.2020
4431 Rain 16 1002 100 7000 0.5 0 06:38 20.04.2020
4432 Drizzle 16 1003 100 8000 1 150 06:20 20.04.2020
4433 Rain 16 1003 100 10000 1 0 05:22 20.04.2020
4434 Drizzle 16 1004 100 2600 1.5 170 03:19 20.04.2020
4435 Rain 17 1005 93 2000 1.5 100 02:36 20.04.2020
4436 Mist 17 1005 93 4300 2.1 100 01:31 20.04.2020
4437 Rain 17 1005 93 10000 1.5 130 00:57 20.04.2020
4438 Drizzle 17 1005 93 10000 2.1 110 00:27 20.04.2020
4439 Rain 17 1006 93 10000 2.1 70 23:54 19.04.2020
4440 Rain 17 1006 93 10000 2.1 70 23:36 19.04.2020
4441 Rain 17 1006 93 10000 2.6 70 23:18 19.04.2020
4442 Rain 17 1006 93 10000 3.1 60 22:39 19.04.2020
4443 Rain 17 1006 93 10000 3.6 60 22:21 19.04.2020
4444 Rain 17 1006 93 7000 3.1 70 21:56 19.04.2020
4445 Rain 17 1006 93 7000 3.1 70 21:37 19.04.2020
4446 Rain 17 1005 93 10000 4.6 60 21:18 19.04.2020
4447 Drizzle 18 1006 88 10000 4.1 50 20:41 19.04.2020
4448 Rain 18 1006 88 8000 4.6 60 20:21 19.04.2020
4449 Rain 18 1006 88 8000 4.6 60 19:59 19.04.2020
4450 Rain 18 1006 88 10000 4.6 70 19:41 19.04.2020
4451 Rain 18 1006 88 10000 4.1 80 19:22 19.04.2020
4452 Rain 19 1006 88 10000 4.1 80 18:58 19.04.2020
4453 Rain 19 1006 82 6000 4.1 100 18:39 19.04.2020
4454 Rain 20 1006 82 10000 4.6 80 18:20 19.04.2020
4455 Rain 20 1006 82 10000 4.6 80 17:57 19.04.2020
4456 Rain 20 1006 82 10000 4.6 70 17:39 19.04.2020
4457 Rain 21 1006 77 10000 3.6 80 17:21 19.04.2020
4458 Rain 21 1006 77 10000 3.6 80 16:58 19.04.2020
4459 Rain 21 1007 73 10000 3.1 80 16:38 19.04.2020
4460 Rain 21 1008 73 10000 4.1 130 16:20 19.04.2020
4461 Rain 21 1008 73 10000 4.1 130 16:20 19.04.2020
4462 Rain 21 1008 82 10000 4.1 70 15:43 19.04.2020
4463 Rain 21 1009 82 10000 4.6 70 15:22 19.04.2020
4464 Rain 21 1009 82 10000 4.6 70 14:56 19.04.2020
4465 Rain 21 1009 77 10000 4.6 90 14:37 19.04.2020
4466 Rain 21 1009 77 10000 5.7 80 14:19 19.04.2020
4467 Rain 20 1009 82 10000 6.7 70 13:40 19.04.2020
4468 Rain 20 1010 88 10000 4.6 70 13:21 19.04.2020
4469 Rain 19 1010 88 10000 4.6 70 12:58 19.04.2020
4470 Rain 19 1010 82 10000 5.1 70 12:40 19.04.2020
4471 Rain 18 1010 88 10000 6.2 70 12:20 19.04.2020
4472 Rain 18 1010 88 10000 5.1 70 11:38 19.04.2020
4473 Rain 18 1010 88 10000 6.2 80 11:19 19.04.2020
4474 Rain 18 1010 88 10000 6.2 80 10:58 19.04.2020
4475 Rain 18 1010 88 10000 5.7 70 10:40 19.04.2020
4476 Rain 18 1010 88 10000 5.1 80 10:20 19.04.2020
4477 Rain 18 1011 93 10000 3.1 70 09:46 19.04.2020
4478 Rain 18 1011 93 10000 3.1 70 09:28 19.04.2020
4479 Rain 18 1010 93 10000 4.6 60 08:59 19.04.2020
4480 Rain 17 1010 93 10000 6.7 70 08:37 19.04.2020
4481 Rain 17 1010 93 10000 5.7 70 08:18 19.04.2020
4482 Rain 18 1010 88 10000 4.1 70 07:44 19.04.2020
4483 Rain 18 1010 88 10000 4.1 70 07:24 19.04.2020
4484 Drizzle 17 1010 93 10000 3.1 50 06:31 19.04.2020
4485 Rain 18 1011 93 10000 3.6 80 05:56 19.04.2020
4486 Rain 17 1011 93 10000 4.1 60 04:54 19.04.2020
4487 Rain 17 1012 93 10000 5.1 70 03:19 19.04.2020
4488 Drizzle 17 1011 93 8000 6.7 80 02:22 19.04.2020
4489 Rain 18 1013 88 9000 4.1 40 01:39 19.04.2020
4490 Drizzle 18 1014 88 10000 2.6 70 00:50 19.04.2020
4491 Drizzle 18 1014 88 10000 2.6 70 00:26 19.04.2020
4492 Drizzle 18 1015 88 10000 2.1 60 23:59 18.04.2020
4493 Drizzle 18 1015 88 10000 3.1 40 23:39 18.04.2020
4494 Drizzle 18 1015 88 10000 3.1 40 23:39 18.04.2020
4495 Thunderstorm 19 1016 82 5000 0.5 0 23:19 18.04.2020
4496 Thunderstorm 20 1015 72 10000 2.6 70 22:42 18.04.2020
4497 Thunderstorm 20 1015 72 10000 2.6 70 22:22 18.04.2020
4498 Rain 20 1014 77 10000 3.1 60 21:58 18.04.2020
4499 Rain 20 1014 77 10000 2.6 100 21:38 18.04.2020
4500 Clouds 20 1014 77 10000 2.6 70 21:20 18.04.2020
4501 Clouds 21 1014 73 10000 4.6 60 20:54 18.04.2020
4502 Clouds 21 1014 73 10000 4.6 60 20:36 18.04.2020
4503 Clouds 21 1014 73 10000 5.7 90 20:18 18.04.2020
4504 Clouds 22 1014 68 10000 4.6 120 19:40 18.04.2020
4505 Clouds 22 1014 73 10000 2.6 90 19:22 18.04.2020
4506 Thunderstorm 21 1014 77 10000 2.1 140 18:39 18.04.2020
4507 Thunderstorm 22 1015 64 10000 4.1 230 18:20 18.04.2020
4508 Clouds 22 1014 64 10000 3.1 220 17:57 18.04.2020
4509 Clouds 23 1014 64 10000 3.1 220 17:39 18.04.2020
4510 Clouds 23 1014 64 10000 4.1 220 17:18 18.04.2020
4511 Clouds 24 1014 61 10000 3.6 220 16:43 18.04.2020
4512 Clouds 24 1015 69 10000 4.6 210 16:22 18.04.2020
4513 Clouds 23 1015 69 10000 4.6 210 15:56 18.04.2020
4514 Clouds 23 1015 69 10000 4.6 210 15:37 18.04.2020
4515 Rain 24 1015 64 10000 5.1 210 15:19 18.04.2020
4516 Rain 26 1015 50 10000 1 130 14:44 18.04.2020
4517 Clouds 25 1016 53 10000 1.5 0 14:23 18.04.2020
4518 Clouds 24 1016 60 10000 1 0 13:44 18.04.2020
4519 Clouds 24 1016 60 10000 1 0 13:22 18.04.2020
4520 Clouds 23 1017 64 10000 1.5 70 12:55 18.04.2020
4521 Clouds 22 1017 68 10000 3.1 200 12:36 18.04.2020
4522 Clouds 22 1017 68 10000 3.1 200 12:36 18.04.2020
4523 Clouds 22 1017 68 10000 3.1 190 12:18 18.04.2020
4524 Clouds 21 1017 68 10000 1 0 11:42 18.04.2020
4525 Clouds 21 1017 73 10000 0.5 270 11:22 18.04.2020
4526 Clouds 21 1017 73 10000 0.5 270 10:57 18.04.2020
4527 Clouds 20 1017 77 10000 1 0 10:37 18.04.2020
4528 Clouds 18 1017 82 10000 0.5 240 10:18 18.04.2020
4529 Clouds 17 1017 82 10000 1.5 310 09:41 18.04.2020
4530 Rain 16 1017 87 10000 0.5 210 09:22 18.04.2020
4531 Rain 16 1016 87 10000 1.5 50 08:43 18.04.2020
4532 Rain 16 1016 87 10000 1.5 360 08:25 18.04.2020
4533 Rain 15 1016 87 10000 2.1 350 07:54 18.04.2020
4534 Rain 15 1016 87 10000 2.1 350 07:34 18.04.2020
4535 Rain 15 1016 87 10000 1 0 06:55 18.04.2020
4536 Rain 15 1016 87 10000 1.5 360 06:19 18.04.2020
4537 Rain 15 1016 87 10000 2.1 20 05:35 18.04.2020
4538 Rain 15 1016 87 10000 1 20 04:46 18.04.2020
4539 Rain 15 1016 87 10000 1 20 04:24 18.04.2020
4540 Clouds 15 1017 87 10000 1.5 360 02:47 18.04.2020
4541 Clouds 16 1017 87 10000 1.5 360 02:22 18.04.2020
4542 Clouds 16 1017 82 10000 0.5 0 01:51 18.04.2020
4543 Clouds 16 1017 82 10000 0.5 0 01:33 18.04.2020
4544 Clouds 17 1018 87 10000 2.6 50 00:41 18.04.2020
4545 Clouds 17 1019 82 10000 1.5 160 00:20 18.04.2020
4546 Clouds 17 1019 82 10000 1.5 160 23:55 17.04.2020
4547 Clouds 17 1020 82 10000 5.7 180 23:36 17.04.2020
4548 Thunderstorm 17 1017 87 10000 1.5 0 23:18 17.04.2020
4549 Thunderstorm 17 1017 87 10000 1.5 0 23:18 17.04.2020
4550 Thunderstorm 17 1016 87 10000 4.1 60 22:54 17.04.2020
4551 Thunderstorm 17 1016 87 10000 4.1 60 22:36 17.04.2020
4552 Clouds 17 1016 82 10000 4.1 90 22:18 17.04.2020
4553 Clouds 18 1016 77 10000 3.1 120 21:41 17.04.2020
4554 Clouds 18 1016 72 10000 3.6 90 21:21 17.04.2020
4555 Clouds 18 1016 72 10000 3.6 90 21:21 17.04.2020
4556 Clouds 19 1016 72 10000 4.1 90 20:56 17.04.2020
4557 Clouds 19 1016 72 10000 4.1 90 20:37 17.04.2020
4558 Clouds 20 1016 72 10000 5.1 70 20:18 17.04.2020
4559 Clouds 21 1015 64 10000 6.2 80 19:56 17.04.2020
4560 Clouds 21 1015 64 10000 6.2 80 19:38 17.04.2020
4561 Clouds 21 1015 68 10000 5.7 70 19:20 17.04.2020
4562 Clouds 22 1015 64 10000 6.2 80 18:42 17.04.2020
4563 Clouds 23 1015 64 10000 6.2 80 18:23 17.04.2020
4564 Clouds 22 1016 73 10000 3.6 220 17:55 17.04.2020
4565 Clouds 21 1016 73 10000 3.6 220 17:36 17.04.2020
4566 Clouds 22 1017 60 10000 2.1 0 17:18 17.04.2020
4567 Clouds 23 1017 60 10000 3.1 60 16:41 17.04.2020
4568 Clouds 22 1017 64 10000 3.1 40 16:22 17.04.2020
4569 Clouds 22 1018 64 10000 3.6 90 15:41 17.04.2020
4570 Clouds 22 1018 64 10000 3.6 90 15:23 17.04.2020
4571 Clouds 21 1018 68 10000 3.1 70 14:55 17.04.2020
4572 Clouds 21 1018 68 10000 3.1 80 14:37 17.04.2020
4573 Clouds 20 1018 68 10000 2.6 60 14:19 17.04.2020
4574 Clouds 20 1019 68 10000 2.1 180 13:41 17.04.2020
4575 Clouds 19 1020 72 10000 1.5 350 13:21 17.04.2020
4576 Clouds 19 1020 72 10000 1.5 350 12:58 17.04.2020
4577 Clouds 19 1019 77 10000 2.1 50 12:40 17.04.2020
4578 Clouds 19 1019 77 10000 2.1 50 12:21 17.04.2020
4579 Clouds 18 1020 77 10000 1 160 11:40 17.04.2020
4580 Clouds 17 1019 82 10000 1 0 11:19 17.04.2020
4581 Clouds 17 1019 82 10000 1 0 10:55 17.04.2020
4582 Clouds 16 1019 87 10000 2.1 60 10:37 17.04.2020
4583 Clouds 16 1019 87 10000 3.6 60 10:18 17.04.2020
4584 Clouds 16 1018 87 10000 4.1 70 09:40 17.04.2020
4585 Clouds 15 1019 93 10000 1.5 80 09:20 17.04.2020
4586 Clouds 15 1019 93 10000 1.5 80 08:56 17.04.2020
4587 Clouds 15 1019 93 10000 1.5 80 08:38 17.04.2020
4588 Clouds 14 1018 93 10000 0.5 0 08:19 17.04.2020
4589 Clouds 14 1018 93 10000 0.5 0 07:43 17.04.2020
4590 Clouds 14 1018 87 10000 1 0 07:21 17.04.2020
4591 Clouds 14 1018 87 10000 1 50 06:45 17.04.2020
4592 Clouds 14 1018 87 10000 1.5 50 06:22 17.04.2020
4593 Clouds 15 1018 87 10000 2.1 360 04:27 17.04.2020
4594 Clouds 15 1018 93 10000 0.5 0 03:19 17.04.2020
4595 Clouds 16 1019 87 10000 1 0 01:58 17.04.2020
4596 Clouds 16 1019 87 10000 1 300 01:27 17.04.2020
4597 Clouds 16 1019 87 10000 1.5 20 00:45 17.04.2020
4598 Clouds 17 1019 87 10000 0.5 0 00:18 17.04.2020
4599 Clouds 17 1019 87 10000 0.5 0 23:40 16.04.2020
4600 Clouds 17 1019 87 10000 0.5 0 23:22 16.04.2020
4601 Clouds 17 1019 82 10000 1 70 22:56 16.04.2020
4602 Clouds 17 1019 82 10000 1.5 100 22:37 16.04.2020
4603 Clouds 17 1018 82 10000 2.6 110 22:19 16.04.2020
4604 Clouds 17 1017 77 10000 3.1 70 21:42 16.04.2020
4605 Clouds 19 1017 77 10000 3.6 80 21:20 16.04.2020
4606 Clouds 19 1017 77 10000 3.6 80 20:59 16.04.2020
4607 Clouds 19 1017 77 10000 2.1 160 20:39 16.04.2020
4608 Clouds 19 1017 72 10000 2.6 180 20:19 16.04.2020
4609 Clouds 19 1017 72 10000 2.6 180 19:55 16.04.2020
4610 Clouds 19 1017 68 10000 2.6 200 19:37 16.04.2020
4611 Clouds 20 1017 64 10000 3.1 200 19:18 16.04.2020
4612 Clouds 20 1017 60 10000 3.1 170 18:42 16.04.2020
4613 Clouds 21 1017 64 10000 3.1 180 18:24 16.04.2020
4614 Clouds 21 1017 64 10000 3.1 200 17:57 16.04.2020
4615 Clouds 21 1017 64 10000 3.1 200 17:39 16.04.2020
4616 Clouds 21 1018 64 10000 5.1 220 17:20 16.04.2020
4617 Clouds 21 1018 64 10000 5.7 220 16:44 16.04.2020
4618 Clouds 21 1018 68 10000 5.1 200 16:26 16.04.2020
4619 Clouds 21 1018 68 10000 5.1 200 15:55 16.04.2020
4620 Clouds 21 1019 68 10000 5.1 210 15:36 16.04.2020
4621 Clouds 21 1019 68 10000 4.6 200 15:18 16.04.2020
4622 Clouds 21 1019 68 10000 5.1 200 14:45 16.04.2020
4623 Clouds 21 1019 68 10000 5.1 210 14:25 16.04.2020
4624 Clouds 20 1019 68 10000 5.7 210 13:59 16.04.2020
4625 Clouds 20 1019 68 10000 5.7 210 13:40 16.04.2020
4626 Clouds 20 1019 68 10000 5.7 210 13:40 16.04.2020
4627 Clouds 21 1019 64 10000 1.5 310 13:22 16.04.2020
4628 Clouds 21 1019 64 10000 2.6 310 12:58 16.04.2020
4629 Clouds 20 1019 64 10000 2.6 310 12:39 16.04.2020
4630 Clouds 19 1020 72 10000 3.6 290 12:19 16.04.2020
4631 Clouds 18 1020 77 10000 3.1 290 11:57 16.04.2020
4632 Clouds 18 1020 77 10000 3.1 290 11:39 16.04.2020
4633 Clouds 18 1020 82 10000 3.6 270 11:20 16.04.2020
4634 Clouds 17 1020 82 10000 3.6 270 10:55 16.04.2020
4635 Clouds 18 1020 77 10000 1.5 310 10:37 16.04.2020
4636 Clouds 17 1020 88 10000 1.5 260 10:18 16.04.2020
4637 Clouds 16 1020 93 10000 1 0 09:39 16.04.2020
4638 Clouds 16 1020 93 10000 1 0 09:20 16.04.2020
4639 Clouds 16 1020 93 10000 1 0 09:20 16.04.2020
4640 Clouds 16 1020 87 10000 1 0 08:56 16.04.2020
4641 Clouds 16 1019 93 10000 1.5 230 08:37 16.04.2020
4642 Clouds 15 1019 93 10000 1.5 220 08:19 16.04.2020
4643 Clouds 16 1019 87 10000 1 0 07:43 16.04.2020
4644 Clouds 15 1019 93 10000 0.5 30 07:23 16.04.2020
4645 Clouds 15 1019 93 10000 1 0 06:41 16.04.2020
4646 Clouds 15 1019 93 10000 1.5 90 06:23 16.04.2020
4647 Clouds 15 1019 93 10000 2.6 30 04:54 16.04.2020
4648 Clouds 15 1019 93 10000 2.6 40 03:29 16.04.2020
4649 Clouds 15 1019 93 6000 2.1 30 02:59 16.04.2020
4650 Clouds 15 1020 93 10000 1.5 360 02:39 16.04.2020
4651 Clouds 15 1020 93 8000 3.1 40 01:40 16.04.2020
4652 Mist 15 1020 93 4300 3.1 60 00:57 16.04.2020
4653 Clouds 16 1020 87 9000 2.1 40 00:26 16.04.2020
4654 Clouds 16 1020 82 10000 3.6 60 23:56 15.04.2020
4655 Clouds 16 1020 82 10000 3.6 60 23:38 15.04.2020
4656 Clouds 17 1020 77 10000 2.6 80 23:19 15.04.2020
4657 Clouds 17 1019 77 10000 4.1 90 22:39 15.04.2020
4658 Clouds 17 1018 77 10000 5.1 80 22:21 15.04.2020
4659 Clouds 17 1018 77 10000 5.1 80 21:57 15.04.2020
4660 Clouds 17 1018 77 10000 5.7 80 21:39 15.04.2020
4661 Clouds 17 1018 82 10000 4.6 80 21:21 15.04.2020
4662 Clouds 17 1018 82 10000 4.6 80 20:56 15.04.2020
4663 Clouds 18 1018 72 10000 4.6 70 20:38 15.04.2020
4664 Clouds 18 1017 72 10000 5.1 70 20:20 15.04.2020
4665 Clouds 18 1017 72 10000 5.1 70 20:20 15.04.2020
4666 Clouds 18 1017 72 10000 4.6 60 19:42 15.04.2020
4667 Clouds 19 1017 68 10000 5.1 60 19:20 15.04.2020
4668 Clouds 19 1017 63 10000 4.6 60 18:54 15.04.2020
4669 Clouds 19 1017 63 10000 4.6 60 18:36 15.04.2020
4670 Clear 20 1017 68 10000 5.1 80 18:18 15.04.2020
4671 Clear 20 1017 64 10000 4.6 60 17:40 15.04.2020
4672 Clear 19 1017 63 10000 6.2 60 17:21 15.04.2020
4673 Clear 19 1017 63 10000 6.2 60 16:58 15.04.2020
4674 Clear 19 1017 60 10000 5.1 70 16:38 15.04.2020
4675 Clear 19 1017 63 10000 5.7 50 16:20 15.04.2020
4676 Clear 19 1017 63 10000 5.7 50 15:58 15.04.2020
4677 Clear 20 1017 63 10000 5.7 60 15:39 15.04.2020
4678 Clear 19 1017 63 10000 6.2 60 15:20 15.04.2020
4679 Clear 19 1017 63 10000 6.2 60 15:20 15.04.2020
4680 Clear 19 1017 63 10000 6.2 60 14:58 15.04.2020
4681 Clear 19 1017 63 10000 6.2 50 14:40 15.04.2020
4682 Clouds 19 1017 60 10000 6.2 80 14:21 15.04.2020
4683 Clouds 19 1017 59 10000 5.7 80 13:58 15.04.2020
4684 Clouds 19 1017 59 10000 5.7 80 13:39 15.04.2020
4685 Clouds 19 1017 59 10000 6.2 60 13:20 15.04.2020
4686 Clouds 19 1017 59 10000 6.2 60 12:56 15.04.2020
4687 Clouds 19 1017 59 10000 6.2 70 12:38 15.04.2020
4688 Clouds 18 1017 68 10000 6.7 70 12:20 15.04.2020
4689 Clouds 18 1017 68 10000 6.7 70 11:44 15.04.2020
4690 Clouds 17 1017 68 10000 6.7 70 11:25 15.04.2020
4691 Clouds 17 1017 67 10000 6.2 80 10:58 15.04.2020
4692 Clouds 17 1017 72 10000 6.7 70 10:37 15.04.2020
4693 Clouds 16 1017 77 10000 5.7 70 10:19 15.04.2020
4694 Clouds 16 1017 77 10000 5.7 70 09:55 15.04.2020
4695 Clouds 16 1017 77 10000 4.1 60 09:37 15.04.2020
4696 Clouds 15 1017 82 10000 4.1 50 09:18 15.04.2020
4697 Clouds 14 1017 87 10000 4.1 50 08:41 15.04.2020
4698 Clouds 14 1016 87 10000 4.6 50 08:21 15.04.2020
4699 Clouds 14 1016 87 10000 4.1 70 07:56 15.04.2020
4700 Clouds 13 1016 87 10000 4.1 70 07:36 15.04.2020
4701 Clouds 12 1016 87 10000 1 0 06:49 15.04.2020
4702 Clear 12 1016 93 10000 2.1 10 06:20 15.04.2020
4703 Clear 12 1016 87 10000 1.5 20 05:22 15.04.2020
4704 Clear 12 1016 93 10000 2.6 20 04:45 15.04.2020
4705 Clear 13 1016 87 10000 1.5 50 03:55 15.04.2020
4706 Clouds 13 1016 87 10000 2.1 40 03:20 15.04.2020
4707 Clouds 14 1016 87 10000 2.1 30 02:39 15.04.2020
4708 Clouds 15 1016 82 10000 1 360 01:50 15.04.2020
4709 Clouds 15 1016 82 10000 0.5 0 01:22 15.04.2020
4710 Clouds 15 1016 82 10000 1 0 00:39 15.04.2020
4711 Clouds 14 1016 82 10000 1 0 00:20 15.04.2020
4712 Clouds 14 1016 82 10000 1 0 23:55 14.04.2020
4713 Clouds 14 1016 87 10000 0.5 0 23:37 14.04.2020
4714 Clouds 14 1016 82 10000 1 0 23:19 14.04.2020
4715 Clouds 15 1016 82 10000 1 0 22:56 14.04.2020
4716 Clouds 15 1015 82 10000 2.1 130 22:38 14.04.2020
4717 Clouds 15 1015 77 10000 4.6 60 22:20 14.04.2020
4718 Clouds 15 1015 77 10000 4.6 60 21:56 14.04.2020
4719 Clouds 16 1015 77 10000 4.6 50 21:37 14.04.2020
4720 Clouds 16 1014 77 10000 4.1 70 21:19 14.04.2020
4721 Rain 16 1014 72 10000 4.1 70 20:41 14.04.2020
4722 Rain 16 1014 72 10000 4.1 70 20:41 14.04.2020
4723 Rain 17 1014 72 10000 4.1 70 20:23 14.04.2020
4724 Rain 17 1014 72 10000 3.6 80 20:00 14.04.2020
4725 Clouds 17 1014 72 10000 3.1 80 19:40 14.04.2020
4726 Clouds 18 1013 72 10000 3.6 80 19:21 14.04.2020
4727 Clouds 18 1013 68 10000 4.1 80 18:57 14.04.2020
4728 Clouds 18 1013 68 10000 4.1 80 18:39 14.04.2020
4729 Rain 18 1013 72 10000 3.6 80 18:21 14.04.2020
4730 Rain 18 1013 72 10000 3.6 80 17:58 14.04.2020
4731 Rain 19 1013 68 10000 4.6 70 17:38 14.04.2020
4732 Rain 19 1013 68 10000 5.7 70 17:19 14.04.2020
4733 Rain 19 1013 68 10000 5.7 70 16:56 14.04.2020
4734 Rain 19 1013 64 10000 6.7 70 16:37 14.04.2020
4735 Rain 19 1013 64 10000 6.7 70 16:19 14.04.2020
4736 Rain 19 1013 64 10000 7.2 80 15:55 14.04.2020
4737 Rain 19 1013 64 10000 7.2 80 15:37 14.04.2020
4738 Rain 19 1013 64 10000 5.7 60 15:18 14.04.2020
4739 Rain 19 1013 68 10000 6.7 60 14:55 14.04.2020
4740 Rain 19 1013 68 10000 6.7 60 14:37 14.04.2020
4741 Rain 18 1013 72 10000 6.2 70 14:18 14.04.2020
4742 Rain 19 1013 72 10000 6.2 70 14:18 14.04.2020
4743 Rain 18 1013 68 10000 6.2 70 13:40 14.04.2020
4744 Rain 18 1013 68 10000 7.7 70 13:22 14.04.2020
4745 Rain 18 1013 72 10000 7.7 70 12:54 14.04.2020
4746 Clouds 18 1013 72 10000 7.7 70 12:36 14.04.2020
4747 Clouds 18 1013 82 10000 6.7 80 12:18 14.04.2020
4748 Clouds 18 1013 82 10000 5.1 80 11:40 14.04.2020
4749 Clouds 17 1013 88 10000 4.6 60 11:20 14.04.2020
4750 Clouds 17 1012 88 10000 4.6 70 10:47 14.04.2020
4751 Clouds 17 1012 88 10000 4.6 70 10:28 14.04.2020
4752 Clouds 17 1012 93 10000 3.1 80 09:59 14.04.2020
4753 Drizzle 16 1012 93 4300 4.1 60 09:40 14.04.2020
4754 Clouds 16 1012 87 10000 3.6 60 09:22 14.04.2020
4755 Clouds 16 1012 87 10000 1.5 60 08:44 14.04.2020
4756 Clouds 15 1011 93 10000 2.1 40 08:25 14.04.2020
4757 Clouds 15 1011 93 10000 1 0 07:59 14.04.2020
4758 Clouds 15 1010 89 0 3.15 40 07:41 14.04.2020
4759 Clouds 15 1011 93 10000 1.5 10 07:22 14.04.2020
4760 Clouds 15 1010 89 0 3.15 40 06:45 14.04.2020
4761 Clouds 16 1011 87 10000 1 310 05:22 14.04.2020
4762 Clouds 15 1011 93 10000 1 0 03:27 14.04.2020
4763 Clouds 15 1011 93 10000 1.5 340 02:33 14.04.2020
4764 Clouds 15 1011 93 10000 2.1 340 01:27 14.04.2020
4765 Clouds 15 1010 93 10000 1.5 350 00:50 14.04.2020
4766 Clouds 15 1010 87 10000 2.1 60 00:24 14.04.2020
4767 Clouds 15 1010 87 10000 2.1 60 23:57 13.04.2020
4768 Clouds 15 1010 87 10000 2.1 60 23:37 13.04.2020
4769 Clouds 15 1010 87 10000 2.1 70 23:18 13.04.2020
4770 Clouds 16 1010 87 10000 2.1 100 22:42 13.04.2020
4771 Clouds 16 1009 87 10000 2.1 100 22:22 13.04.2020
4772 Clouds 16 1009 87 10000 2.1 100 21:58 13.04.2020
4773 Clouds 16 1009 87 10000 2.1 140 21:40 13.04.2020
4774 Clouds 16 1009 87 10000 2.6 170 21:21 13.04.2020
4775 Clouds 16 1009 87 10000 2.6 170 20:57 13.04.2020
4776 Clouds 17 1008 82 10000 3.1 170 20:39 13.04.2020
4777 Clouds 18 1008 77 10000 4.6 190 20:19 13.04.2020
4778 Clouds 18 1008 77 10000 4.6 190 20:19 13.04.2020
4779 Clouds 19 1008 77 10000 4.6 190 19:58 13.04.2020
4780 Clouds 19 1008 72 10000 4.1 200 19:37 13.04.2020
4781 Clouds 19 1008 72 10000 4.6 210 19:18 13.04.2020
4782 Clouds 19 1008 72 10000 5.1 210 18:56 13.04.2020
4783 Clouds 19 1008 72 10000 5.1 210 18:37 13.04.2020
4784 Clouds 20 1008 68 10000 5.1 220 18:18 13.04.2020
4785 Clouds 20 1008 68 10000 5.1 220 17:56 13.04.2020
4786 Clouds 19 1008 68 10000 3.1 220 17:37 13.04.2020
4787 Clouds 19 1008 77 10000 2.1 210 17:18 13.04.2020
4788 Clouds 19 1008 77 10000 2.1 210 16:57 13.04.2020
4789 Clouds 19 1008 82 10000 4.1 210 16:37 13.04.2020
4790 Clouds 18 1009 82 10000 4.1 220 16:19 13.04.2020
4791 Clouds 18 1009 82 10000 4.1 220 16:19 13.04.2020
4792 Clouds 18 1009 88 10000 4.1 210 15:46 13.04.2020
4793 Clouds 18 1009 88 10000 4.1 210 15:28 13.04.2020
4794 Clouds 18 1009 82 10000 4.6 210 14:59 13.04.2020
4795 Clouds 18 1009 77 10000 5.7 210 14:40 13.04.2020
4796 Clouds 18 1009 77 10000 4.6 210 14:22 13.04.2020
4797 Clouds 18 1009 77 10000 4.6 210 13:56 13.04.2020
4798 Rain 18 1009 82 10000 4.1 200 13:38 13.04.2020
4799 Clouds 18 1010 82 10000 4.1 200 13:20 13.04.2020
4800 Clouds 17 1010 82 10000 4.1 200 12:58 13.04.2020
4801 Clouds 17 1010 88 10000 3.6 220 12:39 13.04.2020
4802 Rain 17 1010 88 10000 2.1 220 12:20 13.04.2020
4803 Rain 17 1010 88 10000 2.1 220 11:57 13.04.2020
4804 Rain 16 1010 93 10000 0.5 0 11:39 13.04.2020
4805 Rain 16 1010 93 10000 0.5 120 11:18 13.04.2020
4806 Rain 16 1010 93 7000 1 0 10:55 13.04.2020
4807 Rain 16 1010 93 7000 1 0 10:36 13.04.2020
4808 Rain 16 1010 93 10000 2.1 100 10:18 13.04.2020
4809 Rain 16 1010 93 6000 2.6 130 09:44 13.04.2020
4810 Rain 16 1010 93 6000 2.6 130 09:25 13.04.2020
4811 Rain 16 1010 100 2600 1.5 100 08:46 13.04.2020
4812 Rain 16 1010 100 2600 1.5 100 08:27 13.04.2020
4813 Rain 16 1010 100 2600 1.5 100 08:27 13.04.2020
4814 Rain 16 1010 100 3100 1.5 80 07:58 13.04.2020
4815 Rain 16 1010 100 3100 1.5 80 07:38 13.04.2020
4816 Rain 16 1010 93 5000 2.1 50 07:19 13.04.2020
4817 Rain 16 1010 93 4000 1.5 360 06:46 13.04.2020
4818 Rain 16 1011 87 9000 1 0 05:53 13.04.2020
4819 Rain 16 1011 87 9000 1 0 05:27 13.04.2020
4820 Rain 16 1011 93 10000 1 0 04:50 13.04.2020
4821 Rain 16 1011 93 10000 2.6 70 04:20 13.04.2020
4822 Rain 16 1012 93 10000 1.5 90 03:44 13.04.2020
4823 Rain 15 1012 93 10000 2.6 70 02:48 13.04.2020
4824 Drizzle 15 1013 93 10000 1.5 20 01:49 13.04.2020
4825 Drizzle 15 1013 93 10000 1.5 20 01:30 13.04.2020
4826 Drizzle 15 1014 93 10000 3.1 40 00:55 13.04.2020
4827 Drizzle 15 1014 93 10000 3.1 40 00:36 13.04.2020
4828 Rain 15 1014 93 3600 2.6 30 00:18 13.04.2020
4829 Rain 16 1015 82 8000 2.6 80 23:42 12.04.2020
4830 Rain 16 1015 82 10000 2.1 110 23:22 12.04.2020
4831 Rain 16 1015 82 10000 2.1 110 22:55 12.04.2020
4832 Rain 17 1015 72 10000 3.6 90 22:36 12.04.2020
4833 Rain 17 1015 72 10000 3.1 90 22:18 12.04.2020
4834 Clouds 17 1015 72 10000 3.1 90 21:39 12.04.2020
4835 Clouds 17 1014 72 10000 4.6 70 21:20 12.04.2020
4836 Clouds 17 1014 72 10000 4.6 70 20:56 12.04.2020
4837 Clouds 17 1014 67 10000 4.1 90 20:38 12.04.2020
4838 Clouds 18 1015 63 10000 4.6 110 20:19 12.04.2020
4839 Clouds 18 1015 59 10000 4.6 90 19:55 12.04.2020
4840 Clouds 19 1015 59 10000 5.1 100 19:36 12.04.2020
4841 Clouds 19 1015 59 10000 5.1 100 19:18 12.04.2020
4842 Clouds 20 1016 52 10000 4.6 120 18:40 12.04.2020
4843 Clouds 20 1016 52 10000 4.6 120 18:20 12.04.2020
4844 Clouds 20 1016 49 10000 4.6 110 17:56 12.04.2020
4845 Clouds 20 1016 49 10000 4.6 110 17:38 12.04.2020
4846 Clouds 21 1017 49 10000 4.6 110 17:18 12.04.2020
4847 Clouds 21 1017 49 10000 4.6 110 16:56 12.04.2020
4848 Clouds 21 1017 49 10000 4.6 100 16:37 12.04.2020
4849 Clouds 22 1017 40 10000 4.1 130 16:19 12.04.2020
4850 Clouds 21 1018 43 10000 5.1 110 15:41 12.04.2020
4851 Clouds 21 1018 43 10000 5.1 80 15:22 12.04.2020
4852 Clouds 21 1019 37 10000 5.1 90 14:41 12.04.2020
4853 Clouds 21 1019 43 10000 4.6 80 14:22 12.04.2020
4854 Clouds 21 1019 43 10000 4.6 80 13:58 12.04.2020
4855 Clouds 21 1019 40 10000 5.1 100 13:40 12.04.2020
4856 Clouds 20 1020 37 10000 5.7 80 13:21 12.04.2020
4857 Clouds 20 1020 34 10000 5.1 110 12:47 12.04.2020
4858 Clouds 19 1021 40 10000 4.6 100 12:22 12.04.2020
4859 Clouds 19 1021 40 10000 4.6 100 11:59 12.04.2020
4860 Clouds 19 1021 40 10000 5.1 100 11:59 12.04.2020
4861 Clouds 19 1021 40 10000 5.1 100 11:39 12.04.2020
4862 Clouds 18 1021 59 10000 5.1 70 11:20 12.04.2020
4863 Clouds 18 1021 59 10000 5.1 70 10:57 12.04.2020
4864 Clouds 17 1021 63 10000 5.1 70 10:39 12.04.2020
4865 Clouds 17 1021 63 10000 5.1 70 10:39 12.04.2020
4866 Clouds 17 1021 59 10000 3.6 70 10:20 12.04.2020
4867 Clouds 17 1021 59 10000 3.6 70 09:58 12.04.2020
4868 Clouds 15 1021 72 10000 3.1 40 09:39 12.04.2020
4869 Clouds 13 1021 76 10000 1.5 10 09:19 12.04.2020
4870 Clouds 12 1021 76 10000 1.5 10 08:51 12.04.2020
4871 Clouds 12 1021 71 10000 2.1 30 08:32 12.04.2020
4872 Clouds 12 1021 76 10000 2.1 30 07:47 12.04.2020
4873 Clouds 11 1021 66 10000 1 0 07:20 12.04.2020
4874 Clouds 12 1021 58 10000 2.1 280 06:59 12.04.2020
4875 Clouds 12 1021 58 10000 2.1 280 06:31 12.04.2020
4876 Clouds 13 1021 50 10000 1 0 05:49 12.04.2020
4877 Clouds 14 1021 50 10000 1 0 05:27 12.04.2020
4878 Clouds 13 1022 54 10000 2.6 360 03:31 12.04.2020
4879 Clouds 13 1023 50 10000 2.6 360 02:51 12.04.2020
4880 Clouds 13 1023 50 10000 2.6 360 02:30 12.04.2020
4881 Clouds 13 1023 58 10000 2.6 360 01:31 12.04.2020
4882 Clouds 13 1024 62 10000 1.5 350 00:56 12.04.2020
4883 Clouds 13 1024 62 10000 1.5 350 00:38 12.04.2020
4884 Clouds 13 1024 62 10000 1.5 350 00:38 12.04.2020
4885 Clouds 13 1024 62 10000 1.5 10 00:19 12.04.2020
4886 Clouds 13 1024 71 10000 2.1 10 23:44 11.04.2020
4887 Clouds 14 1024 71 10000 1.5 30 23:23 11.04.2020
4888 Clouds 15 1024 67 10000 0.5 320 22:40 11.04.2020
4889 Clouds 15 1024 67 10000 1 0 22:22 11.04.2020
4890 Clouds 16 1024 67 10000 1 0 21:57 11.04.2020
4891 Clouds 16 1023 67 10000 1 0 21:37 11.04.2020
4892 Clear 17 1023 67 10000 1.5 250 21:18 11.04.2020
4893 Clear 17 1023 67 10000 1.5 250 20:57 11.04.2020
4894 Clear 17 1023 63 10000 4.1 220 20:57 11.04.2020
4895 Clear 17 1023 63 10000 4.1 220 20:38 11.04.2020
4896 Clear 18 1022 55 10000 5.1 220 20:20 11.04.2020
4897 Clear 19 1022 48 10000 5.7 230 19:58 11.04.2020
4898 Clear 19 1022 48 10000 5.7 230 19:38 11.04.2020
4899 Clear 19 1022 52 10000 5.7 230 19:19 11.04.2020
4900 Clear 19 1022 42 10000 6.2 220 18:56 11.04.2020
4901 Clear 19 1022 42 10000 5.7 220 18:38 11.04.2020
4902 Clear 19 1022 42 10000 5.7 220 18:19 11.04.2020
4903 Clear 19 1022 42 10000 5.7 220 17:58 11.04.2020
4904 Clear 19 1022 40 10000 6.2 220 17:40 11.04.2020
4905 Clear 20 1023 35 10000 6.2 220 17:20 11.04.2020
4906 Clear 20 1023 37 10000 6.2 220 16:43 11.04.2020
4907 Clear 20 1023 30 10000 6.2 230 16:22 11.04.2020
4908 Clear 20 1023 30 10000 6.2 230 15:59 11.04.2020
4909 Clear 20 1023 30 10000 6.2 230 15:59 11.04.2020
4910 Clear 20 1023 30 10000 5.7 220 15:37 11.04.2020
4911 Clear 21 1024 32 10000 6.2 220 15:18 11.04.2020
4912 Clear 21 1024 37 10000 5.1 230 14:42 11.04.2020
4913 Clear 20 1024 37 10000 5.1 230 14:24 11.04.2020
4914 Clear 20 1024 40 10000 4.6 220 13:59 11.04.2020
4915 Clear 20 1024 42 10000 4.6 220 13:39 11.04.2020
4916 Clear 20 1025 37 10000 3.1 180 13:19 11.04.2020
4917 Clear 19 1025 37 10000 2.6 170 12:42 11.04.2020
4918 Clouds 19 1025 34 10000 3.1 160 12:20 11.04.2020
4919 Clouds 19 1025 34 10000 3.1 160 11:58 11.04.2020
4920 Clouds 19 1025 36 10000 2.1 200 11:39 11.04.2020
4921 Clouds 18 1024 39 10000 1 150 11:19 11.04.2020
4922 Clouds 18 1024 39 10000 1 150 10:55 11.04.2020
4923 Clouds 17 1024 48 10000 1.5 10 10:36 11.04.2020
4924 Clouds 17 1024 48 10000 1.5 10 10:36 11.04.2020
4925 Clouds 16 1024 54 10000 2.1 320 10:18 11.04.2020
4926 Clouds 14 1024 62 10000 1.5 340 09:40 11.04.2020
4927 Clouds 14 1024 62 10000 1.5 340 09:40 11.04.2020
4928 Clouds 11 1024 66 10000 2.1 350 09:22 11.04.2020
4929 Clouds 10 1024 70 10000 2.1 350 08:51 11.04.2020
4930 Clouds 10 1024 70 10000 2.1 350 08:29 11.04.2020
4931 Clouds 10 1023 76 10000 1.5 350 07:56 11.04.2020
4932 Clouds 10 1023 66 10000 1.5 10 07:38 11.04.2020
4933 Clouds 10 1023 66 10000 2.1 350 07:19 11.04.2020
4934 Clouds 10 1023 71 10000 2.1 10 06:35 11.04.2020
4935 Clouds 10 1023 71 10000 1.5 350 05:57 11.04.2020
4936 Clouds 11 1023 71 10000 2.1 360 03:57 11.04.2020
4937 Clouds 11 1024 71 10000 2.6 350 02:51 11.04.2020
4938 Clouds 12 1024 66 10000 2.6 350 01:26 11.04.2020
4939 Clouds 12 1025 66 10000 2.1 350 00:56 11.04.2020
4940 Clouds 12 1025 66 10000 2.1 350 00:38 11.04.2020
4941 Clouds 13 1025 71 10000 2.1 340 00:18 11.04.2020
4942 Clouds 13 1025 71 10000 2.1 340 00:18 11.04.2020
4943 Clouds 13 1024 76 10000 1.5 340 23:42 10.04.2020
4944 Clouds 14 1024 71 10000 0.5 0 23:19 10.04.2020
4945 Clouds 14 1024 71 10000 0.5 0 22:58 10.04.2020
4946 Clouds 15 1024 72 10000 1.5 170 22:38 10.04.2020
4947 Clouds 15 1024 63 10000 1.5 200 22:20 10.04.2020
4948 Clouds 17 1023 63 10000 2.6 200 21:42 10.04.2020
4949 Clouds 16 1023 63 10000 2.6 200 21:42 10.04.2020
4950 Clouds 17 1023 59 10000 3.1 200 21:21 10.04.2020
4951 Clouds 17 1023 59 10000 3.1 200 20:59 10.04.2020
4952 Clouds 18 1023 52 10000 3.1 220 20:40 10.04.2020
4953 Clouds 18 1023 52 10000 3.1 220 20:20 10.04.2020
4954 Clouds 18 1023 52 10000 4.1 210 19:56 10.04.2020
4955 Clouds 18 1023 52 10000 4.1 210 19:38 10.04.2020
4956 Clouds 18 1023 52 10000 4.1 210 19:38 10.04.2020
4957 Clouds 18 1023 48 10000 5.1 210 19:19 10.04.2020
4958 Clouds 19 1023 45 10000 4.6 220 18:56 10.04.2020
4959 Clouds 18 1023 45 10000 4.6 220 18:38 10.04.2020
4960 Clouds 18 1022 45 10000 4.6 210 18:20 10.04.2020
4961 Clouds 18 1022 45 10000 4.6 210 17:57 10.04.2020
4962 Clouds 18 1022 45 10000 3.6 200 17:39 10.04.2020
4963 Clouds 19 1023 42 10000 4.6 220 17:19 10.04.2020
4964 Clouds 19 1023 39 10000 5.1 210 16:46 10.04.2020
4965 Clouds 19 1023 39 10000 5.1 210 16:24 10.04.2020
4966 Clouds 19 1023 45 10000 5.7 230 15:59 10.04.2020
4967 Clouds 20 1023 45 10000 6.2 220 15:40 10.04.2020
4968 Clouds 20 1023 43 10000 6.2 210 15:21 10.04.2020
4969 Clouds 20 1023 43 10000 6.2 210 14:59 10.04.2020
4970 Clouds 20 1023 42 10000 6.7 210 14:41 10.04.2020
4971 Clouds 21 1023 37 10000 5.1 220 14:23 10.04.2020
4972 Clouds 21 1023 30 10000 3.6 130 13:57 10.04.2020
4973 Clouds 20 1023 30 10000 3.6 130 13:39 10.04.2020
4974 Clouds 20 1024 30 10000 2.1 0 13:20 10.04.2020
4975 Clouds 20 1024 30 10000 2.1 140 12:42 10.04.2020
4976 Clouds 19 1024 32 10000 3.1 0 12:22 10.04.2020
4977 Clouds 19 1024 32 10000 3.1 0 11:55 10.04.2020
4978 Clouds 19 1024 32 10000 3.6 70 11:37 10.04.2020
4979 Clouds 18 1023 34 10000 3.1 70 11:18 10.04.2020
4980 Clouds 18 1023 39 10000 3.6 60 10:43 10.04.2020
4981 Clouds 17 1023 39 10000 3.6 60 10:23 10.04.2020
4982 Clouds 17 1023 45 10000 0.5 100 09:57 10.04.2020
4983 Clouds 16 1023 54 10000 1.5 360 09:38 10.04.2020
4984 Clouds 14 1023 58 10000 1.5 340 09:18 10.04.2020
4985 Clouds 12 1023 66 10000 2.6 350 08:42 10.04.2020
4986 Clouds 12 1023 66 10000 2.6 350 08:23 10.04.2020
4987 Clouds 11 1022 71 10000 2.1 340 07:45 10.04.2020
4988 Clouds 11 1022 66 10000 2.6 350 07:24 10.04.2020
4989 Clouds 12 1022 71 10000 2.1 350 06:49 10.04.2020
4990 Clouds 12 1022 71 10000 2.1 350 06:28 10.04.2020
4991 Clouds 11 1022 66 10000 2.6 360 05:40 10.04.2020
4992 Clouds 12 1022 71 10000 2.6 340 04:58 10.04.2020
4993 Clouds 12 1023 66 10000 2.1 10 03:50 10.04.2020
4994 Clouds 12 1023 66 10000 2.1 10 03:31 10.04.2020
4995 Clouds 13 1023 71 10000 2.6 360 02:49 10.04.2020
4996 Clouds 12 1023 71 10000 2.6 360 02:30 10.04.2020
4997 Clouds 12 1023 71 10000 2.1 350 01:30 10.04.2020
4998 Clouds 14 1023 62 10000 1.5 360 00:50 10.04.2020
4999 Clouds 14 1024 67 10000 1 0 00:25 10.04.2020
5000 Clouds 14 1024 67 10000 1 0 23:56 09.04.2020
5001 Clouds 14 1024 67 10000 1.5 60 23:38 09.04.2020
5002 Clouds 15 1023 67 10000 2.1 70 23:20 09.04.2020
5003 Clouds 15 1023 62 10000 2.6 70 22:41 09.04.2020
5004 Clouds 15 1023 62 10000 2.6 70 22:41 09.04.2020
5005 Clouds 15 1023 62 10000 2.6 70 22:23 09.04.2020
5006 Clouds 16 1022 45 10000 1.5 110 21:56 09.04.2020
5007 Clear 17 1022 45 10000 1.5 110 21:37 09.04.2020
5008 Clear 17 1022 52 10000 0.5 0 21:18 09.04.2020
5009 Clear 18 1022 55 10000 2.1 220 20:41 09.04.2020
5010 Clear 18 1022 52 10000 3.6 220 20:21 09.04.2020
5011 Clear 19 1022 49 10000 4.1 230 19:58 09.04.2020
5012 Clear 19 1022 49 10000 4.1 230 19:37 09.04.2020
5013 Clear 19 1022 49 10000 5.1 230 19:18 09.04.2020
5014 Clear 20 1021 43 10000 4.6 240 18:41 09.04.2020
5015 Clear 20 1021 46 10000 5.1 220 18:20 09.04.2020
5016 Clear 21 1022 43 10000 5.7 230 17:42 09.04.2020
5017 Clear 21 1022 40 10000 5.1 230 17:24 09.04.2020
5018 Clear 21 1022 40 10000 5.1 230 16:56 09.04.2020
5019 Clear 21 1022 40 10000 5.1 230 16:38 09.04.2020
5020 Clear 21 1022 40 10000 5.1 230 16:38 09.04.2020
5021 Clear 21 1022 40 10000 5.7 230 16:19 09.04.2020
5022 Clear 21 1023 40 10000 5.7 230 15:55 09.04.2020
5023 Clear 21 1023 40 10000 5.7 230 15:37 09.04.2020
5024 Clear 21 1023 40 10000 4.6 220 15:18 09.04.2020
5025 Clear 20 1023 40 10000 4.6 220 15:18 09.04.2020
5026 Clear 21 1023 37 10000 5.1 220 14:41 09.04.2020
5027 Clear 20 1023 37 10000 3.1 150 14:21 09.04.2020
5028 Clear 20 1023 33 10000 3.6 150 13:54 09.04.2020
5029 Clear 20 1023 33 10000 3.6 150 13:36 09.04.2020
5030 Clear 20 1023 32 10000 3.6 130 13:18 09.04.2020
5031 Clear 20 1024 40 10000 3.1 130 12:42 09.04.2020
5032 Clear 19 1024 40 10000 3.1 110 12:23 09.04.2020
5033 Clear 19 1024 40 10000 3.1 110 11:58 09.04.2020
5034 Clear 19 1024 39 10000 2.6 80 11:38 09.04.2020
5035 Clear 18 1024 39 10000 2.1 120 11:20 09.04.2020
5036 Clear 18 1024 39 10000 2.1 120 10:57 09.04.2020
5037 Clear 18 1024 39 10000 1.5 50 10:38 09.04.2020
5038 Clear 17 1024 51 10000 1.5 10 10:19 09.04.2020
5039 Clear 16 1024 51 10000 1.5 10 09:55 09.04.2020
5040 Clear 15 1024 58 10000 2.1 350 09:37 09.04.2020
5041 Clouds 13 1023 62 10000 2.1 340 09:19 09.04.2020
5042 Clouds 12 1023 71 10000 2.1 340 08:43 09.04.2020
5043 Clouds 11 1023 71 10000 2.1 340 08:23 09.04.2020
5044 Clouds 11 1023 66 10000 2.6 360 07:52 09.04.2020
5045 Clouds 11 1023 66 10000 2.6 10 07:24 09.04.2020
5046 Clouds 11 1023 66 10000 1.5 340 06:51 09.04.2020
5047 Clouds 11 1023 66 10000 2.6 10 05:59 09.04.2020
5048 Clouds 11 1023 71 10000 2.6 340 05:38 09.04.2020
5049 Clouds 12 1024 71 10000 2.6 350 03:36 09.04.2020
5050 Clear 12 1024 71 10000 2.6 330 02:21 09.04.2020
5051 Clear 13 1024 71 10000 2.1 350 01:40 09.04.2020
5052 Clear 13 1025 76 10000 2.1 350 01:20 09.04.2020
5053 Clear 13 1025 76 10000 2.1 350 00:40 09.04.2020
5054 Clear 13 1025 71 10000 1.5 10 00:19 09.04.2020
5055 Clear 13 1025 71 10000 1.5 10 23:57 08.04.2020
5056 Clear 14 1025 71 10000 1.5 10 23:39 08.04.2020
5057 Clear 14 1025 71 10000 1.5 10 23:20 08.04.2020
5058 Clear 14 1025 72 10000 0.5 0 22:43 08.04.2020
5059 Clear 15 1025 72 10000 0.5 0 22:24 08.04.2020
5060 Clear 15 1025 72 10000 0.5 0 21:56 08.04.2020
5061 Clear 16 1025 72 10000 0.5 0 21:37 08.04.2020
5062 Clear 16 1024 67 10000 1.5 220 21:19 08.04.2020
5063 Clear 17 1024 67 10000 1.5 220 20:57 08.04.2020
5064 Clear 17 1024 63 10000 3.1 230 20:38 08.04.2020
5065 Clear 17 1024 59 10000 4.6 220 20:19 08.04.2020
5066 Clear 18 1024 59 10000 5.1 230 19:42 08.04.2020
5067 Clear 18 1024 59 10000 5.1 230 19:22 08.04.2020
5068 Clear 19 1024 59 10000 5.1 230 18:59 08.04.2020
5069 Clear 19 1024 59 10000 5.1 230 18:40 08.04.2020
5070 Clear 18 1024 52 10000 7.2 220 18:22 08.04.2020
5071 Clear 19 1024 52 10000 6.7 220 17:44 08.04.2020
5072 Clear 19 1024 55 10000 6.2 220 17:22 08.04.2020
5073 Clear 19 1024 55 10000 6.2 220 17:22 08.04.2020
5074 Clear 19 1024 52 10000 6.2 220 16:59 08.04.2020
5075 Clear 19 1024 52 10000 6.2 220 16:41 08.04.2020
5076 Clear 19 1024 52 10000 6.2 220 16:22 08.04.2020
5077 Clear 20 1025 49 10000 4.6 210 15:55 08.04.2020
5078 Clear 20 1025 49 10000 4.6 210 15:36 08.04.2020
5079 Clouds 20 1025 49 10000 4.6 210 15:18 08.04.2020
5080 Clouds 20 1025 45 10000 4.1 210 14:42 08.04.2020
5081 Clouds 19 1026 42 10000 2.1 340 14:23 08.04.2020
5082 Clouds 20 1026 45 10000 1.5 360 13:45 08.04.2020
5083 Clouds 19 1026 42 10000 1 270 13:23 08.04.2020
5084 Clouds 19 1026 34 10000 2.1 50 13:00 08.04.2020
5085 Clouds 19 1026 34 10000 2.1 50 12:41 08.04.2020
5086 Clouds 18 1026 29 10000 1.5 0 12:18 08.04.2020
5087 Clouds 18 1026 29 10000 1.5 0 11:55 08.04.2020
5088 Clouds 18 1027 39 10000 2.1 80 11:37 08.04.2020
5089 Clouds 17 1026 45 10000 2.1 70 11:19 08.04.2020
5090 Clouds 17 1026 55 10000 2.1 50 10:54 08.04.2020
5091 Clouds 16 1026 55 10000 2.1 50 10:36 08.04.2020
5092 Clouds 16 1027 58 10000 1.5 30 10:18 08.04.2020
5093 Clouds 14 1026 62 10000 1 0 09:42 08.04.2020
5094 Clear 13 1026 62 10000 1 0 09:20 08.04.2020
5095 Clear 13 1026 66 10000 2.1 40 08:58 08.04.2020
5096 Clear 13 1026 66 10000 2.1 40 08:58 08.04.2020
5097 Clear 12 1026 66 10000 2.1 360 08:40 08.04.2020
5098 Clear 12 1026 66 10000 2.6 340 08:21 08.04.2020
5099 Clear 11 1026 71 10000 1 350 07:43 08.04.2020
5100 Clear 11 1026 71 10000 2.1 350 07:22 08.04.2020
5101 Clear 12 1026 66 10000 0.5 0 06:43 08.04.2020
5102 Clear 12 1026 71 10000 2.1 350 05:49 08.04.2020
5103 Clouds 12 1027 76 10000 2.1 340 03:22 08.04.2020
5104 Clouds 12 1027 81 10000 1 340 02:38 08.04.2020
5105 Clouds 13 1028 82 10000 1 0 02:18 08.04.2020
5106 Clouds 13 1028 82 10000 1.5 340 01:30 08.04.2020
5107 Clouds 13 1028 67 10000 2.1 350 00:57 08.04.2020
5108 Clouds 14 1028 58 10000 2.1 40 00:39 08.04.2020
5109 Clouds 14 1028 67 10000 1.5 30 00:19 08.04.2020
5110 Clouds 15 1028 67 10000 1 0 23:39 07.04.2020
5111 Clouds 15 1028 62 10000 0.5 0 23:20 07.04.2020
5112 Clouds 15 1028 62 10000 0.5 0 22:56 07.04.2020
5113 Clouds 15 1027 62 10000 1 210 22:38 07.04.2020
5114 Clouds 15 1027 59 10000 1 200 22:19 07.04.2020
5115 Clouds 16 1027 59 10000 1 200 21:55 07.04.2020
5116 Clouds 15 1027 62 10000 1.5 210 21:37 07.04.2020
5117 Clouds 16 1027 63 10000 2.6 200 21:18 07.04.2020
5118 Clouds 16 1027 63 10000 2.6 200 20:55 07.04.2020
5119 Clouds 16 1027 63 10000 2.6 200 20:55 07.04.2020
5120 Clouds 16 1027 63 10000 2.6 200 20:36 07.04.2020
5121 Clouds 16 1027 63 10000 2.6 200 20:18 07.04.2020
5122 Clouds 16 1026 63 10000 3.6 200 19:55 07.04.2020
5123 Clouds 17 1026 63 10000 4.1 210 19:36 07.04.2020
5124 Clouds 17 1026 63 10000 4.1 210 19:18 07.04.2020
5125 Clouds 18 1026 55 10000 5.7 230 18:41 07.04.2020
5126 Clouds 18 1026 48 10000 6.7 230 18:21 07.04.2020
5127 Clouds 18 1026 52 10000 6.2 220 17:57 07.04.2020
5128 Clouds 19 1026 52 10000 6.2 220 17:38 07.04.2020
5129 Clouds 19 1026 45 10000 6.2 220 17:20 07.04.2020
5130 Clouds 19 1027 48 10000 6.2 210 16:45 07.04.2020
5131 Clouds 19 1027 48 10000 6.2 220 16:26 07.04.2020
5132 Clouds 19 1027 52 10000 6.2 220 15:46 07.04.2020
5133 Clouds 19 1027 52 10000 6.2 220 15:27 07.04.2020
5134 Clouds 19 1027 52 10000 6.2 220 14:58 07.04.2020
5135 Clouds 19 1027 49 10000 3.6 190 14:39 07.04.2020
5136 Clouds 19 1027 49 10000 3.6 190 14:20 07.04.2020
5137 Clouds 19 1027 42 10000 3.1 130 13:54 07.04.2020
5138 Clouds 19 1027 42 10000 3.6 130 13:36 07.04.2020
5139 Clouds 19 1028 45 10000 2.6 0 13:18 07.04.2020
5140 Clouds 18 1028 45 10000 3.6 60 12:40 07.04.2020
5141 Clouds 18 1028 45 10000 3.6 40 12:22 07.04.2020
5142 Clouds 17 1028 45 10000 3.6 40 11:59 07.04.2020
5143 Clouds 17 1028 51 10000 3.6 70 11:41 07.04.2020
5144 Clouds 16 1028 51 10000 2.6 80 11:21 07.04.2020
5145 Clouds 16 1027 55 10000 2.6 80 10:56 07.04.2020
5146 Clouds 16 1027 55 10000 2.6 80 10:37 07.04.2020
5147 Clouds 14 1027 54 10000 1.5 30 10:18 07.04.2020
5148 Clouds 12 1027 54 10000 2.1 340 09:44 07.04.2020
5149 Clouds 11 1027 57 10000 2.1 340 09:18 07.04.2020
5150 Clouds 10 1027 57 10000 1.5 10 08:42 07.04.2020
5151 Clouds 10 1027 57 10000 1.5 10 08:24 07.04.2020
5152 Clouds 9 1027 61 10000 2.6 360 07:59 07.04.2020
5153 Clouds 10 1027 61 10000 2.6 10 07:40 07.04.2020
5154 Clouds 9 1026 57 10000 2.1 350 07:21 07.04.2020
5155 Clouds 10 1026 61 10000 2.1 310 06:49 07.04.2020
5156 Clouds 10 1026 61 10000 1 0 06:21 07.04.2020
5157 Clouds 11 1026 53 10000 2.6 350 05:38 07.04.2020
5158 Clouds 11 1027 53 10000 2.1 350 04:40 07.04.2020
5159 Clouds 11 1027 57 10000 2.1 360 03:25 07.04.2020
5160 Clouds 11 1027 57 10000 2.6 350 02:48 07.04.2020
5161 Clouds 11 1027 71 10000 1.5 330 01:48 07.04.2020
5162 Clouds 12 1027 76 10000 1 350 01:25 07.04.2020
5163 Clouds 12 1027 71 10000 1.5 350 00:29 07.04.2020
5164 Clouds 13 1027 66 10000 1 0 23:55 06.04.2020
5165 Clouds 12 1027 66 10000 2.1 350 23:36 06.04.2020
5166 Clouds 13 1027 62 10000 1.5 360 23:18 06.04.2020
5167 Clouds 14 1027 62 10000 1.5 350 22:39 06.04.2020
5168 Clouds 14 1027 62 10000 0.5 0 22:21 06.04.2020
5169 Clouds 14 1027 62 10000 0.5 0 21:57 06.04.2020
5170 Clouds 15 1026 67 10000 1.5 200 21:39 06.04.2020
5171 Clouds 15 1026 62 10000 2.1 210 21:19 06.04.2020
5172 Clouds 15 1026 62 10000 2.1 210 20:55 06.04.2020
5173 Clouds 16 1025 55 10000 2.6 210 20:37 06.04.2020
5174 Clouds 16 1025 51 10000 3.6 210 20:18 06.04.2020
5175 Clouds 17 1025 51 10000 4.1 220 19:41 06.04.2020
5176 Clouds 17 1025 45 10000 4.1 210 19:23 06.04.2020
5177 Clouds 17 1025 45 10000 4.1 210 18:59 06.04.2020
5178 Clouds 18 1025 42 10000 5.7 210 18:40 06.04.2020
5179 Clouds 18 1025 39 10000 5.7 220 18:22 06.04.2020
5180 Clouds 18 1025 36 10000 5.7 210 17:55 06.04.2020
5181 Clouds 18 1025 36 10000 5.7 210 17:36 06.04.2020
5182 Clouds 18 1025 34 10000 5.7 220 17:18 06.04.2020
5183 Clouds 19 1025 32 10000 6.2 230 16:44 06.04.2020
5184 Clouds 19 1025 42 10000 5.7 210 16:26 06.04.2020
5185 Clouds 19 1026 37 10000 6.2 220 14:45 06.04.2020
5186 Clouds 19 1025 37 10000 5.1 210 14:45 06.04.2020
5187 Clouds 19 1026 37 10000 6.2 220 14:45 06.04.2020
5188 Clouds 19 1026 37 10000 6.2 220 14:45 06.04.2020
5189 Clouds 19 1026 37 10000 6.2 220 14:45 06.04.2020
5190 Clouds 19 1025 48 10000 5.7 220 13:44 06.04.2020
5191 Clouds 18 1026 45 10000 5.7 220 13:44 06.04.2020
5192 Clouds 19 1025 48 10000 5.7 220 13:44 06.04.2020
5193 Clouds 19 1025 48 10000 5.7 220 13:44 06.04.2020
5194 Clouds 18 1025 48 10000 5.7 220 13:20 06.04.2020
5195 Clouds 18 1025 48 10000 3.6 180 13:20 06.04.2020
5196 Clouds 18 1025 48 10000 3.6 180 13:20 06.04.2020
5197 Clouds 18 1025 48 10000 1.5 180 12:26 06.04.2020
5198 Clouds 18 1025 48 10000 1.5 180 12:26 06.04.2020
5199 Clouds 18 1025 48 10000 1.5 180 12:26 06.04.2020
5200 Clouds 18 1025 48 10000 2.6 180 12:01 06.04.2020
5201 Clouds 17 1025 48 10000 2.1 150 11:40 06.04.2020
5202 Clouds 17 1025 48 10000 2.1 150 11:38 06.04.2020
5203 Clouds 17 1025 48 10000 2.1 150 11:36 06.04.2020
5204 Clouds 17 1025 48 10000 2.1 150 11:36 06.04.2020
5205 Clouds 17 1025 48 10000 2.1 150 11:36 06.04.2020
5206 Clouds 16 1024 63 10000 2.6 50 10:52 06.04.2020
5207 Clouds 16 1025 63 10000 1.5 70 10:52 06.04.2020
5208 Clouds 16 1025 63 10000 1.5 70 10:52 06.04.2020
5209 Clouds 16 1025 63 10000 1.5 70 10:52 06.04.2020
5210 Clouds 16 1025 63 10000 1.5 70 10:52 06.04.2020
5211 Clouds 16 1024 63 10000 2.6 50 10:23 06.04.2020
5212 Clouds 16 1024 63 10000 2.6 50 10:23 06.04.2020
5213 Clouds 16 1024 63 10000 2.6 50 10:23 06.04.2020
5214 Clouds 15 1024 67 10000 3.1 60 09:53 06.04.2020
5215 Clouds 15 1024 67 10000 3.1 60 09:53 06.04.2020
5216 Clouds 15 1024 67 10000 3.1 60 09:53 06.04.2020
5217 Clouds 15 1024 67 10000 3.1 60 09:53 06.04.2020
5218 Clouds 15 1024 67 10000 3.1 60 09:53 06.04.2020
5219 Clouds 12 1024 66 10000 2.1 10 09:24 06.04.2020
5220 Clouds 10 1024 76 10000 2.1 10 08:55 06.04.2020
5221 Clouds 10 1024 76 10000 2.1 10 08:55 06.04.2020
5222 Clouds 9 1023 75 10000 2.1 10 08:36 06.04.2020
5223 Clouds 9 1023 75 10000 2.1 10 08:36 06.04.2020
5224 Clouds 9 1023 75 10000 2.1 10 08:36 06.04.2020
5225 Clouds 8 1023 75 10000 2.1 330 07:55 06.04.2020
5226 Clouds 8 1023 70 10000 3.1 10 07:19 06.04.2020
5227 Clouds 9 1023 70 10000 2.6 340 06:26 06.04.2020
5228 Clear 9 1022 76 10000 2.6 350 05:39 06.04.2020
5229 Clear 9 1022 76 10000 2.6 350 05:35 06.04.2020
5230 Clear 9 1022 76 10000 2.6 350 05:26 06.04.2020
5231 Clear 11 1022 71 10000 2.1 360 03:29 06.04.2020
5232 Clouds 11 1023 71 10000 1.5 330 02:48 06.04.2020
5233 Clouds 11 1023 71 10000 1.5 330 01:52 06.04.2020
5234 Clouds 11 1023 71 10000 2.6 350 00:51 06.04.2020
5235 Clouds 11 1022 76 10000 2.6 340 00:27 06.04.2020
5236 Clouds 11 1022 76 10000 2.6 340 00:27 06.04.2020
5237 Clouds 11 1022 76 10000 2.1 340 23:49 05.04.2020
5238 Clouds 11 1022 76 10000 2.1 340 23:30 05.04.2020
5239 Clouds 12 1022 76 10000 2.1 340 23:30 05.04.2020
5240 Clouds 12 1022 81 10000 1 0 22:56 05.04.2020
5241 Clouds 12 1022 76 10000 0.5 0 22:38 05.04.2020
5242 Clouds 12 1022 76 10000 0.5 0 22:38 05.04.2020
5243 Clouds 13 1022 76 10000 0.5 0 22:19 05.04.2020
5244 Clouds 13 1021 71 10000 1 100 21:58 05.04.2020
5245 Clouds 14 1021 71 10000 1 160 21:39 05.04.2020
5246 Clouds 15 1021 71 10000 1 160 21:21 05.04.2020
5247 Clouds 16 1021 62 10000 2.1 210 20:21 05.04.2020
5248 Clouds 16 1021 59 10000 4.1 210 19:41 05.04.2020
5249 Clouds 16 1021 59 10000 4.1 210 19:22 05.04.2020
5250 Clouds 17 1021 63 10000 4.1 210 18:47 05.04.2020
5251 Clouds 17 1021 63 10000 4.6 220 17:59 05.04.2020
5252 Clouds 17 1021 63 10000 4.6 220 17:59 05.04.2020
5253 Clouds 17 1021 63 10000 4.6 220 17:59 05.04.2020
5254 Clouds 17 1021 63 10000 5.1 220 17:40 05.04.2020
5255 Clouds 17 1021 63 10000 5.1 220 17:40 05.04.2020
5256 Clouds 17 1021 63 10000 5.1 220 17:40 05.04.2020
5257 Clouds 17 1021 63 10000 5.1 220 17:40 05.04.2020
5258 Clouds 17 1021 63 10000 5.1 220 17:40 05.04.2020
5259 Clouds 17 1021 63 10000 5.1 220 17:20 05.04.2020
5260 Clouds 17 1021 59 10000 5.7 210 16:46 05.04.2020
5261 Clouds 17 1021 59 10000 5.7 210 16:46 05.04.2020
5262 Clouds 18 1021 45 10000 5.7 220 16:46 05.04.2020
5263 Clouds 17 1021 59 10000 5.7 210 16:46 05.04.2020
5264 Clouds 18 1021 45 10000 5.7 220 16:46 05.04.2020
5265 Clouds 18 1021 45 10000 5.7 220 16:18 05.04.2020
5266 Clouds 18 1021 48 10000 5.7 220 15:45 05.04.2020
5267 Clouds 18 1021 52 10000 5.1 210 15:25 05.04.2020
5268 Clouds 18 1021 52 10000 4.1 210 14:48 05.04.2020
5269 Clouds 18 1021 52 10000 4.1 210 14:48 05.04.2020
5270 Clouds 18 1021 52 10000 4.1 210 14:48 05.04.2020
5271 Clouds 18 1021 52 10000 4.1 210 14:48 05.04.2020
5272 Clouds 19 1022 42 10000 4.1 110 13:47 05.04.2020
5273 Clouds 19 1022 42 10000 4.1 110 13:47 05.04.2020
5274 Clouds 18 1022 39 10000 2.1 0 13:01 05.04.2020
5275 Clouds 17 1022 36 10000 2.6 0 11:58 05.04.2020
5276 Clouds 16 1022 51 10000 2.1 70 11:39 05.04.2020
5277 Clouds 16 1022 51 10000 2.1 70 11:19 05.04.2020
5278 Clouds 15 1022 58 10000 0.5 20 10:45 05.04.2020
5279 Clouds 14 1022 58 10000 0.5 20 10:21 05.04.2020
5280 Clouds 13 1022 58 10000 0.5 0 09:52 05.04.2020
5281 Clouds 13 1022 58 10000 0.5 0 09:52 05.04.2020
5282 Clouds 11 1022 71 10000 1.5 340 09:25 05.04.2020
5283 Clouds 11 1022 71 10000 1.5 340 09:25 05.04.2020
5284 Clouds 11 1022 71 10000 1.5 340 09:25 05.04.2020
5285 Clouds 11 1022 71 10000 1.5 340 09:25 05.04.2020
5286 Clouds 11 1022 71 10000 1.5 340 09:25 05.04.2020
5287 Clouds 7 1021 75 10000 2.6 350 07:58 05.04.2020
5288 Clear 8 1021 87 10000 2.6 10 05:12 05.04.2020
5289 Clear 8 1021 93 10000 2.1 10 03:58 05.04.2020
5290 Clear 9 1022 87 10000 2.6 350 03:24 05.04.2020
5291 Clear 10 1022 87 10000 2.1 350 01:57 05.04.2020
5292 Clear 10 1022 87 10000 2.1 360 01:39 05.04.2020
5293 Clear 10 1022 81 10000 2.1 330 00:52 05.04.2020
5294 Clear 11 1022 81 10000 2.1 310 00:23 05.04.2020
5295 Clear 11 1022 81 10000 2.1 310 23:58 04.04.2020
5296 Clear 12 1022 81 10000 1 80 23:39 04.04.2020
5297 Clear 12 1022 81 10000 1 80 23:21 04.04.2020
5298 Clear 12 1022 76 10000 2.1 340 22:56 04.04.2020
5299 Clear 13 1022 71 10000 1 120 22:38 04.04.2020
5300 Clear 13 1022 71 10000 1 120 22:19 04.04.2020
5301 Clear 13 1022 71 10000 1 180 21:56 04.04.2020
5302 Clear 14 1021 76 10000 1.5 190 21:38 04.04.2020
5303 Clouds 14 1021 76 10000 1.5 190 21:18 04.04.2020
5304 Clouds 15 1021 72 10000 2.1 200 20:54 04.04.2020
5305 Clouds 15 1021 67 10000 2.6 200 20:36 04.04.2020
5306 Clouds 16 1021 67 10000 2.6 200 20:18 04.04.2020
5307 Clouds 16 1021 63 10000 4.1 200 19:41 04.04.2020
5308 Clouds 16 1021 59 10000 5.1 210 19:20 04.04.2020
5309 Clouds 17 1021 59 10000 5.1 210 18:59 04.04.2020
5310 Clouds 17 1020 59 10000 4.6 200 18:39 04.04.2020
5311 Clouds 17 1020 59 10000 4.6 200 18:21 04.04.2020
5312 Clouds 17 1020 59 10000 4.6 200 18:21 04.04.2020
5313 Clouds 18 1020 48 10000 5.1 210 17:59 04.04.2020
5314 Clouds 18 1020 48 10000 5.7 210 17:39 04.04.2020
5315 Clouds 18 1020 48 10000 5.7 210 17:39 04.04.2020
5316 Clouds 18 1020 48 10000 5.7 210 17:19 04.04.2020
5317 Clouds 18 1021 52 10000 6.2 200 16:46 04.04.2020
5318 Clouds 18 1021 52 10000 6.2 200 16:27 04.04.2020
5319 Clouds 18 1021 48 10000 6.2 200 15:59 04.04.2020
5320 Clouds 19 1021 45 10000 5.1 220 15:39 04.04.2020
5321 Clear 18 1021 45 10000 5.1 220 15:20 04.04.2020
5322 Clear 18 1021 55 10000 6.2 210 14:56 04.04.2020
5323 Clear 19 1021 48 10000 4.1 210 14:37 04.04.2020
5324 Clear 19 1021 48 10000 4.1 210 14:18 04.04.2020
5325 Clear 18 1021 52 10000 3.6 230 13:54 04.04.2020
5326 Clear 18 1021 48 10000 3.6 220 13:36 04.04.2020
5327 Clear 18 1021 48 10000 3.6 220 13:18 04.04.2020
5328 Clear 18 1022 59 10000 3.6 210 12:42 04.04.2020
5329 Clear 17 1022 59 10000 3.6 210 12:23 04.04.2020
5330 Clear 17 1022 55 10000 2.6 160 11:54 04.04.2020
5331 Clear 16 1022 59 10000 1.5 160 11:36 04.04.2020
5332 Clear 16 1022 59 10000 1.5 160 11:18 04.04.2020
5333 Clear 16 1021 72 10000 1 0 10:55 04.04.2020
5334 Clear 15 1021 71 10000 0.5 220 10:37 04.04.2020
5335 Clear 14 1021 71 10000 0.5 220 10:18 04.04.2020
5336 Clear 12 1021 81 10000 0.5 0 09:42 04.04.2020
5337 Clear 10 1021 81 10000 0.5 0 09:24 04.04.2020
5338 Clear 9 1021 81 10000 1.5 10 08:58 04.04.2020
5339 Clear 8 1020 87 10000 1.5 360 08:38 04.04.2020
5340 Clear 8 1020 87 10000 1.5 360 08:19 04.04.2020
5341 Clear 7 1020 81 10000 1 50 07:40 04.04.2020
5342 Clear 7 1020 81 10000 1 50 07:22 04.04.2020
5343 Clear 7 1019 81 10000 0.5 30 06:46 04.04.2020
5344 Clear 7 1020 81 10000 1 30 06:18 04.04.2020
5345 Clear 8 1020 81 10000 2.6 340 05:40 04.04.2020
5346 Clear 8 1020 81 10000 2.6 340 05:22 04.04.2020
5347 Clear 8 1020 81 10000 1.5 350 04:25 04.04.2020
5348 Clear 8 1020 81 10000 2.1 340 03:47 04.04.2020
5349 Clear 8 1020 81 10000 2.1 350 02:49 04.04.2020
5350 Clear 8 1020 81 10000 2.1 360 02:30 04.04.2020
5351 Clear 8 1020 87 10000 2.6 350 01:51 04.04.2020
5352 Clear 9 1020 81 10000 2.1 350 01:22 04.04.2020
5353 Clear 9 1020 76 10000 1.5 360 00:47 04.04.2020
5354 Clear 9 1020 76 10000 1.5 360 00:27 04.04.2020
5355 Clear 10 1019 76 10000 1.5 330 23:39 03.04.2020
5356 Clear 11 1019 58 10000 1 350 23:21 03.04.2020
5357 Clear 11 1019 58 10000 1 350 22:57 03.04.2020
5358 Clear 12 1019 58 10000 1.5 20 22:39 03.04.2020
5359 Clear 11 1019 58 10000 1.5 20 22:18 03.04.2020
5360 Clear 13 1018 58 10000 2.1 30 21:43 03.04.2020
5361 Clear 13 1018 50 10000 1.5 60 21:24 03.04.2020
5362 Clear 14 1018 50 10000 1 0 20:57 03.04.2020
5363 Clear 14 1018 50 10000 1 0 20:57 03.04.2020
5364 Clear 14 1017 47 10000 2.6 70 20:37 03.04.2020
5365 Clear 15 1017 47 10000 2.6 70 20:19 03.04.2020
5366 Clear 16 1017 41 10000 3.6 80 19:57 03.04.2020
5367 Clear 16 1017 39 10000 5.1 80 19:38 03.04.2020
5368 Clear 17 1017 39 10000 5.1 80 19:20 03.04.2020
5369 Clear 17 1017 39 10000 5.1 80 18:59 03.04.2020
5370 Clear 17 1016 42 10000 4.6 90 18:41 03.04.2020
5371 Clouds 17 1016 42 10000 6.2 80 18:22 03.04.2020
5372 Clouds 17 1016 48 10000 6.2 70 17:55 03.04.2020
5373 Clouds 17 1016 48 10000 6.2 70 17:37 03.04.2020
5374 Clouds 17 1016 51 10000 6.7 80 17:18 03.04.2020
5375 Clouds 17 1016 55 10000 6.2 80 16:44 03.04.2020
5376 Clouds 17 1016 55 10000 6.2 80 16:22 03.04.2020
5377 Clouds 17 1016 55 10000 5.1 70 15:58 03.04.2020
5378 Clouds 17 1016 55 10000 5.1 70 15:40 03.04.2020
5379 Clouds 17 1016 55 10000 5.7 60 15:21 03.04.2020
5380 Clouds 16 1017 60 0 3.58 51 14:56 03.04.2020
5381 Clouds 16 1016 51 10000 5.1 20 14:38 03.04.2020
5382 Clouds 16 1016 51 10000 5.1 20 14:20 03.04.2020
5383 Clouds 16 1016 51 10000 5.1 20 13:43 03.04.2020
5384 Clouds 16 1016 51 10000 5.1 20 13:25 03.04.2020
5385 Clouds 16 1016 48 10000 5.1 30 12:56 03.04.2020
5386 Clouds 16 1016 51 10000 5.7 40 12:37 03.04.2020
5387 Clouds 16 1016 51 10000 5.7 40 12:18 03.04.2020
5388 Clouds 16 1016 48 10000 5.7 40 11:54 03.04.2020
5389 Clouds 15 1015 51 10000 7.2 20 11:36 03.04.2020
5390 Clouds 16 1015 51 10000 7.2 20 11:18 03.04.2020
5391 Clouds 15 1015 51 10000 6.2 30 10:54 03.04.2020
5392 Clouds 15 1015 51 10000 6.2 30 10:36 03.04.2020
5393 Clouds 15 1014 54 10000 4.6 50 10:18 03.04.2020
5394 Clouds 14 1014 62 10000 5.1 30 09:40 03.04.2020
5395 Clouds 14 1014 62 10000 5.1 30 09:22 03.04.2020
5396 Rain 13 1014 62 10000 5.1 30 09:22 03.04.2020
5397 Clouds 14 1014 58 10000 4.1 40 08:57 03.04.2020
5398 Clouds 13 1013 62 10000 3.1 40 08:39 03.04.2020
5399 Clouds 13 1013 62 10000 3.6 40 08:20 03.04.2020
5400 Clouds 13 1012 62 10000 4.6 30 07:50 03.04.2020
5401 Clouds 13 1012 62 10000 4.6 30 07:31 03.04.2020
5402 Clouds 13 1012 62 10000 3.1 30 06:49 03.04.2020
5403 Clouds 13 1012 62 10000 3.1 30 06:24 03.04.2020
5404 Clouds 13 1012 76 10000 3.1 30 05:40 03.04.2020
5405 Clouds 12 1012 87 10000 2.6 50 03:45 03.04.2020
5406 Rain 12 1012 81 10000 1.5 350 02:56 03.04.2020
5407 Rain 12 1012 81 10000 2.1 350 02:27 03.04.2020
5408 Rain 12 1012 87 10000 1.5 20 01:23 03.04.2020
5409 Rain 13 1012 87 10000 3.6 50 00:40 03.04.2020
5410 Rain 13 1012 87 10000 3.6 50 00:20 03.04.2020
5411 Rain 13 1012 87 10000 3.1 50 23:42 02.04.2020
5412 Rain 13 1012 87 10000 3.1 50 23:23 02.04.2020
5413 Rain 13 1012 87 10000 3.1 50 22:58 02.04.2020
5414 Rain 13 1012 87 10000 2.1 50 22:39 02.04.2020
5415 Rain 13 1012 87 10000 2.1 50 22:20 02.04.2020
5416 Rain 13 1011 87 10000 2.1 60 21:54 02.04.2020
5417 Rain 13 1011 87 10000 2.6 60 21:36 02.04.2020
5418 Rain 13 1011 87 10000 2.6 60 21:18 02.04.2020
5419 Rain 14 1010 82 10000 6.2 50 20:42 02.04.2020
5420 Rain 14 1010 82 10000 6.2 50 20:22 02.04.2020
5421 Rain 14 1010 87 10000 6.7 60 19:55 02.04.2020
5422 Rain 14 1010 87 10000 6.7 60 19:37 02.04.2020
5423 Rain 14 1009 76 10000 6.2 60 19:18 02.04.2020
5424 Rain 15 1009 72 10000 7.2 70 18:41 02.04.2020
5425 Rain 16 1009 67 10000 5.1 70 18:21 02.04.2020
5426 Rain 16 1009 67 10000 5.1 70 18:21 02.04.2020
5427 Rain 15 1009 67 10000 5.1 70 17:57 02.04.2020
5428 Rain 16 1009 67 10000 1.5 70 17:39 02.04.2020
5429 Rain 17 1009 67 10000 1.5 70 17:20 02.04.2020
5430 Rain 15 1009 72 10000 2.6 60 16:56 02.04.2020
5431 Rain 16 1009 72 10000 1.5 360 16:38 02.04.2020
5432 Thunderstorm 15 1009 72 10000 1 40 16:20 02.04.2020
5433 Thunderstorm 15 1009 72 10000 1 40 15:55 02.04.2020
5434 Thunderstorm 15 1010 72 10000 3.1 130 15:37 02.04.2020
5435 Thunderstorm 16 1010 72 10000 3.1 130 15:18 02.04.2020
5436 Thunderstorm 17 1009 63 10000 6.7 70 14:40 02.04.2020
5437 Thunderstorm 16 1009 63 10000 6.7 70 14:21 02.04.2020
5438 Thunderstorm 17 1009 63 10000 2.1 340 13:59 02.04.2020
5439 Thunderstorm 17 1009 68 10000 1 300 13:40 02.04.2020
5440 Thunderstorm 17 1009 68 10000 1 300 13:21 02.04.2020
5441 Clouds 17 1009 77 10000 1.5 120 12:57 02.04.2020
5442 Thunderstorm 16 1009 77 10000 1.5 170 12:39 02.04.2020
5443 Rain 16 1009 77 10000 3.6 140 12:19 02.04.2020
5444 Rain 16 1009 77 10000 3.6 140 12:19 02.04.2020
5445 Rain 16 1009 77 10000 3.6 140 12:19 02.04.2020
5446 Rain 16 1009 77 10000 3.6 140 12:19 02.04.2020
5447 Rain 16 1009 77 10000 3.6 140 12:19 02.04.2020
5448 Rain 16 1009 77 10000 3.6 140 11:57 02.04.2020
5449 Rain 16 1009 82 10000 1.5 100 11:38 02.04.2020
5450 Rain 16 1009 82 10000 1.5 100 11:19 02.04.2020
5451 Rain 16 1009 82 10000 1.5 100 11:19 02.04.2020
5452 Rain 16 1009 87 10000 1 0 10:55 02.04.2020
5453 Rain 16 1009 87 10000 1.5 40 10:37 02.04.2020
5454 Rain 15 1009 100 10000 1.5 30 10:19 02.04.2020
5455 Rain 15 1009 100 10000 1.5 30 09:56 02.04.2020
5456 Rain 14 1009 93 10000 1 0 09:38 02.04.2020
5457 Rain 14 1009 93 10000 1 0 09:19 02.04.2020
5458 Rain 13 1009 93 10000 1.5 350 08:46 02.04.2020
5459 Rain 13 1009 93 10000 1 0 08:26 02.04.2020
5460 Rain 13 1009 93 10000 1.5 150 07:45 02.04.2020
5461 Rain 13 1009 87 3700 1.5 0 07:21 02.04.2020
5462 Rain 13 1009 87 3700 1.5 0 06:58 02.04.2020
5463 Thunderstorm 13 1009 93 5000 2.6 350 06:22 02.04.2020
5464 Rain 13 1009 93 10000 1.5 70 05:45 02.04.2020
5465 Rain 14 1010 87 10000 1.5 180 04:35 02.04.2020
5466 Rain 15 1012 87 10000 2.1 200 01:54 02.04.2020
5467 Rain 15 1012 87 10000 2.6 200 00:51 02.04.2020
5468 Rain 15 1012 87 10000 2.1 210 00:29 02.04.2020
5469 Rain 15 1012 93 10000 2.6 200 23:59 01.04.2020
5470 Rain 15 1012 87 10000 2.6 200 23:37 01.04.2020
5471 Rain 15 1012 87 10000 2.6 200 23:18 01.04.2020
5472 Rain 15 1012 93 10000 3.6 210 22:41 01.04.2020
5473 Rain 15 1012 93 10000 3.1 210 22:22 01.04.2020
5474 Rain 15 1012 93 10000 3.1 200 21:58 01.04.2020
5475 Rain 15 1012 87 10000 3.6 210 21:39 01.04.2020
5476 Rain 15 1012 87 10000 3.6 200 21:19 01.04.2020
5477 Rain 15 1012 87 10000 3.6 200 20:56 01.04.2020
5478 Rain 16 1011 82 10000 4.6 210 20:38 01.04.2020
5479 Rain 16 1011 82 10000 5.7 210 20:19 01.04.2020
5480 Rain 16 1011 82 10000 5.7 210 19:57 01.04.2020
5481 Rain 16 1011 82 10000 5.1 210 19:37 01.04.2020
5482 Rain 16 1011 82 10000 5.1 210 19:37 01.04.2020
5483 Rain 16 1011 82 10000 6.2 210 19:19 01.04.2020
5484 Rain 17 1011 82 10000 5.1 220 18:41 01.04.2020
5485 Rain 17 1011 82 10000 5.1 220 18:21 01.04.2020
5486 Rain 17 1011 82 10000 6.7 210 17:57 01.04.2020
5487 Rain 17 1011 77 10000 7.2 220 17:37 01.04.2020
5488 Rain 18 1011 77 10000 7.2 220 17:18 01.04.2020
5489 Rain 18 1011 72 10000 6.7 210 16:56 01.04.2020
5490 Rain 18 1011 72 10000 7.2 210 16:38 01.04.2020
5491 Rain 18 1011 72 10000 7.2 210 16:20 01.04.2020
5492 Rain 18 1011 68 10000 5.1 190 15:43 01.04.2020
5493 Rain 18 1011 68 10000 5.1 190 15:24 01.04.2020
5494 Rain 17 1012 72 10000 6.2 200 14:59 01.04.2020
5495 Clouds 17 1012 82 10000 5.7 210 14:40 01.04.2020
5496 Clouds 17 1012 82 10000 5.7 210 14:40 01.04.2020
5497 Clouds 17 1012 82 10000 5.7 210 14:21 01.04.2020
5498 Thunderstorm 17 1012 72 10000 6.2 220 13:59 01.04.2020
5499 Thunderstorm 17 1012 82 10000 8.2 220 13:39 01.04.2020
5500 Rain 17 1012 82 10000 6.7 190 13:20 01.04.2020
5501 Rain 17 1012 82 10000 6.7 190 12:58 01.04.2020
5502 Rain 18 1012 72 10000 3.1 130 12:40 01.04.2020
5503 Rain 18 1012 72 10000 3.1 130 12:21 01.04.2020
5504 Rain 17 1012 72 10000 3.1 110 11:57 01.04.2020
5505 Rain 17 1013 77 10000 4.6 100 11:37 01.04.2020
5506 Rain 17 1013 77 10000 4.6 100 11:37 01.04.2020
5507 Rain 16 1013 77 10000 4.6 100 11:19 01.04.2020
5508 Rain 16 1013 82 10000 4.6 70 10:40 01.04.2020
5509 Rain 15 1013 82 10000 4.6 70 10:21 01.04.2020
5510 Rain 15 1012 82 10000 4.1 60 09:59 01.04.2020
5511 Rain 15 1012 82 10000 4.1 60 09:59 01.04.2020
5512 Rain 15 1012 82 10000 4.1 70 09:40 01.04.2020
5513 Clouds 15 1012 82 10000 4.1 70 09:20 01.04.2020
5514 Clouds 15 1012 87 10000 5.1 70 08:56 01.04.2020
5515 Clouds 14 1012 87 10000 4.6 70 08:37 01.04.2020
5516 Clouds 14 1012 82 10000 4.6 60 08:18 01.04.2020
5517 Clouds 14 1011 82 10000 6.2 60 07:41 01.04.2020
5518 Clouds 14 1012 82 10000 5.7 60 07:19 01.04.2020
5519 Clouds 14 1012 82 10000 5.1 60 06:43 01.04.2020
5520 Clouds 14 1012 82 10000 5.1 60 06:21 01.04.2020
5521 Clouds 14 1012 82 10000 5.1 60 05:50 01.04.2020
5522 Clouds 14 1013 87 10000 5.7 60 04:29 01.04.2020
5523 Clouds 15 1013 82 10000 5.7 70 03:20 01.04.2020
5524 Clouds 15 1013 82 10000 5.7 60 02:41 01.04.2020
5525 Rain 15 1013 82 10000 5.1 60 01:53 01.04.2020
5526 Rain 15 1013 82 10000 5.7 60 01:27 01.04.2020
5527 Rain 15 1013 87 10000 5.7 60 00:47 01.04.2020
5528 Clear 15 1013 82 10000 5.1 60 00:25 01.04.2020
5529 Clear 15 1013 82 10000 5.1 60 23:59 31.03.2020
5530 Clear 15 1013 82 10000 5.7 60 23:41 31.03.2020
5531 Clear 15 1013 82 10000 5.7 60 23:22 31.03.2020
5532 Clear 15 1013 82 10000 4.6 80 22:41 31.03.2020
5533 Clear 15 1012 87 10000 6.2 60 22:22 31.03.2020
5534 Clear 15 1012 87 10000 7.2 60 21:59 31.03.2020
5535 Clear 15 1012 87 10000 7.2 60 21:40 31.03.2020
5536 Rain 15 1011 87 10000 7.2 60 21:22 31.03.2020
5537 Rain 15 1011 87 10000 7.2 60 20:58 31.03.2020
5538 Rain 15 1011 87 10000 7.2 60 20:38 31.03.2020
5539 Rain 15 1011 87 10000 7.2 60 20:20 31.03.2020
5540 Rain 15 1011 87 10000 7.2 60 19:59 31.03.2020
5541 Rain 15 1011 87 10000 7.2 60 19:40 31.03.2020
5542 Rain 15 1010 82 10000 6.2 70 19:21 31.03.2020
5543 Rain 16 1010 82 10000 6.2 70 18:55 31.03.2020
5544 Rain 16 1010 82 10000 6.2 70 18:37 31.03.2020
5545 Rain 16 1010 82 10000 7.7 70 18:18 31.03.2020
5546 Rain 15 1010 87 10000 7.7 60 17:54 31.03.2020
5547 Rain 15 1010 87 10000 7.7 60 17:36 31.03.2020
5548 Rain 15 1011 93 10000 6.7 60 17:18 31.03.2020
5549 Drizzle 15 1011 87 5000 5.7 80 16:38 31.03.2020
5550 Rain 15 1011 82 10000 4.6 90 16:19 31.03.2020
5551 Rain 16 1011 82 10000 4.6 90 15:57 31.03.2020
5552 Rain 16 1011 77 10000 6.2 70 15:38 31.03.2020
5553 Rain 16 1011 72 10000 6.7 80 15:19 31.03.2020
5554 Rain 16 1011 72 10000 6.7 80 14:56 31.03.2020
5555 Rain 17 1011 67 10000 7.2 70 14:38 31.03.2020
5556 Rain 17 1011 67 10000 7.2 70 14:20 31.03.2020
5557 Rain 16 1011 72 10000 6.7 70 13:42 31.03.2020
5558 Rain 16 1012 72 10000 7.2 80 13:19 31.03.2020
5559 Rain 16 1012 72 10000 7.2 80 12:55 31.03.2020
5560 Rain 16 1012 72 10000 8.2 80 12:37 31.03.2020
5561 Clouds 16 1012 72 10000 8.7 80 12:18 31.03.2020
5562 Clouds 16 1012 72 10000 8.7 70 11:38 31.03.2020
5563 Clouds 15 1012 72 10000 8.7 70 11:20 31.03.2020
5564 Clouds 15 1012 77 10000 7.7 70 10:58 31.03.2020
5565 Clouds 15 1011 77 10000 8.2 70 10:39 31.03.2020
5566 Clouds 15 1011 77 10000 8.7 70 10:21 31.03.2020
5567 Rain 15 1011 77 10000 8.7 70 09:56 31.03.2020
5568 Clouds 14 1011 82 10000 8.7 60 09:37 31.03.2020
5569 Clouds 15 1011 82 10000 8.7 60 09:37 31.03.2020
5570 Clouds 14 1011 82 10000 8.7 60 09:37 31.03.2020
5571 Clouds 14 1011 82 10000 8.7 60 09:37 31.03.2020
5572 Clouds 14 1011 82 10000 8.7 60 09:19 31.03.2020
5573 Clouds 14 1011 82 10000 7.7 60 08:56 31.03.2020
5574 Clouds 14 1011 82 10000 7.7 60 08:56 31.03.2020
5575 Clouds 14 1011 82 10000 8.2 60 08:37 31.03.2020
5576 Clouds 14 1011 82 10000 8.2 60 08:19 31.03.2020
5577 Clouds 14 1011 87 10000 7.2 60 07:55 31.03.2020
5578 Clouds 13 1011 87 10000 5.7 70 07:37 31.03.2020
5579 Clouds 13 1011 87 10000 5.7 70 07:18 31.03.2020
5580 Clouds 14 1011 87 10000 5.7 70 06:42 31.03.2020
5581 Clouds 14 1011 82 10000 5.7 60 05:57 31.03.2020
5582 Clouds 14 1012 82 10000 4.6 60 05:38 31.03.2020
5583 Clouds 13 1013 87 10000 3.6 60 03:27 31.03.2020
5584 Clouds 13 1013 87 10000 3.1 50 01:52 31.03.2020
5585 Clouds 13 1013 87 10000 3.1 50 01:33 31.03.2020
5586 Clouds 13 1013 87 10000 2.6 60 00:46 31.03.2020
5587 Clouds 13 1014 87 10000 2.1 80 00:24 31.03.2020
5588 Clouds 13 1014 87 10000 2.1 90 23:41 30.03.2020
5589 Clouds 13 1014 87 10000 2.1 90 23:20 30.03.2020
5590 Clouds 13 1014 87 10000 2.1 60 22:58 30.03.2020
5591 Clouds 13 1014 87 10000 1 50 22:39 30.03.2020
5592 Clouds 13 1013 82 10000 1 0 22:20 30.03.2020
5593 Clouds 13 1013 82 10000 1 0 21:58 30.03.2020
5594 Clouds 14 1013 82 10000 1.5 180 21:39 30.03.2020
5595 Clouds 14 1013 82 10000 1.5 180 21:39 30.03.2020
5596 Clouds 14 1013 82 10000 1.5 180 21:20 30.03.2020
5597 Clouds 14 1013 82 10000 1.5 180 21:20 30.03.2020
5598 Clouds 14 1013 82 10000 1.5 190 20:59 30.03.2020
5599 Clouds 15 1012 77 10000 2.1 200 20:39 30.03.2020
5600 Clouds 15 1012 77 10000 2.1 200 20:39 30.03.2020
5601 Clouds 15 1012 77 10000 2.1 200 20:20 30.03.2020
5602 Clouds 15 1012 77 10000 2.1 200 20:20 30.03.2020
5603 Clouds 15 1012 77 10000 2.6 200 19:56 30.03.2020
5604 Clouds 16 1012 72 10000 4.1 200 19:38 30.03.2020
5605 Clouds 16 1012 72 10000 4.1 200 19:38 30.03.2020
5606 Clouds 16 1012 72 10000 4.6 190 19:20 30.03.2020
5607 Clouds 17 1012 67 10000 5.1 190 18:43 30.03.2020
5608 Rain 17 1012 67 10000 5.1 190 18:25 30.03.2020
5609 Rain 17 1012 67 10000 5.7 210 17:58 30.03.2020
5610 Rain 17 1012 72 10000 6.2 210 17:39 30.03.2020
5611 Rain 17 1012 72 10000 6.2 210 17:21 30.03.2020
5612 Rain 17 1012 67 10000 5.7 190 16:59 30.03.2020
5613 Rain 18 1013 63 10000 5.1 190 16:40 30.03.2020
5614 Rain 18 1013 72 10000 5.7 200 16:20 30.03.2020
5615 Rain 18 1013 72 10000 5.7 200 16:20 30.03.2020
5616 Rain 18 1013 72 10000 5.7 200 16:20 30.03.2020
5617 Rain 17 1013 72 10000 5.7 200 15:56 30.03.2020
5618 Clouds 17 1013 68 10000 6.7 190 15:38 30.03.2020
5619 Clouds 17 1013 68 10000 6.7 190 15:38 30.03.2020
5620 Clouds 18 1013 68 10000 6.7 190 15:20 30.03.2020
5621 Rain 17 1013 72 10000 6.2 180 14:56 30.03.2020
5622 Rain 17 1013 72 10000 6.7 210 14:37 30.03.2020
5623 Rain 17 1013 72 10000 6.7 210 14:18 30.03.2020
5624 Rain 17 1013 77 10000 6.7 210 13:55 30.03.2020
5625 Clouds 17 1013 77 10000 5.7 210 13:37 30.03.2020
5626 Clouds 17 1014 82 10000 4.1 210 13:19 30.03.2020
5627 Rain 16 1014 77 10000 4.6 210 12:44 30.03.2020
5628 Clouds 16 1014 77 10000 4.6 210 12:21 30.03.2020
5629 Clouds 16 1014 77 10000 4.1 210 12:21 30.03.2020
5630 Clouds 16 1014 77 10000 4.1 210 11:57 30.03.2020
5631 Clouds 15 1014 82 10000 2.1 150 11:39 30.03.2020
5632 Clouds 15 1014 82 10000 2.1 150 11:21 30.03.2020
5633 Clouds 14 1014 87 10000 1 80 10:42 30.03.2020
5634 Clouds 13 1014 87 10000 1 0 10:23 30.03.2020
5635 Clouds 12 1014 87 10000 0.5 0 09:59 30.03.2020
5636 Clouds 12 1014 87 10000 0.5 0 09:59 30.03.2020
5637 Clouds 12 1014 87 10000 1 0 09:40 30.03.2020
5638 Clouds 12 1014 87 10000 1 0 09:19 30.03.2020
5639 Clouds 11 1014 87 10000 1.5 350 08:54 30.03.2020
5640 Clouds 10 1014 87 10000 1.5 350 08:36 30.03.2020
5641 Clouds 10 1014 87 10000 1.5 350 08:18 30.03.2020
5642 Clouds 10 1013 93 10000 1 0 07:41 30.03.2020
5643 Clouds 10 1013 87 10000 1 0 07:20 30.03.2020
5644 Clouds 9 1013 87 10000 1 10 06:42 30.03.2020
5645 Clouds 9 1014 87 10000 2.1 360 06:23 30.03.2020
5646 Clouds 9 1014 87 10000 1.5 340 05:39 30.03.2020
5647 Clouds 9 1014 87 10000 1.5 360 04:29 30.03.2020
5648 Clouds 10 1015 87 10000 1.5 360 03:54 30.03.2020
5649 Clouds 10 1015 87 10000 1 360 02:44 30.03.2020
5650 Clouds 11 1015 87 10000 1 360 01:55 30.03.2020
5651 Clouds 11 1016 87 10000 0.5 300 00:59 30.03.2020
5652 Clouds 12 1016 82 10000 1 0 00:28 30.03.2020
5653 Clouds 13 1016 87 10000 2.1 160 23:56 29.03.2020
5654 Clouds 12 1016 82 10000 1 0 23:37 29.03.2020
5655 Clouds 12 1016 82 10000 1 0 23:18 29.03.2020
5656 Clouds 13 1016 82 10000 1.5 160 22:40 29.03.2020
5657 Clouds 13 1016 82 10000 1.5 120 22:20 29.03.2020
5658 Clouds 14 1016 76 10000 4.1 230 21:59 29.03.2020
5659 Clouds 14 1015 67 10000 2.6 220 21:38 29.03.2020
5660 Clouds 14 1015 54 10000 3.6 230 21:20 29.03.2020
5661 Clouds 15 1015 51 10000 5.1 240 20:55 29.03.2020
5662 Clouds 16 1015 51 10000 5.1 240 20:37 29.03.2020
5663 Clouds 16 1015 59 10000 4.1 220 20:19 29.03.2020
5664 Clouds 16 1015 59 10000 4.1 220 19:57 29.03.2020
5665 Clouds 16 1015 59 10000 4.1 220 19:57 29.03.2020
5666 Clouds 17 1015 59 10000 4.1 220 19:39 29.03.2020
5667 Clouds 18 1014 45 10000 6.7 230 19:21 29.03.2020
5668 Clouds 18 1014 45 10000 6.7 230 18:57 29.03.2020
5669 Clouds 19 1014 45 10000 6.7 230 18:38 29.03.2020
5670 Rain 19 1015 32 10000 3.1 310 18:19 29.03.2020
5671 Rain 19 1015 32 10000 3.1 310 17:55 29.03.2020
5672 Rain 19 1015 32 10000 4.1 320 17:37 29.03.2020
5673 Rain 19 1015 32 10000 4.1 320 17:18 29.03.2020
5674 Rain 20 1015 32 10000 4.6 320 16:56 29.03.2020
5675 Rain 20 1015 52 10000 5.1 180 16:38 29.03.2020
5676 Rain 20 1016 45 10000 6.7 210 16:18 29.03.2020
5677 Rain 20 1016 40 10000 3.1 230 15:41 29.03.2020
5678 Rain 20 1016 40 10000 3.1 230 15:23 29.03.2020
5679 Rain 20 1016 40 10000 3.1 230 15:23 29.03.2020
5680 Rain 20 1016 34 10000 3.1 280 14:58 29.03.2020
5681 Rain 20 1016 32 10000 1.5 0 14:40 29.03.2020
5682 Clouds 20 1017 34 10000 2.1 320 14:20 29.03.2020
5683 Clouds 20 1017 34 10000 1.5 260 13:57 29.03.2020
5684 Clouds 20 1017 34 10000 1.5 260 13:39 29.03.2020
5685 Clouds 19 1017 34 10000 1.5 260 13:20 29.03.2020
5686 Clouds 18 1017 39 10000 4.1 320 12:55 29.03.2020
5687 Clouds 18 1017 39 10000 4.1 320 12:37 29.03.2020
5688 Clouds 17 1017 55 10000 2.6 190 12:19 29.03.2020
5689 Clouds 17 1017 55 10000 2.6 190 12:19 29.03.2020
5690 Clouds 16 1017 55 10000 2.6 190 11:55 29.03.2020
5691 Clouds 16 1017 55 10000 1.5 210 11:37 29.03.2020
5692 Clouds 16 1017 55 10000 1.5 210 11:18 29.03.2020
5693 Clouds 14 1017 76 10000 1 0 10:38 29.03.2020
5694 Clouds 13 1017 81 10000 1 0 10:19 29.03.2020
5695 Clouds 11 1017 81 10000 0.5 0 09:41 29.03.2020
5696 Clouds 9 1017 81 10000 0.5 0 09:22 29.03.2020
5697 Clouds 9 1017 87 10000 1 0 08:56 29.03.2020
5698 Clouds 9 1017 87 10000 0.5 0 08:38 29.03.2020
5699 Clouds 8 1017 87 10000 0.5 0 08:19 29.03.2020
5700 Clouds 9 1017 81 10000 1.5 0 07:42 29.03.2020
5701 Clouds 10 1017 87 10000 2.6 330 07:21 29.03.2020
5702 Clouds 9 1017 87 10000 1.5 330 05:58 29.03.2020
5703 Clouds 10 1017 87 10000 2.1 340 04:55 29.03.2020
5704 Clouds 10 1018 87 10000 1 0 03:33 29.03.2020
5705 Clouds 11 1018 87 10000 1 10 01:52 29.03.2020
5706 Clouds 12 1018 81 10000 1 30 01:24 29.03.2020
5707 Clouds 12 1019 81 10000 1 320 00:58 29.03.2020
5708 Clouds 12 1019 87 10000 1.5 330 00:33 29.03.2020
5709 Clouds 12 1019 87 10000 1 350 23:57 28.03.2020
5710 Clouds 12 1019 81 10000 1.5 340 23:39 28.03.2020
5711 Clouds 12 1019 87 10000 1 330 23:20 28.03.2020
5712 Clouds 12 1019 81 10000 0.5 310 22:41 28.03.2020
5713 Clouds 12 1019 81 10000 0.5 310 22:22 28.03.2020
5714 Clouds 12 1018 76 10000 1 330 21:57 28.03.2020
5715 Clouds 13 1018 76 10000 1 0 21:39 28.03.2020
5716 Clouds 13 1018 76 10000 2.19 29 21:19 28.03.2020
5717 Clouds 13 1018 76 10000 2.19 29 20:55 28.03.2020
5718 Clouds 13 1018 76 10000 1.5 330 20:37 28.03.2020
5719 Rain 13 1018 76 10000 1.5 330 20:18 28.03.2020
5720 Rain 13 1018 76 10000 1.5 290 19:55 28.03.2020
5721 Rain 14 1017 71 10000 1.5 280 19:36 28.03.2020
5722 Rain 14 1017 71 10000 2.1 300 19:18 28.03.2020
5723 Rain 15 1017 67 10000 2.1 280 18:39 28.03.2020
5724 Rain 15 1017 62 10000 2.6 270 18:20 28.03.2020
5725 Rain 15 1017 67 10000 3.1 240 17:41 28.03.2020
5726 Rain 15 1017 67 10000 4.1 230 17:22 28.03.2020
5727 Rain 15 1017 67 10000 4.1 230 16:59 28.03.2020
5728 Rain 15 1017 67 10000 4.6 210 16:38 28.03.2020
5729 Rain 15 1017 67 10000 4.6 210 16:18 28.03.2020
5730 Rain 16 1017 62 10000 3.6 350 15:40 28.03.2020
5731 Rain 16 1017 62 10000 3.6 350 15:40 28.03.2020
5732 Rain 16 1017 62 10000 3.6 350 15:20 28.03.2020
5733 Rain 17 1017 48 10000 4.1 90 14:59 28.03.2020
5734 Rain 17 1017 48 10000 3.6 80 14:40 28.03.2020
5735 Rain 17 1017 48 10000 3.6 80 14:21 28.03.2020
5736 Rain 16 1017 51 10000 3.1 90 13:43 28.03.2020
5737 Rain 16 1017 51 10000 3.1 90 13:24 28.03.2020
5738 Rain 15 1017 67 10000 2.1 340 12:43 28.03.2020
5739 Rain 15 1017 67 10000 2.1 340 12:24 28.03.2020
5740 Rain 14 1018 67 10000 2.6 310 11:59 28.03.2020
5741 Rain 13 1018 67 10000 2.6 310 11:41 28.03.2020
5742 Drizzle 12 1018 81 10000 2.6 40 11:20 28.03.2020
5743 Rain 12 1018 81 10000 3.6 50 10:40 28.03.2020
5744 Rain 11 1018 81 10000 3.6 50 10:22 28.03.2020
5745 Rain 11 1017 81 10000 2.1 90 09:56 28.03.2020
5746 Rain 10 1017 81 10000 2.1 110 09:37 28.03.2020
5747 Rain 10 1017 81 10000 2.1 110 09:19 28.03.2020
5748 Rain 9 1016 87 10000 1 0 08:42 28.03.2020
5749 Rain 8 1016 87 10000 1 0 08:22 28.03.2020
5750 Rain 8 1016 87 10000 0.5 90 07:46 28.03.2020
5751 Rain 9 1016 87 10000 1 0 07:28 28.03.2020
5752 Rain 8 1016 87 10000 1.5 10 06:41 28.03.2020
5753 Rain 8 1016 87 10000 2.1 350 06:18 28.03.2020
5754 Rain 8 1016 87 10000 0.5 0 05:23 28.03.2020
5755 Rain 8 1016 87 10000 1.5 60 04:43 28.03.2020
5756 Rain 8 1016 87 10000 1.5 60 04:20 28.03.2020
5757 Rain 7 1016 87 10000 2.1 350 02:46 28.03.2020
5758 Clouds 8 1016 81 10000 1.5 10 01:46 28.03.2020
5759 Clear 8 1016 81 10000 1.5 40 01:20 28.03.2020
5760 Clear 8 1016 81 10000 1.5 360 00:47 28.03.2020
5761 Clear 8 1016 81 10000 2.1 350 00:21 28.03.2020
5762 Clear 9 1016 81 10000 1.5 330 23:43 27.03.2020
5763 Clear 9 1016 81 10000 1.5 330 23:24 27.03.2020
5764 Clear 9 1016 81 10000 2.1 30 22:57 27.03.2020
5765 Clear 9 1016 76 10000 2.6 20 22:39 27.03.2020
5766 Clear 9 1016 76 10000 2.6 20 22:20 27.03.2020
5767 Clear 9 1016 76 10000 1.5 360 21:57 27.03.2020
5768 Clear 10 1016 66 10000 1 40 21:38 27.03.2020
5769 Clear 10 1016 66 10000 1 40 21:20 27.03.2020
5770 Clear 10 1015 61 10000 1 0 20:55 27.03.2020
5771 Clear 11 1015 57 10000 1.5 360 20:37 27.03.2020
5772 Clouds 11 1015 57 10000 1.5 360 20:18 27.03.2020
5773 Clouds 12 1014 50 10000 3.6 120 19:42 27.03.2020
5774 Clouds 13 1014 54 10000 3.1 280 19:23 27.03.2020
5775 Clouds 13 1014 54 10000 3.1 280 18:57 27.03.2020
5776 Clouds 13 1014 50 10000 3.6 240 18:38 27.03.2020
5777 Clouds 14 1014 50 10000 3.1 190 18:19 27.03.2020
5778 Clouds 14 1013 50 10000 2.1 170 17:40 27.03.2020
5779 Clouds 14 1014 50 10000 3.6 190 17:20 27.03.2020
5780 Clouds 15 1014 50 10000 3.6 190 16:55 27.03.2020
5781 Clouds 15 1014 44 10000 4.6 210 16:37 27.03.2020
5782 Clouds 15 1014 44 10000 5.1 210 16:19 27.03.2020
5783 Clouds 15 1014 44 10000 6.7 210 15:42 27.03.2020
5784 Clouds 15 1014 44 10000 6.7 210 15:24 27.03.2020
5785 Clouds 15 1014 41 10000 2.6 230 14:48 27.03.2020
5786 Clouds 15 1014 44 10000 5.1 230 14:27 27.03.2020
5787 Clear 14 1014 44 10000 2.1 220 13:58 27.03.2020
5788 Clear 15 1013 41 10000 2.6 310 13:40 27.03.2020
5789 Clear 15 1014 41 10000 2.1 80 13:21 27.03.2020
5790 Clear 15 1014 41 10000 2.1 80 12:58 27.03.2020
5791 Clear 15 1014 41 10000 1.5 0 12:39 27.03.2020
5792 Clear 14 1014 41 10000 1.5 0 12:19 27.03.2020
5793 Clear 14 1014 47 10000 1.5 160 11:42 27.03.2020
5794 Clear 14 1014 43 10000 1 0 11:24 27.03.2020
5795 Clear 13 1014 51 10000 1.5 0 10:55 27.03.2020
5796 Clear 13 1014 51 10000 1.5 0 10:37 27.03.2020
5797 Clear 13 1014 51 10000 1.5 0 10:19 27.03.2020
5798 Clear 12 1014 51 10000 1.5 0 09:57 27.03.2020
5799 Clear 11 1014 71 10000 1 0 09:38 27.03.2020
5800 Clear 11 1014 71 10000 1 0 09:19 27.03.2020
5801 Clear 8 1013 81 10000 1.5 350 08:56 27.03.2020
5802 Clear 7 1013 87 10000 1.5 330 08:38 27.03.2020
5803 Clouds 7 1013 86 10000 2.1 350 08:20 27.03.2020
5804 Clouds 6 1013 86 10000 2.1 350 07:52 27.03.2020
5805 Clouds 6 1013 93 10000 2.6 350 07:25 27.03.2020
5806 Clouds 4 1013 93 10000 2.6 360 06:53 27.03.2020
5807 Clouds 5 1013 93 10000 2.6 360 06:35 27.03.2020
5808 Clouds 7 1012 86 10000 2.6 340 04:59 27.03.2020
5809 Clouds 8 1012 87 10000 2.1 350 02:36 27.03.2020
5810 Rain 8 1012 87 10000 1 10 01:23 27.03.2020
5811 Drizzle 8 1012 87 10000 3.6 20 00:51 27.03.2020
5812 Drizzle 8 1012 87 10000 3.6 20 00:31 27.03.2020
5813 Rain 9 1012 93 10000 3.1 40 23:44 26.03.2020
5814 Rain 9 1012 87 10000 3.1 60 23:23 26.03.2020
5815 Rain 9 1012 87 10000 3.1 60 22:59 26.03.2020
5816 Drizzle 9 1011 87 7000 5.7 50 22:39 26.03.2020
5817 Drizzle 9 1011 87 7000 5.7 50 22:20 26.03.2020
5818 Rain 9 1011 81 10000 1.5 50 21:57 26.03.2020
5819 Rain 9 1011 76 10000 2.6 70 21:39 26.03.2020
5820 Rain 9 1011 76 10000 2.6 70 21:20 26.03.2020
5821 Rain 9 1010 76 10000 1.5 360 20:58 26.03.2020
5822 Rain 9 1010 71 10000 1.5 340 20:38 26.03.2020
5823 Rain 10 1010 71 10000 1.5 340 20:20 26.03.2020
5824 Rain 10 1010 66 10000 1.5 350 19:56 26.03.2020
5825 Rain 10 1009 66 10000 1.5 20 19:38 26.03.2020
5826 Rain 10 1009 66 10000 2.6 50 19:20 26.03.2020
5827 Clouds 10 1008 76 10000 3.1 30 18:55 26.03.2020
5828 Clouds 10 1008 76 10000 3.1 30 18:55 26.03.2020
5829 Clouds 9 1008 76 10000 3.1 20 18:36 26.03.2020
5830 Rain 10 1009 76 10000 3.6 50 18:18 26.03.2020
5831 Rain 10 1009 76 10000 4.6 60 17:42 26.03.2020
5832 Rain 11 1008 71 10000 6.2 60 17:19 26.03.2020
5833 Rain 10 1008 71 10000 8.2 60 16:45 26.03.2020
5834 Rain 10 1008 71 10000 8.2 60 16:27 26.03.2020
5835 Rain 10 1008 76 10000 8.7 70 15:59 26.03.2020
5836 Rain 10 1008 71 10000 8.2 70 15:40 26.03.2020
5837 Rain 10 1008 76 10000 7.2 80 15:22 26.03.2020
5838 Rain 10 1008 76 10000 7.2 80 14:58 26.03.2020
5839 Rain 11 1008 81 10000 5.7 60 14:39 26.03.2020
5840 Rain 10 1008 81 10000 7.2 70 14:19 26.03.2020
5841 Rain 11 1008 71 10000 5.1 70 13:44 26.03.2020
5842 Rain 11 1008 71 10000 5.1 70 13:23 26.03.2020
5843 Rain 11 1008 71 10000 3.6 60 12:57 26.03.2020
5844 Rain 11 1008 71 10000 3.6 60 12:38 26.03.2020
5845 Rain 10 1008 81 10000 3.1 360 12:19 26.03.2020
5846 Rain 9 1008 81 10000 2.6 60 11:45 26.03.2020
5847 Rain 8 1008 93 7000 1.5 0 11:22 26.03.2020
5848 Rain 8 1008 93 7000 1.5 0 10:56 26.03.2020
5849 Rain 8 1009 93 5000 2.1 300 10:37 26.03.2020
5850 Rain 8 1009 93 5000 2.1 300 10:19 26.03.2020
5851 Rain 8 1009 87 4700 2.1 300 09:44 26.03.2020
5852 Rain 8 1009 87 4700 2.1 300 09:20 26.03.2020
5853 Drizzle 9 1009 76 10000 1.5 300 08:55 26.03.2020
5854 Rain 9 1009 76 10000 0.5 0 08:37 26.03.2020
5855 Rain 9 1009 76 10000 0.5 0 08:18 26.03.2020
5856 Rain 8 1009 81 10000 1.5 50 07:43 26.03.2020
5857 Rain 8 1009 81 10000 1.5 50 07:21 26.03.2020
5858 Rain 8 1010 81 10000 0.5 0 06:48 26.03.2020
5859 Rain 8 1010 81 10000 1 20 05:59 26.03.2020
5860 Clouds 8 1011 75 10000 1.5 210 04:33 26.03.2020
5861 Clouds 9 1013 70 10000 1.5 250 03:44 26.03.2020
5862 Clouds 8 1013 75 10000 1.5 360 02:55 26.03.2020
5863 Clouds 8 1014 70 10000 1 0 01:50 26.03.2020
5864 Clouds 7 1015 70 10000 1.5 10 00:52 26.03.2020
5865 Clouds 7 1015 75 10000 2.6 350 00:20 26.03.2020
5866 Clouds 7 1016 75 10000 1 0 23:40 25.03.2020
5867 Clouds 7 1016 70 10000 2.6 10 23:20 25.03.2020
5868 Clouds 8 1016 70 10000 2.6 10 22:40 25.03.2020
5869 Clouds 7 1016 70 10000 2.6 10 22:21 25.03.2020
5870 Clouds 8 1016 65 10000 0.5 0 21:56 25.03.2020
5871 Clouds 8 1016 61 10000 1 0 21:38 25.03.2020
5872 Clouds 8 1016 57 10000 1.5 40 21:19 25.03.2020
5873 Clouds 9 1016 57 10000 1.5 40 20:55 25.03.2020
5874 Clouds 10 1016 57 10000 1.5 70 20:37 25.03.2020
5875 Clouds 10 1016 53 10000 2.1 90 20:18 25.03.2020
5876 Clouds 11 1016 55 10000 3.6 80 19:43 25.03.2020
5877 Clouds 11 1016 58 10000 4.1 90 19:23 25.03.2020
5878 Clouds 12 1016 58 10000 4.1 90 18:58 25.03.2020
5879 Clouds 12 1016 58 10000 4.1 90 18:40 25.03.2020
5880 Clouds 13 1016 55 10000 4.1 90 18:21 25.03.2020
5881 Clouds 13 1015 43 10000 4.6 80 17:56 25.03.2020
5882 Clouds 13 1016 58 10000 4.1 90 17:37 25.03.2020
5883 Clouds 13 1015 37 10000 6.2 90 17:19 25.03.2020
5884 Clouds 13 1015 37 10000 6.2 80 16:44 25.03.2020
5885 Clouds 14 1015 37 10000 6.2 80 16:24 25.03.2020
5886 Clouds 14 1015 46 10000 5.7 70 15:59 25.03.2020
5887 Clouds 14 1015 43 10000 6.7 80 15:41 25.03.2020
5888 Clouds 14 1015 43 10000 6.7 80 15:41 25.03.2020
5889 Clouds 14 1015 43 10000 6.7 80 15:20 25.03.2020
5890 Clouds 14 1015 33 10000 6.2 60 14:55 25.03.2020
5891 Clouds 14 1016 30 10000 6.7 70 14:37 25.03.2020
5892 Clouds 14 1016 33 10000 6.2 80 14:18 25.03.2020
5893 Clouds 14 1016 35 10000 5.7 60 13:42 25.03.2020
5894 Clouds 13 1016 35 10000 6.2 70 13:22 25.03.2020
5895 Clouds 13 1017 46 10000 4.6 60 12:38 25.03.2020
5896 Clouds 12 1017 49 10000 6.7 70 12:20 25.03.2020
5897 Clouds 12 1017 46 10000 6.7 70 11:56 25.03.2020
5898 Clouds 13 1017 46 10000 5.7 60 11:38 25.03.2020
5899 Clouds 12 1017 50 10000 6.2 60 11:20 25.03.2020
5900 Clouds 12 1017 50 10000 6.2 60 10:57 25.03.2020
5901 Clouds 11 1017 53 10000 3.6 30 10:39 25.03.2020
5902 Clouds 11 1017 61 10000 6.2 60 10:18 25.03.2020
5903 Clouds 10 1017 76 10000 7.2 70 09:43 25.03.2020
5904 Rain 10 1017 76 10000 7.2 70 09:24 25.03.2020
5905 Rain 10 1017 70 10000 5.1 60 08:57 25.03.2020
5906 Clouds 10 1017 70 10000 2.6 10 08:39 25.03.2020
5907 Clouds 8 1017 70 10000 2.6 10 08:19 25.03.2020
5908 Clouds 8 1016 70 10000 1.5 10 07:41 25.03.2020
5909 Clouds 8 1016 70 10000 1.5 10 07:22 25.03.2020
5910 Clouds 8 1016 70 10000 1.5 10 06:50 25.03.2020
5911 Clouds 8 1016 70 10000 2.1 10 06:28 25.03.2020
5912 Clouds 8 1016 70 10000 2.1 10 05:57 25.03.2020
5913 Clouds 8 1016 70 10000 2.1 10 05:37 25.03.2020
5914 Clouds 9 1016 81 10000 2.1 50 04:41 25.03.2020
5915 Clouds 9 1016 76 10000 2.6 30 03:52 25.03.2020
5916 Clouds 9 1017 76 10000 3.1 50 03:29 25.03.2020
5917 Rain 10 1017 81 10000 3.1 30 01:31 25.03.2020
5918 Rain 9 1017 81 10000 4.1 50 00:49 25.03.2020
5919 Drizzle 10 1018 71 10000 3.1 70 00:26 25.03.2020
5920 Clear 11 1018 66 10000 3.6 60 23:50 24.03.2020
5921 Clear 11 1018 66 10000 3.1 60 23:28 24.03.2020
5922 Clear 11 1018 62 10000 3.6 70 22:57 24.03.2020
5923 Clear 11 1018 62 10000 3.6 70 22:38 24.03.2020
5924 Clear 11 1018 62 10000 3.6 70 22:38 24.03.2020
5925 Clear 11 1018 62 10000 3.6 70 22:19 24.03.2020
5926 Clear 11 1018 62 10000 3.1 80 21:57 24.03.2020
5927 Clear 11 1018 62 10000 3.1 80 21:57 24.03.2020
5928 Clear 11 1018 57 10000 3.6 70 21:38 24.03.2020
5929 Clear 11 1018 57 10000 3.6 70 21:18 24.03.2020
5930 Clear 11 1018 57 10000 3.6 70 20:57 24.03.2020
5931 Rain 12 1017 57 10000 4.1 70 20:39 24.03.2020
5932 Rain 12 1017 57 10000 4.1 70 20:21 24.03.2020
5933 Rain 12 1017 54 10000 8.2 60 19:45 24.03.2020
5934 Rain 13 1016 50 10000 9.3 60 19:20 24.03.2020
5935 Rain 13 1016 50 10000 9.3 60 18:56 24.03.2020
5936 Rain 14 1016 50 10000 9.3 60 18:37 24.03.2020
5937 Rain 14 1016 50 10000 10.3 70 18:19 24.03.2020
5938 Rain 14 1016 50 10000 10.8 60 17:56 24.03.2020
5939 Rain 15 1016 51 10000 10.3 70 17:37 24.03.2020
5940 Rain 14 1016 51 10000 10.3 70 17:19 24.03.2020
5941 Rain 14 1016 51 10000 10.3 70 16:56 24.03.2020
5942 Rain 14 1016 58 10000 10.3 60 16:37 24.03.2020
5943 Clouds 14 1016 58 10000 10.3 60 16:19 24.03.2020
5944 Clouds 14 1016 55 10000 9.8 70 15:42 24.03.2020
5945 Clouds 15 1016 55 10000 9.8 70 15:23 24.03.2020
5946 Clouds 15 1017 59 10000 8.2 90 14:44 24.03.2020
5947 Rain 16 1017 59 10000 8.2 90 14:22 24.03.2020
5948 Rain 15 1017 62 10000 9.8 80 13:59 24.03.2020
5949 Rain 15 1018 67 10000 9.3 70 13:40 24.03.2020
5950 Rain 15 1018 67 10000 9.3 70 13:22 24.03.2020
5951 Rain 16 1018 63 10000 10.8 60 12:42 24.03.2020
5952 Rain 15 1018 63 10000 10.8 60 12:24 24.03.2020
5953 Rain 15 1018 67 10000 9.8 60 11:42 24.03.2020
5954 Rain 15 1018 67 10000 9.8 60 11:22 24.03.2020
5955 Rain 15 1018 67 10000 9.8 60 10:59 24.03.2020
5956 Rain 15 1018 71 10000 11.3 70 10:41 24.03.2020
5957 Rain 15 1018 71 10000 11.3 70 10:19 24.03.2020
5958 Rain 15 1018 71 10000 11.3 70 10:19 24.03.2020
5959 Rain 15 1018 67 10000 10.3 60 09:47 24.03.2020
5960 Clouds 15 1017 71 10000 9.3 60 09:27 24.03.2020
5961 Rain 14 1017 71 10000 9.8 60 08:58 24.03.2020
5962 Rain 14 1017 71 10000 8.2 60 08:38 24.03.2020
5963 Rain 14 1017 76 10000 8.7 60 08:20 24.03.2020
5964 Clouds 13 1017 76 10000 7.7 60 07:44 24.03.2020
5965 Clouds 13 1017 76 10000 7.7 60 07:22 24.03.2020
5966 Rain 13 1017 82 10000 7.2 50 06:42 24.03.2020
5967 Clouds 13 1017 82 10000 7.7 50 06:23 24.03.2020
5968 Clouds 13 1017 93 10000 2.6 70 04:53 24.03.2020
5969 Clouds 13 1017 82 10000 7.2 60 03:43 24.03.2020
5970 Clouds 14 1018 82 10000 5.7 60 02:45 24.03.2020
5971 Clouds 14 1018 82 10000 6.2 50 01:38 24.03.2020
5972 Clouds 13 1018 87 10000 5.1 60 00:42 24.03.2020
5973 Clouds 13 1017 87 10000 4.6 60 00:22 24.03.2020
5974 Clouds 13 1019 82 10000 5.7 60 23:39 23.03.2020
5975 Clouds 14 1019 82 10000 5.7 70 23:21 23.03.2020
5976 Clouds 14 1019 82 10000 5.7 70 22:55 23.03.2020
5977 Clouds 14 1019 82 10000 5.1 70 22:36 23.03.2020
5978 Clouds 14 1019 82 10000 5.1 70 22:18 23.03.2020
5979 Clouds 14 1019 82 10000 5.7 70 21:42 23.03.2020
5980 Clouds 14 1019 82 10000 5.7 70 21:20 23.03.2020
5981 Clouds 14 1018 82 10000 5.7 70 20:57 23.03.2020
5982 Clouds 15 1018 77 10000 5.7 80 20:38 23.03.2020
5983 Rain 15 1018 77 10000 5.7 80 20:19 23.03.2020
5984 Clouds 15 1017 82 10000 6.2 60 19:45 23.03.2020
5985 Clouds 15 1018 77 10000 6.7 70 19:27 23.03.2020
5986 Clouds 16 1018 72 10000 5.7 70 18:59 23.03.2020
5987 Clouds 16 1018 72 10000 5.7 70 18:40 23.03.2020
5988 Clouds 17 1017 67 10000 8.2 70 18:21 23.03.2020
5989 Clouds 18 1017 67 10000 7.7 70 17:43 23.03.2020
5990 Rain 19 1017 59 10000 7.7 60 17:21 23.03.2020
5991 Rain 19 1017 59 10000 7.7 60 16:59 23.03.2020
5992 Rain 19 1017 45 10000 5.7 90 16:41 23.03.2020
5993 Rain 19 1017 45 10000 5.7 90 16:23 23.03.2020
5994 Rain 19 1017 49 10000 5.1 80 15:42 23.03.2020
5995 Rain 19 1017 49 10000 5.1 80 15:20 23.03.2020
5996 Rain 19 1017 49 10000 5.1 120 14:55 23.03.2020
5997 Rain 19 1018 49 10000 5.7 100 14:36 23.03.2020
5998 Rain 19 1018 52 10000 5.1 100 14:18 23.03.2020
5999 Rain 18 1018 48 10000 4.6 120 13:40 23.03.2020
6000 Rain 18 1018 48 10000 4.6 120 13:40 23.03.2020
6001 Rain 18 1018 52 10000 4.6 110 13:21 23.03.2020
6002 Clouds 18 1017 63 10000 4.1 80 12:46 23.03.2020
6003 Rain 18 1018 55 10000 5.1 100 12:26 23.03.2020
6004 Rain 18 1018 63 10000 4.6 80 11:59 23.03.2020
6005 Rain 18 1018 63 10000 4.6 80 11:40 23.03.2020
6006 Clear 17 1019 67 10000 4.1 80 11:21 23.03.2020
6007 Clear 17 1019 67 10000 4.1 80 10:58 23.03.2020
6008 Clear 16 1019 77 10000 4.1 100 10:39 23.03.2020
6009 Clear 16 1019 77 10000 4.1 100 10:21 23.03.2020
6010 Clear 15 1018 82 10000 4.1 70 09:57 23.03.2020
6011 Clear 15 1018 87 10000 3.6 60 09:37 23.03.2020
6012 Clear 15 1018 87 10000 2.6 60 09:18 23.03.2020
6013 Clear 14 1018 87 10000 2.6 60 08:37 23.03.2020
6014 Clouds 13 1018 87 10000 2.6 60 08:19 23.03.2020
6015 Clear 12 1018 93 10000 2.6 40 07:50 23.03.2020
6016 Clear 11 1017 93 10000 1.5 40 07:31 23.03.2020
6017 Clear 11 1017 93 10000 2.1 50 06:53 23.03.2020
6018 Clear 11 1017 93 10000 2.1 50 06:25 23.03.2020
6019 Clear 11 1017 93 10000 1.5 40 05:42 23.03.2020
6020 Clear 12 1016 93 10000 1.5 50 03:45 23.03.2020
6021 Clear 12 1016 93 10000 3.1 40 02:40 23.03.2020
6022 Clear 13 1016 87 10000 2.6 50 01:38 23.03.2020
6023 Clear 12 1016 93 10000 2.6 50 00:43 23.03.2020
6024 Clouds 13 1015 93 10000 2.6 70 23:54 22.03.2020
6025 Clear 13 1016 93 10000 2.6 60 23:36 22.03.2020
6026 Clear 12 1016 93 10000 2.6 50 23:18 22.03.2020
6027 Clear 13 1016 93 10000 2.1 60 22:40 22.03.2020
6028 Clear 13 1016 93 10000 2.1 60 22:19 22.03.2020
6029 Clear 13 1016 87 10000 1.5 80 21:40 22.03.2020
6030 Clear 14 1016 87 10000 1.5 80 21:21 22.03.2020
6031 Clear 14 1015 93 10000 2.6 80 20:58 22.03.2020
6032 Clear 14 1015 87 10000 2.6 60 20:39 22.03.2020
6033 Clouds 15 1015 87 10000 2.6 60 20:21 22.03.2020
6034 Clouds 15 1015 87 10000 2.6 90 19:55 22.03.2020
6035 Clouds 15 1014 77 10000 1 0 19:37 22.03.2020
6036 Clouds 16 1014 77 10000 2.6 100 19:19 22.03.2020
6037 Haze 16 1013 72 2000 2.6 100 18:57 22.03.2020
6038 Haze 16 1013 72 2000 2.6 100 18:38 22.03.2020
6039 Haze 16 1013 72 4500 3.1 80 18:18 22.03.2020
6040 Haze 16 1013 72 4500 3.1 80 17:56 22.03.2020
6041 Clouds 16 1013 77 10000 3.6 80 17:37 22.03.2020
6042 Clouds 17 1012 82 10000 3.1 60 17:19 22.03.2020
6043 Rain 17 1013 63 10000 1 0 16:55 22.03.2020
6044 Rain 17 1013 67 10000 5.1 210 16:37 22.03.2020
6045 Rain 17 1013 67 10000 5.1 210 16:19 22.03.2020
6046 Rain 18 1013 59 10000 1 30 15:39 22.03.2020
6047 Rain 18 1013 59 10000 1 30 15:19 22.03.2020
6048 Rain 16 1013 72 10000 1.5 50 14:46 22.03.2020
6049 Rain 15 1013 72 10000 1.5 50 14:18 22.03.2020
6050 Rain 15 1013 87 10000 3.1 40 13:41 22.03.2020
6051 Rain 15 1013 87 10000 3.1 40 13:20 22.03.2020
6052 Rain 14 1012 93 8000 2.1 20 12:47 22.03.2020
6053 Rain 14 1012 93 8000 2.1 20 12:23 22.03.2020
6054 Rain 14 1012 93 8000 2.1 20 12:23 22.03.2020
6055 Thunderstorm 15 1012 77 10000 6.2 60 11:59 22.03.2020
6056 Thunderstorm 16 1013 77 10000 5.1 70 11:41 22.03.2020
6057 Thunderstorm 16 1011 77 10000 3.6 50 11:23 22.03.2020
6058 Thunderstorm 17 1012 82 10000 3.6 60 10:57 22.03.2020
6059 Clouds 16 1013 77 10000 4.6 60 10:39 22.03.2020
6060 Clouds 16 1013 77 10000 4.6 60 10:21 22.03.2020
6061 Clouds 15 1012 72 10000 0.5 0 09:43 22.03.2020
6062 Clouds 15 1012 72 10000 0.5 0 09:23 22.03.2020
6063 Clouds 14 1012 71 10000 1.5 350 08:44 22.03.2020
6064 Clouds 13 1012 71 10000 2.1 40 08:25 22.03.2020
6065 Clouds 12 1012 81 10000 2.1 20 07:53 22.03.2020
6066 Clouds 12 1012 87 10000 1 0 07:32 22.03.2020
6067 Clouds 12 1012 87 10000 1.5 20 06:40 22.03.2020
6068 Clouds 12 1012 87 10000 2.6 10 05:37 22.03.2020
6069 Clouds 13 1012 82 10000 1.5 30 03:47 22.03.2020
6070 Clouds 14 1013 82 10000 1 180 01:35 22.03.2020
6071 Clouds 14 1013 76 10000 1 0 00:49 22.03.2020
6072 Clouds 14 1013 76 10000 0.5 0 00:29 22.03.2020
6073 Clouds 14 1013 76 10000 1 0 23:45 21.03.2020
6074 Rain 14 1013 82 10000 1.5 40 23:21 21.03.2020
6075 Rain 14 1013 82 10000 1.5 40 22:58 21.03.2020
6076 Rain 14 1013 82 10000 2.6 50 22:37 21.03.2020
6077 Rain 15 1013 77 10000 2.6 50 22:18 21.03.2020
6078 Rain 15 1013 77 10000 2.6 50 21:57 21.03.2020
6079 Rain 15 1013 77 10000 3.6 60 21:37 21.03.2020
6080 Rain 15 1013 77 10000 4.6 60 21:18 21.03.2020
6081 Rain 15 1013 77 10000 4.6 70 20:42 21.03.2020
6082 Rain 15 1012 77 10000 3.6 80 20:21 21.03.2020
6083 Rain 16 1012 77 10000 3.6 80 19:55 21.03.2020
6084 Rain 16 1012 72 10000 3.6 80 19:36 21.03.2020
6085 Rain 16 1012 77 10000 2.1 220 19:18 21.03.2020
6086 Rain 16 1012 77 10000 2.1 220 19:18 21.03.2020
6087 Rain 16 1012 77 10000 2.6 230 18:41 21.03.2020
6088 Rain 16 1012 77 10000 2.6 230 18:20 21.03.2020
6089 Clouds 16 1011 87 10000 2.6 270 17:58 21.03.2020
6090 Rain 16 1012 77 10000 3.6 210 17:40 21.03.2020
6091 Rain 16 1012 77 10000 4.1 210 17:22 21.03.2020
6092 Rain 16 1012 77 10000 3.6 220 16:42 21.03.2020
6093 Rain 16 1012 77 10000 3.6 220 16:23 21.03.2020
6094 Rain 17 1012 77 10000 4.1 220 15:59 21.03.2020
6095 Rain 17 1012 72 10000 4.1 130 15:40 21.03.2020
6096 Rain 17 1012 72 10000 4.1 130 15:21 21.03.2020
6097 Rain 17 1012 59 10000 4.1 60 14:57 21.03.2020
6098 Rain 18 1012 59 10000 5.1 70 14:38 21.03.2020
6099 Clouds 18 1012 59 10000 5.1 70 14:19 21.03.2020
6100 Clouds 18 1013 59 10000 6.2 60 13:57 21.03.2020
6101 Clouds 18 1013 52 10000 6.2 80 13:39 21.03.2020
6102 Clouds 18 1013 52 10000 6.2 80 13:21 21.03.2020
6103 Clouds 18 1013 59 10000 6.2 60 12:55 21.03.2020
6104 Clouds 18 1013 52 10000 6.7 70 12:36 21.03.2020
6105 Clouds 18 1013 63 10000 6.2 70 12:18 21.03.2020
6106 Clouds 18 1014 68 10000 5.7 50 11:55 21.03.2020
6107 Clouds 18 1014 68 10000 5.7 50 11:37 21.03.2020
6108 Clear 17 1014 72 10000 5.1 50 11:18 21.03.2020
6109 Clear 17 1014 72 10000 5.1 50 10:56 21.03.2020
6110 Clear 16 1014 72 10000 5.7 60 10:37 21.03.2020
6111 Clear 16 1014 72 10000 5.7 60 10:18 21.03.2020
6112 Clear 15 1014 76 10000 1 340 09:40 21.03.2020
6113 Clear 14 1014 76 10000 1 340 09:21 21.03.2020
6114 Clear 13 1014 76 10000 1 0 08:58 21.03.2020
6115 Clear 12 1014 81 10000 1.5 340 08:39 21.03.2020
6116 Clouds 11 1014 81 10000 1.5 340 08:21 21.03.2020
6117 Clouds 11 1014 81 10000 2.6 340 07:39 21.03.2020
6118 Clouds 11 1014 81 10000 3.1 350 07:20 21.03.2020
6119 Clouds 11 1014 81 10000 2.6 350 06:45 21.03.2020
6120 Clouds 11 1014 81 10000 2.6 350 06:45 21.03.2020
6121 Clouds 11 1014 81 10000 2.6 350 06:26 21.03.2020
6122 Clouds 11 1014 81 10000 2.6 340 05:41 21.03.2020
6123 Clouds 12 1014 81 10000 2.6 20 04:37 21.03.2020
6124 Clouds 13 1016 82 10000 2.6 30 02:39 21.03.2020
6125 Clouds 13 1016 82 10000 2.6 30 02:18 21.03.2020
6126 Clouds 13 1016 82 10000 3.6 50 01:31 21.03.2020
6127 Clouds 13 1017 82 10000 3.6 50 00:47 21.03.2020
6128 Clouds 13 1016 87 10000 2.1 80 00:24 21.03.2020
6129 Clouds 13 1017 82 10000 4.6 70 23:48 20.03.2020
6130 Clouds 13 1017 82 10000 4.6 70 23:24 20.03.2020
6131 Clouds 13 1017 76 10000 4.1 50 22:56 20.03.2020
6132 Clouds 13 1017 76 10000 4.1 50 22:37 20.03.2020
6133 Clouds 14 1017 76 10000 4.1 50 22:19 20.03.2020
6134 Clouds 14 1017 76 10000 5.1 60 21:54 20.03.2020
6135 Clouds 14 1017 76 10000 6.7 60 21:36 20.03.2020
6136 Clouds 14 1017 76 10000 6.7 60 21:18 20.03.2020
6137 Clouds 14 1017 82 10000 4.6 50 20:42 20.03.2020
6138 Clouds 14 1017 82 10000 4.6 50 20:21 20.03.2020
6139 Clouds 15 1017 76 10000 4.6 50 19:59 20.03.2020
6140 Clouds 15 1017 72 10000 5.1 60 19:40 20.03.2020
6141 Clouds 15 1017 63 10000 4.6 60 19:18 20.03.2020
6142 Clouds 16 1017 63 10000 6.2 60 18:54 20.03.2020
6143 Clouds 16 1017 63 10000 6.2 60 18:36 20.03.2020
6144 Clouds 17 1016 63 10000 5.1 60 18:18 20.03.2020
6145 Clouds 17 1017 59 10000 5.7 60 18:18 20.03.2020
6146 Clouds 17 1017 59 10000 5.7 60 17:39 20.03.2020
6147 Clouds 17 1018 55 10000 6.7 70 17:21 20.03.2020
6148 Clouds 17 1018 55 10000 6.7 70 16:57 20.03.2020
6149 Clouds 18 1018 55 10000 6.2 70 16:39 20.03.2020
6150 Clouds 18 1018 55 10000 6.2 70 16:18 20.03.2020
6151 Clouds 18 1018 52 10000 5.7 70 15:42 20.03.2020
6152 Clouds 18 1018 52 10000 5.7 70 15:21 20.03.2020
6153 Clouds 18 1018 48 10000 6.2 60 14:55 20.03.2020
6154 Clouds 18 1018 48 10000 5.7 60 14:37 20.03.2020
6155 Clouds 18 1018 48 10000 5.7 60 14:18 20.03.2020
6156 Clouds 19 1019 52 10000 6.7 60 13:42 20.03.2020
6157 Clouds 18 1019 55 10000 7.2 80 13:19 20.03.2020
6158 Clouds 18 1019 52 10000 6.7 60 12:40 20.03.2020
6159 Clouds 18 1019 52 10000 6.7 60 12:22 20.03.2020
6160 Clouds 18 1019 52 10000 6.7 60 11:58 20.03.2020
6161 Clouds 17 1019 59 10000 6.7 60 11:38 20.03.2020
6162 Clouds 17 1019 59 10000 6.7 90 11:19 20.03.2020
6163 Clouds 16 1019 67 9000 6.2 70 10:42 20.03.2020
6164 Clouds 15 1020 72 7000 5.1 70 10:21 20.03.2020
6165 Clouds 15 1020 72 7000 5.1 70 09:59 20.03.2020
6166 Clouds 15 1020 72 7000 5.1 70 09:59 20.03.2020
6167 Clouds 15 1020 72 10000 4.6 60 09:41 20.03.2020
6168 Clouds 14 1020 76 10000 4.1 50 09:19 20.03.2020
6169 Clouds 13 1020 76 10000 4.1 40 08:43 20.03.2020
6170 Clouds 11 1020 81 10000 3.6 50 08:22 20.03.2020
6171 Clouds 11 1020 81 10000 3.6 50 07:57 20.03.2020
6172 Clouds 11 1019 81 10000 2.6 30 07:38 20.03.2020
6173 Clouds 11 1019 87 10000 2.6 30 07:19 20.03.2020
6174 Clouds 10 1019 81 10000 2.1 20 06:41 20.03.2020
6175 Clouds 11 1019 87 10000 3.1 30 04:54 20.03.2020
6176 Clouds 10 1020 87 10000 2.6 20 03:50 20.03.2020
6177 Clouds 11 1021 87 10000 3.1 40 02:27 20.03.2020
6178 Clouds 11 1021 87 10000 3.1 40 01:47 20.03.2020
6179 Clouds 11 1021 87 10000 1.5 30 00:33 20.03.2020
6180 Clouds 11 1022 87 10000 1.5 30 23:55 19.03.2020
6181 Clouds 12 1021 93 10000 2.6 80 23:36 19.03.2020
6182 Clouds 12 1022 81 10000 3.1 50 23:18 19.03.2020
6183 Clouds 12 1022 76 10000 3.1 60 22:38 19.03.2020
6184 Clouds 12 1022 76 10000 3.1 60 22:20 19.03.2020
6185 Clouds 13 1022 82 10000 3.6 50 21:56 19.03.2020
6186 Clouds 12 1022 76 10000 4.1 60 21:38 19.03.2020
6187 Clouds 13 1022 76 10000 2.6 60 21:18 19.03.2020
6188 Clouds 13 1022 76 8000 5.1 70 20:42 19.03.2020
6189 Clouds 13 1022 76 8000 5.1 70 20:42 19.03.2020
6190 Clouds 14 1022 76 8000 5.1 70 20:24 19.03.2020
6191 Clouds 14 1021 71 8000 4.6 70 19:59 19.03.2020
6192 Clouds 15 1021 62 10000 3.6 70 19:38 19.03.2020
6193 Clouds 15 1020 72 10000 3.1 70 19:20 19.03.2020
6194 Clouds 15 1021 62 8000 5.7 70 18:57 19.03.2020
6195 Clouds 16 1021 62 8000 5.7 70 18:38 19.03.2020
6196 Haze 16 1021 59 3900 5.7 70 18:20 19.03.2020
6197 Haze 17 1021 55 2400 4.1 90 17:43 19.03.2020
6198 Clouds 17 1022 59 10000 1.5 270 17:20 19.03.2020
6199 Clouds 18 1022 59 10000 1.5 270 16:58 19.03.2020
6200 Clouds 18 1022 52 10000 3.6 240 16:39 19.03.2020
6201 Clouds 18 1022 52 10000 3.6 240 16:21 19.03.2020
6202 Clouds 18 1022 55 10000 3.6 230 15:42 19.03.2020
6203 Clouds 18 1022 55 10000 3.6 230 15:23 19.03.2020
6204 Clouds 19 1023 45 10000 3.6 120 14:43 19.03.2020
6205 Clear 18 1023 42 10000 2.1 0 14:23 19.03.2020
6206 Clouds 18 1022 55 10000 3.6 50 13:57 19.03.2020
6207 Clouds 18 1022 55 10000 3.6 50 13:57 19.03.2020
6208 Clear 18 1023 42 10000 2.6 60 13:37 19.03.2020
6209 Clouds 18 1022 45 10000 2.6 80 13:18 19.03.2020
6210 Clear 18 1023 48 10000 3.1 80 12:41 19.03.2020
6211 Clear 18 1024 48 10000 2.1 100 12:23 19.03.2020
6212 Clear 17 1024 55 10000 3.1 90 11:58 19.03.2020
6213 Clear 17 1024 55 10000 3.1 90 11:40 19.03.2020
6214 Clear 16 1024 67 10000 4.6 70 11:22 19.03.2020
6215 Clear 16 1024 72 10000 5.1 70 10:42 19.03.2020
6216 Clear 16 1024 72 10000 5.1 70 10:21 19.03.2020
6217 Clear 15 1024 72 10000 4.6 60 09:58 19.03.2020
6218 Clear 14 1024 82 10000 4.1 60 09:39 19.03.2020
6219 Clear 14 1024 87 10000 2.1 40 09:19 19.03.2020
6220 Clear 14 1024 87 10000 2.1 40 08:46 19.03.2020
6221 Clouds 12 1024 87 10000 1.5 40 08:22 19.03.2020
6222 Clouds 11 1024 87 10000 2.1 30 07:47 19.03.2020
6223 Clouds 12 1024 87 10000 2.1 30 07:29 19.03.2020
6224 Clouds 11 1023 93 10000 4.6 60 06:51 19.03.2020
6225 Clouds 11 1024 87 10000 2.1 360 05:52 19.03.2020
6226 Clouds 10 1024 87 10000 1 0 05:19 19.03.2020
6227 Clouds 11 1024 81 10000 0.5 310 04:41 19.03.2020
6228 Clouds 11 1024 81 10000 2.1 10 03:36 19.03.2020
6229 Clouds 12 1025 87 8000 1.5 340 01:27 19.03.2020
6230 Clouds 12 1025 81 10000 2.1 10 00:38 19.03.2020
6231 Clouds 13 1026 82 10000 1.5 360 23:58 18.03.2020
6232 Clouds 13 1026 87 10000 1.5 10 23:39 18.03.2020
6233 Clouds 13 1026 87 10000 1.5 20 23:18 18.03.2020
6234 Clouds 13 1026 82 10000 2.6 50 22:42 18.03.2020
6235 Clouds 13 1026 82 10000 2.6 50 22:22 18.03.2020
6236 Clouds 14 1026 82 10000 2.1 50 21:54 18.03.2020
6237 Clouds 14 1026 82 10000 1.5 70 21:36 18.03.2020
6238 Clouds 14 1026 82 10000 3.1 70 21:18 18.03.2020
6239 Clouds 14 1026 82 10000 3.1 50 20:41 18.03.2020
6240 Clouds 15 1026 82 10000 3.1 50 20:21 18.03.2020
6241 Clouds 15 1025 77 10000 4.1 60 19:59 18.03.2020
6242 Clouds 15 1025 77 10000 4.6 60 19:40 18.03.2020
6243 Clouds 15 1025 77 10000 5.7 70 19:21 18.03.2020
6244 Clouds 16 1025 77 10000 5.7 70 18:56 18.03.2020
6245 Clouds 16 1025 77 10000 5.7 70 18:37 18.03.2020
6246 Clouds 17 1025 72 10000 5.7 60 18:18 18.03.2020
6247 Clouds 17 1025 72 10000 6.2 60 17:41 18.03.2020
6248 Clouds 18 1025 67 10000 6.2 70 17:22 18.03.2020
6249 Clouds 18 1025 67 10000 6.2 70 16:59 18.03.2020
6250 Clouds 18 1025 67 10000 6.2 70 16:59 18.03.2020
6251 Clouds 18 1025 63 10000 6.2 60 16:40 18.03.2020
6252 Clouds 18 1025 63 10000 6.2 60 16:20 18.03.2020
6253 Clouds 18 1025 63 10000 5.1 50 15:56 18.03.2020
6254 Clouds 18 1025 63 10000 6.2 80 15:37 18.03.2020
6255 Clouds 18 1025 63 10000 5.1 80 15:19 18.03.2020
6256 Clouds 18 1026 68 10000 6.7 60 14:42 18.03.2020
6257 Clouds 18 1026 68 10000 6.7 60 14:21 18.03.2020
6258 Clouds 18 1026 68 10000 5.7 60 13:41 18.03.2020
6259 Clouds 18 1026 68 10000 5.7 60 13:19 18.03.2020
6260 Clouds 18 1027 63 10000 6.7 60 12:54 18.03.2020
6261 Clouds 18 1027 63 10000 6.7 60 12:36 18.03.2020
6262 Clouds 17 1027 67 10000 6.7 60 12:18 18.03.2020
6263 Clouds 17 1027 67 10000 6.7 60 12:18 18.03.2020
6264 Clouds 17 1027 63 10000 7.2 60 11:38 18.03.2020
6265 Clouds 17 1027 72 10000 6.7 50 11:19 18.03.2020
6266 Clouds 17 1027 72 10000 6.7 50 10:56 18.03.2020
6267 Clouds 16 1027 72 10000 6.7 50 10:37 18.03.2020
6268 Clouds 16 1027 72 10000 6.7 50 10:18 18.03.2020
6269 Clouds 16 1027 72 10000 6.7 50 10:18 18.03.2020
6270 Clouds 16 1027 72 10000 6.7 50 10:18 18.03.2020
6271 Rain 15 1027 77 10000 5.7 60 09:42 18.03.2020
6272 Rain 15 1027 77 10000 5.1 50 09:23 18.03.2020
6273 Clouds 15 1027 77 10000 5.1 50 08:55 18.03.2020
6274 Clouds 14 1027 82 10000 4.6 50 08:37 18.03.2020
6275 Clouds 13 1027 82 10000 4.6 50 08:19 18.03.2020
6276 Clouds 13 1027 76 10000 4.1 40 07:41 18.03.2020
6277 Clouds 13 1026 93 10000 2.1 80 07:23 18.03.2020
6278 Clouds 13 1027 76 10000 4.1 40 06:43 18.03.2020
6279 Clouds 13 1027 76 10000 4.6 50 05:56 18.03.2020
6280 Clouds 14 1026 87 10000 3.6 60 05:33 18.03.2020
6281 Clouds 14 1027 76 10000 4.6 40 03:56 18.03.2020
6282 Clouds 14 1026 87 10000 2.6 70 02:40 18.03.2020
6283 Clouds 15 1027 67 10000 5.1 40 01:46 18.03.2020
6284 Clouds 15 1027 72 10000 6.7 50 01:21 18.03.2020
6285 Clouds 15 1027 72 10000 5.1 50 00:23 18.03.2020
6286 Clouds 15 1027 72 10000 6.2 50 23:47 17.03.2020
6287 Clouds 15 1028 72 10000 6.2 50 23:26 17.03.2020
6288 Clouds 15 1027 72 10000 6.2 60 22:48 17.03.2020
6289 Clouds 15 1027 77 10000 6.2 50 22:29 17.03.2020
6290 Clouds 15 1027 77 10000 6.2 50 21:59 17.03.2020
6291 Clouds 15 1027 77 10000 6.7 50 21:39 17.03.2020
6292 Clouds 15 1027 77 10000 6.7 50 21:21 17.03.2020
6293 Clouds 15 1026 82 10000 6.7 60 20:40 17.03.2020
6294 Clouds 15 1026 82 10000 6.7 60 20:21 17.03.2020
6295 Clouds 15 1026 77 10000 7.7 50 19:58 17.03.2020
6296 Clouds 15 1026 82 10000 6.2 60 19:39 17.03.2020
6297 Clouds 15 1026 82 10000 6.2 70 19:18 17.03.2020
6298 Clouds 16 1025 77 10000 5.7 80 18:55 17.03.2020
6299 Clouds 16 1025 77 10000 7.7 70 18:37 17.03.2020
6300 Clouds 16 1025 77 10000 7.7 70 18:19 17.03.2020
6301 Clouds 17 1025 63 10000 8.2 80 17:40 17.03.2020
6302 Clouds 17 1025 63 10000 8.7 70 17:21 17.03.2020
6303 Clouds 17 1025 63 10000 8.7 70 16:54 17.03.2020
6304 Clouds 18 1025 63 10000 7.2 80 16:36 17.03.2020
6305 Clouds 18 1025 59 10000 7.2 90 16:18 17.03.2020
6306 Clouds 18 1025 63 10000 8.2 100 15:41 17.03.2020
6307 Clouds 18 1025 68 10000 7.7 70 15:19 17.03.2020
6308 Rain 18 1025 72 10000 8.7 80 14:42 17.03.2020
6309 Rain 18 1025 72 10000 8.7 80 14:21 17.03.2020
6310 Rain 18 1025 77 10000 8.7 70 13:44 17.03.2020
6311 Rain 17 1025 77 10000 8.7 70 13:26 17.03.2020
6312 Clouds 17 1025 77 10000 6.7 80 12:58 17.03.2020
6313 Clouds 17 1025 82 10000 6.7 80 12:40 17.03.2020
6314 Clouds 17 1026 82 10000 7.2 80 12:21 17.03.2020
6315 Clouds 17 1026 82 10000 7.2 80 11:46 17.03.2020
6316 Clouds 16 1024 82 10000 6.7 80 11:27 17.03.2020
6317 Clouds 16 1025 82 10000 6.7 70 10:58 17.03.2020
6318 Clouds 16 1025 82 10000 6.7 70 10:38 17.03.2020
6319 Clouds 16 1025 82 10000 6.7 70 10:20 17.03.2020
6320 Clouds 16 1025 82 10000 4.6 60 09:55 17.03.2020
6321 Clouds 16 1025 82 10000 4.6 60 09:55 17.03.2020
6322 Clouds 16 1024 87 10000 6.2 70 09:36 17.03.2020
6323 Clouds 16 1024 93 9000 5.7 70 09:18 17.03.2020
6324 Clouds 15 1024 93 10000 4.6 70 08:42 17.03.2020
6325 Rain 15 1024 93 10000 4.6 70 08:21 17.03.2020
6326 Rain 15 1023 87 10000 5.7 80 07:50 17.03.2020
6327 Clouds 16 1021 87 10000 6.7 60 07:25 17.03.2020
6328 Rain 15 1022 87 10000 3.6 50 06:56 17.03.2020
6329 Rain 15 1021 87 10000 2.6 40 06:33 17.03.2020
6330 Rain 16 1020 82 10000 5.1 20 05:41 17.03.2020
6331 Rain 16 1021 82 10000 3.6 50 03:36 17.03.2020
6332 Rain 16 1022 82 10000 4.1 60 02:45 17.03.2020
6333 Rain 16 1021 82 10000 3.1 60 01:41 17.03.2020
6334 Rain 16 1021 82 10000 3.1 60 01:19 17.03.2020
6335 Rain 16 1021 87 10000 4.1 70 00:19 17.03.2020
6336 Rain 16 1020 82 7000 3.6 70 23:45 16.03.2020
6337 Rain 16 1019 93 10000 4.1 80 23:23 16.03.2020
6338 Rain 16 1020 82 10000 4.6 80 22:40 16.03.2020
6339 Rain 16 1020 82 10000 4.6 80 22:22 16.03.2020
6340 Rain 16 1019 82 10000 3.6 70 21:55 16.03.2020
6341 Rain 16 1019 82 10000 4.6 80 21:36 16.03.2020
6342 Rain 16 1019 82 10000 4.6 80 21:18 16.03.2020
6343 Rain 16 1018 82 10000 3.6 90 20:43 16.03.2020
6344 Rain 16 1018 82 10000 3.6 90 20:24 16.03.2020
6345 Clouds 17 1017 77 10000 3.6 90 19:56 16.03.2020
6346 Clouds 17 1017 77 10000 3.1 120 19:37 16.03.2020
6347 Clouds 17 1017 77 10000 3.1 120 19:18 16.03.2020
6348 Clouds 17 1016 77 10000 3.6 130 18:41 16.03.2020
6349 Clouds 18 1016 72 10000 4.1 130 18:20 16.03.2020
6350 Clouds 18 1016 72 10000 4.1 130 17:46 16.03.2020
6351 Clouds 18 1014 77 10000 4.6 130 17:26 16.03.2020
6352 Clouds 18 1015 72 10000 5.7 130 16:59 16.03.2020
6353 Clouds 18 1015 68 10000 5.7 140 16:41 16.03.2020
6354 Clouds 18 1015 68 10000 5.7 140 16:22 16.03.2020
6355 Clouds 19 1015 68 10000 4.6 130 15:44 16.03.2020
6356 Clouds 19 1015 68 10000 4.6 130 15:25 16.03.2020
6357 Clouds 18 1015 72 10000 4.6 110 14:49 16.03.2020
6358 Clouds 19 1015 72 10000 5.1 90 14:27 16.03.2020
6359 Clouds 18 1015 72 10000 5.7 90 13:57 16.03.2020
6360 Clouds 19 1015 72 10000 6.2 90 13:38 16.03.2020
6361 Clouds 18 1015 72 10000 6.2 90 13:20 16.03.2020
6362 Clouds 17 1015 82 10000 5.7 90 12:44 16.03.2020
6363 Clouds 17 1014 82 10000 4.1 110 12:23 16.03.2020
6364 Clouds 16 1015 87 10000 5.7 70 11:46 16.03.2020
6365 Rain 16 1015 93 10000 4.6 70 11:27 16.03.2020
6366 Rain 15 1015 93 10000 4.6 70 10:55 16.03.2020
6367 Drizzle 15 1015 87 10000 5.1 70 10:37 16.03.2020
6368 Drizzle 15 1015 87 10000 5.1 70 10:18 16.03.2020
6369 Rain 15 1014 82 10000 4.1 50 09:40 16.03.2020
6370 Rain 15 1014 82 10000 4.6 80 09:20 16.03.2020
6371 Rain 15 1014 82 10000 4.6 80 08:49 16.03.2020
6372 Clouds 14 1014 87 10000 3.1 70 08:25 16.03.2020
6373 Clouds 14 1014 82 10000 4.1 60 07:45 16.03.2020
6374 Clouds 14 1014 82 10000 4.1 60 07:21 16.03.2020
6375 Clouds 14 1014 76 10000 4.1 60 06:51 16.03.2020
6376 Clouds 14 1014 76 10000 4.1 60 06:23 16.03.2020
6377 Clouds 13 1014 82 10000 3.6 40 04:54 16.03.2020
6378 Clouds 13 1015 76 10000 4.6 50 02:41 16.03.2020
6379 Clouds 12 1017 82 10000 5.1 60 00:52 16.03.2020
6380 Clouds 12 1017 87 10000 4.1 60 00:32 16.03.2020
6381 Clouds 12 1018 87 10000 2.1 80 23:46 15.03.2020
6382 Clouds 12 1018 87 10000 2.1 60 23:20 15.03.2020
6383 Clouds 13 1018 82 10000 2.6 50 22:42 15.03.2020
6384 Clouds 13 1018 82 10000 2.6 50 22:22 15.03.2020
6385 Clouds 13 1018 87 10000 2.6 60 21:56 15.03.2020
6386 Clouds 13 1017 76 10000 2.6 60 21:37 15.03.2020
6387 Clouds 13 1017 76 10000 2.6 60 21:18 15.03.2020
6388 Clouds 14 1017 71 10000 3.6 60 20:42 15.03.2020
6389 Clouds 14 1017 71 10000 3.6 60 20:20 15.03.2020
6390 Clouds 15 1017 67 10000 3.6 70 19:58 15.03.2020
6391 Clouds 16 1017 67 10000 3.1 90 19:38 15.03.2020
6392 Clouds 16 1017 67 10000 3.1 90 19:19 15.03.2020
6393 Clouds 17 1016 63 10000 3.6 100 18:55 15.03.2020
6394 Clouds 17 1016 67 10000 2.1 220 18:37 15.03.2020
6395 Clouds 18 1015 59 10000 3.6 140 18:18 15.03.2020
6396 Clouds 18 1017 63 10000 3.6 230 17:41 15.03.2020
6397 Clouds 19 1016 56 10000 2.6 160 17:21 15.03.2020
6398 Clouds 18 1017 63 10000 3.1 230 16:58 15.03.2020
6399 Clouds 18 1018 67 10000 4.6 230 16:38 15.03.2020
6400 Clouds 18 1018 67 10000 4.6 230 16:19 15.03.2020
6401 Clouds 19 1018 67 10000 5.7 220 15:45 15.03.2020
6402 Clouds 19 1018 67 10000 5.7 220 15:27 15.03.2020
6403 Clouds 19 1019 68 10000 5.7 230 14:57 15.03.2020
6404 Clouds 18 1019 63 10000 5.7 230 14:38 15.03.2020
6405 Clear 18 1019 63 10000 5.7 230 14:18 15.03.2020
6406 Clear 18 1019 63 10000 5.7 230 14:18 15.03.2020
6407 Clear 18 1019 68 10000 5.1 220 13:54 15.03.2020
6408 Clear 18 1020 67 10000 5.7 230 13:36 15.03.2020
6409 Clear 18 1020 67 10000 6.2 220 13:18 15.03.2020
6410 Clear 18 1020 67 10000 6.2 220 13:18 15.03.2020
6411 Clear 18 1020 63 10000 3.6 200 12:39 15.03.2020
6412 Clear 18 1021 59 10000 2.6 180 12:21 15.03.2020
6413 Clear 18 1021 59 10000 1 0 11:43 15.03.2020
6414 Clouds 17 1020 68 10000 1 20 11:24 15.03.2020
6415 Clear 17 1021 67 10000 1 0 10:57 15.03.2020
6416 Clear 16 1021 72 10000 0.5 50 10:39 15.03.2020
6417 Clear 16 1021 72 10000 0.5 50 10:39 15.03.2020
6418 Clear 16 1021 72 10000 0.5 50 10:21 15.03.2020
6419 Clear 13 1021 82 10000 1.5 360 09:44 15.03.2020
6420 Clear 13 1021 82 10000 1.5 360 09:25 15.03.2020
6421 Clear 12 1021 87 10000 1.5 340 08:59 15.03.2020
6422 Clear 11 1021 93 10000 1.5 350 08:40 15.03.2020
6423 Clear 10 1021 93 10000 1.5 350 08:19 15.03.2020
6424 Clear 9 1021 87 10000 1.5 10 07:44 15.03.2020
6425 Clear 9 1020 87 10000 1 360 07:18 15.03.2020
6426 Clear 9 1020 93 10000 1.5 350 06:36 15.03.2020
6427 Clear 9 1020 93 10000 1.5 360 05:46 15.03.2020
6428 Clear 10 1020 93 10000 2.1 350 04:55 15.03.2020
6429 Clear 10 1021 87 10000 1.5 360 04:33 15.03.2020
6430 Clear 10 1021 87 10000 1 350 03:59 15.03.2020
6431 Clear 11 1021 81 10000 0.5 40 02:49 15.03.2020
6432 Clear 11 1022 81 10000 1 10 02:21 15.03.2020
6433 Clear 12 1022 87 10000 1 10 00:57 15.03.2020
6434 Clear 11 1022 87 10000 1.5 360 00:39 15.03.2020
6435 Clear 11 1022 81 10000 1 350 00:18 15.03.2020
6436 Clear 11 1022 81 10000 0.5 0 23:38 14.03.2020
6437 Clear 12 1022 81 10000 0.5 10 23:19 14.03.2020
6438 Clear 12 1022 81 10000 0.5 10 22:55 14.03.2020
6439 Clear 12 1022 81 10000 1 10 22:37 14.03.2020
6440 Clear 12 1022 81 10000 1 10 22:19 14.03.2020
6441 Clear 13 1022 81 10000 1 100 21:55 14.03.2020
6442 Clear 13 1022 81 10000 1 100 21:55 14.03.2020
6443 Clear 13 1022 76 10000 1.5 150 21:36 14.03.2020
6444 Clear 13 1022 76 10000 1.5 150 21:18 14.03.2020
6445 Clear 14 1022 76 10000 1.5 180 20:56 14.03.2020
6446 Clear 15 1021 76 10000 1 180 20:38 14.03.2020
6447 Clear 15 1021 76 10000 2.1 210 20:18 14.03.2020
6448 Clear 15 1021 76 10000 2.1 200 19:41 14.03.2020
6449 Clear 15 1021 76 10000 2.1 200 19:20 14.03.2020
6450 Clear 16 1021 72 10000 2.6 200 18:40 14.03.2020
6451 Clear 17 1021 63 10000 2.6 190 18:20 14.03.2020
6452 Clear 17 1021 63 10000 3.1 180 17:43 14.03.2020
6453 Clear 16 1021 63 10000 4.1 200 17:24 14.03.2020
6454 Clear 16 1021 63 10000 4.1 200 16:59 14.03.2020
6455 Clear 17 1021 63 10000 4.1 200 16:38 14.03.2020
6456 Clear 17 1021 63 10000 4.1 200 16:19 14.03.2020
6457 Clear 18 1021 63 10000 4.6 210 15:48 14.03.2020
6458 Clear 19 1021 55 10000 5.7 220 15:25 14.03.2020
6459 Clear 19 1021 55 10000 5.1 220 14:44 14.03.2020
6460 Clouds 19 1021 55 10000 5.1 220 14:22 14.03.2020
6461 Clouds 19 1021 52 10000 4.6 220 13:57 14.03.2020
6462 Clouds 19 1021 52 10000 1 70 13:39 14.03.2020
6463 Clouds 19 1022 55 10000 1.5 210 13:20 14.03.2020
6464 Clouds 18 1022 55 10000 1.5 210 12:45 14.03.2020
6465 Clouds 18 1022 55 10000 1 100 12:26 14.03.2020
6466 Clouds 17 1022 59 10000 2.6 70 11:56 14.03.2020
6467 Clouds 17 1022 59 10000 4.6 70 11:38 14.03.2020
6468 Clouds 17 1022 59 10000 4.6 70 11:19 14.03.2020
6469 Clouds 16 1022 67 10000 6.2 70 10:42 14.03.2020
6470 Clouds 16 1022 77 10000 4.6 60 10:23 14.03.2020
6471 Clouds 15 1022 76 10000 1.5 40 09:46 14.03.2020
6472 Clouds 14 1022 76 10000 1.5 40 09:24 14.03.2020
6473 Clouds 14 1022 76 10000 1.5 40 09:24 14.03.2020
6474 Clouds 13 1021 87 10000 1 30 08:51 14.03.2020
6475 Clouds 12 1021 87 10000 1.5 350 08:29 14.03.2020
6476 Clouds 11 1020 93 10000 2.1 20 07:56 14.03.2020
6477 Clouds 11 1020 87 10000 1.5 10 07:38 14.03.2020
6478 Clouds 11 1020 87 10000 1 0 07:19 14.03.2020
6479 Clouds 12 1020 87 10000 0.5 0 06:40 14.03.2020
6480 Clouds 12 1020 87 10000 0.5 0 06:40 14.03.2020
6481 Clouds 12 1019 81 10000 1 210 05:43 14.03.2020
6482 Rain 13 1020 81 10000 1.5 40 03:49 14.03.2020
6483 Drizzle 12 1020 76 10000 2.6 0 03:24 14.03.2020
6484 Rain 13 1021 71 10000 1.5 310 02:23 14.03.2020
6485 Clouds 13 1020 54 10000 2.6 360 00:49 14.03.2020
6486 Clouds 13 1020 66 10000 1.5 10 23:51 13.03.2020
6487 Clouds 13 1020 66 10000 1.5 10 23:30 13.03.2020
6488 Clouds 13 1020 71 10000 3.6 40 22:52 13.03.2020
6489 Clouds 13 1020 71 10000 3.6 40 22:52 13.03.2020
6490 Clouds 13 1020 67 10000 3.6 50 22:26 13.03.2020
6491 Clouds 13 1020 76 10000 2.6 30 21:44 13.03.2020
6492 Clouds 13 1020 76 10000 2.6 30 21:22 13.03.2020
6493 Clouds 14 1019 71 10000 3.1 30 20:59 13.03.2020
6494 Clouds 14 1019 67 10000 1 250 20:41 13.03.2020
6495 Clouds 14 1019 67 10000 1 250 20:21 13.03.2020
6496 Clouds 15 1019 62 10000 2.6 60 19:49 13.03.2020
6497 Clouds 16 1018 55 10000 6.2 60 19:30 13.03.2020
6498 Clouds 16 1017 63 10000 6.7 70 18:55 13.03.2020
6499 Clouds 17 1018 45 10000 8.2 60 18:36 13.03.2020
6500 Clouds 17 1018 45 10000 8.2 60 18:18 13.03.2020
6501 Clouds 18 1018 48 10000 6.2 70 17:41 13.03.2020
6502 Clouds 18 1018 42 10000 8.2 70 17:21 13.03.2020
6503 Clouds 18 1018 42 10000 8.2 70 16:55 13.03.2020
6504 Clouds 19 1018 52 10000 8.2 70 16:36 13.03.2020
6505 Clouds 19 1019 52 10000 8.2 60 16:18 13.03.2020
6506 Clouds 19 1019 52 10000 8.2 60 15:41 13.03.2020
6507 Clouds 19 1019 49 10000 6.7 60 15:21 13.03.2020
6508 Clouds 19 1019 49 10000 6.7 60 14:44 13.03.2020
6509 Clouds 19 1019 49 10000 6.7 60 14:23 13.03.2020
6510 Clouds 20 1019 45 10000 9.3 60 13:59 13.03.2020
6511 Clouds 19 1020 55 10000 8.7 60 13:40 13.03.2020
6512 Clouds 19 1020 59 10000 9.8 60 13:21 13.03.2020
6513 Clouds 19 1020 59 10000 9.8 60 12:56 13.03.2020
6514 Clouds 19 1020 59 10000 9.8 60 12:38 13.03.2020
6515 Clouds 19 1020 59 10000 9.8 60 12:19 13.03.2020
6516 Clouds 18 1020 59 10000 11.3 60 11:46 13.03.2020
6517 Clouds 18 1020 59 10000 8.2 60 11:26 13.03.2020
6518 Clouds 18 1020 59 10000 8.2 60 10:59 13.03.2020
6519 Clouds 17 1020 63 10000 8.7 60 10:41 13.03.2020
6520 Clouds 17 1020 63 10000 8.7 60 10:23 13.03.2020
6521 Clouds 17 1019 72 10000 8.2 60 09:45 13.03.2020
6522 Clouds 16 1019 72 10000 8.2 60 09:26 13.03.2020
6523 Clouds 16 1019 77 10000 9.3 60 08:56 13.03.2020
6524 Clouds 15 1019 77 10000 8.7 60 08:37 13.03.2020
6525 Clouds 14 1019 82 10000 8.2 60 08:18 13.03.2020
6526 Clouds 13 1019 76 10000 8.7 60 07:43 13.03.2020
6527 Clouds 14 1018 77 10000 6.7 60 07:22 13.03.2020
6528 Clouds 14 1018 72 10000 8.7 60 06:46 13.03.2020
6529 Clouds 13 1018 71 10000 8.7 60 06:20 13.03.2020
6530 Clouds 13 1018 67 10000 8.2 50 05:43 13.03.2020
6531 Clouds 12 1018 66 10000 3.1 340 04:39 13.03.2020
6532 Clouds 12 1018 62 10000 3.6 340 03:50 13.03.2020
6533 Clouds 12 1019 66 10000 2.1 10 01:49 13.03.2020
6534 Clouds 13 1019 62 10000 2.1 350 01:20 13.03.2020
6535 Clouds 12 1019 62 10000 2.1 350 00:59 13.03.2020
6536 Clouds 12 1019 62 10000 2.1 350 00:39 13.03.2020
6537 Clouds 12 1019 62 10000 1.5 360 00:18 13.03.2020
6538 Clouds 13 1019 62 10000 2.6 350 23:38 12.03.2020
6539 Clouds 13 1020 58 10000 2.6 340 23:19 12.03.2020
6540 Clouds 13 1019 54 10000 2.6 350 22:44 12.03.2020
6541 Clouds 13 1019 54 10000 2.6 350 22:25 12.03.2020
6542 Clouds 14 1020 54 10000 2.1 340 21:55 12.03.2020
6543 Clouds 14 1020 51 10000 1 360 21:37 12.03.2020
6544 Clouds 15 1020 51 10000 1 360 21:18 12.03.2020
6545 Clouds 15 1020 48 10000 1 170 20:42 12.03.2020
6546 Clouds 16 1020 48 10000 1 170 20:20 12.03.2020
6547 Clouds 17 1019 36 10000 1 0 19:42 12.03.2020
6548 Clouds 18 1019 34 10000 1.5 210 19:22 12.03.2020
6549 Clouds 18 1019 34 10000 1.5 210 18:59 12.03.2020
6550 Clouds 20 1019 34 10000 1.5 210 18:41 12.03.2020
6551 Clouds 20 1019 30 10000 3.1 200 18:22 12.03.2020
6552 Clouds 20 1018 40 10000 2.1 250 17:56 12.03.2020
6553 Clouds 21 1019 30 10000 2.6 230 17:37 12.03.2020
6554 Clouds 21 1019 32 10000 4.1 220 17:18 12.03.2020
6555 Clouds 21 1020 32 10000 3.6 220 16:41 12.03.2020
6556 Clouds 21 1020 30 10000 4.6 220 16:22 12.03.2020
6557 Clouds 21 1020 26 10000 4.1 220 15:49 12.03.2020
6558 Clouds 21 1020 26 10000 4.1 220 15:28 12.03.2020
6559 Clouds 21 1020 26 10000 4.1 220 15:28 12.03.2020
6560 Clouds 22 1021 62 10000 3.1 220 14:56 12.03.2020
6561 Clouds 21 1021 28 10000 4.1 210 14:56 12.03.2020
6562 Clouds 21 1021 28 10000 4.1 210 14:37 12.03.2020
6563 Clouds 21 1021 28 10000 4.1 210 14:18 12.03.2020
6564 Clouds 20 1022 35 10000 3.6 210 13:40 12.03.2020
6565 Clouds 21 1022 35 10000 3.6 210 13:21 12.03.2020
6566 Clouds 21 1023 32 10000 2.6 230 12:55 12.03.2020
6567 Clouds 21 1023 32 10000 2.6 230 12:55 12.03.2020
6568 Clouds 21 1023 40 10000 2.1 200 12:37 12.03.2020
6569 Clouds 21 1023 32 10000 2.6 220 12:18 12.03.2020
6570 Clouds 21 1022 49 10000 2.6 260 11:55 12.03.2020
6571 Clouds 20 1023 39 10000 3.1 220 11:36 12.03.2020
6572 Clouds 18 1023 52 10000 2.1 190 11:18 12.03.2020
6573 Clouds 18 1023 67 10000 1 170 10:43 12.03.2020
6574 Clouds 18 1023 67 10000 1 170 10:43 12.03.2020
6575 Clouds 18 1023 67 10000 1 170 10:24 12.03.2020
6576 Clouds 16 1023 87 10000 1 0 09:59 12.03.2020
6577 Clouds 15 1023 82 10000 0.5 100 09:40 12.03.2020
6578 Clouds 15 1023 82 10000 0.5 100 09:22 12.03.2020
6579 Clouds 12 1023 93 10000 0.5 340 08:39 12.03.2020
6580 Clouds 11 1023 93 10000 0.5 340 08:19 12.03.2020
6581 Clouds 10 1023 93 10000 1.5 340 07:48 12.03.2020
6582 Fog 10 1022 100 10000 0.5 70 07:22 12.03.2020
6583 Clouds 10 1022 100 10000 1 330 06:33 12.03.2020
6584 Fog 11 1021 100 100 0.5 0 05:36 12.03.2020
6585 Mist 11 1023 100 2200 1 10 03:45 12.03.2020
6586 Fog 12 1024 93 200 1 360 02:21 12.03.2020
6587 Fog 13 1024 93 150 1.5 330 01:29 12.03.2020
6588 Mist 14 1024 93 2100 1 0 00:42 12.03.2020
6589 Mist 14 1024 93 3100 0.5 0 23:59 11.03.2020
6590 Mist 14 1024 93 3100 0.5 0 23:37 11.03.2020
6591 Mist 14 1024 93 5000 1 0 23:18 11.03.2020
6592 Clouds 14 1024 87 7000 0.5 0 22:42 11.03.2020
6593 Clouds 14 1024 87 7000 0.5 0 22:23 11.03.2020
6594 Clouds 14 1024 93 8000 1.5 110 21:58 11.03.2020
6595 Clouds 14 1024 87 9000 0.5 0 21:40 11.03.2020
6596 Clouds 14 1023 93 10000 0.5 0 21:22 11.03.2020
6597 Clouds 15 1024 93 10000 1.5 170 20:57 11.03.2020
6598 Clouds 15 1024 87 10000 1.5 170 20:38 11.03.2020
6599 Clear 16 1024 93 10000 1.5 170 20:19 11.03.2020
6600 Clear 16 1024 87 10000 1.5 180 19:43 11.03.2020
6601 Clear 16 1024 87 10000 1.5 180 19:25 11.03.2020
6602 Clear 18 1023 77 10000 2.6 190 18:57 11.03.2020
6603 Clear 18 1023 77 10000 2.6 190 18:38 11.03.2020
6604 Clear 18 1023 77 10000 3.1 190 18:20 11.03.2020
6605 Clear 18 1023 77 10000 3.1 190 17:56 11.03.2020
6606 Clear 19 1023 77 10000 3.1 190 17:37 11.03.2020
6607 Clear 19 1023 72 10000 5.7 200 17:19 11.03.2020
6608 Clear 18 1023 68 10000 4.6 210 16:45 11.03.2020
6609 Clear 18 1023 72 10000 4.1 200 16:21 11.03.2020
6610 Clear 18 1023 72 10000 4.1 210 15:44 11.03.2020
6611 Clear 18 1023 72 10000 4.1 210 15:24 11.03.2020
6612 Clear 18 1024 72 10000 4.6 210 14:57 11.03.2020
6613 Clear 18 1024 72 10000 4.6 210 14:39 11.03.2020
6614 Clear 18 1024 72 10000 4.6 210 14:21 11.03.2020
6615 Clear 19 1025 72 10000 3.6 210 13:44 11.03.2020
6616 Clear 19 1025 72 10000 4.1 210 13:26 11.03.2020
6617 Clear 19 1025 72 10000 4.1 210 12:58 11.03.2020
6618 Clear 19 1025 72 10000 2.6 220 12:39 11.03.2020
6619 Clouds 19 1024 77 10000 3.6 240 12:19 11.03.2020
6620 Clear 19 1025 72 10000 2.1 190 11:42 11.03.2020
6621 Clear 18 1025 72 10000 2.1 190 11:23 11.03.2020
6622 Clear 17 1025 72 10000 2.1 170 10:57 11.03.2020
6623 Clear 17 1025 72 10000 1.5 140 10:39 11.03.2020
6624 Clear 16 1025 77 10000 0.5 0 10:18 11.03.2020
6625 Clear 15 1025 87 10000 1 0 09:42 11.03.2020
6626 Clear 15 1025 87 10000 1 0 09:24 11.03.2020
6627 Clear 12 1024 87 10000 1 20 08:45 11.03.2020
6628 Clouds 10 1024 87 10000 1 20 08:27 11.03.2020
6629 Clouds 9 1024 87 10000 0.5 350 07:56 11.03.2020
6630 Clouds 9 1024 87 10000 2.1 350 07:37 11.03.2020
6631 Clouds 9 1024 87 10000 2.1 350 07:18 11.03.2020
6632 Clouds 9 1024 81 10000 1.5 340 06:37 11.03.2020
6633 Clouds 10 1024 81 10000 1 360 05:34 11.03.2020
6634 Clouds 11 1024 87 10000 1.5 340 03:59 11.03.2020
6635 Clouds 11 1025 87 10000 1 0 01:59 11.03.2020
6636 Clouds 12 1025 87 10000 1.5 50 01:26 11.03.2020
6637 Clouds 12 1025 87 10000 1 0 00:45 11.03.2020
6638 Clouds 13 1025 93 10000 2.6 220 23:56 10.03.2020
6639 Clouds 13 1025 93 10000 2.6 220 23:55 10.03.2020
6640 Clouds 13 1025 93 10000 2.6 220 23:55 10.03.2020
6641 Clouds 13 1025 93 10000 2.6 220 23:55 10.03.2020
6642 Clouds 13 1026 87 10000 0.5 0 23:37 10.03.2020
6643 Clouds 14 1026 82 10000 4.99 239 23:18 10.03.2020
6644 Clouds 14 1026 82 10000 1.5 240 22:38 10.03.2020
6645 Clouds 14 1026 82 10000 1.5 240 22:19 10.03.2020
6646 Clouds 14 1026 82 10000 1.5 240 22:19 10.03.2020
6647 Clouds 14 1025 82 10000 3.6 230 21:56 10.03.2020
6648 Clouds 13 1025 82 10000 2.6 210 21:38 10.03.2020
6649 Clouds 14 1025 82 10000 2.6 210 21:19 10.03.2020
6650 Clouds 13 1025 76 10000 3.6 230 20:57 10.03.2020
6651 Clouds 14 1025 76 10000 3.6 230 20:38 10.03.2020
6652 Clouds 14 1025 76 10000 3.6 230 20:18 10.03.2020
6653 Clouds 14 1025 76 10000 4.1 240 20:18 10.03.2020
6654 Clouds 14 1025 76 10000 4.1 240 19:56 10.03.2020
6655 Clouds 14 1025 76 10000 5.7 240 19:36 10.03.2020
6656 Clouds 15 1025 67 10000 6.7 240 19:18 10.03.2020
6657 Clouds 15 1025 67 10000 6.2 230 18:43 10.03.2020
6658 Clouds 15 1024 72 10000 6.7 230 18:25 10.03.2020
6659 Clouds 16 1024 72 10000 6.2 240 17:57 10.03.2020
6660 Clouds 16 1025 67 10000 7.7 220 17:38 10.03.2020
6661 Clouds 16 1025 67 10000 7.2 220 17:20 10.03.2020
6662 Clouds 16 1025 63 10000 8.2 220 16:38 10.03.2020
6663 Clouds 16 1025 63 10000 8.2 220 16:18 10.03.2020
6664 Clouds 16 1025 63 10000 8.7 220 15:55 10.03.2020
6665 Clouds 16 1025 63 10000 8.7 220 15:55 10.03.2020
6666 Clouds 16 1025 63 10000 8.7 220 15:37 10.03.2020
6667 Clouds 16 1025 63 10000 8.7 220 15:18 10.03.2020
6668 Clouds 17 1026 59 10000 8.2 210 14:41 10.03.2020
6669 Clouds 17 1026 59 10000 8.2 210 14:20 10.03.2020
6670 Clouds 17 1026 59 10000 9.3 210 13:57 10.03.2020
6671 Clouds 16 1026 59 10000 7.7 210 13:38 10.03.2020
6672 Clouds 16 1026 55 10000 7.7 220 13:19 10.03.2020
6673 Clouds 16 1027 55 10000 6.2 220 12:41 10.03.2020
6674 Clouds 16 1027 58 10000 4.6 210 12:19 10.03.2020
6675 Clouds 16 1027 58 10000 4.6 210 11:57 10.03.2020
6676 Clouds 16 1027 58 10000 2.6 220 11:39 10.03.2020
6677 Clouds 15 1027 58 10000 0.5 240 11:20 10.03.2020
6678 Clouds 14 1027 67 10000 0.5 40 10:41 10.03.2020
6679 Clouds 14 1027 67 10000 0.5 40 10:23 10.03.2020
6680 Clouds 13 1027 71 10000 1 0 09:57 10.03.2020
6681 Clouds 12 1026 76 10000 1 0 09:39 10.03.2020
6682 Clouds 11 1026 81 10000 1.5 360 09:19 10.03.2020
6683 Clouds 10 1025 81 10000 1.5 10 08:46 10.03.2020
6684 Clouds 10 1025 81 10000 1.5 10 08:28 10.03.2020
6685 Clouds 8 1025 87 10000 2.1 360 07:50 10.03.2020
6686 Clouds 9 1025 87 10000 1.5 20 07:31 10.03.2020
6687 Clouds 9 1025 87 10000 1.5 20 06:45 10.03.2020
6688 Clouds 9 1024 93 10000 3.1 350 06:27 10.03.2020</